﻿<?xml version="1.0" encoding="utf-8"?><gpx creator="Garmin Desktop App" version="1.1" xsi:schemaLocation="http://www.topografix.com/GPX/1/1 http://www.topografix.com/GPX/1/1/gpx.xsd http://www.garmin.com/xmlschemas/WaypointExtension/v1 http://www8.garmin.com/xmlschemas/WaypointExtensionv1.xsd http://www.garmin.com/xmlschemas/TrackPointExtension/v1 http://www.garmin.com/xmlschemas/TrackPointExtensionv1.xsd http://www.garmin.com/xmlschemas/GpxExtensions/v3 http://www8.garmin.com/xmlschemas/GpxExtensionsv3.xsd http://www.garmin.com/xmlschemas/ActivityExtension/v1 http://www8.garmin.com/xmlschemas/ActivityExtensionv1.xsd http://www.garmin.com/xmlschemas/AdventuresExtensions/v1 http://www8.garmin.com/xmlschemas/AdventuresExtensionv1.xsd http://www.garmin.com/xmlschemas/PressureExtension/v1 http://www.garmin.com/xmlschemas/PressureExtensionv1.xsd http://www.garmin.com/xmlschemas/TripExtensions/v1 http://www.garmin.com/xmlschemas/TripExtensionsv1.xsd http://www.garmin.com/xmlschemas/TripMetaDataExtensions/v1 http://www.garmin.com/xmlschemas/TripMetaDataExtensionsv1.xsd http://www.garmin.com/xmlschemas/ViaPointTransportationModeExtensions/v1 http://www.garmin.com/xmlschemas/ViaPointTransportationModeExtensionsv1.xsd http://www.garmin.com/xmlschemas/CreationTimeExtension/v1 http://www.garmin.com/xmlschemas/CreationTimeExtensionsv1.xsd http://www.garmin.com/xmlschemas/AccelerationExtension/v1 http://www.garmin.com/xmlschemas/AccelerationExtensionv1.xsd http://www.garmin.com/xmlschemas/PowerExtension/v1 http://www.garmin.com/xmlschemas/PowerExtensionv1.xsd http://www.garmin.com/xmlschemas/VideoExtension/v1 http://www.garmin.com/xmlschemas/VideoExtensionv1.xsd" xmlns="http://www.topografix.com/GPX/1/1" xmlns:xsi="http://www.w3.org/2001/XMLSchema-instance" xmlns:wptx1="http://www.garmin.com/xmlschemas/WaypointExtension/v1" xmlns:gpxtrx="http://www.garmin.com/xmlschemas/GpxExtensions/v3" xmlns:gpxtpx="http://www.garmin.com/xmlschemas/TrackPointExtension/v1" xmlns:gpxx="http://www.garmin.com/xmlschemas/GpxExtensions/v3" xmlns:trp="http://www.garmin.com/xmlschemas/TripExtensions/v1" xmlns:adv="http://www.garmin.com/xmlschemas/AdventuresExtensions/v1" xmlns:prs="http://www.garmin.com/xmlschemas/PressureExtension/v1" xmlns:tmd="http://www.garmin.com/xmlschemas/TripMetaDataExtensions/v1" xmlns:vptm="http://www.garmin.com/xmlschemas/ViaPointTransportationModeExtensions/v1" xmlns:ctx="http://www.garmin.com/xmlschemas/CreationTimeExtension/v1" xmlns:gpxacc="http://www.garmin.com/xmlschemas/AccelerationExtension/v1" xmlns:gpxpx="http://www.garmin.com/xmlschemas/PowerExtension/v1" xmlns:vidx1="http://www.garmin.com/xmlschemas/VideoExtension/v1">

  <metadata>
    <link href="http://www.garmin.com">
      <text>Garmin International</text>
    </link>
    <time>2026-07-07T18:36:37Z</time>
    <bounds maxlat="55.236636037006974" maxlon="-5.439241016283631" minlat="54.488993994891644" minlon="-6.968069979920983" />
  </metadata>

  <trk>
    <name>Track vom: 2026-07-07 09:10</name>
    <extensions>
      <gpxx:TrackExtension>
        <gpxx:DisplayColor>DarkGray</gpxx:DisplayColor>
      </gpxx:TrackExtension>
    </extensions>
    <trkseg>
      <trkpt lat="55.191418016329408" lon="-6.968069979920983">
        <ele>3.5</ele>
        <time>2026-07-07T08:10:10Z</time>
      </trkpt>
      <trkpt lat="55.191281978040934" lon="-6.96737403050065">
        <ele>3.02</ele>
        <time>2026-07-07T08:10:38Z</time>
      </trkpt>
      <trkpt lat="55.191281978040934" lon="-6.96737403050065">
        <ele>7.35</ele>
        <time>2026-07-07T08:11:06Z</time>
      </trkpt>
      <trkpt lat="55.191281978040934" lon="-6.96737403050065">
        <ele>8.310000000000001</ele>
        <time>2026-07-07T08:11:51Z</time>
      </trkpt>
      <trkpt lat="55.191163960844278" lon="-6.96675100363791">
        <ele>6.39</ele>
        <time>2026-07-07T08:12:13Z</time>
      </trkpt>
      <trkpt lat="55.191009985283017" lon="-6.965550966560841">
        <ele>7.35</ele>
        <time>2026-07-07T08:12:21Z</time>
      </trkpt>
      <trkpt lat="55.190968997776508" lon="-6.965228011831641">
        <ele>7.35</ele>
        <time>2026-07-07T08:12:24Z</time>
      </trkpt>
      <trkpt lat="55.190957011654973" lon="-6.965138996019959">
        <ele>7.35</ele>
        <time>2026-07-07T08:12:25Z</time>
      </trkpt>
      <trkpt lat="55.190962962806225" lon="-6.965027013793588">
        <ele>7.35</ele>
        <time>2026-07-07T08:12:27Z</time>
      </trkpt>
      <trkpt lat="55.190965980291367" lon="-6.964974962174892">
        <ele>7.83</ele>
        <time>2026-07-07T08:12:28Z</time>
      </trkpt>
      <trkpt lat="55.190968997776508" lon="-6.964933974668384">
        <ele>7.83</ele>
        <time>2026-07-07T08:12:29Z</time>
      </trkpt>
      <trkpt lat="55.190976960584521" lon="-6.964788967743516">
        <ele>7.83</ele>
        <time>2026-07-07T08:12:37Z</time>
      </trkpt>
      <trkpt lat="55.190977966412902" lon="-6.964759966358542">
        <ele>7.83</ele>
        <time>2026-07-07T08:12:38Z</time>
      </trkpt>
      <trkpt lat="55.190978972241282" lon="-6.96475300937891">
        <ele>7.83</ele>
        <time>2026-07-07T08:12:39Z</time>
      </trkpt>
      <trkpt lat="55.190976038575172" lon="-6.964750997722149">
        <ele>7.83</ele>
        <time>2026-07-07T08:12:40Z</time>
      </trkpt>
      <trkpt lat="55.190945025533438" lon="-6.96473297663033">
        <ele>7.83</ele>
        <time>2026-07-07T08:12:41Z</time>
      </trkpt>
      <trkpt lat="55.190902026370168" lon="-6.964706992730498">
        <ele>7.35</ele>
        <time>2026-07-07T08:12:42Z</time>
      </trkpt>
      <trkpt lat="55.190431969240308" lon="-6.964401975274086">
        <ele>7.35</ele>
        <time>2026-07-07T08:12:48Z</time>
      </trkpt>
      <trkpt lat="55.190329039469361" lon="-6.964333998039365">
        <ele>7.83</ele>
        <time>2026-07-07T08:12:49Z</time>
      </trkpt>
      <trkpt lat="55.1902199909091" lon="-6.964260991662741">
        <ele>8.310000000000001</ele>
        <time>2026-07-07T08:12:50Z</time>
      </trkpt>
      <trkpt lat="55.190107002854347" lon="-6.964178010821343">
        <ele>8.310000000000001</ele>
        <time>2026-07-07T08:12:51Z</time>
      </trkpt>
      <trkpt lat="55.190001977607608" lon="-6.964039960876107">
        <ele>8.789999999999999</ele>
        <time>2026-07-07T08:12:52Z</time>
      </trkpt>
      <trkpt lat="55.189893012866378" lon="-6.96389595977962">
        <ele>8.789999999999999</ele>
        <time>2026-07-07T08:12:53Z</time>
      </trkpt>
      <trkpt lat="55.188760031014681" lon="-6.96241001598537">
        <ele>7.83</ele>
        <time>2026-07-07T08:13:04Z</time>
      </trkpt>
      <trkpt lat="55.188646037131548" lon="-6.962298033758998">
        <ele>7.83</ele>
        <time>2026-07-07T08:13:05Z</time>
      </trkpt>
      <trkpt lat="55.188529025763273" lon="-6.962187979370356">
        <ele>7.83</ele>
        <time>2026-07-07T08:13:06Z</time>
      </trkpt>
      <trkpt lat="55.188407991081476" lon="-6.962086977437139">
        <ele>8.310000000000001</ele>
        <time>2026-07-07T08:13:07Z</time>
      </trkpt>
      <trkpt lat="55.188275976106524" lon="-6.96204598993063">
        <ele>8.789999999999999</ele>
        <time>2026-07-07T08:13:08Z</time>
      </trkpt>
      <trkpt lat="55.188143961131573" lon="-6.962006008252502">
        <ele>9.27</ele>
        <time>2026-07-07T08:13:09Z</time>
      </trkpt>
      <trkpt lat="55.18667696043849" lon="-6.961778020486236">
        <ele>10.710000000000001</ele>
        <time>2026-07-07T08:13:20Z</time>
      </trkpt>
      <trkpt lat="55.186557015404105" lon="-6.961698979139328">
        <ele>10.710000000000001</ele>
        <time>2026-07-07T08:13:21Z</time>
      </trkpt>
      <trkpt lat="55.186435980722308" lon="-6.961619015783072">
        <ele>10.710000000000001</ele>
        <time>2026-07-07T08:13:22Z</time>
      </trkpt>
      <trkpt lat="55.185086997225881" lon="-6.961002023890615">
        <ele>9.75</ele>
        <time>2026-07-07T08:13:32Z</time>
      </trkpt>
      <trkpt lat="55.182644007727504" lon="-6.960269026458263">
        <ele>9.27</ele>
        <time>2026-07-07T08:13:49Z</time>
      </trkpt>
      <trkpt lat="55.181501973420382" lon="-6.959829982370138">
        <ele>8.310000000000001</ele>
        <time>2026-07-07T08:13:57Z</time>
      </trkpt>
      <trkpt lat="55.1813680306077" lon="-6.959854960441589">
        <ele>8.310000000000001</ele>
        <time>2026-07-07T08:13:58Z</time>
      </trkpt>
      <trkpt lat="55.181235009804368" lon="-6.959901982918382">
        <ele>8.310000000000001</ele>
        <time>2026-07-07T08:13:59Z</time>
      </trkpt>
      <trkpt lat="55.180871989578009" lon="-6.960031986236572">
        <ele>7.83</ele>
        <time>2026-07-07T08:14:02Z</time>
      </trkpt>
      <trkpt lat="55.180760007351637" lon="-6.960003990679979">
        <ele>7.83</ele>
        <time>2026-07-07T08:14:03Z</time>
      </trkpt>
      <trkpt lat="55.180665040388703" lon="-6.959945987910032">
        <ele>7.83</ele>
        <time>2026-07-07T08:14:04Z</time>
      </trkpt>
      <trkpt lat="55.180570995435119" lon="-6.959831994026899">
        <ele>7.83</ele>
        <time>2026-07-07T08:14:05Z</time>
      </trkpt>
      <trkpt lat="55.18046697601676" lon="-6.959705008193851">
        <ele>7.83</ele>
        <time>2026-07-07T08:14:06Z</time>
      </trkpt>
      <trkpt lat="55.180361028760672" lon="-6.959557989612222">
        <ele>7.83</ele>
        <time>2026-07-07T08:14:07Z</time>
      </trkpt>
      <trkpt lat="55.17909100279212" lon="-6.957370983436704">
        <ele>7.83</ele>
        <time>2026-07-07T08:14:19Z</time>
      </trkpt>
      <trkpt lat="55.178573001176119" lon="-6.956484010443091">
        <ele>6.87</ele>
        <time>2026-07-07T08:14:26Z</time>
      </trkpt>
      <trkpt lat="55.178474010899663" lon="-6.956315031275153">
        <ele>7.35</ele>
        <time>2026-07-07T08:14:35Z</time>
      </trkpt>
      <trkpt lat="55.178474010899663" lon="-6.956315031275153">
        <ele>7.35</ele>
        <time>2026-07-07T08:15:22Z</time>
      </trkpt>
      <trkpt lat="55.178273012861609" lon="-6.955972965806723">
        <ele>7.35</ele>
        <time>2026-07-07T08:15:38Z</time>
      </trkpt>
      <trkpt lat="55.177487963810563" lon="-6.954630017280579">
        <ele>9.27</ele>
        <time>2026-07-07T08:15:47Z</time>
      </trkpt>
      <trkpt lat="55.17599799670279" lon="-6.952084014192224">
        <ele>9.75</ele>
        <time>2026-07-07T08:16:01Z</time>
      </trkpt>
      <trkpt lat="55.175761040300131" lon="-6.951726023107767">
        <ele>9.75</ele>
        <time>2026-07-07T08:16:03Z</time>
      </trkpt>
      <trkpt lat="55.174230001866817" lon="-6.9495830219239">
        <ele>10.23</ele>
        <time>2026-07-07T08:16:15Z</time>
      </trkpt>
      <trkpt lat="55.172993000596762" lon="-6.947851991280913">
        <ele>8.789999999999999</ele>
        <time>2026-07-07T08:16:24Z</time>
      </trkpt>
      <trkpt lat="55.171665977686644" lon="-6.945967990905047">
        <ele>8.310000000000001</ele>
        <time>2026-07-07T08:16:34Z</time>
      </trkpt>
      <trkpt lat="55.169923966750503" lon="-6.94337303750217">
        <ele>7.83</ele>
        <time>2026-07-07T08:16:49Z</time>
      </trkpt>
      <trkpt lat="55.168453026562929" lon="-6.941179996356368">
        <ele>6.87</ele>
        <time>2026-07-07T08:17:00Z</time>
      </trkpt>
      <trkpt lat="55.166251016780734" lon="-6.937555996701121">
        <ele>7.83</ele>
        <time>2026-07-07T08:17:16Z</time>
      </trkpt>
      <trkpt lat="55.164303984493017" lon="-6.934278002008796">
        <ele>7.83</ele>
        <time>2026-07-07T08:17:31Z</time>
      </trkpt>
      <trkpt lat="55.162586029618979" lon="-6.931077037006617">
        <ele>7.83</ele>
        <time>2026-07-07T08:17:45Z</time>
      </trkpt>
      <trkpt lat="55.160289974883199" lon="-6.927179032936692">
        <ele>8.310000000000001</ele>
        <time>2026-07-07T08:18:03Z</time>
      </trkpt>
      <trkpt lat="55.159951010718942" lon="-6.926536979153752">
        <ele>7.83</ele>
        <time>2026-07-07T08:18:07Z</time>
      </trkpt>
      <trkpt lat="55.159864006564021" lon="-6.926488028839231">
        <ele>7.83</ele>
        <time>2026-07-07T08:18:08Z</time>
      </trkpt>
      <trkpt lat="55.159792006015778" lon="-6.926447963342071">
        <ele>7.35</ele>
        <time>2026-07-07T08:18:09Z</time>
      </trkpt>
      <trkpt lat="55.159734003245831" lon="-6.926452992483974">
        <ele>7.35</ele>
        <time>2026-07-07T08:18:10Z</time>
      </trkpt>
      <trkpt lat="55.159655967727304" lon="-6.926531028002501">
        <ele>7.35</ele>
        <time>2026-07-07T08:18:11Z</time>
      </trkpt>
      <trkpt lat="55.159563012421131" lon="-6.926623983308673">
        <ele>7.35</ele>
        <time>2026-07-07T08:18:12Z</time>
      </trkpt>
      <trkpt lat="55.159458993002772" lon="-6.926728002727032">
        <ele>7.35</ele>
        <time>2026-07-07T08:18:13Z</time>
      </trkpt>
      <trkpt lat="55.158372027799487" lon="-6.9278400298208">
        <ele>6.39</ele>
        <time>2026-07-07T08:18:21Z</time>
      </trkpt>
      <trkpt lat="55.155766010284424" lon="-6.930576972663403">
        <ele>7.83</ele>
        <time>2026-07-07T08:18:38Z</time>
      </trkpt>
      <trkpt lat="55.153771033510566" lon="-6.93267404101789">
        <ele>5.91</ele>
        <time>2026-07-07T08:18:52Z</time>
      </trkpt>
      <trkpt lat="55.153636001050472" lon="-6.932730032131076">
        <ele>6.39</ele>
        <time>2026-07-07T08:18:53Z</time>
      </trkpt>
      <trkpt lat="55.15348101966083" lon="-6.932793986052275">
        <ele>6.39</ele>
        <time>2026-07-07T08:18:54Z</time>
      </trkpt>
      <trkpt lat="55.152587005868554" lon="-6.933292038738728">
        <ele>6.39</ele>
        <time>2026-07-07T08:19:00Z</time>
      </trkpt>
      <trkpt lat="55.152438981458545" lon="-6.933330008760095">
        <ele>6.39</ele>
        <time>2026-07-07T08:19:01Z</time>
      </trkpt>
      <trkpt lat="55.151989962905645" lon="-6.933446014299989">
        <ele>5.91</ele>
        <time>2026-07-07T08:19:04Z</time>
      </trkpt>
      <trkpt lat="55.151836993172765" lon="-6.933538969606161">
        <ele>5.91</ele>
        <time>2026-07-07T08:19:05Z</time>
      </trkpt>
      <trkpt lat="55.150160025805235" lon="-6.934462990611792">
        <ele>5.42</ele>
        <time>2026-07-07T08:19:16Z</time>
      </trkpt>
      <trkpt lat="55.1488839648664" lon="-6.935031032189727">
        <ele>5.42</ele>
        <time>2026-07-07T08:19:26Z</time>
      </trkpt>
      <trkpt lat="55.148770976811647" lon="-6.935076965019107">
        <ele>5.42</ele>
        <time>2026-07-07T08:19:27Z</time>
      </trkpt>
      <trkpt lat="55.148665029555559" lon="-6.935045029968023">
        <ele>5.42</ele>
        <time>2026-07-07T08:19:28Z</time>
      </trkpt>
      <trkpt lat="55.1485610101372" lon="-6.935014016926289">
        <ele>5.42</ele>
        <time>2026-07-07T08:19:29Z</time>
      </trkpt>
      <trkpt lat="55.148467971011996" lon="-6.934950985014439">
        <ele>5.42</ele>
        <time>2026-07-07T08:19:30Z</time>
      </trkpt>
      <trkpt lat="55.148371998220682" lon="-6.934885019436479">
        <ele>5.42</ele>
        <time>2026-07-07T08:19:31Z</time>
      </trkpt>
      <trkpt lat="55.147833963856101" lon="-6.934412028640509">
        <ele>7.35</ele>
        <time>2026-07-07T08:19:39Z</time>
      </trkpt>
      <trkpt lat="55.147783001884818" lon="-6.934372968971729">
        <ele>8.310000000000001</ele>
        <time>2026-07-07T08:19:46Z</time>
      </trkpt>
      <trkpt lat="55.147732039913535" lon="-6.934194015339017">
        <ele>8.789999999999999</ele>
        <time>2026-07-07T08:19:48Z</time>
      </trkpt>
      <trkpt lat="55.14774302020669" lon="-6.934077003970742">
        <ele>8.789999999999999</ele>
        <time>2026-07-07T08:19:49Z</time>
      </trkpt>
      <trkpt lat="55.147757017984986" lon="-6.933925962075591">
        <ele>9.27</ele>
        <time>2026-07-07T08:19:50Z</time>
      </trkpt>
      <trkpt lat="55.147886015474796" lon="-6.932344967499375">
        <ele>8.310000000000001</ele>
        <time>2026-07-07T08:19:57Z</time>
      </trkpt>
      <trkpt lat="55.148244006559253" lon="-6.928247977048159">
        <ele>6.39</ele>
        <time>2026-07-07T08:20:13Z</time>
      </trkpt>
      <trkpt lat="55.148637033998966" lon="-6.923891985788941">
        <ele>6.39</ele>
        <time>2026-07-07T08:20:30Z</time>
      </trkpt>
      <trkpt lat="55.149069037288427" lon="-6.919127041473985">
        <ele>5.91</ele>
        <time>2026-07-07T08:20:45Z</time>
      </trkpt>
      <trkpt lat="55.149576980620623" lon="-6.913322992622852">
        <ele>6.87</ele>
        <time>2026-07-07T08:21:03Z</time>
      </trkpt>
      <trkpt lat="55.150047037750483" lon="-6.907881963998079">
        <ele>5.91</ele>
        <time>2026-07-07T08:21:20Z</time>
      </trkpt>
      <trkpt lat="55.150542994961143" lon="-6.90184598788619">
        <ele>5.91</ele>
        <time>2026-07-07T08:21:39Z</time>
      </trkpt>
      <trkpt lat="55.151010034605861" lon="-6.896145958453417">
        <ele>4.94</ele>
        <time>2026-07-07T08:21:57Z</time>
      </trkpt>
      <trkpt lat="55.15124598518014" lon="-6.89333600923419">
        <ele>3.5</ele>
        <time>2026-07-07T08:22:06Z</time>
      </trkpt>
      <trkpt lat="55.151302982121706" lon="-6.893106009811163">
        <ele>3.5</ele>
        <time>2026-07-07T08:22:07Z</time>
      </trkpt>
      <trkpt lat="55.151369031518698" lon="-6.892876010388136">
        <ele>3.5</ele>
        <time>2026-07-07T08:22:08Z</time>
      </trkpt>
      <trkpt lat="55.152258016169071" lon="-6.890653967857361">
        <ele>4.46</ele>
        <time>2026-07-07T08:22:17Z</time>
      </trkpt>
      <trkpt lat="55.152839971706271" lon="-6.889431970193982">
        <ele>3.98</ele>
        <time>2026-07-07T08:22:23Z</time>
      </trkpt>
      <trkpt lat="55.152952959761024" lon="-6.889300039038062">
        <ele>3.98</ele>
        <time>2026-07-07T08:22:24Z</time>
      </trkpt>
      <trkpt lat="55.153076006099582" lon="-6.8891909904778">
        <ele>4.46</ele>
        <time>2026-07-07T08:22:25Z</time>
      </trkpt>
      <trkpt lat="55.154669992625713" lon="-6.887801019474864">
        <ele>5.91</ele>
        <time>2026-07-07T08:22:36Z</time>
      </trkpt>
      <trkpt lat="55.15713200904429" lon="-6.88568601384759">
        <ele>6.39</ele>
        <time>2026-07-07T08:22:51Z</time>
      </trkpt>
      <trkpt lat="55.159366959705949" lon="-6.88375499099493">
        <ele>5.91</ele>
        <time>2026-07-07T08:23:05Z</time>
      </trkpt>
      <trkpt lat="55.159768033772707" lon="-6.883392976596952">
        <ele>6.87</ele>
        <time>2026-07-07T08:23:08Z</time>
      </trkpt>
      <trkpt lat="55.159871969372034" lon="-6.883216034621">
        <ele>6.87</ele>
        <time>2026-07-07T08:23:09Z</time>
      </trkpt>
      <trkpt lat="55.159967020153999" lon="-6.883018976077437">
        <ele>7.35</ele>
        <time>2026-07-07T08:23:10Z</time>
      </trkpt>
      <trkpt lat="55.160062992945313" lon="-6.882820995524526">
        <ele>7.35</ele>
        <time>2026-07-07T08:23:11Z</time>
      </trkpt>
      <trkpt lat="55.160133987665176" lon="-6.882599964737892">
        <ele>7.35</ele>
        <time>2026-07-07T08:23:12Z</time>
      </trkpt>
      <trkpt lat="55.160187967121601" lon="-6.882365019991994">
        <ele>7.35</ele>
        <time>2026-07-07T08:23:13Z</time>
      </trkpt>
      <trkpt lat="55.160232977941632" lon="-6.882128985598683">
        <ele>7.35</ele>
        <time>2026-07-07T08:23:14Z</time>
      </trkpt>
      <trkpt lat="55.160247981548309" lon="-6.881880965083838">
        <ele>6.87</ele>
        <time>2026-07-07T08:23:15Z</time>
      </trkpt>
      <trkpt lat="55.160259967669845" lon="-6.88162699341774">
        <ele>6.87</ele>
        <time>2026-07-07T08:23:16Z</time>
      </trkpt>
      <trkpt lat="55.160375973209739" lon="-6.879233038052917">
        <ele>4.94</ele>
        <time>2026-07-07T08:23:25Z</time>
      </trkpt>
      <trkpt lat="55.160595998167992" lon="-6.875518010929227">
        <ele>2.06</ele>
        <time>2026-07-07T08:23:37Z</time>
      </trkpt>
      <trkpt lat="55.160817028954625" lon="-6.872289972379804">
        <ele>0.62</ele>
        <time>2026-07-07T08:23:47Z</time>
      </trkpt>
      <trkpt lat="55.161102013662457" lon="-6.869052965193987">
        <ele>-1.79</ele>
        <time>2026-07-07T08:23:57Z</time>
      </trkpt>
      <trkpt lat="55.161483976989985" lon="-6.865859040990472">
        <ele>-5.15</ele>
        <time>2026-07-07T08:24:07Z</time>
      </trkpt>
      <trkpt lat="55.161757981404662" lon="-6.864815996959806">
        <ele>-5.63</ele>
        <time>2026-07-07T08:24:11Z</time>
      </trkpt>
      <trkpt lat="55.161799974739552" lon="-6.864564958959818">
        <ele>-6.11</ele>
        <time>2026-07-07T08:24:12Z</time>
      </trkpt>
      <trkpt lat="55.16184096224606" lon="-6.864321967586875">
        <ele>-5.63</ele>
        <time>2026-07-07T08:24:13Z</time>
      </trkpt>
      <trkpt lat="55.16186099499464" lon="-6.864076964557171">
        <ele>-5.63</ele>
        <time>2026-07-07T08:24:14Z</time>
      </trkpt>
      <trkpt lat="55.16186099499464" lon="-6.86383799649775">
        <ele>-6.11</ele>
        <time>2026-07-07T08:24:15Z</time>
      </trkpt>
      <trkpt lat="55.161873986944556" lon="-6.863144980743527">
        <ele>-6.11</ele>
        <time>2026-07-07T08:24:18Z</time>
      </trkpt>
      <trkpt lat="55.16188102774322" lon="-6.862905006855726">
        <ele>-6.11</ele>
        <time>2026-07-07T08:24:19Z</time>
      </trkpt>
      <trkpt lat="55.161918997764587" lon="-6.862638965249062">
        <ele>-6.11</ele>
        <time>2026-07-07T08:24:20Z</time>
      </trkpt>
      <trkpt lat="55.1623759791255" lon="-6.86003596521914">
        <ele>-4.67</ele>
        <time>2026-07-07T08:24:29Z</time>
      </trkpt>
      <trkpt lat="55.162846958264709" lon="-6.857127025723457">
        <ele>-4.19</ele>
        <time>2026-07-07T08:24:38Z</time>
      </trkpt>
      <trkpt lat="55.163260018453002" lon="-6.854997016489506">
        <ele>-4.67</ele>
        <time>2026-07-07T08:24:45Z</time>
      </trkpt>
      <trkpt lat="55.163957979530096" lon="-6.851984979584813">
        <ele>-5.15</ele>
        <time>2026-07-07T08:24:55Z</time>
      </trkpt>
      <trkpt lat="55.164568014442921" lon="-6.847453974187374">
        <ele>-1.3</ele>
        <time>2026-07-07T08:25:09Z</time>
      </trkpt>
      <trkpt lat="55.165021978318691" lon="-6.843736013397574">
        <ele>3.5</ele>
        <time>2026-07-07T08:25:21Z</time>
      </trkpt>
      <trkpt lat="55.165493963286281" lon="-6.840088041499257">
        <ele>6.39</ele>
        <time>2026-07-07T08:25:33Z</time>
      </trkpt>
      <trkpt lat="55.165922027081251" lon="-6.836195988580585">
        <ele>8.310000000000001</ele>
        <time>2026-07-07T08:25:46Z</time>
      </trkpt>
      <trkpt lat="55.166155965998769" lon="-6.832799976691604">
        <ele>4.94</ele>
        <time>2026-07-07T08:25:57Z</time>
      </trkpt>
      <trkpt lat="55.166371967643499" lon="-6.828846987336874">
        <ele>4.46</ele>
        <time>2026-07-07T08:26:10Z</time>
      </trkpt>
      <trkpt lat="55.166409015655518" lon="-6.826845975592732">
        <ele>4.46</ele>
        <time>2026-07-07T08:26:18Z</time>
      </trkpt>
      <trkpt lat="55.166400969028473" lon="-6.825923966243863">
        <ele>3.98</ele>
        <time>2026-07-07T08:26:26Z</time>
      </trkpt>
      <trkpt lat="55.166387977078557" lon="-6.824357975274324">
        <ele>4.94</ele>
        <time>2026-07-07T08:26:33Z</time>
      </trkpt>
      <trkpt lat="55.166359981521964" lon="-6.822583023458719">
        <ele>5.42</ele>
        <time>2026-07-07T08:26:40Z</time>
      </trkpt>
      <trkpt lat="55.165962008759379" lon="-6.820342037826777">
        <ele>3.02</ele>
        <time>2026-07-07T08:26:51Z</time>
      </trkpt>
      <trkpt lat="55.165896965190768" lon="-6.820141039788723">
        <ele>3.5</ele>
        <time>2026-07-07T08:26:52Z</time>
      </trkpt>
      <trkpt lat="55.165799986571074" lon="-6.819988992065191">
        <ele>3.98</ele>
        <time>2026-07-07T08:26:53Z</time>
      </trkpt>
      <trkpt lat="55.165696972981095" lon="-6.819829987362027">
        <ele>4.46</ele>
        <time>2026-07-07T08:26:54Z</time>
      </trkpt>
      <trkpt lat="55.165593037381768" lon="-6.819666959345341">
        <ele>5.42</ele>
        <time>2026-07-07T08:26:55Z</time>
      </trkpt>
      <trkpt lat="55.164504982531071" lon="-6.817870968952775">
        <ele>18.879999999999999</ele>
        <time>2026-07-07T08:27:05Z</time>
      </trkpt>
      <trkpt lat="55.163289019837976" lon="-6.815419010818005">
        <ele>36.670000000000002</ele>
        <time>2026-07-07T08:27:17Z</time>
      </trkpt>
      <trkpt lat="55.162060987204313" lon="-6.81340903043747">
        <ele>53.969999999999999</ele>
        <time>2026-07-07T08:27:28Z</time>
      </trkpt>
      <trkpt lat="55.160685013979673" lon="-6.810741992667317">
        <ele>65.030000000000001</ele>
        <time>2026-07-07T08:27:41Z</time>
      </trkpt>
      <trkpt lat="55.159999039024115" lon="-6.808659005910158">
        <ele>59.740000000000002</ele>
        <time>2026-07-07T08:27:49Z</time>
      </trkpt>
      <trkpt lat="55.159539040178061" lon="-6.805864982306957">
        <ele>50.609999999999999</ele>
        <time>2026-07-07T08:27:59Z</time>
      </trkpt>
      <trkpt lat="55.158952977508307" lon="-6.80294900201261">
        <ele>54.93</ele>
        <time>2026-07-07T08:28:09Z</time>
      </trkpt>
      <trkpt lat="55.157770961523056" lon="-6.799346962943673">
        <ele>57.340000000000003</ele>
        <time>2026-07-07T08:28:22Z</time>
      </trkpt>
      <trkpt lat="55.156557010486722" lon="-6.795607041567564">
        <ele>55.890000000000001</ele>
        <time>2026-07-07T08:28:35Z</time>
      </trkpt>
      <trkpt lat="55.155384968966246" lon="-6.791464034467936">
        <ele>49.159999999999997</ele>
        <time>2026-07-07T08:28:49Z</time>
      </trkpt>
      <trkpt lat="55.154802007600665" lon="-6.788689037784934">
        <ele>43.399999999999999</ele>
        <time>2026-07-07T08:29:00Z</time>
      </trkpt>
      <trkpt lat="55.15414503403008" lon="-6.786307990550995">
        <ele>42.439999999999998</ele>
        <time>2026-07-07T08:29:09Z</time>
      </trkpt>
      <trkpt lat="55.152821028605103" lon="-6.783688981086016">
        <ele>40.030000000000001</ele>
        <time>2026-07-07T08:29:20Z</time>
      </trkpt>
      <trkpt lat="55.151681005954742" lon="-6.781616974622011">
        <ele>43.880000000000003</ele>
        <time>2026-07-07T08:29:30Z</time>
      </trkpt>
      <trkpt lat="55.150568978860974" lon="-6.779761975631118">
        <ele>44.840000000000003</ele>
        <time>2026-07-07T08:29:41Z</time>
      </trkpt>
      <trkpt lat="55.14976398088038" lon="-6.778544001281261">
        <ele>43.399999999999999</ele>
        <time>2026-07-07T08:29:51Z</time>
      </trkpt>
      <trkpt lat="55.148605015128851" lon="-6.776784975081682">
        <ele>41.469999999999999</ele>
        <time>2026-07-07T08:30:05Z</time>
      </trkpt>
      <trkpt lat="55.14727396890521" lon="-6.774659994989634">
        <ele>39.07</ele>
        <time>2026-07-07T08:30:21Z</time>
      </trkpt>
      <trkpt lat="55.14617501758039" lon="-6.772880014032126">
        <ele>40.030000000000001</ele>
        <time>2026-07-07T08:30:34Z</time>
      </trkpt>
      <trkpt lat="55.145650980994105" lon="-6.771532036364079">
        <ele>40.509999999999998</ele>
        <time>2026-07-07T08:30:43Z</time>
      </trkpt>
      <trkpt lat="55.145219983533025" lon="-6.769318962469697">
        <ele>39.549999999999997</ele>
        <time>2026-07-07T08:30:54Z</time>
      </trkpt>
      <trkpt lat="55.144654959440231" lon="-6.766152027994394">
        <ele>32.82</ele>
        <time>2026-07-07T08:31:07Z</time>
      </trkpt>
      <trkpt lat="55.144041990861297" lon="-6.762848971411586">
        <ele>34.740000000000002</ele>
        <time>2026-07-07T08:31:21Z</time>
      </trkpt>
      <trkpt lat="55.143561959266663" lon="-6.760262986645103">
        <ele>32.82</ele>
        <time>2026-07-07T08:31:30Z</time>
      </trkpt>
      <trkpt lat="55.142868021503091" lon="-6.756445029750466">
        <ele>28.5</ele>
        <time>2026-07-07T08:31:42Z</time>
      </trkpt>
      <trkpt lat="55.14213602989912" lon="-6.75252003595233">
        <ele>29.940000000000001</ele>
        <time>2026-07-07T08:31:55Z</time>
      </trkpt>
      <trkpt lat="55.141237992793322" lon="-6.748298993334174">
        <ele>28.98</ele>
        <time>2026-07-07T08:32:09Z</time>
      </trkpt>
      <trkpt lat="55.140077015385032" lon="-6.743518961593509">
        <ele>34.259999999999998</ele>
        <time>2026-07-07T08:32:25Z</time>
      </trkpt>
      <trkpt lat="55.139760011807084" lon="-6.742401989176869">
        <ele>36.670000000000002</ele>
        <time>2026-07-07T08:32:29Z</time>
      </trkpt>
      <trkpt lat="55.138666005805135" lon="-6.739449966698885">
        <ele>45.32</ele>
        <time>2026-07-07T08:32:40Z</time>
      </trkpt>
      <trkpt lat="55.138123026117682" lon="-6.737785991281271">
        <ele>49.159999999999997</ele>
        <time>2026-07-07T08:32:46Z</time>
      </trkpt>
      <trkpt lat="55.137567976489663" lon="-6.734774960204959">
        <ele>52.049999999999997</ele>
        <time>2026-07-07T08:32:56Z</time>
      </trkpt>
      <trkpt lat="55.137174027040601" lon="-6.731521021574736">
        <ele>52.049999999999997</ele>
        <time>2026-07-07T08:33:06Z</time>
      </trkpt>
      <trkpt lat="55.136445974931121" lon="-6.725529972463846">
        <ele>55.890000000000001</ele>
        <time>2026-07-07T08:33:24Z</time>
      </trkpt>
      <trkpt lat="55.136009026318789" lon="-6.720920009538531">
        <ele>65.510000000000005</ele>
        <time>2026-07-07T08:33:38Z</time>
      </trkpt>
      <trkpt lat="55.135977007448673" lon="-6.717876959592104">
        <ele>63.579999999999998</ele>
        <time>2026-07-07T08:33:47Z</time>
      </trkpt>
      <trkpt lat="55.136203989386559" lon="-6.715386025607586">
        <ele>59.740000000000002</ele>
        <time>2026-07-07T08:33:55Z</time>
      </trkpt>
      <trkpt lat="55.136846965178847" lon="-6.712958961725235">
        <ele>56.859999999999999</ele>
        <time>2026-07-07T08:34:03Z</time>
      </trkpt>
      <trkpt lat="55.137435961514711" lon="-6.710067959502339">
        <ele>53.969999999999999</ele>
        <time>2026-07-07T08:34:12Z</time>
      </trkpt>
      <trkpt lat="55.137898977845907" lon="-6.706145983189344">
        <ele>54.450000000000003</ele>
        <time>2026-07-07T08:34:24Z</time>
      </trkpt>
      <trkpt lat="55.138853006064892" lon="-6.701767025515437">
        <ele>56.859999999999999</ele>
        <time>2026-07-07T08:34:38Z</time>
      </trkpt>
      <trkpt lat="55.139224994927645" lon="-6.700199022889137">
        <ele>58.299999999999997</ele>
        <time>2026-07-07T08:34:43Z</time>
      </trkpt>
      <trkpt lat="55.139261037111282" lon="-6.699866009876132">
        <ele>58.780000000000001</ele>
        <time>2026-07-07T08:34:44Z</time>
      </trkpt>
      <trkpt lat="55.139351980760694" lon="-6.698247967287898">
        <ele>62.140000000000001</ele>
        <time>2026-07-07T08:34:50Z</time>
      </trkpt>
      <trkpt lat="55.139393974095583" lon="-6.695810006931424">
        <ele>65.510000000000005</ele>
        <time>2026-07-07T08:35:00Z</time>
      </trkpt>
      <trkpt lat="55.139466980472207" lon="-6.692438973113895">
        <ele>61.659999999999997</ele>
        <time>2026-07-07T08:35:13Z</time>
      </trkpt>
      <trkpt lat="55.13912801630795" lon="-6.689995983615518">
        <ele>56.859999999999999</ele>
        <time>2026-07-07T08:35:23Z</time>
      </trkpt>
      <trkpt lat="55.138435000553727" lon="-6.688308035954833">
        <ele>50.130000000000003</ele>
        <time>2026-07-07T08:35:31Z</time>
      </trkpt>
      <trkpt lat="55.137373013421893" lon="-6.68722802773118">
        <ele>40.990000000000002</ele>
        <time>2026-07-07T08:35:39Z</time>
      </trkpt>
      <trkpt lat="55.136067029088736" lon="-6.686493018642068">
        <ele>31.379999999999999</ele>
        <time>2026-07-07T08:35:49Z</time>
      </trkpt>
      <trkpt lat="55.135960998013616" lon="-6.686411965638399">
        <ele>29.940000000000001</ele>
        <time>2026-07-07T08:35:50Z</time>
      </trkpt>
      <trkpt lat="55.135742984712124" lon="-6.686246003955603">
        <ele>27.530000000000001</ele>
        <time>2026-07-07T08:35:52Z</time>
      </trkpt>
      <trkpt lat="55.135655980557203" lon="-6.68611298315227">
        <ele>27.050000000000001</ele>
        <time>2026-07-07T08:35:53Z</time>
      </trkpt>
      <trkpt lat="55.135574005544186" lon="-6.685970993712544">
        <ele>26.09</ele>
        <time>2026-07-07T08:35:54Z</time>
      </trkpt>
      <trkpt lat="55.135494964197278" lon="-6.685835039243102">
        <ele>25.609999999999999</ele>
        <time>2026-07-07T08:35:55Z</time>
      </trkpt>
      <trkpt lat="55.135436039417982" lon="-6.685652984306216">
        <ele>25.129999999999999</ele>
        <time>2026-07-07T08:35:56Z</time>
      </trkpt>
      <trkpt lat="55.135388011112809" lon="-6.685453997924924">
        <ele>24.649999999999999</ele>
        <time>2026-07-07T08:35:57Z</time>
      </trkpt>
      <trkpt lat="55.135352974757552" lon="-6.685233972966671">
        <ele>24.170000000000002</ele>
        <time>2026-07-07T08:35:58Z</time>
      </trkpt>
      <trkpt lat="55.135317016392946" lon="-6.685010008513928">
        <ele>24.170000000000002</ele>
        <time>2026-07-07T08:35:59Z</time>
      </trkpt>
      <trkpt lat="55.135275023058057" lon="-6.684752013534308">
        <ele>23.690000000000001</ele>
        <time>2026-07-07T08:36:00Z</time>
      </trkpt>
      <trkpt lat="55.135280974209309" lon="-6.684551015496254">
        <ele>23.690000000000001</ele>
        <time>2026-07-07T08:36:01Z</time>
      </trkpt>
      <trkpt lat="55.135288015007973" lon="-6.684320010244846">
        <ele>23.690000000000001</ele>
        <time>2026-07-07T08:36:02Z</time>
      </trkpt>
      <trkpt lat="55.135275023058057" lon="-6.683347038924694">
        <ele>23.210000000000001</ele>
        <time>2026-07-07T08:36:08Z</time>
      </trkpt>
      <trkpt lat="55.135275023058057" lon="-6.683195997029543">
        <ele>23.210000000000001</ele>
        <time>2026-07-07T08:36:09Z</time>
      </trkpt>
      <trkpt lat="55.135264964774251" lon="-6.68303900398314">
        <ele>22.73</ele>
        <time>2026-07-07T08:36:10Z</time>
      </trkpt>
      <trkpt lat="55.135189024731517" lon="-6.682648994028568">
        <ele>22.25</ele>
        <time>2026-07-07T08:36:13Z</time>
      </trkpt>
      <trkpt lat="55.135116018354893" lon="-6.682417988777161">
        <ele>21.77</ele>
        <time>2026-07-07T08:36:14Z</time>
      </trkpt>
      <trkpt lat="55.134257040917873" lon="-6.680896002799273">
        <ele>18.879999999999999</ele>
        <time>2026-07-07T08:36:25Z</time>
      </trkpt>
      <trkpt lat="55.133899971842766" lon="-6.680328967049718">
        <ele>16</ele>
        <time>2026-07-07T08:36:29Z</time>
      </trkpt>
      <trkpt lat="55.132976034656167" lon="-6.678821984678507">
        <ele>10.23</ele>
        <time>2026-07-07T08:36:40Z</time>
      </trkpt>
      <trkpt lat="55.132285030558705" lon="-6.677749017253518">
        <ele>5.91</ele>
        <time>2026-07-07T08:36:50Z</time>
      </trkpt>
      <trkpt lat="55.131962997838855" lon="-6.677180975675583">
        <ele>4.46</ele>
        <time>2026-07-07T08:36:58Z</time>
      </trkpt>
      <trkpt lat="55.131913963705301" lon="-6.676749978214502">
        <ele>3.98</ele>
        <time>2026-07-07T08:37:08Z</time>
      </trkpt>
      <trkpt lat="55.131863001734018" lon="-6.676085963845253">
        <ele>2.54</ele>
        <time>2026-07-07T08:37:16Z</time>
      </trkpt>
      <trkpt lat="55.131863001734018" lon="-6.67596903629601">
        <ele>2.06</ele>
        <time>2026-07-07T08:37:17Z</time>
      </trkpt>
      <trkpt lat="55.131863001734018" lon="-6.675868034362793">
        <ele>2.06</ele>
        <time>2026-07-07T08:37:18Z</time>
      </trkpt>
      <trkpt lat="55.131850009784102" lon="-6.67571296915412">
        <ele>1.58</ele>
        <time>2026-07-07T08:37:19Z</time>
      </trkpt>
      <trkpt lat="55.131692010909319" lon="-6.673977999016643">
        <ele>3.98</ele>
        <time>2026-07-07T08:37:31Z</time>
      </trkpt>
      <trkpt lat="55.131714977324009" lon="-6.673889989033341">
        <ele>3.98</ele>
        <time>2026-07-07T08:37:32Z</time>
      </trkpt>
      <trkpt lat="55.131745990365744" lon="-6.67380097322166">
        <ele>3.5</ele>
        <time>2026-07-07T08:37:33Z</time>
      </trkpt>
      <trkpt lat="55.13178002089262" lon="-6.673705000430346">
        <ele>3.5</ele>
        <time>2026-07-07T08:37:34Z</time>
      </trkpt>
      <trkpt lat="55.131841041147709" lon="-6.673528980463743">
        <ele>3.5</ele>
        <time>2026-07-07T08:37:35Z</time>
      </trkpt>
      <trkpt lat="55.131869958713651" lon="-6.673519005998969">
        <ele>3.5</ele>
        <time>2026-07-07T08:37:36Z</time>
      </trkpt>
      <trkpt lat="55.131941037252545" lon="-6.673495033755899">
        <ele>3.98</ele>
        <time>2026-07-07T08:37:37Z</time>
      </trkpt>
      <trkpt lat="55.132015971466899" lon="-6.673467960208654">
        <ele>4.46</ele>
        <time>2026-07-07T08:37:38Z</time>
      </trkpt>
      <trkpt lat="55.132367005571723" lon="-6.673307027667761">
        <ele>3.98</ele>
        <time>2026-07-07T08:37:42Z</time>
      </trkpt>
      <trkpt lat="55.132442023605108" lon="-6.673250030726194">
        <ele>3.98</ele>
        <time>2026-07-07T08:37:43Z</time>
      </trkpt>
      <trkpt lat="55.132544031366706" lon="-6.673140982165933">
        <ele>3.5</ele>
        <time>2026-07-07T08:37:44Z</time>
      </trkpt>
      <trkpt lat="55.132607985287905" lon="-6.6730079613626">
        <ele>3.02</ele>
        <time>2026-07-07T08:37:45Z</time>
      </trkpt>
      <trkpt lat="55.132665988057852" lon="-6.672864966094494">
        <ele>2.54</ele>
        <time>2026-07-07T08:37:46Z</time>
      </trkpt>
      <trkpt lat="55.132722984999418" lon="-6.672722976654768">
        <ele>2.54</ele>
        <time>2026-07-07T08:37:47Z</time>
      </trkpt>
      <trkpt lat="55.132779981940985" lon="-6.672582998871803">
        <ele>3.02</ele>
        <time>2026-07-07T08:37:48Z</time>
      </trkpt>
      <trkpt lat="55.133020961657166" lon="-6.672047981992364">
        <ele>2.54</ele>
        <time>2026-07-07T08:37:52Z</time>
      </trkpt>
      <trkpt lat="55.13309296220541" lon="-6.671919990330935">
        <ele>2.54</ele>
        <time>2026-07-07T08:37:53Z</time>
      </trkpt>
      <trkpt lat="55.133164040744305" lon="-6.671794010326266">
        <ele>3.02</ele>
        <time>2026-07-07T08:37:54Z</time>
      </trkpt>
      <trkpt lat="55.133235035464168" lon="-6.671667024493218">
        <ele>3.02</ele>
        <time>2026-07-07T08:37:55Z</time>
      </trkpt>
      <trkpt lat="55.133322039619088" lon="-6.671511959284544">
        <ele>2.54</ele>
        <time>2026-07-07T08:37:56Z</time>
      </trkpt>
      <trkpt lat="55.134541019797325" lon="-6.670328015461564">
        <ele>1.1</ele>
        <time>2026-07-07T08:38:09Z</time>
      </trkpt>
      <trkpt lat="55.135834012180567" lon="-6.669080033898354">
        <ele>2.06</ele>
        <time>2026-07-07T08:38:21Z</time>
      </trkpt>
      <trkpt lat="55.137185007333755" lon="-6.667760973796248">
        <ele>4.94</ele>
        <time>2026-07-07T08:38:33Z</time>
      </trkpt>
      <trkpt lat="55.137291038408875" lon="-6.667660977691412">
        <ele>4.94</ele>
        <time>2026-07-07T08:38:34Z</time>
      </trkpt>
      <trkpt lat="55.137482983991504" lon="-6.667476994916797">
        <ele>3.98</ele>
        <time>2026-07-07T08:38:36Z</time>
      </trkpt>
      <trkpt lat="55.137565964832902" lon="-6.66739996522665">
        <ele>3.5</ele>
        <time>2026-07-07T08:38:37Z</time>
      </trkpt>
      <trkpt lat="55.137806022539735" lon="-6.6671849694103">
        <ele>2.54</ele>
        <time>2026-07-07T08:38:41Z</time>
      </trkpt>
      <trkpt lat="55.137867964804173" lon="-6.667139958590269">
        <ele>3.02</ele>
        <time>2026-07-07T08:38:45Z</time>
      </trkpt>
      <trkpt lat="55.137891015037894" lon="-6.667123027145863">
        <ele>3.02</ele>
        <time>2026-07-07T08:38:46Z</time>
      </trkpt>
      <trkpt lat="55.137935020029545" lon="-6.667092014104128">
        <ele>3.02</ele>
        <time>2026-07-07T08:38:47Z</time>
      </trkpt>
      <trkpt lat="55.138467019423842" lon="-6.666765036061406">
        <ele>3.98</ele>
        <time>2026-07-07T08:38:55Z</time>
      </trkpt>
      <trkpt lat="55.139185013249516" lon="-6.666446020826697">
        <ele>7.35</ele>
        <time>2026-07-07T08:39:02Z</time>
      </trkpt>
      <trkpt lat="55.139308981597424" lon="-6.666433028876782">
        <ele>7.83</ele>
        <time>2026-07-07T08:39:03Z</time>
      </trkpt>
      <trkpt lat="55.139425992965698" lon="-6.666463958099484">
        <ele>7.83</ele>
        <time>2026-07-07T08:39:04Z</time>
      </trkpt>
      <trkpt lat="55.139995962381363" lon="-6.666618017479777">
        <ele>8.789999999999999</ele>
        <time>2026-07-07T08:39:11Z</time>
      </trkpt>
      <trkpt lat="55.140156978741288" lon="-6.666661016643047">
        <ele>9.75</ele>
        <time>2026-07-07T08:39:19Z</time>
      </trkpt>
      <trkpt lat="55.140399970114231" lon="-6.666724970564246">
        <ele>10.710000000000001</ele>
        <time>2026-07-07T08:39:27Z</time>
      </trkpt>
      <trkpt lat="55.1404810231179" lon="-6.666747014969587">
        <ele>10.710000000000001</ele>
        <time>2026-07-07T08:39:28Z</time>
      </trkpt>
      <trkpt lat="55.140572972595692" lon="-6.666763024404645">
        <ele>11.19</ele>
        <time>2026-07-07T08:39:29Z</time>
      </trkpt>
      <trkpt lat="55.141652980819345" lon="-6.666951030492783">
        <ele>12.630000000000001</ele>
        <time>2026-07-07T08:39:38Z</time>
      </trkpt>
      <trkpt lat="55.143369007855654" lon="-6.667249007150531">
        <ele>13.119999999999999</ele>
        <time>2026-07-07T08:39:50Z</time>
      </trkpt>
      <trkpt lat="55.144538031890988" lon="-6.667446987703443">
        <ele>13.6</ele>
        <time>2026-07-07T08:39:59Z</time>
      </trkpt>
      <trkpt lat="55.144856041297317" lon="-6.667456962168217">
        <ele>14.56</ele>
        <time>2026-07-07T08:40:02Z</time>
      </trkpt>
      <trkpt lat="55.144974980503321" lon="-6.66750499047339">
        <ele>14.56</ele>
        <time>2026-07-07T08:40:03Z</time>
      </trkpt>
      <trkpt lat="55.14527396298945" lon="-6.667700037360191">
        <ele>15.52</ele>
        <time>2026-07-07T08:40:06Z</time>
      </trkpt>
      <trkpt lat="55.145387034863234" lon="-6.667705988511443">
        <ele>15.52</ele>
        <time>2026-07-07T08:40:07Z</time>
      </trkpt>
      <trkpt lat="55.145506979897618" lon="-6.667669024318457">
        <ele>16</ele>
        <time>2026-07-07T08:40:08Z</time>
      </trkpt>
      <trkpt lat="55.14563899487257" lon="-6.667628036811948">
        <ele>16.48</ele>
        <time>2026-07-07T08:40:09Z</time>
      </trkpt>
      <trkpt lat="55.145776960998774" lon="-6.667594006285071">
        <ele>16.960000000000001</ele>
        <time>2026-07-07T08:40:10Z</time>
      </trkpt>
      <trkpt lat="55.145918028429151" lon="-6.667558969929814">
        <ele>16.48</ele>
        <time>2026-07-07T08:40:11Z</time>
      </trkpt>
      <trkpt lat="55.147041035816073" lon="-6.667689979076386">
        <ele>16.48</ele>
        <time>2026-07-07T08:40:18Z</time>
      </trkpt>
      <trkpt lat="55.148761002346873" lon="-6.66821300983429">
        <ele>16</ele>
        <time>2026-07-07T08:40:29Z</time>
      </trkpt>
      <trkpt lat="55.150480968877673" lon="-6.669156979769468">
        <ele>16.960000000000001</ele>
        <time>2026-07-07T08:40:41Z</time>
      </trkpt>
      <trkpt lat="55.152582982555032" lon="-6.670351987704635">
        <ele>17.920000000000002</ele>
        <time>2026-07-07T08:40:56Z</time>
      </trkpt>
      <trkpt lat="55.154229020699859" lon="-6.671280032023788">
        <ele>20.809999999999999</ele>
        <time>2026-07-07T08:41:07Z</time>
      </trkpt>
      <trkpt lat="55.155353033915162" lon="-6.671894006431103">
        <ele>21.289999999999999</ele>
        <time>2026-07-07T08:41:16Z</time>
      </trkpt>
      <trkpt lat="55.156977027654648" lon="-6.672803023830056">
        <ele>23.690000000000001</ele>
        <time>2026-07-07T08:41:27Z</time>
      </trkpt>
      <trkpt lat="55.159309962764382" lon="-6.673876997083426">
        <ele>28.02</ele>
        <time>2026-07-07T08:41:39Z</time>
      </trkpt>
      <trkpt lat="55.161562012508512" lon="-6.675049038603902">
        <ele>28.02</ele>
        <time>2026-07-07T08:41:51Z</time>
      </trkpt>
      <trkpt lat="55.16463004052639" lon="-6.677007973194122">
        <ele>29.460000000000001</ele>
        <time>2026-07-07T08:42:09Z</time>
      </trkpt>
      <trkpt lat="55.166724007576704" lon="-6.678798012435436">
        <ele>28.98</ele>
        <time>2026-07-07T08:42:22Z</time>
      </trkpt>
      <trkpt lat="55.168335009366274" lon="-6.680105002596974">
        <ele>27.050000000000001</ele>
        <time>2026-07-07T08:42:32Z</time>
      </trkpt>
      <trkpt lat="55.171130960807204" lon="-6.68237297795713">
        <ele>30.899999999999999</ele>
        <time>2026-07-07T08:42:49Z</time>
      </trkpt>
      <trkpt lat="55.173087967559695" lon="-6.684126975014806">
        <ele>30.899999999999999</ele>
        <time>2026-07-07T08:43:01Z</time>
      </trkpt>
      <trkpt lat="55.174968028441072" lon="-6.685821963474155">
        <ele>28.98</ele>
        <time>2026-07-07T08:43:13Z</time>
      </trkpt>
      <trkpt lat="55.176848005503416" lon="-6.687334980815649">
        <ele>27.530000000000001</ele>
        <time>2026-07-07T08:43:25Z</time>
      </trkpt>
      <trkpt lat="55.178358005359769" lon="-6.689062993973494">
        <ele>27.530000000000001</ele>
        <time>2026-07-07T08:43:35Z</time>
      </trkpt>
      <trkpt lat="55.179883008822799" lon="-6.691690972074866">
        <ele>28.5</ele>
        <time>2026-07-07T08:43:47Z</time>
      </trkpt>
      <trkpt lat="55.181125961244106" lon="-6.693830033764243">
        <ele>32.340000000000003</ele>
        <time>2026-07-07T08:43:58Z</time>
      </trkpt>
      <trkpt lat="55.182239999994636" lon="-6.695834985002875">
        <ele>37.149999999999999</ele>
        <time>2026-07-07T08:44:11Z</time>
      </trkpt>
      <trkpt lat="55.183121021836996" lon="-6.697353031486273">
        <ele>38.109999999999999</ele>
        <time>2026-07-07T08:44:23Z</time>
      </trkpt>
      <trkpt lat="55.183991985395551" lon="-6.699236026033759">
        <ele>37.149999999999999</ele>
        <time>2026-07-07T08:44:34Z</time>
      </trkpt>
      <trkpt lat="55.184589028358459" lon="-6.701667029410601">
        <ele>35.229999999999997</ele>
        <time>2026-07-07T08:44:45Z</time>
      </trkpt>
      <trkpt lat="55.18478499725461" lon="-6.702681994065642">
        <ele>36.189999999999998</ele>
        <time>2026-07-07T08:44:51Z</time>
      </trkpt>
      <trkpt lat="55.184796983376145" lon="-6.702816020697355">
        <ele>35.710000000000001</ele>
        <time>2026-07-07T08:44:52Z</time>
      </trkpt>
      <trkpt lat="55.184807041659951" lon="-6.702923979610205">
        <ele>35.229999999999997</ele>
        <time>2026-07-07T08:44:53Z</time>
      </trkpt>
      <trkpt lat="55.184691958129406" lon="-6.703145010396838">
        <ele>34.740000000000002</ele>
        <time>2026-07-07T08:44:55Z</time>
      </trkpt>
      <trkpt lat="55.184691958129406" lon="-6.703251041471958">
        <ele>34.740000000000002</ele>
        <time>2026-07-07T08:44:56Z</time>
      </trkpt>
      <trkpt lat="55.184691958129406" lon="-6.703334022313356">
        <ele>34.740000000000002</ele>
        <time>2026-07-07T08:44:57Z</time>
      </trkpt>
      <trkpt lat="55.184755995869637" lon="-6.703420020639896">
        <ele>34.740000000000002</ele>
        <time>2026-07-07T08:44:58Z</time>
      </trkpt>
      <trkpt lat="55.184878958389163" lon="-6.703486992046237">
        <ele>34.259999999999998</ele>
        <time>2026-07-07T08:44:59Z</time>
      </trkpt>
      <trkpt lat="55.184922041371465" lon="-6.703613977879286">
        <ele>33.780000000000001</ele>
        <time>2026-07-07T08:45:00Z</time>
      </trkpt>
      <trkpt lat="55.184967974200845" lon="-6.703746998682618">
        <ele>33.299999999999997</ele>
        <time>2026-07-07T08:45:01Z</time>
      </trkpt>
      <trkpt lat="55.185090014711022" lon="-6.704107001423836">
        <ele>32.82</ele>
        <time>2026-07-07T08:45:04Z</time>
      </trkpt>
      <trkpt lat="55.185152962803841" lon="-6.704291990026832">
        <ele>31.859999999999999</ele>
        <time>2026-07-07T08:45:09Z</time>
      </trkpt>
      <trkpt lat="55.185316996648908" lon="-6.704659033566713">
        <ele>30.899999999999999</ele>
        <time>2026-07-07T08:45:16Z</time>
      </trkpt>
      <trkpt lat="55.185894006863236" lon="-6.70574901625514">
        <ele>28.5</ele>
        <time>2026-07-07T08:45:23Z</time>
      </trkpt>
      <trkpt lat="55.187059007585049" lon="-6.708035012707114">
        <ele>22.25</ele>
        <time>2026-07-07T08:45:38Z</time>
      </trkpt>
      <trkpt lat="55.187913961708546" lon="-6.709829997271299">
        <ele>17.920000000000002</ele>
        <time>2026-07-07T08:45:50Z</time>
      </trkpt>
      <trkpt lat="55.187976993620396" lon="-6.710005011409521">
        <ele>17.440000000000001</ele>
        <time>2026-07-07T08:45:51Z</time>
      </trkpt>
      <trkpt lat="55.187998032197356" lon="-6.710202991962433">
        <ele>16.960000000000001</ele>
        <time>2026-07-07T08:45:52Z</time>
      </trkpt>
      <trkpt lat="55.188018986955285" lon="-6.710400972515345">
        <ele>16.48</ele>
        <time>2026-07-07T08:45:53Z</time>
      </trkpt>
      <trkpt lat="55.188039019703865" lon="-6.710586966946721">
        <ele>16</ele>
        <time>2026-07-07T08:45:54Z</time>
      </trkpt>
      <trkpt lat="55.188170028850436" lon="-6.71155096963048">
        <ele>13.119999999999999</ele>
        <time>2026-07-07T08:46:02Z</time>
      </trkpt>
      <trkpt lat="55.188170028850436" lon="-6.71155096963048">
        <ele>12.630000000000001</ele>
        <time>2026-07-07T08:46:12Z</time>
      </trkpt>
      <trkpt lat="55.188183020800352" lon="-6.711597992107272">
        <ele>12.630000000000001</ele>
        <time>2026-07-07T08:46:22Z</time>
      </trkpt>
      <trkpt lat="55.188244041055441" lon="-6.711604027077556">
        <ele>12.15</ele>
        <time>2026-07-07T08:46:23Z</time>
      </trkpt>
      <trkpt lat="55.188273964449763" lon="-6.711519034579396">
        <ele>11.67</ele>
        <time>2026-07-07T08:46:24Z</time>
      </trkpt>
      <trkpt lat="55.188312018290162" lon="-6.711405040696263">
        <ele>11.67</ele>
        <time>2026-07-07T08:46:25Z</time>
      </trkpt>
      <trkpt lat="55.188357029110193" lon="-6.711274031549692">
        <ele>11.19</ele>
        <time>2026-07-07T08:46:26Z</time>
      </trkpt>
      <trkpt lat="55.188879976049066" lon="-6.710078017786145">
        <ele>9.75</ele>
        <time>2026-07-07T08:46:33Z</time>
      </trkpt>
      <trkpt lat="55.18983400426805" lon="-6.708570029586554">
        <ele>11.19</ele>
        <time>2026-07-07T08:46:42Z</time>
      </trkpt>
      <trkpt lat="55.190772023051977" lon="-6.70723001472652">
        <ele>12.630000000000001</ele>
        <time>2026-07-07T08:46:51Z</time>
      </trkpt>
      <trkpt lat="55.191448023542762" lon="-6.706193005666137">
        <ele>11.67</ele>
        <time>2026-07-07T08:46:58Z</time>
      </trkpt>
      <trkpt lat="55.191529998555779" lon="-6.70602897182107">
        <ele>11.19</ele>
        <time>2026-07-07T08:46:59Z</time>
      </trkpt>
      <trkpt lat="55.191585989668965" lon="-6.705816993489862">
        <ele>11.19</ele>
        <time>2026-07-07T08:47:00Z</time>
      </trkpt>
      <trkpt lat="55.191627983003855" lon="-6.705589005723596">
        <ele>10.710000000000001</ele>
        <time>2026-07-07T08:47:01Z</time>
      </trkpt>
      <trkpt lat="55.191671987995505" lon="-6.705349031835794">
        <ele>10.710000000000001</ele>
        <time>2026-07-07T08:47:02Z</time>
      </trkpt>
      <trkpt lat="55.191715992987156" lon="-6.705105034634471">
        <ele>10.23</ele>
        <time>2026-07-07T08:47:03Z</time>
      </trkpt>
      <trkpt lat="55.191728984937072" lon="-6.704858019948006">
        <ele>10.23</ele>
        <time>2026-07-07T08:47:04Z</time>
      </trkpt>
      <trkpt lat="55.191726973280311" lon="-6.704608993604779">
        <ele>10.23</ele>
        <time>2026-07-07T08:47:05Z</time>
      </trkpt>
      <trkpt lat="55.191724961623549" lon="-6.704370025545359">
        <ele>10.23</ele>
        <time>2026-07-07T08:47:06Z</time>
      </trkpt>
      <trkpt lat="55.191713981330395" lon="-6.702785007655621">
        <ele>11.19</ele>
        <time>2026-07-07T08:47:15Z</time>
      </trkpt>
      <trkpt lat="55.191710041835904" lon="-6.70224797911942">
        <ele>12.630000000000001</ele>
        <time>2026-07-07T08:47:23Z</time>
      </trkpt>
      <trkpt lat="55.191708030179143" lon="-6.701960982754827">
        <ele>13.119999999999999</ele>
        <time>2026-07-07T08:47:56Z</time>
      </trkpt>
      <trkpt lat="55.191711969673634" lon="-6.701901974156499">
        <ele>13.119999999999999</ele>
        <time>2026-07-07T08:47:57Z</time>
      </trkpt>
      <trkpt lat="55.191835016012192" lon="-6.701093958690763">
        <ele>12.630000000000001</ele>
        <time>2026-07-07T08:48:04Z</time>
      </trkpt>
      <trkpt lat="55.191860999912024" lon="-6.700975019484758">
        <ele>13.119999999999999</ele>
        <time>2026-07-07T08:48:05Z</time>
      </trkpt>
      <trkpt lat="55.191924031823874" lon="-6.70069900341332">
        <ele>13.6</ele>
        <time>2026-07-07T08:48:08Z</time>
      </trkpt>
      <trkpt lat="55.191937023773789" lon="-6.700638988986611">
        <ele>14.08</ele>
        <time>2026-07-07T08:48:09Z</time>
      </trkpt>
      <trkpt lat="55.191953033208847" lon="-6.700581992045045">
        <ele>14.08</ele>
        <time>2026-07-07T08:48:10Z</time>
      </trkpt>
      <trkpt lat="55.191971976310015" lon="-6.700524995103478">
        <ele>14.08</ele>
        <time>2026-07-07T08:48:11Z</time>
      </trkpt>
      <trkpt lat="55.191989997401834" lon="-6.700470009818673">
        <ele>14.56</ele>
        <time>2026-07-07T08:48:12Z</time>
      </trkpt>
      <trkpt lat="55.192279005423188" lon="-6.699593011289835">
        <ele>16</ele>
        <time>2026-07-07T08:48:22Z</time>
      </trkpt>
      <trkpt lat="55.192741015926003" lon="-6.69820798560977">
        <ele>17.920000000000002</ele>
        <time>2026-07-07T08:48:35Z</time>
      </trkpt>
      <trkpt lat="55.193127002567053" lon="-6.697067962959409">
        <ele>17.920000000000002</ele>
        <time>2026-07-07T08:48:45Z</time>
      </trkpt>
      <trkpt lat="55.19372102804482" lon="-6.695301979780197">
        <ele>18.399999999999999</ele>
        <time>2026-07-07T08:48:54Z</time>
      </trkpt>
      <trkpt lat="55.194470034912229" lon="-6.692598983645439">
        <ele>27.050000000000001</ele>
        <time>2026-07-07T08:49:07Z</time>
      </trkpt>
      <trkpt lat="55.194433992728591" lon="-6.691000973805785">
        <ele>27.050000000000001</ele>
        <time>2026-07-07T08:49:15Z</time>
      </trkpt>
      <trkpt lat="55.194394011050463" lon="-6.690820008516312">
        <ele>26.57</ele>
        <time>2026-07-07T08:49:16Z</time>
      </trkpt>
      <trkpt lat="55.194021016359329" lon="-6.688627973198891">
        <ele>21.77</ele>
        <time>2026-07-07T08:49:26Z</time>
      </trkpt>
      <trkpt lat="55.19415495917201" lon="-6.686737015843391">
        <ele>19.359999999999999</ele>
        <time>2026-07-07T08:49:33Z</time>
      </trkpt>
      <trkpt lat="55.194771029055119" lon="-6.684819990769029">
        <ele>22.25</ele>
        <time>2026-07-07T08:49:42Z</time>
      </trkpt>
      <trkpt lat="55.195701001212001" lon="-6.682203998789191">
        <ele>25.129999999999999</ele>
        <time>2026-07-07T08:49:55Z</time>
      </trkpt>
      <trkpt lat="55.196269964799285" lon="-6.679518017917872">
        <ele>27.050000000000001</ele>
        <time>2026-07-07T08:50:06Z</time>
      </trkpt>
      <trkpt lat="55.19677497446537" lon="-6.676850980147719">
        <ele>27.050000000000001</ele>
        <time>2026-07-07T08:50:18Z</time>
      </trkpt>
      <trkpt lat="55.197729002684355" lon="-6.673495033755899">
        <ele>25.129999999999999</ele>
        <time>2026-07-07T08:50:33Z</time>
      </trkpt>
      <trkpt lat="55.198130998760462" lon="-6.670966967940331">
        <ele>24.649999999999999</ele>
        <time>2026-07-07T08:50:43Z</time>
      </trkpt>
      <trkpt lat="55.198272988200188" lon="-6.66857996955514">
        <ele>28.98</ele>
        <time>2026-07-07T08:50:53Z</time>
      </trkpt>
      <trkpt lat="55.198454037308693" lon="-6.667494010180235">
        <ele>32.82</ele>
        <time>2026-07-07T08:50:59Z</time>
      </trkpt>
      <trkpt lat="55.198467029258609" lon="-6.667413963004947">
        <ele>33.299999999999997</ele>
        <time>2026-07-07T08:51:00Z</time>
      </trkpt>
      <trkpt lat="55.198467029258609" lon="-6.66733299382031">
        <ele>33.780000000000001</ele>
        <time>2026-07-07T08:51:01Z</time>
      </trkpt>
      <trkpt lat="55.198467029258609" lon="-6.667217994108796">
        <ele>34.740000000000002</ele>
        <time>2026-07-07T08:51:09Z</time>
      </trkpt>
      <trkpt lat="55.198467029258609" lon="-6.667217994108796">
        <ele>34.740000000000002</ele>
        <time>2026-07-07T08:51:28Z</time>
      </trkpt>
      <trkpt lat="55.198459988459945" lon="-6.667028982192278">
        <ele>34.259999999999998</ele>
        <time>2026-07-07T08:52:18Z</time>
      </trkpt>
      <trkpt lat="55.198396034538746" lon="-6.666604019701481">
        <ele>31.859999999999999</ele>
        <time>2026-07-07T08:52:21Z</time>
      </trkpt>
      <trkpt lat="55.197940981015563" lon="-6.665093014016748">
        <ele>28.02</ele>
        <time>2026-07-07T08:52:29Z</time>
      </trkpt>
      <trkpt lat="55.197418034076691" lon="-6.663384027779102">
        <ele>26.57</ele>
        <time>2026-07-07T08:52:39Z</time>
      </trkpt>
      <trkpt lat="55.196953006088734" lon="-6.661614021286368">
        <ele>25.609999999999999</ele>
        <time>2026-07-07T08:52:49Z</time>
      </trkpt>
      <trkpt lat="55.19692299887538" lon="-6.661442024633288">
        <ele>25.129999999999999</ele>
        <time>2026-07-07T08:52:50Z</time>
      </trkpt>
      <trkpt lat="55.196930961683393" lon="-6.659896988421679">
        <ele>19.84</ele>
        <time>2026-07-07T08:52:59Z</time>
      </trkpt>
      <trkpt lat="55.196921993046999" lon="-6.65972800925374">
        <ele>18.879999999999999</ele>
        <time>2026-07-07T08:53:00Z</time>
      </trkpt>
      <trkpt lat="55.196897014975548" lon="-6.659557018429041">
        <ele>18.399999999999999</ele>
        <time>2026-07-07T08:53:01Z</time>
      </trkpt>
      <trkpt lat="55.196844963356853" lon="-6.659187963232398">
        <ele>17.920000000000002</ele>
        <time>2026-07-07T08:53:03Z</time>
      </trkpt>
      <trkpt lat="55.196823002770543" lon="-6.658998029306531">
        <ele>16.960000000000001</ele>
        <time>2026-07-07T08:53:04Z</time>
      </trkpt>
      <trkpt lat="55.196801964193583" lon="-6.658802982419729">
        <ele>16</ele>
        <time>2026-07-07T08:53:05Z</time>
      </trkpt>
      <trkpt lat="55.196801964193583" lon="-6.658606007695198">
        <ele>15.52</ele>
        <time>2026-07-07T08:53:06Z</time>
      </trkpt>
      <trkpt lat="55.19681696780026" lon="-6.658402998000383">
        <ele>14.56</ele>
        <time>2026-07-07T08:53:07Z</time>
      </trkpt>
      <trkpt lat="55.196913024410605" lon="-6.657328018918634">
        <ele>10.710000000000001</ele>
        <time>2026-07-07T08:53:13Z</time>
      </trkpt>
      <trkpt lat="55.19692400470376" lon="-6.657194998115301">
        <ele>10.710000000000001</ele>
        <time>2026-07-07T08:53:14Z</time>
      </trkpt>
      <trkpt lat="55.196958035230637" lon="-6.657095002010465">
        <ele>10.23</ele>
        <time>2026-07-07T08:53:15Z</time>
      </trkpt>
      <trkpt lat="55.197054008021951" lon="-6.657021995633841">
        <ele>10.23</ele>
        <time>2026-07-07T08:53:16Z</time>
      </trkpt>
      <trkpt lat="55.197130031883717" lon="-6.656980002298951">
        <ele>10.23</ele>
        <time>2026-07-07T08:53:17Z</time>
      </trkpt>
      <trkpt lat="55.197214018553495" lon="-6.656928034499288">
        <ele>10.23</ele>
        <time>2026-07-07T08:53:18Z</time>
      </trkpt>
      <trkpt lat="55.197307979688048" lon="-6.656868020072579">
        <ele>9.75</ele>
        <time>2026-07-07T08:53:19Z</time>
      </trkpt>
      <trkpt lat="55.198315987363458" lon="-6.656064027920365">
        <ele>7.83</ele>
        <time>2026-07-07T08:53:28Z</time>
      </trkpt>
      <trkpt lat="55.198698034510016" lon="-6.655661026015878">
        <ele>8.310000000000001</ele>
        <time>2026-07-07T08:53:32Z</time>
      </trkpt>
      <trkpt lat="55.198760982602835" lon="-6.655518030747771">
        <ele>8.789999999999999</ele>
        <time>2026-07-07T08:53:33Z</time>
      </trkpt>
      <trkpt lat="55.198831977322698" lon="-6.655355002731085">
        <ele>9.27</ele>
        <time>2026-07-07T08:53:34Z</time>
      </trkpt>
      <trkpt lat="55.198860978707671" lon="-6.655217036604881">
        <ele>9.75</ele>
        <time>2026-07-07T08:53:35Z</time>
      </trkpt>
      <trkpt lat="55.198886962607503" lon="-6.655039004981518">
        <ele>9.75</ele>
        <time>2026-07-07T08:53:36Z</time>
      </trkpt>
      <trkpt lat="55.198911018669605" lon="-6.65487002581358">
        <ele>10.23</ele>
        <time>2026-07-07T08:53:37Z</time>
      </trkpt>
      <trkpt lat="55.198932979255915" lon="-6.654712026938796">
        <ele>10.23</ele>
        <time>2026-07-07T08:53:38Z</time>
      </trkpt>
      <trkpt lat="55.198960974812508" lon="-6.654282035306096">
        <ele>10.23</ele>
        <time>2026-07-07T08:53:43Z</time>
      </trkpt>
      <trkpt lat="55.198972960934043" lon="-6.654219003394246">
        <ele>10.23</ele>
        <time>2026-07-07T08:53:44Z</time>
      </trkpt>
      <trkpt lat="55.19905099645257" lon="-6.6541419737041">
        <ele>10.23</ele>
        <time>2026-07-07T08:53:45Z</time>
      </trkpt>
      <trkpt lat="55.199112016707659" lon="-6.654113978147507">
        <ele>10.710000000000001</ele>
        <time>2026-07-07T08:53:46Z</time>
      </trkpt>
      <trkpt lat="55.199168007820845" lon="-6.654086988419294">
        <ele>10.710000000000001</ele>
        <time>2026-07-07T08:53:47Z</time>
      </trkpt>
      <trkpt lat="55.199214024469256" lon="-6.654066033661366">
        <ele>11.19</ele>
        <time>2026-07-07T08:53:48Z</time>
      </trkpt>
      <trkpt lat="55.199255011975765" lon="-6.654046000912786">
        <ele>11.19</ele>
        <time>2026-07-07T08:53:49Z</time>
      </trkpt>
      <trkpt lat="55.199297005310655" lon="-6.654026973992586">
        <ele>11.19</ele>
        <time>2026-07-07T08:53:50Z</time>
      </trkpt>
      <trkpt lat="55.199336986988783" lon="-6.654008030891419">
        <ele>11.67</ele>
        <time>2026-07-07T08:53:51Z</time>
      </trkpt>
      <trkpt lat="55.199343021959066" lon="-6.653897976502776">
        <ele>11.67</ele>
        <time>2026-07-07T08:53:52Z</time>
      </trkpt>
      <trkpt lat="55.199338998645544" lon="-6.653781970962882">
        <ele>11.67</ele>
        <time>2026-07-07T08:53:53Z</time>
      </trkpt>
      <trkpt lat="55.199334975332022" lon="-6.653654985129833">
        <ele>11.67</ele>
        <time>2026-07-07T08:53:54Z</time>
      </trkpt>
      <trkpt lat="55.199330030009151" lon="-6.653525987640023">
        <ele>11.67</ele>
        <time>2026-07-07T08:53:55Z</time>
      </trkpt>
      <trkpt lat="55.199325000867248" lon="-6.65339196100831">
        <ele>12.15</ele>
        <time>2026-07-07T08:53:56Z</time>
      </trkpt>
      <trkpt lat="55.199283007532358" lon="-6.652772035449743">
        <ele>11.67</ele>
        <time>2026-07-07T08:54:00Z</time>
      </trkpt>
      <trkpt lat="55.1992860250175" lon="-6.652596015483141">
        <ele>11.19</ele>
        <time>2026-07-07T08:54:01Z</time>
      </trkpt>
      <trkpt lat="55.199504038318992" lon="-6.650316976010799">
        <ele>12.15</ele>
        <time>2026-07-07T08:54:14Z</time>
      </trkpt>
      <trkpt lat="55.199557011947036" lon="-6.649924032390118">
        <ele>12.15</ele>
        <time>2026-07-07T08:54:17Z</time>
      </trkpt>
      <trkpt lat="55.199614008888602" lon="-6.649560006335378">
        <ele>11.67</ele>
        <time>2026-07-07T08:54:20Z</time>
      </trkpt>
      <trkpt lat="55.199635969474912" lon="-6.649459004402161">
        <ele>11.67</ele>
        <time>2026-07-07T08:54:21Z</time>
      </trkpt>
      <trkpt lat="55.199733031913638" lon="-6.649324977770448">
        <ele>11.67</ele>
        <time>2026-07-07T08:54:22Z</time>
      </trkpt>
      <trkpt lat="55.199793968349695" lon="-6.649354984983802">
        <ele>11.67</ele>
        <time>2026-07-07T08:54:23Z</time>
      </trkpt>
      <trkpt lat="55.199862029403448" lon="-6.649389015510678">
        <ele>11.67</ele>
        <time>2026-07-07T08:54:24Z</time>
      </trkpt>
      <trkpt lat="55.199937969446182" lon="-6.649426985532045">
        <ele>11.67</ele>
        <time>2026-07-07T08:54:25Z</time>
      </trkpt>
      <trkpt lat="55.200014999136329" lon="-6.649465961381793">
        <ele>11.67</ele>
        <time>2026-07-07T08:54:26Z</time>
      </trkpt>
      <trkpt lat="55.2011130284518" lon="-6.650014976039529">
        <ele>15.039999999999999</ele>
        <time>2026-07-07T08:54:39Z</time>
      </trkpt>
      <trkpt lat="55.201491974294186" lon="-6.650203987956047">
        <ele>16</ele>
        <time>2026-07-07T08:54:44Z</time>
      </trkpt>
      <trkpt lat="55.201559029519558" lon="-6.650268025696278">
        <ele>16.48</ele>
        <time>2026-07-07T08:54:45Z</time>
      </trkpt>
      <trkpt lat="55.201604040339589" lon="-6.650347989052534">
        <ele>16.48</ele>
        <time>2026-07-07T08:54:46Z</time>
      </trkpt>
      <trkpt lat="55.201648967340589" lon="-6.650451002642512">
        <ele>16.960000000000001</ele>
        <time>2026-07-07T08:54:47Z</time>
      </trkpt>
      <trkpt lat="55.201663970947266" lon="-6.650535995140672">
        <ele>16.960000000000001</ele>
        <time>2026-07-07T08:54:48Z</time>
      </trkpt>
      <trkpt lat="55.201676040887833" lon="-6.650606989860535">
        <ele>17.440000000000001</ele>
        <time>2026-07-07T08:54:49Z</time>
      </trkpt>
      <trkpt lat="55.201675035059452" lon="-6.650839000940323">
        <ele>17.920000000000002</ele>
        <time>2026-07-07T08:54:50Z</time>
      </trkpt>
      <trkpt lat="55.201639998704195" lon="-6.650898009538651">
        <ele>17.920000000000002</ele>
        <time>2026-07-07T08:54:51Z</time>
      </trkpt>
      <trkpt lat="55.201602028682828" lon="-6.65096296928823">
        <ele>18.399999999999999</ele>
        <time>2026-07-07T08:54:52Z</time>
      </trkpt>
      <trkpt lat="55.201559029519558" lon="-6.651035975664854">
        <ele>18.399999999999999</ele>
        <time>2026-07-07T08:54:53Z</time>
      </trkpt>
      <trkpt lat="55.201512007042766" lon="-6.651116022840142">
        <ele>18.879999999999999</ele>
        <time>2026-07-07T08:54:54Z</time>
      </trkpt>
      <trkpt lat="55.201321989297867" lon="-6.651438977569342">
        <ele>18.879999999999999</ele>
        <time>2026-07-07T08:55:02Z</time>
      </trkpt>
      <trkpt lat="55.201321989297867" lon="-6.651438977569342">
        <ele>18.879999999999999</ele>
        <time>2026-07-07T08:55:37Z</time>
      </trkpt>
      <trkpt lat="55.201261974871159" lon="-6.65154199115932">
        <ele>19.359999999999999</ele>
        <time>2026-07-07T08:55:53Z</time>
      </trkpt>
      <trkpt lat="55.201214030385017" lon="-6.651622960343957">
        <ele>19.359999999999999</ele>
        <time>2026-07-07T08:55:54Z</time>
      </trkpt>
      <trkpt lat="55.20094103179872" lon="-6.652285968884826">
        <ele>17.920000000000002</ele>
        <time>2026-07-07T08:55:59Z</time>
      </trkpt>
      <trkpt lat="55.200914964079857" lon="-6.652457965537906">
        <ele>17.920000000000002</ele>
        <time>2026-07-07T08:56:00Z</time>
      </trkpt>
      <trkpt lat="55.200891997665167" lon="-6.652608001604676">
        <ele>17.920000000000002</ele>
        <time>2026-07-07T08:56:01Z</time>
      </trkpt>
      <trkpt lat="55.200902977958322" lon="-6.65281000547111">
        <ele>17.440000000000001</ele>
        <time>2026-07-07T08:56:02Z</time>
      </trkpt>
      <trkpt lat="55.200912030413747" lon="-6.652964986860752">
        <ele>17.440000000000001</ele>
        <time>2026-07-07T08:56:03Z</time>
      </trkpt>
      <trkpt lat="55.200930973514915" lon="-6.653097001835704">
        <ele>17.440000000000001</ele>
        <time>2026-07-07T08:56:04Z</time>
      </trkpt>
      <trkpt lat="55.200977995991707" lon="-6.653488017618656">
        <ele>16.960000000000001</ele>
        <time>2026-07-07T08:56:07Z</time>
      </trkpt>
      <trkpt lat="55.200971039012074" lon="-6.653521964326501">
        <ele>16.960000000000001</ele>
        <time>2026-07-07T08:56:08Z</time>
      </trkpt>
      <trkpt lat="55.200912030413747" lon="-6.653609974309802">
        <ele>16.960000000000001</ele>
        <time>2026-07-07T08:56:09Z</time>
      </trkpt>
      <trkpt lat="55.2008540276438" lon="-6.65362698957324">
        <ele>16.48</ele>
        <time>2026-07-07T08:56:10Z</time>
      </trkpt>
      <trkpt lat="55.200784038752317" lon="-6.65364601649344">
        <ele>16.48</ele>
        <time>2026-07-07T08:56:11Z</time>
      </trkpt>
      <trkpt lat="55.20070600323379" lon="-6.653666971251369">
        <ele>16.960000000000001</ele>
        <time>2026-07-07T08:56:12Z</time>
      </trkpt>
      <trkpt lat="55.199733031913638" lon="-6.653917003422976">
        <ele>16.960000000000001</ele>
        <time>2026-07-07T08:56:23Z</time>
      </trkpt>
      <trkpt lat="55.199504960328341" lon="-6.6539709828794">
        <ele>16.960000000000001</ele>
        <time>2026-07-07T08:56:26Z</time>
      </trkpt>
      <trkpt lat="55.199449975043535" lon="-6.653981963172555">
        <ele>17.440000000000001</ele>
        <time>2026-07-07T08:56:27Z</time>
      </trkpt>
      <trkpt lat="55.199342016130686" lon="-6.653857994824648">
        <ele>17.440000000000001</ele>
        <time>2026-07-07T08:56:28Z</time>
      </trkpt>
      <trkpt lat="55.199337992817163" lon="-6.653749030083418">
        <ele>17.920000000000002</ele>
        <time>2026-07-07T08:56:29Z</time>
      </trkpt>
      <trkpt lat="55.199332963675261" lon="-6.653617015108466">
        <ele>18.399999999999999</ele>
        <time>2026-07-07T08:56:30Z</time>
      </trkpt>
      <trkpt lat="55.199328018352389" lon="-6.653467984870076">
        <ele>18.399999999999999</ele>
        <time>2026-07-07T08:56:31Z</time>
      </trkpt>
      <trkpt lat="55.199283007532358" lon="-6.652907989919186">
        <ele>17.440000000000001</ele>
        <time>2026-07-07T08:56:34Z</time>
      </trkpt>
      <trkpt lat="55.199283007532358" lon="-6.652729958295822">
        <ele>16.960000000000001</ele>
        <time>2026-07-07T08:56:35Z</time>
      </trkpt>
      <trkpt lat="55.199291976168752" lon="-6.652527032420039">
        <ele>16.48</ele>
        <time>2026-07-07T08:56:36Z</time>
      </trkpt>
      <trkpt lat="55.199556006118655" lon="-6.649929983541369">
        <ele>14.08</ele>
        <time>2026-07-07T08:56:50Z</time>
      </trkpt>
      <trkpt lat="55.199668994173408" lon="-6.649304023012519">
        <ele>14.08</ele>
        <time>2026-07-07T08:56:55Z</time>
      </trkpt>
      <trkpt lat="55.199751975014806" lon="-6.649216013029218">
        <ele>13.6</ele>
        <time>2026-07-07T08:56:56Z</time>
      </trkpt>
      <trkpt lat="55.199724985286593" lon="-6.649065976962447">
        <ele>13.6</ele>
        <time>2026-07-07T08:56:57Z</time>
      </trkpt>
      <trkpt lat="55.199912991374731" lon="-6.647590007632971">
        <ele>13.119999999999999</ele>
        <time>2026-07-07T08:57:05Z</time>
      </trkpt>
      <trkpt lat="55.200338959693909" lon="-6.645248020067811">
        <ele>13.119999999999999</ele>
        <time>2026-07-07T08:57:17Z</time>
      </trkpt>
      <trkpt lat="55.200377013534307" lon="-6.645076023414731">
        <ele>13.119999999999999</ele>
        <time>2026-07-07T08:57:18Z</time>
      </trkpt>
      <trkpt lat="55.200418001040816" lon="-6.644974015653133">
        <ele>13.119999999999999</ele>
        <time>2026-07-07T08:57:19Z</time>
      </trkpt>
      <trkpt lat="55.200477009639144" lon="-6.644869996234775">
        <ele>12.630000000000001</ele>
        <time>2026-07-07T08:57:20Z</time>
      </trkpt>
      <trkpt lat="55.200695022940636" lon="-6.644501024857163">
        <ele>11.19</ele>
        <time>2026-07-07T08:57:24Z</time>
      </trkpt>
      <trkpt lat="55.200822008773685" lon="-6.644374039024115">
        <ele>11.67</ele>
        <time>2026-07-07T08:57:29Z</time>
      </trkpt>
      <trkpt lat="55.200950000435114" lon="-6.644291980192065">
        <ele>12.15</ele>
        <time>2026-07-07T08:57:32Z</time>
      </trkpt>
      <trkpt lat="55.200957041233778" lon="-6.644260967150331">
        <ele>12.15</ele>
        <time>2026-07-07T08:57:33Z</time>
      </trkpt>
      <trkpt lat="55.200884034857154" lon="-6.644125012680888">
        <ele>11.67</ele>
        <time>2026-07-07T08:57:34Z</time>
      </trkpt>
      <trkpt lat="55.200864002108574" lon="-6.644006995484233">
        <ele>12.15</ele>
        <time>2026-07-07T08:57:35Z</time>
      </trkpt>
      <trkpt lat="55.200841035693884" lon="-6.643865006044507">
        <ele>12.15</ele>
        <time>2026-07-07T08:57:36Z</time>
      </trkpt>
      <trkpt lat="55.200813040137291" lon="-6.643701978027821">
        <ele>12.630000000000001</ele>
        <time>2026-07-07T08:57:37Z</time>
      </trkpt>
      <trkpt lat="55.200453959405422" lon="-6.641921997070313">
        <ele>15.039999999999999</ele>
        <time>2026-07-07T08:57:45Z</time>
      </trkpt>
      <trkpt lat="55.199929000809789" lon="-6.638978021219373">
        <ele>15.039999999999999</ele>
        <time>2026-07-07T08:57:57Z</time>
      </trkpt>
      <trkpt lat="55.199263980612159" lon="-6.634831996634603">
        <ele>14.08</ele>
        <time>2026-07-07T08:58:13Z</time>
      </trkpt>
      <trkpt lat="55.198931973427534" lon="-6.631728010252118">
        <ele>18.399999999999999</ele>
        <time>2026-07-07T08:58:25Z</time>
      </trkpt>
      <trkpt lat="55.198493013158441" lon="-6.627243021503091">
        <ele>25.129999999999999</ele>
        <time>2026-07-07T08:58:42Z</time>
      </trkpt>
      <trkpt lat="55.198349012061954" lon="-6.623495975509286">
        <ele>30.420000000000002</ele>
        <time>2026-07-07T08:58:55Z</time>
      </trkpt>
      <trkpt lat="55.198411038145423" lon="-6.621996033936739">
        <ele>32.340000000000003</ele>
        <time>2026-07-07T08:59:00Z</time>
      </trkpt>
      <trkpt lat="55.198469962924719" lon="-6.621711971238256">
        <ele>33.299999999999997</ele>
        <time>2026-07-07T08:59:01Z</time>
      </trkpt>
      <trkpt lat="55.198529977351427" lon="-6.621426986530423">
        <ele>33.780000000000001</ele>
        <time>2026-07-07T08:59:02Z</time>
      </trkpt>
      <trkpt lat="55.198588985949755" lon="-6.62113999016583">
        <ele>34.259999999999998</ele>
        <time>2026-07-07T08:59:03Z</time>
      </trkpt>
      <trkpt lat="55.198679007589817" lon="-6.620873026549816">
        <ele>35.229999999999997</ele>
        <time>2026-07-07T08:59:04Z</time>
      </trkpt>
      <trkpt lat="55.199796985834837" lon="-6.617909017950296">
        <ele>38.109999999999999</ele>
        <time>2026-07-07T08:59:15Z</time>
      </trkpt>
      <trkpt lat="55.201009009033442" lon="-6.615593014284968">
        <ele>41.469999999999999</ele>
        <time>2026-07-07T08:59:25Z</time>
      </trkpt>
      <trkpt lat="55.201805960386992" lon="-6.613939013332129">
        <ele>44.359999999999999</ele>
        <time>2026-07-07T08:59:32Z</time>
      </trkpt>
      <trkpt lat="55.201947027817369" lon="-6.613756958395243">
        <ele>44.359999999999999</ele>
        <time>2026-07-07T08:59:33Z</time>
      </trkpt>
      <trkpt lat="55.202093962579966" lon="-6.61357699893415">
        <ele>44.359999999999999</ele>
        <time>2026-07-07T08:59:34Z</time>
      </trkpt>
      <trkpt lat="55.203225016593933" lon="-6.611978989094496">
        <ele>44.359999999999999</ele>
        <time>2026-07-07T08:59:42Z</time>
      </trkpt>
      <trkpt lat="55.2042939607054" lon="-6.609596014022827">
        <ele>41.469999999999999</ele>
        <time>2026-07-07T08:59:52Z</time>
      </trkpt>
      <trkpt lat="55.204606018960476" lon="-6.608744999393821">
        <ele>40.030000000000001</ele>
        <time>2026-07-07T08:59:58Z</time>
      </trkpt>
      <trkpt lat="55.204966021701694" lon="-6.607703967019916">
        <ele>39.549999999999997</ele>
        <time>2026-07-07T09:00:06Z</time>
      </trkpt>
      <trkpt lat="55.20528101362288" lon="-6.605952987447381">
        <ele>36.670000000000002</ele>
        <time>2026-07-07T09:00:13Z</time>
      </trkpt>
      <trkpt lat="55.20599003881216" lon="-6.603200035169721">
        <ele>31.379999999999999</ele>
        <time>2026-07-07T09:00:24Z</time>
      </trkpt>
      <trkpt lat="55.206282986328006" lon="-6.602171994745731">
        <ele>31.379999999999999</ele>
        <time>2026-07-07T09:00:28Z</time>
      </trkpt>
      <trkpt lat="55.206330008804798" lon="-6.601891033351421">
        <ele>31.379999999999999</ele>
        <time>2026-07-07T09:00:29Z</time>
      </trkpt>
      <trkpt lat="55.206540981307626" lon="-6.599894966930151">
        <ele>35.229999999999997</ele>
        <time>2026-07-07T09:00:36Z</time>
      </trkpt>
      <trkpt lat="55.206522960215807" lon="-6.599660022184253">
        <ele>36.189999999999998</ele>
        <time>2026-07-07T09:00:37Z</time>
      </trkpt>
      <trkpt lat="55.2065060287714" lon="-6.599443014711142">
        <ele>36.670000000000002</ele>
        <time>2026-07-07T09:00:38Z</time>
      </trkpt>
      <trkpt lat="55.206491025164723" lon="-6.599244028329849">
        <ele>37.149999999999999</ele>
        <time>2026-07-07T09:00:39Z</time>
      </trkpt>
      <trkpt lat="55.206477027386427" lon="-6.599062979221344">
        <ele>37.630000000000003</ele>
        <time>2026-07-07T09:00:40Z</time>
      </trkpt>
      <trkpt lat="55.206508040428162" lon="-6.598889976739883">
        <ele>38.109999999999999</ele>
        <time>2026-07-07T09:00:41Z</time>
      </trkpt>
      <trkpt lat="55.206568976864219" lon="-6.598732983693481">
        <ele>38.109999999999999</ele>
        <time>2026-07-07T09:00:42Z</time>
      </trkpt>
      <trkpt lat="55.206633014604449" lon="-6.598566016182303">
        <ele>38.590000000000003</ele>
        <time>2026-07-07T09:00:43Z</time>
      </trkpt>
      <trkpt lat="55.206959992647171" lon="-6.597572006285191">
        <ele>40.030000000000001</ele>
        <time>2026-07-07T09:00:48Z</time>
      </trkpt>
      <trkpt lat="55.20702201873064" lon="-6.597339995205402">
        <ele>40.509999999999998</ele>
        <time>2026-07-07T09:00:49Z</time>
      </trkpt>
      <trkpt lat="55.207037022337317" lon="-6.59707697108388">
        <ele>40.990000000000002</ele>
        <time>2026-07-07T09:00:50Z</time>
      </trkpt>
      <trkpt lat="55.207045990973711" lon="-6.596814030781388">
        <ele>41.469999999999999</ele>
        <time>2026-07-07T09:00:51Z</time>
      </trkpt>
      <trkpt lat="55.207054959610105" lon="-6.596548995003104">
        <ele>42.439999999999998</ele>
        <time>2026-07-07T09:00:52Z</time>
      </trkpt>
      <trkpt lat="55.207170965149999" lon="-6.594428960233927">
        <ele>44.359999999999999</ele>
        <time>2026-07-07T09:01:00Z</time>
      </trkpt>
      <trkpt lat="55.207212036475539" lon="-6.594172976911068">
        <ele>44.840000000000003</ele>
        <time>2026-07-07T09:01:01Z</time>
      </trkpt>
      <trkpt lat="55.207269033417106" lon="-6.593934008851647">
        <ele>44.840000000000003</ele>
        <time>2026-07-07T09:01:02Z</time>
      </trkpt>
      <trkpt lat="55.207414962351322" lon="-6.593283992260695">
        <ele>44.840000000000003</ele>
        <time>2026-07-07T09:01:05Z</time>
      </trkpt>
      <trkpt lat="55.207414962351322" lon="-6.593066984787583">
        <ele>44.840000000000003</ele>
        <time>2026-07-07T09:01:06Z</time>
      </trkpt>
      <trkpt lat="55.207414040341973" lon="-6.592838997021318">
        <ele>44.359999999999999</ele>
        <time>2026-07-07T09:01:07Z</time>
      </trkpt>
      <trkpt lat="55.207369029521942" lon="-6.592616038396955">
        <ele>44.359999999999999</ele>
        <time>2026-07-07T09:01:08Z</time>
      </trkpt>
      <trkpt lat="55.20732301287353" lon="-6.592388972640038">
        <ele>44.840000000000003</ele>
        <time>2026-07-07T09:01:09Z</time>
      </trkpt>
      <trkpt lat="55.20727900788188" lon="-6.592169031500816">
        <ele>44.840000000000003</ele>
        <time>2026-07-07T09:01:10Z</time>
      </trkpt>
      <trkpt lat="55.20727900788188" lon="-6.591931991279125">
        <ele>44.840000000000003</ele>
        <time>2026-07-07T09:01:11Z</time>
      </trkpt>
      <trkpt lat="55.20729904063046" lon="-6.591693023219705">
        <ele>45.32</ele>
        <time>2026-07-07T09:01:12Z</time>
      </trkpt>
      <trkpt lat="55.207318989560008" lon="-6.59144701436162">
        <ele>45.32</ele>
        <time>2026-07-07T09:01:13Z</time>
      </trkpt>
      <trkpt lat="55.207352014258504" lon="-6.591192036867142">
        <ele>45.799999999999997</ele>
        <time>2026-07-07T09:01:14Z</time>
      </trkpt>
      <trkpt lat="55.207705982029438" lon="-6.589167974889278">
        <ele>49.159999999999997</ele>
        <time>2026-07-07T09:01:22Z</time>
      </trkpt>
      <trkpt lat="55.207777982577682" lon="-6.58897502347827">
        <ele>49.649999999999999</ele>
        <time>2026-07-07T09:01:23Z</time>
      </trkpt>
      <trkpt lat="55.208307970315218" lon="-6.587234018370509">
        <ele>53.490000000000002</ele>
        <time>2026-07-07T09:01:31Z</time>
      </trkpt>
      <trkpt lat="55.208728993311524" lon="-6.584781976416707">
        <ele>58.299999999999997</ele>
        <time>2026-07-07T09:01:40Z</time>
      </trkpt>
      <trkpt lat="55.208725975826383" lon="-6.584493974223733">
        <ele>58.780000000000001</ele>
        <time>2026-07-07T09:01:41Z</time>
      </trkpt>
      <trkpt lat="55.208685994148254" lon="-6.584215024486184">
        <ele>59.259999999999998</ele>
        <time>2026-07-07T09:01:42Z</time>
      </trkpt>
      <trkpt lat="55.208646012470126" lon="-6.583935990929604">
        <ele>59.740000000000002</ele>
        <time>2026-07-07T09:01:43Z</time>
      </trkpt>
      <trkpt lat="55.208607958629727" lon="-6.583665004000068">
        <ele>59.740000000000002</ele>
        <time>2026-07-07T09:01:44Z</time>
      </trkpt>
      <trkpt lat="55.208371002227068" lon="-6.581539018079639">
        <ele>56.859999999999999</ele>
        <time>2026-07-07T09:01:53Z</time>
      </trkpt>
      <trkpt lat="55.208337977528572" lon="-6.580832004547119">
        <ele>55.409999999999997</ele>
        <time>2026-07-07T09:01:56Z</time>
      </trkpt>
      <trkpt lat="55.208366978913546" lon="-6.58059898763895">
        <ele>54.450000000000003</ele>
        <time>2026-07-07T09:01:57Z</time>
      </trkpt>
      <trkpt lat="55.20839799195528" lon="-6.580351972952485">
        <ele>53.969999999999999</ele>
        <time>2026-07-07T09:01:58Z</time>
      </trkpt>
      <trkpt lat="55.208435961976647" lon="-6.580100012943149">
        <ele>53.009999999999998</ele>
        <time>2026-07-07T09:01:59Z</time>
      </trkpt>
      <trkpt lat="55.208498993888497" lon="-6.579864984378219">
        <ele>52.530000000000001</ele>
        <time>2026-07-07T09:02:00Z</time>
      </trkpt>
      <trkpt lat="55.208734022453427" lon="-6.578981028869748">
        <ele>51.57</ele>
        <time>2026-07-07T09:02:05Z</time>
      </trkpt>
      <trkpt lat="55.208751037716866" lon="-6.578917996957898">
        <ele>51.57</ele>
        <time>2026-07-07T09:02:06Z</time>
      </trkpt>
      <trkpt lat="55.208834018558264" lon="-6.578864017501473">
        <ele>51.57</ele>
        <time>2026-07-07T09:02:07Z</time>
      </trkpt>
      <trkpt lat="55.208852961659431" lon="-6.578894024714828">
        <ele>51.090000000000003</ele>
        <time>2026-07-07T09:02:08Z</time>
      </trkpt>
      <trkpt lat="55.208880035206676" lon="-6.578935012221336">
        <ele>51.090000000000003</ele>
        <time>2026-07-07T09:02:09Z</time>
      </trkpt>
      <trkpt lat="55.208918005228043" lon="-6.578995026648045">
        <ele>51.090000000000003</ele>
        <time>2026-07-07T09:02:10Z</time>
      </trkpt>
      <trkpt lat="55.208961004391313" lon="-6.579061998054385">
        <ele>51.090000000000003</ele>
        <time>2026-07-07T09:02:11Z</time>
      </trkpt>
      <trkpt lat="55.209002997726202" lon="-6.579097034409642">
        <ele>51.090000000000003</ele>
        <time>2026-07-07T09:02:12Z</time>
      </trkpt>
      <trkpt lat="55.209053037688136" lon="-6.579103991389275">
        <ele>51.090000000000003</ele>
        <time>2026-07-07T09:02:13Z</time>
      </trkpt>
      <trkpt lat="55.209101988002658" lon="-6.579111032187939">
        <ele>51.57</ele>
        <time>2026-07-07T09:02:14Z</time>
      </trkpt>
      <trkpt lat="55.20914901047945" lon="-6.579104997217655">
        <ele>51.57</ele>
        <time>2026-07-07T09:02:15Z</time>
      </trkpt>
      <trkpt lat="55.209201984107494" lon="-6.579071972519159">
        <ele>52.049999999999997</ele>
        <time>2026-07-07T09:02:16Z</time>
      </trkpt>
      <trkpt lat="55.209260992705822" lon="-6.579035008326173">
        <ele>52.530000000000001</ele>
        <time>2026-07-07T09:02:17Z</time>
      </trkpt>
      <trkpt lat="55.209526028484106" lon="-6.578870974481106">
        <ele>53.009999999999998</ele>
        <time>2026-07-07T09:02:22Z</time>
      </trkpt>
      <trkpt lat="55.209574978798628" lon="-6.578839961439371">
        <ele>53.009999999999998</ele>
        <time>2026-07-07T09:02:23Z</time>
      </trkpt>
      <trkpt lat="55.209754016250372" lon="-6.57872898504138">
        <ele>53.969999999999999</ele>
        <time>2026-07-07T09:02:28Z</time>
      </trkpt>
      <trkpt lat="55.209807995706797" lon="-6.578680034726858">
        <ele>55.409999999999997</ele>
        <time>2026-07-07T09:02:37Z</time>
      </trkpt>
      <trkpt lat="55.209807995706797" lon="-6.578680034726858">
        <ele>55.409999999999997</ele>
        <time>2026-07-07T09:03:22Z</time>
      </trkpt>
      <trkpt lat="55.209807995706797" lon="-6.578680034726858">
        <ele>54.93</ele>
        <time>2026-07-07T09:04:10Z</time>
      </trkpt>
      <trkpt lat="55.209819981828332" lon="-6.578734014183283">
        <ele>53.490000000000002</ele>
        <time>2026-07-07T09:09:55Z</time>
      </trkpt>
      <trkpt lat="55.209848983213305" lon="-6.578734014183283">
        <ele>56.859999999999999</ele>
        <time>2026-07-07T09:10:25Z</time>
      </trkpt>
      <trkpt lat="55.209845965728164" lon="-6.578743988648057">
        <ele>55.409999999999997</ele>
        <time>2026-07-07T09:11:25Z</time>
      </trkpt>
      <trkpt lat="55.209842026233673" lon="-6.578740971162915">
        <ele>55.409999999999997</ele>
        <time>2026-07-07T09:12:19Z</time>
      </trkpt>
      <trkpt lat="55.209842026233673" lon="-6.578742982819676">
        <ele>55.409999999999997</ele>
        <time>2026-07-07T09:13:04Z</time>
      </trkpt>
      <trkpt lat="55.209861975163221" lon="-6.578718004748225">
        <ele>55.409999999999997</ele>
        <time>2026-07-07T09:13:28Z</time>
      </trkpt>
      <trkpt lat="55.209861975163221" lon="-6.578718004748225">
        <ele>55.409999999999997</ele>
        <time>2026-07-07T09:13:33Z</time>
      </trkpt>
      <trkpt lat="55.209511024877429" lon="-6.578880026936531">
        <ele>56.859999999999999</ele>
        <time>2026-07-07T09:13:42Z</time>
      </trkpt>
      <trkpt lat="55.20908497273922" lon="-6.579109020531178">
        <ele>57.82</ele>
        <time>2026-07-07T09:13:49Z</time>
      </trkpt>
      <trkpt lat="55.209028981626034" lon="-6.579100973904133">
        <ele>57.82</ele>
        <time>2026-07-07T09:13:50Z</time>
      </trkpt>
      <trkpt lat="55.208981959149241" lon="-6.579094016924501">
        <ele>57.82</ele>
        <time>2026-07-07T09:13:51Z</time>
      </trkpt>
      <trkpt lat="55.208944994956255" lon="-6.579036014154553">
        <ele>57.82</ele>
        <time>2026-07-07T09:13:52Z</time>
      </trkpt>
      <trkpt lat="55.208907024934888" lon="-6.578978011384606">
        <ele>57.340000000000003</ele>
        <time>2026-07-07T09:13:53Z</time>
      </trkpt>
      <trkpt lat="55.208875006064773" lon="-6.578928977251053">
        <ele>56.859999999999999</ele>
        <time>2026-07-07T09:13:54Z</time>
      </trkpt>
      <trkpt lat="55.208854973316193" lon="-6.578897964209318">
        <ele>56.369999999999997</ele>
        <time>2026-07-07T09:13:55Z</time>
      </trkpt>
      <trkpt lat="55.208846004679799" lon="-6.578882960602641">
        <ele>56.369999999999997</ele>
        <time>2026-07-07T09:13:56Z</time>
      </trkpt>
      <trkpt lat="55.208823038265109" lon="-6.578711969777942">
        <ele>54.450000000000003</ele>
        <time>2026-07-07T09:14:03Z</time>
      </trkpt>
      <trkpt lat="55.208855979144573" lon="-6.578632006421685">
        <ele>53.969999999999999</ele>
        <time>2026-07-07T09:14:04Z</time>
      </trkpt>
      <trkpt lat="55.209244983270764" lon="-6.577821979299188">
        <ele>52.530000000000001</ele>
        <time>2026-07-07T09:14:10Z</time>
      </trkpt>
      <trkpt lat="55.210227007046342" lon="-6.576754041016102">
        <ele>51.57</ele>
        <time>2026-07-07T09:14:18Z</time>
      </trkpt>
      <trkpt lat="55.211154967546463" lon="-6.575997993350029">
        <ele>50.609999999999999</ele>
        <time>2026-07-07T09:14:26Z</time>
      </trkpt>
      <trkpt lat="55.211885031312704" lon="-6.575485020875931">
        <ele>48.68</ele>
        <time>2026-07-07T09:14:36Z</time>
      </trkpt>
      <trkpt lat="55.211885031312704" lon="-6.575485020875931">
        <ele>48.68</ele>
        <time>2026-07-07T09:14:46Z</time>
      </trkpt>
      <trkpt lat="55.212025009095669" lon="-6.575402040034533">
        <ele>49.649999999999999</ele>
        <time>2026-07-07T09:15:22Z</time>
      </trkpt>
      <trkpt lat="55.212025009095669" lon="-6.575402040034533">
        <ele>49.649999999999999</ele>
        <time>2026-07-07T09:15:38Z</time>
      </trkpt>
      <trkpt lat="55.212032971903682" lon="-6.575396005064249">
        <ele>49.649999999999999</ele>
        <time>2026-07-07T09:15:40Z</time>
      </trkpt>
      <trkpt lat="55.212120981886983" lon="-6.575344037264586">
        <ele>50.130000000000003</ele>
        <time>2026-07-07T09:15:42Z</time>
      </trkpt>
      <trkpt lat="55.212184013798833" lon="-6.575305983424187">
        <ele>50.130000000000003</ele>
        <time>2026-07-07T09:15:43Z</time>
      </trkpt>
      <trkpt lat="55.212252996861935" lon="-6.575264995917678">
        <ele>50.130000000000003</ele>
        <time>2026-07-07T09:15:44Z</time>
      </trkpt>
      <trkpt lat="55.212331032380462" lon="-6.575217973440886">
        <ele>50.130000000000003</ele>
        <time>2026-07-07T09:15:45Z</time>
      </trkpt>
      <trkpt lat="55.212418958544731" lon="-6.575164999812841">
        <ele>50.130000000000003</ele>
        <time>2026-07-07T09:15:46Z</time>
      </trkpt>
      <trkpt lat="55.212975014001131" lon="-6.57475302927196">
        <ele>51.57</ele>
        <time>2026-07-07T09:15:52Z</time>
      </trkpt>
      <trkpt lat="55.2130370400846" lon="-6.574673987925053">
        <ele>52.049999999999997</ele>
        <time>2026-07-07T09:15:53Z</time>
      </trkpt>
      <trkpt lat="55.213054977357388" lon="-6.574526969343424">
        <ele>52.530000000000001</ele>
        <time>2026-07-07T09:15:54Z</time>
      </trkpt>
      <trkpt lat="55.213075010105968" lon="-6.57436897046864">
        <ele>52.049999999999997</ele>
        <time>2026-07-07T09:15:55Z</time>
      </trkpt>
      <trkpt lat="55.213095964863896" lon="-6.574202002957463">
        <ele>52.530000000000001</ele>
        <time>2026-07-07T09:15:56Z</time>
      </trkpt>
      <trkpt lat="55.21310199983418" lon="-6.574011985212565">
        <ele>52.530000000000001</ele>
        <time>2026-07-07T09:15:57Z</time>
      </trkpt>
      <trkpt lat="55.21310199983418" lon="-6.57380897551775">
        <ele>53.009999999999998</ele>
        <time>2026-07-07T09:15:58Z</time>
      </trkpt>
      <trkpt lat="55.21301600150764" lon="-6.573020992800593">
        <ele>52.530000000000001</ele>
        <time>2026-07-07T09:16:02Z</time>
      </trkpt>
      <trkpt lat="55.212949030101299" lon="-6.572812031954527">
        <ele>52.049999999999997</ele>
        <time>2026-07-07T09:16:03Z</time>
      </trkpt>
      <trkpt lat="55.212885998189449" lon="-6.572617990896106">
        <ele>52.049999999999997</ele>
        <time>2026-07-07T09:16:04Z</time>
      </trkpt>
      <trkpt lat="55.212294990196824" lon="-6.570551013574004">
        <ele>50.130000000000003</ele>
        <time>2026-07-07T09:16:13Z</time>
      </trkpt>
      <trkpt lat="55.211943034082651" lon="-6.568542961031199">
        <ele>51.57</ele>
        <time>2026-07-07T09:16:21Z</time>
      </trkpt>
      <trkpt lat="55.211943034082651" lon="-6.568298041820526">
        <ele>51.57</ele>
        <time>2026-07-07T09:16:22Z</time>
      </trkpt>
      <trkpt lat="55.21196398884058" lon="-6.568043986335397">
        <ele>51.57</ele>
        <time>2026-07-07T09:16:23Z</time>
      </trkpt>
      <trkpt lat="55.212034983560443" lon="-6.567831002175808">
        <ele>51.57</ele>
        <time>2026-07-07T09:16:24Z</time>
      </trkpt>
      <trkpt lat="55.212105978280306" lon="-6.567618018016219">
        <ele>52.049999999999997</ele>
        <time>2026-07-07T09:16:25Z</time>
      </trkpt>
      <trkpt lat="55.212203040719032" lon="-6.56742800027132">
        <ele>52.049999999999997</ele>
        <time>2026-07-07T09:16:26Z</time>
      </trkpt>
      <trkpt lat="55.212312005460262" lon="-6.567264972254634">
        <ele>51.57</ele>
        <time>2026-07-07T09:16:27Z</time>
      </trkpt>
      <trkpt lat="55.212862025946379" lon="-6.56643901951611">
        <ele>51.57</ele>
        <time>2026-07-07T09:16:32Z</time>
      </trkpt>
      <trkpt lat="55.212957998737693" lon="-6.566252019256353">
        <ele>51.57</ele>
        <time>2026-07-07T09:16:33Z</time>
      </trkpt>
      <trkpt lat="55.213045002892613" lon="-6.566043980419636">
        <ele>51.57</ele>
        <time>2026-07-07T09:16:34Z</time>
      </trkpt>
      <trkpt lat="55.21312303841114" lon="-6.565824961289764">
        <ele>51.57</ele>
        <time>2026-07-07T09:16:35Z</time>
      </trkpt>
      <trkpt lat="55.213195960968733" lon="-6.565592028200626">
        <ele>51.090000000000003</ele>
        <time>2026-07-07T09:16:36Z</time>
      </trkpt>
      <trkpt lat="55.213436018675566" lon="-6.563778016716242">
        <ele>47.719999999999999</ele>
        <time>2026-07-07T09:16:43Z</time>
      </trkpt>
      <trkpt lat="55.213422020897269" lon="-6.563510969281197">
        <ele>46.759999999999998</ele>
        <time>2026-07-07T09:16:44Z</time>
      </trkpt>
      <trkpt lat="55.213067969307303" lon="-6.560837980359793">
        <ele>41.950000000000003</ele>
        <time>2026-07-07T09:16:54Z</time>
      </trkpt>
      <trkpt lat="55.212390962988138" lon="-6.558227017521858">
        <ele>39.549999999999997</ele>
        <time>2026-07-07T09:17:05Z</time>
      </trkpt>
      <trkpt lat="55.211307015269995" lon="-6.55434200540185">
        <ele>41.469999999999999</ele>
        <time>2026-07-07T09:17:21Z</time>
      </trkpt>
      <trkpt lat="55.21020102314651" lon="-6.551065016537905">
        <ele>38.590000000000003</ele>
        <time>2026-07-07T09:17:34Z</time>
      </trkpt>
      <trkpt lat="55.209153033792973" lon="-6.546851014718413">
        <ele>35.229999999999997</ele>
        <time>2026-07-07T09:17:49Z</time>
      </trkpt>
      <trkpt lat="55.208075037226081" lon="-6.541868979111314">
        <ele>31.859999999999999</ele>
        <time>2026-07-07T09:18:06Z</time>
      </trkpt>
      <trkpt lat="55.207418985664845" lon="-6.538667008280754">
        <ele>31.379999999999999</ele>
        <time>2026-07-07T09:18:18Z</time>
      </trkpt>
      <trkpt lat="55.206888997927308" lon="-6.535250963643193">
        <ele>28.02</ele>
        <time>2026-07-07T09:18:30Z</time>
      </trkpt>
      <trkpt lat="55.206341994926333" lon="-6.531500983983278">
        <ele>22.25</ele>
        <time>2026-07-07T09:18:44Z</time>
      </trkpt>
      <trkpt lat="55.206042006611824" lon="-6.529279025271535">
        <ele>19.359999999999999</ele>
        <time>2026-07-07T09:18:54Z</time>
      </trkpt>
      <trkpt lat="55.205891970545053" lon="-6.526889009401202">
        <ele>17.440000000000001</ele>
        <time>2026-07-07T09:19:05Z</time>
      </trkpt>
      <trkpt lat="55.205956008285284" lon="-6.525140963494778">
        <ele>15.039999999999999</ele>
        <time>2026-07-07T09:19:15Z</time>
      </trkpt>
      <trkpt lat="55.20603303797543" lon="-6.52379197999835">
        <ele>12.630000000000001</ele>
        <time>2026-07-07T09:19:25Z</time>
      </trkpt>
      <trkpt lat="55.206064973026514" lon="-6.523616965860128">
        <ele>12.630000000000001</ele>
        <time>2026-07-07T09:19:26Z</time>
      </trkpt>
      <trkpt lat="55.206154994666576" lon="-6.523561980575323">
        <ele>12.630000000000001</ele>
        <time>2026-07-07T09:19:27Z</time>
      </trkpt>
      <trkpt lat="55.206214003264904" lon="-6.523566003888845">
        <ele>12.630000000000001</ele>
        <time>2026-07-07T09:19:28Z</time>
      </trkpt>
      <trkpt lat="55.20627100020647" lon="-6.52357597835362">
        <ele>12.630000000000001</ele>
        <time>2026-07-07T09:19:29Z</time>
      </trkpt>
      <trkpt lat="55.20633403211832" lon="-6.523588970303536">
        <ele>12.630000000000001</ele>
        <time>2026-07-07T09:19:30Z</time>
      </trkpt>
      <trkpt lat="55.207073986530304" lon="-6.523746969178319">
        <ele>13.119999999999999</ele>
        <time>2026-07-07T09:19:38Z</time>
      </trkpt>
      <trkpt lat="55.207174988463521" lon="-6.523743029683828">
        <ele>13.119999999999999</ele>
        <time>2026-07-07T09:19:39Z</time>
      </trkpt>
      <trkpt lat="55.207370035350323" lon="-6.523733977228403">
        <ele>13.119999999999999</ele>
        <time>2026-07-07T09:19:41Z</time>
      </trkpt>
      <trkpt lat="55.207462990656495" lon="-6.523702964186668">
        <ele>13.119999999999999</ele>
        <time>2026-07-07T09:19:42Z</time>
      </trkpt>
      <trkpt lat="55.20755703561008" lon="-6.523660970851779">
        <ele>13.6</ele>
        <time>2026-07-07T09:19:43Z</time>
      </trkpt>
      <trkpt lat="55.208416013047099" lon="-6.523127965629101">
        <ele>14.08</ele>
        <time>2026-07-07T09:19:52Z</time>
      </trkpt>
      <trkpt lat="55.208515003323555" lon="-6.523023024201393">
        <ele>13.6</ele>
        <time>2026-07-07T09:19:53Z</time>
      </trkpt>
      <trkpt lat="55.209590988233685" lon="-6.521891970187426">
        <ele>14.08</ele>
        <time>2026-07-07T09:20:03Z</time>
      </trkpt>
      <trkpt lat="55.211525028571486" lon="-6.520232018083334">
        <ele>21.289999999999999</ele>
        <time>2026-07-07T09:20:18Z</time>
      </trkpt>
      <trkpt lat="55.21273797377944" lon="-6.519137006253004">
        <ele>28.98</ele>
        <time>2026-07-07T09:20:27Z</time>
      </trkpt>
      <trkpt lat="55.214187037199736" lon="-6.517821969464421">
        <ele>35.710000000000001</ele>
        <time>2026-07-07T09:20:37Z</time>
      </trkpt>
      <trkpt lat="55.215654959902167" lon="-6.516090016812086">
        <ele>42.439999999999998</ele>
        <time>2026-07-07T09:20:48Z</time>
      </trkpt>
      <trkpt lat="55.217080973088741" lon="-6.514934990555048">
        <ele>48.68</ele>
        <time>2026-07-07T09:20:58Z</time>
      </trkpt>
      <trkpt lat="55.219035968184471" lon="-6.513127014040947">
        <ele>52.530000000000001</ele>
        <time>2026-07-07T09:21:12Z</time>
      </trkpt>
      <trkpt lat="55.219887988641858" lon="-6.512260995805264">
        <ele>56.859999999999999</ele>
        <time>2026-07-07T09:21:20Z</time>
      </trkpt>
      <trkpt lat="55.22004397585988" lon="-6.512096961960197">
        <ele>57.82</ele>
        <time>2026-07-07T09:21:22Z</time>
      </trkpt>
      <trkpt lat="55.220116982236505" lon="-6.512021021917462">
        <ele>58.299999999999997</ele>
        <time>2026-07-07T09:21:23Z</time>
      </trkpt>
      <trkpt lat="55.220269029960036" lon="-6.512058991938829">
        <ele>58.780000000000001</ele>
        <time>2026-07-07T09:21:24Z</time>
      </trkpt>
      <trkpt lat="55.220357961952686" lon="-6.512126969173551">
        <ele>58.780000000000001</ele>
        <time>2026-07-07T09:21:25Z</time>
      </trkpt>
      <trkpt lat="55.220453012734652" lon="-6.512198969721794">
        <ele>59.259999999999998</ele>
        <time>2026-07-07T09:21:26Z</time>
      </trkpt>
      <trkpt lat="55.220554014667869" lon="-6.512275999411941">
        <ele>60.219999999999999</ele>
        <time>2026-07-07T09:21:27Z</time>
      </trkpt>
      <trkpt lat="55.220660967752337" lon="-6.512356968596578">
        <ele>60.700000000000003</ele>
        <time>2026-07-07T09:21:28Z</time>
      </trkpt>
      <trkpt lat="55.221844995394349" lon="-6.513256011530757">
        <ele>62.619999999999997</ele>
        <time>2026-07-07T09:21:37Z</time>
      </trkpt>
      <trkpt lat="55.223375027999282" lon="-6.514417994767427">
        <ele>62.140000000000001</ele>
        <time>2026-07-07T09:21:48Z</time>
      </trkpt>
      <trkpt lat="55.225852970033884" lon="-6.516268970444799">
        <ele>49.159999999999997</ele>
        <time>2026-07-07T09:22:05Z</time>
      </trkpt>
      <trkpt lat="55.227079996839166" lon="-6.517078997567296">
        <ele>42.920000000000002</ele>
        <time>2026-07-07T09:22:14Z</time>
      </trkpt>
      <trkpt lat="55.227177981287241" lon="-6.517141023650765">
        <ele>42.920000000000002</ele>
        <time>2026-07-07T09:22:15Z</time>
      </trkpt>
      <trkpt lat="55.227278983220458" lon="-6.517155021429062">
        <ele>42.920000000000002</ele>
        <time>2026-07-07T09:22:16Z</time>
      </trkpt>
      <trkpt lat="55.227392977103591" lon="-6.51713096536696">
        <ele>42.920000000000002</ele>
        <time>2026-07-07T09:22:17Z</time>
      </trkpt>
      <trkpt lat="55.227512000128627" lon="-6.517105987295508">
        <ele>42.920000000000002</ele>
        <time>2026-07-07T09:22:18Z</time>
      </trkpt>
      <trkpt lat="55.227639991790056" lon="-6.517073968425393">
        <ele>42.439999999999998</ele>
        <time>2026-07-07T09:22:19Z</time>
      </trkpt>
      <trkpt lat="55.227767983451486" lon="-6.516995010897517">
        <ele>42.920000000000002</ele>
        <time>2026-07-07T09:22:20Z</time>
      </trkpt>
      <trkpt lat="55.229169018566608" lon="-6.516127986833453">
        <ele>42.439999999999998</ele>
        <time>2026-07-07T09:22:29Z</time>
      </trkpt>
      <trkpt lat="55.230749007314444" lon="-6.515256017446518">
        <ele>40.030000000000001</ele>
        <time>2026-07-07T09:22:40Z</time>
      </trkpt>
      <trkpt lat="55.231871008872986" lon="-6.515418961644173">
        <ele>41.950000000000003</ele>
        <time>2026-07-07T09:22:48Z</time>
      </trkpt>
      <trkpt lat="55.232068989425898" lon="-6.515562040731311">
        <ele>43.399999999999999</ele>
        <time>2026-07-07T09:22:50Z</time>
      </trkpt>
      <trkpt lat="55.232149958610535" lon="-6.515632029622793">
        <ele>44.359999999999999</ele>
        <time>2026-07-07T09:22:51Z</time>
      </trkpt>
      <trkpt lat="55.232218019664288" lon="-6.515691038221121">
        <ele>44.840000000000003</ele>
        <time>2026-07-07T09:22:52Z</time>
      </trkpt>
      <trkpt lat="55.232275016605854" lon="-6.515739988535643">
        <ele>45.32</ele>
        <time>2026-07-07T09:22:53Z</time>
      </trkpt>
      <trkpt lat="55.232321033254266" lon="-6.515780976042152">
        <ele>45.799999999999997</ele>
        <time>2026-07-07T09:22:54Z</time>
      </trkpt>
      <trkpt lat="55.232361014932394" lon="-6.515816012397409">
        <ele>46.280000000000001</ele>
        <time>2026-07-07T09:22:55Z</time>
      </trkpt>
      <trkpt lat="55.232412982732058" lon="-6.516030002385378">
        <ele>46.759999999999998</ele>
        <time>2026-07-07T09:22:56Z</time>
      </trkpt>
      <trkpt lat="55.232457993552089" lon="-6.516246004030109">
        <ele>48.200000000000003</ele>
        <time>2026-07-07T09:22:59Z</time>
      </trkpt>
      <trkpt lat="55.232501998543739" lon="-6.516290009021759">
        <ele>48.68</ele>
        <time>2026-07-07T09:23:00Z</time>
      </trkpt>
      <trkpt lat="55.232549021020532" lon="-6.516337031498551">
        <ele>49.159999999999997</ele>
        <time>2026-07-07T09:23:01Z</time>
      </trkpt>
      <trkpt lat="55.232608029618859" lon="-6.516394028440118">
        <ele>49.649999999999999</ele>
        <time>2026-07-07T09:23:02Z</time>
      </trkpt>
      <trkpt lat="55.232667038217187" lon="-6.516370978206396">
        <ele>50.130000000000003</ele>
        <time>2026-07-07T09:23:03Z</time>
      </trkpt>
      <trkpt lat="55.232722023501992" lon="-6.516349017620087">
        <ele>50.609999999999999</ele>
        <time>2026-07-07T09:23:04Z</time>
      </trkpt>
      <trkpt lat="55.232765022665262" lon="-6.516330996528268">
        <ele>51.57</ele>
        <time>2026-07-07T09:23:05Z</time>
      </trkpt>
      <trkpt lat="55.232802992686629" lon="-6.516315992921591">
        <ele>52.530000000000001</ele>
        <time>2026-07-07T09:23:06Z</time>
      </trkpt>
      <trkpt lat="55.233036009594798" lon="-6.516223037615418">
        <ele>55.409999999999997</ele>
        <time>2026-07-07T09:23:18Z</time>
      </trkpt>
      <trkpt lat="55.233036009594798" lon="-6.516223037615418">
        <ele>55.890000000000001</ele>
        <time>2026-07-07T09:23:41Z</time>
      </trkpt>
      <trkpt lat="55.233141034841537" lon="-6.516179032623768">
        <ele>54.93</ele>
        <time>2026-07-07T09:24:14Z</time>
      </trkpt>
      <trkpt lat="55.233093006536365" lon="-6.515956996008754">
        <ele>53.490000000000002</ele>
        <time>2026-07-07T09:24:21Z</time>
      </trkpt>
      <trkpt lat="55.2330859657377" lon="-6.515950039029121">
        <ele>53.490000000000002</ele>
        <time>2026-07-07T09:24:36Z</time>
      </trkpt>
      <trkpt lat="55.233084037899971" lon="-6.51594802737236">
        <ele>53.490000000000002</ele>
        <time>2026-07-07T09:25:22Z</time>
      </trkpt>
      <trkpt lat="55.233084037899971" lon="-6.51594802737236">
        <ele>53.490000000000002</ele>
        <time>2026-07-07T09:25:37Z</time>
      </trkpt>
      <trkpt lat="55.233078002929688" lon="-6.515420973300934">
        <ele>53.009999999999998</ele>
        <time>2026-07-07T09:25:43Z</time>
      </trkpt>
      <trkpt lat="55.232947999611497" lon="-6.515145963057876">
        <ele>53.490000000000002</ele>
        <time>2026-07-07T09:25:49Z</time>
      </trkpt>
      <trkpt lat="55.232944982126355" lon="-6.515446035191417">
        <ele>53.969999999999999</ele>
        <time>2026-07-07T09:25:53Z</time>
      </trkpt>
      <trkpt lat="55.233050007373095" lon="-6.516104014590383">
        <ele>53.009999999999998</ele>
        <time>2026-07-07T09:26:03Z</time>
      </trkpt>
      <trkpt lat="55.233050007373095" lon="-6.516104014590383">
        <ele>53.009999999999998</ele>
        <time>2026-07-07T09:26:19Z</time>
      </trkpt>
      <trkpt lat="55.23301899433136" lon="-6.516229994595051">
        <ele>53.009999999999998</ele>
        <time>2026-07-07T09:26:21Z</time>
      </trkpt>
      <trkpt lat="55.232971971854568" lon="-6.51624902151525">
        <ele>53.009999999999998</ele>
        <time>2026-07-07T09:26:22Z</time>
      </trkpt>
      <trkpt lat="55.232912041246891" lon="-6.51627198792994">
        <ele>53.009999999999998</ele>
        <time>2026-07-07T09:26:23Z</time>
      </trkpt>
      <trkpt lat="55.23284699767828" lon="-6.516298977658153">
        <ele>52.530000000000001</ele>
        <time>2026-07-07T09:26:24Z</time>
      </trkpt>
      <trkpt lat="55.232779020443559" lon="-6.516325967386365">
        <ele>52.049999999999997</ele>
        <time>2026-07-07T09:26:25Z</time>
      </trkpt>
      <trkpt lat="55.232560001313686" lon="-6.516348011791706">
        <ele>51.57</ele>
        <time>2026-07-07T09:26:28Z</time>
      </trkpt>
      <trkpt lat="55.232508033514023" lon="-6.516295960173011">
        <ele>51.090000000000003</ele>
        <time>2026-07-07T09:26:29Z</time>
      </trkpt>
      <trkpt lat="55.232455981895328" lon="-6.516243992373347">
        <ele>50.609999999999999</ele>
        <time>2026-07-07T09:26:30Z</time>
      </trkpt>
      <trkpt lat="55.232443995773792" lon="-6.516181966289878">
        <ele>50.609999999999999</ele>
        <time>2026-07-07T09:26:31Z</time>
      </trkpt>
      <trkpt lat="55.232412982732058" lon="-6.516030002385378">
        <ele>50.609999999999999</ele>
        <time>2026-07-07T09:26:32Z</time>
      </trkpt>
      <trkpt lat="55.23241801187396" lon="-6.516001001000404">
        <ele>50.609999999999999</ele>
        <time>2026-07-07T09:26:33Z</time>
      </trkpt>
      <trkpt lat="55.232478026300669" lon="-6.515831016004086">
        <ele>50.609999999999999</ele>
        <time>2026-07-07T09:26:34Z</time>
      </trkpt>
      <trkpt lat="55.232851020991802" lon="-6.514793001115322">
        <ele>52.049999999999997</ele>
        <time>2026-07-07T09:26:41Z</time>
      </trkpt>
      <trkpt lat="55.233114967122674" lon="-6.513883983716369">
        <ele>55.409999999999997</ele>
        <time>2026-07-07T09:26:48Z</time>
      </trkpt>
      <trkpt lat="55.233355024829507" lon="-6.513027017936111">
        <ele>57.340000000000003</ele>
        <time>2026-07-07T09:26:56Z</time>
      </trkpt>
      <trkpt lat="55.233633974567056" lon="-6.512215984985232">
        <ele>58.299999999999997</ele>
        <time>2026-07-07T09:27:04Z</time>
      </trkpt>
      <trkpt lat="55.233894987031817" lon="-6.511037992313504">
        <ele>60.219999999999999</ele>
        <time>2026-07-07T09:27:11Z</time>
      </trkpt>
      <trkpt lat="55.23396598175168" lon="-6.51049098931253">
        <ele>62.619999999999997</ele>
        <time>2026-07-07T09:27:20Z</time>
      </trkpt>
      <trkpt lat="55.233988026157022" lon="-6.51027699932456">
        <ele>63.579999999999998</ele>
        <time>2026-07-07T09:27:44Z</time>
      </trkpt>
      <trkpt lat="55.234004035592079" lon="-6.510101985186338">
        <ele>63.579999999999998</ele>
        <time>2026-07-07T09:27:51Z</time>
      </trkpt>
      <trkpt lat="55.234004035592079" lon="-6.510101985186338">
        <ele>64.069999999999993</ele>
        <time>2026-07-07T09:28:44Z</time>
      </trkpt>
      <trkpt lat="55.234019961208105" lon="-6.509930994361639">
        <ele>64.549999999999997</ele>
        <time>2026-07-07T09:29:09Z</time>
      </trkpt>
      <trkpt lat="55.234043011441827" lon="-6.50969403795898">
        <ele>64.069999999999993</ele>
        <time>2026-07-07T09:29:37Z</time>
      </trkpt>
      <trkpt lat="55.234173014760017" lon="-6.50829903781414">
        <ele>65.989999999999995</ele>
        <time>2026-07-07T09:29:45Z</time>
      </trkpt>
      <trkpt lat="55.234292037785053" lon="-6.506734974682331">
        <ele>66.950000000000003</ele>
        <time>2026-07-07T09:29:53Z</time>
      </trkpt>
      <trkpt lat="55.234504016116261" lon="-6.503817988559604">
        <ele>69.349999999999994</ele>
        <time>2026-07-07T09:30:06Z</time>
      </trkpt>
      <trkpt lat="55.234741978347301" lon="-6.500567989423871">
        <ele>73.200000000000003</ele>
        <time>2026-07-07T09:30:20Z</time>
      </trkpt>
      <trkpt lat="55.23495496250689" lon="-6.49751496501267">
        <ele>78.969999999999999</ele>
        <time>2026-07-07T09:30:32Z</time>
      </trkpt>
      <trkpt lat="55.235289987176657" lon="-6.494150971993804">
        <ele>81.849999999999994</ele>
        <time>2026-07-07T09:30:44Z</time>
      </trkpt>
      <trkpt lat="55.235829027369618" lon="-6.489980975165963">
        <ele>77.040000000000006</ele>
        <time>2026-07-07T09:30:56Z</time>
      </trkpt>
      <trkpt lat="55.23634702898562" lon="-6.486009964719415">
        <ele>83.290000000000006</ele>
        <time>2026-07-07T09:31:08Z</time>
      </trkpt>
      <trkpt lat="55.23647703230381" lon="-6.48421598598361">
        <ele>84.25</ele>
        <time>2026-07-07T09:31:15Z</time>
      </trkpt>
      <trkpt lat="55.236435038968921" lon="-6.481926972046495">
        <ele>78.969999999999999</ele>
        <time>2026-07-07T09:31:24Z</time>
      </trkpt>
      <trkpt lat="55.236488012596965" lon="-6.480270959436894">
        <ele>78</ele>
        <time>2026-07-07T09:31:32Z</time>
      </trkpt>
      <trkpt lat="55.236548027023673" lon="-6.478400034829974">
        <ele>73.680000000000007</ele>
        <time>2026-07-07T09:31:38Z</time>
      </trkpt>
      <trkpt lat="55.236626984551549" lon="-6.475952016189694">
        <ele>66.950000000000003</ele>
        <time>2026-07-07T09:31:43Z</time>
      </trkpt>
      <trkpt lat="55.236636037006974" lon="-6.473641963675618">
        <ele>64.549999999999997</ele>
        <time>2026-07-07T09:31:49Z</time>
      </trkpt>
      <trkpt lat="55.236439984291792" lon="-6.471625026315451">
        <ele>68.390000000000001</ele>
        <time>2026-07-07T09:31:56Z</time>
      </trkpt>
      <trkpt lat="55.23639002814889" lon="-6.471380023285747">
        <ele>68.390000000000001</ele>
        <time>2026-07-07T09:31:57Z</time>
      </trkpt>
      <trkpt lat="55.235906979069114" lon="-6.469125039875507">
        <ele>66.469999999999999</ele>
        <time>2026-07-07T09:32:05Z</time>
      </trkpt>
      <trkpt lat="55.235476987436414" lon="-6.465927008539438">
        <ele>58.780000000000001</ele>
        <time>2026-07-07T09:32:17Z</time>
      </trkpt>
      <trkpt lat="55.235073985531926" lon="-6.462396970018745">
        <ele>60.700000000000003</ele>
        <time>2026-07-07T09:32:33Z</time>
      </trkpt>
      <trkpt lat="55.234944988042116" lon="-6.461019990965724">
        <ele>57.82</ele>
        <time>2026-07-07T09:32:39Z</time>
      </trkpt>
      <trkpt lat="55.234944988042116" lon="-6.460782028734684">
        <ele>56.859999999999999</ele>
        <time>2026-07-07T09:32:40Z</time>
      </trkpt>
      <trkpt lat="55.23495496250689" lon="-6.46053702570498">
        <ele>55.890000000000001</ele>
        <time>2026-07-07T09:32:41Z</time>
      </trkpt>
      <trkpt lat="55.235000979155302" lon="-6.460304008796811">
        <ele>55.409999999999997</ele>
        <time>2026-07-07T09:32:42Z</time>
      </trkpt>
      <trkpt lat="55.235049007460475" lon="-6.460065962746739">
        <ele>54.450000000000003</ele>
        <time>2026-07-07T09:32:43Z</time>
      </trkpt>
      <trkpt lat="55.235377997159958" lon="-6.458419002592564">
        <ele>50.130000000000003</ele>
        <time>2026-07-07T09:32:52Z</time>
      </trkpt>
      <trkpt lat="55.23544798605144" lon="-6.458071991801262">
        <ele>49.649999999999999</ele>
        <time>2026-07-07T09:32:56Z</time>
      </trkpt>
      <trkpt lat="55.235458966344595" lon="-6.458013989031315">
        <ele>49.649999999999999</ele>
        <time>2026-07-07T09:32:57Z</time>
      </trkpt>
      <trkpt lat="55.235444968566298" lon="-6.457842998206615">
        <ele>49.159999999999997</ele>
        <time>2026-07-07T09:32:58Z</time>
      </trkpt>
      <trkpt lat="55.235406998544931" lon="-6.457782983779907">
        <ele>49.159999999999997</ele>
        <time>2026-07-07T09:32:59Z</time>
      </trkpt>
      <trkpt lat="55.23536098189652" lon="-6.457710983231664">
        <ele>49.159999999999997</ele>
        <time>2026-07-07T09:33:00Z</time>
      </trkpt>
      <trkpt lat="55.234902994707227" lon="-6.456785034388304">
        <ele>49.649999999999999</ele>
        <time>2026-07-07T09:33:09Z</time>
      </trkpt>
      <trkpt lat="55.23484599776566" lon="-6.456760978326201">
        <ele>50.130000000000003</ele>
        <time>2026-07-07T09:33:10Z</time>
      </trkpt>
      <trkpt lat="55.234787994995713" lon="-6.45673600025475">
        <ele>51.090000000000003</ele>
        <time>2026-07-07T09:33:11Z</time>
      </trkpt>
      <trkpt lat="55.234662014991045" lon="-6.456682020798326">
        <ele>53.490000000000002</ele>
        <time>2026-07-07T09:33:13Z</time>
      </trkpt>
      <trkpt lat="55.234593031927943" lon="-6.456653019413352">
        <ele>53.969999999999999</ele>
        <time>2026-07-07T09:33:14Z</time>
      </trkpt>
      <trkpt lat="55.234469985589385" lon="-6.456599961966276">
        <ele>53.490000000000002</ele>
        <time>2026-07-07T09:33:16Z</time>
      </trkpt>
      <trkpt lat="55.234412988647819" lon="-6.456608008593321">
        <ele>53.009999999999998</ele>
        <time>2026-07-07T09:33:17Z</time>
      </trkpt>
      <trkpt lat="55.234361020848155" lon="-6.45662896335125">
        <ele>53.009999999999998</ele>
        <time>2026-07-07T09:33:18Z</time>
      </trkpt>
      <trkpt lat="55.23430896922946" lon="-6.456696018576622">
        <ele>53.009999999999998</ele>
        <time>2026-07-07T09:33:19Z</time>
      </trkpt>
      <trkpt lat="55.23426597006619" lon="-6.456767013296485">
        <ele>53.009999999999998</ele>
        <time>2026-07-07T09:33:20Z</time>
      </trkpt>
      <trkpt lat="55.233941003680229" lon="-6.45731401629746">
        <ele>50.609999999999999</ele>
        <time>2026-07-07T09:33:27Z</time>
      </trkpt>
      <trkpt lat="55.233896998688579" lon="-6.457387022674084">
        <ele>50.130000000000003</ele>
        <time>2026-07-07T09:33:28Z</time>
      </trkpt>
      <trkpt lat="55.233850982040167" lon="-6.457442007958889">
        <ele>50.130000000000003</ele>
        <time>2026-07-07T09:33:29Z</time>
      </trkpt>
      <trkpt lat="55.233789039775729" lon="-6.457478972151876">
        <ele>50.130000000000003</ele>
        <time>2026-07-07T09:33:30Z</time>
      </trkpt>
      <trkpt lat="55.233738999813795" lon="-6.457481989637017">
        <ele>49.649999999999999</ele>
        <time>2026-07-07T09:33:31Z</time>
      </trkpt>
      <trkpt lat="55.233671022579074" lon="-6.457452988252044">
        <ele>48.68</ele>
        <time>2026-07-07T09:33:32Z</time>
      </trkpt>
      <trkpt lat="55.233603967353702" lon="-6.457414012402296">
        <ele>48.200000000000003</ele>
        <time>2026-07-07T09:33:33Z</time>
      </trkpt>
      <trkpt lat="55.2335349842906" lon="-6.45731502212584">
        <ele>47.240000000000002</ele>
        <time>2026-07-07T09:33:34Z</time>
      </trkpt>
      <trkpt lat="55.233458038419485" lon="-6.457206979393959">
        <ele>45.799999999999997</ele>
        <time>2026-07-07T09:33:35Z</time>
      </trkpt>
      <trkpt lat="55.233029974624515" lon="-6.456601973623037">
        <ele>43.399999999999999</ele>
        <time>2026-07-07T09:33:40Z</time>
      </trkpt>
      <trkpt lat="55.232938025146723" lon="-6.456527961418033">
        <ele>43.880000000000003</ele>
        <time>2026-07-07T09:33:41Z</time>
      </trkpt>
      <trkpt lat="55.232844986021519" lon="-6.456489991396666">
        <ele>43.880000000000003</ele>
        <time>2026-07-07T09:33:42Z</time>
      </trkpt>
      <trkpt lat="55.232754964381456" lon="-6.456455960869789">
        <ele>43.880000000000003</ele>
        <time>2026-07-07T09:33:43Z</time>
      </trkpt>
      <trkpt lat="55.232668966054916" lon="-6.456428971141577">
        <ele>43.880000000000003</ele>
        <time>2026-07-07T09:33:44Z</time>
      </trkpt>
      <trkpt lat="55.231496002525091" lon="-6.456063017249107">
        <ele>44.359999999999999</ele>
        <time>2026-07-07T09:33:56Z</time>
      </trkpt>
      <trkpt lat="55.230272999033332" lon="-6.455678958445787">
        <ele>47.240000000000002</ele>
        <time>2026-07-07T09:34:08Z</time>
      </trkpt>
      <trkpt lat="55.229153009131551" lon="-6.455329013988376">
        <ele>49.159999999999997</ele>
        <time>2026-07-07T09:34:19Z</time>
      </trkpt>
      <trkpt lat="55.227493979036808" lon="-6.454810006543994">
        <ele>52.049999999999997</ele>
        <time>2026-07-07T09:34:34Z</time>
      </trkpt>
      <trkpt lat="55.226607006043196" lon="-6.454616971313953">
        <ele>55.890000000000001</ele>
        <time>2026-07-07T09:34:43Z</time>
      </trkpt>
      <trkpt lat="55.226526036858559" lon="-6.454660976305604">
        <ele>55.409999999999997</ele>
        <time>2026-07-07T09:34:44Z</time>
      </trkpt>
      <trkpt lat="55.226448001340032" lon="-6.454706992954016">
        <ele>54.93</ele>
        <time>2026-07-07T09:34:45Z</time>
      </trkpt>
      <trkpt lat="55.226115994155407" lon="-6.454903967678547">
        <ele>54.93</ele>
        <time>2026-07-07T09:34:50Z</time>
      </trkpt>
      <trkpt lat="55.225995965301991" lon="-6.45497596822679">
        <ele>55.890000000000001</ele>
        <time>2026-07-07T09:34:52Z</time>
      </trkpt>
      <trkpt lat="55.225938968360424" lon="-6.455008992925286">
        <ele>55.890000000000001</ele>
        <time>2026-07-07T09:34:53Z</time>
      </trkpt>
      <trkpt lat="55.225888006389141" lon="-6.455021984875202">
        <ele>56.369999999999997</ele>
        <time>2026-07-07T09:34:54Z</time>
      </trkpt>
      <trkpt lat="55.225838972255588" lon="-6.45501502789557">
        <ele>56.369999999999997</ele>
        <time>2026-07-07T09:34:55Z</time>
      </trkpt>
      <trkpt lat="55.225792033597827" lon="-6.455006981268525">
        <ele>56.859999999999999</ele>
        <time>2026-07-07T09:34:56Z</time>
      </trkpt>
      <trkpt lat="55.225750040262938" lon="-6.455001030117273">
        <ele>57.340000000000003</ele>
        <time>2026-07-07T09:34:57Z</time>
      </trkpt>
      <trkpt lat="55.225717015564442" lon="-6.45499600097537">
        <ele>57.340000000000003</ele>
        <time>2026-07-07T09:34:58Z</time>
      </trkpt>
      <trkpt lat="55.225672004744411" lon="-6.454988960176706">
        <ele>57.82</ele>
        <time>2026-07-07T09:35:05Z</time>
      </trkpt>
      <trkpt lat="55.225665969774127" lon="-6.454988038167357">
        <ele>57.82</ele>
        <time>2026-07-07T09:35:08Z</time>
      </trkpt>
      <trkpt lat="55.225626993924379" lon="-6.455002035945654">
        <ele>57.340000000000003</ele>
        <time>2026-07-07T09:35:09Z</time>
      </trkpt>
      <trkpt lat="55.225606961175799" lon="-6.455068001523614">
        <ele>57.340000000000003</ele>
        <time>2026-07-07T09:35:10Z</time>
      </trkpt>
      <trkpt lat="55.225576031953096" lon="-6.455170009285212">
        <ele>57.82</ele>
        <time>2026-07-07T09:35:11Z</time>
      </trkpt>
      <trkpt lat="55.225535966455936" lon="-6.455299006775022">
        <ele>57.82</ele>
        <time>2026-07-07T09:35:12Z</time>
      </trkpt>
      <trkpt lat="55.225491039454937" lon="-6.45544602535665">
        <ele>57.82</ele>
        <time>2026-07-07T09:35:13Z</time>
      </trkpt>
      <trkpt lat="55.225007990375161" lon="-6.457027019932866">
        <ele>62.140000000000001</ele>
        <time>2026-07-07T09:35:21Z</time>
      </trkpt>
      <trkpt lat="55.224402984604239" lon="-6.459398008882999">
        <ele>65.510000000000005</ele>
        <time>2026-07-07T09:35:32Z</time>
      </trkpt>
      <trkpt lat="55.223745005205274" lon="-6.461360966786742">
        <ele>67.430000000000007</ele>
        <time>2026-07-07T09:35:43Z</time>
      </trkpt>
      <trkpt lat="55.223289029672742" lon="-6.463361978530884">
        <ele>71.760000000000005</ele>
        <time>2026-07-07T09:35:54Z</time>
      </trkpt>
      <trkpt lat="55.222738003358245" lon="-6.46543599665165">
        <ele>69.349999999999994</ele>
        <time>2026-07-07T09:36:06Z</time>
      </trkpt>
      <trkpt lat="55.222520995885134" lon="-6.465926002711058">
        <ele>69.349999999999994</ele>
        <time>2026-07-07T09:36:12Z</time>
      </trkpt>
      <trkpt lat="55.222508003935218" lon="-6.465972019359469">
        <ele>69.829999999999998</ele>
        <time>2026-07-07T09:36:19Z</time>
      </trkpt>
      <trkpt lat="55.222502974793315" lon="-6.465989034622908">
        <ele>70.310000000000002</ele>
        <time>2026-07-07T09:36:20Z</time>
      </trkpt>
      <trkpt lat="55.222531976178288" lon="-6.465936983004212">
        <ele>70.790000000000006</ele>
        <time>2026-07-07T09:36:21Z</time>
      </trkpt>
      <trkpt lat="55.222531976178288" lon="-6.465936983004212">
        <ele>70.790000000000006</ele>
        <time>2026-07-07T09:36:22Z</time>
      </trkpt>
      <trkpt lat="55.222531976178288" lon="-6.465936983004212">
        <ele>70.790000000000006</ele>
        <time>2026-07-07T09:36:25Z</time>
      </trkpt>
      <trkpt lat="55.222520995885134" lon="-6.465926002711058">
        <ele>70.790000000000006</ele>
        <time>2026-07-07T09:36:26Z</time>
      </trkpt>
      <trkpt lat="55.222529964521527" lon="-6.465906975790858">
        <ele>70.790000000000006</ele>
        <time>2026-07-07T09:36:27Z</time>
      </trkpt>
      <trkpt lat="55.222543040290475" lon="-6.465875962749124">
        <ele>70.310000000000002</ele>
        <time>2026-07-07T09:36:28Z</time>
      </trkpt>
      <trkpt lat="55.222556032240391" lon="-6.46584696136415">
        <ele>70.310000000000002</ele>
        <time>2026-07-07T09:36:29Z</time>
      </trkpt>
      <trkpt lat="55.222567012533545" lon="-6.46582399494946">
        <ele>70.310000000000002</ele>
        <time>2026-07-07T09:36:43Z</time>
      </trkpt>
      <trkpt lat="55.222571035847068" lon="-6.465814020484686">
        <ele>70.310000000000002</ele>
        <time>2026-07-07T09:36:48Z</time>
      </trkpt>
      <trkpt lat="55.222587967291474" lon="-6.465774038806558">
        <ele>70.310000000000002</ele>
        <time>2026-07-07T09:36:49Z</time>
      </trkpt>
      <trkpt lat="55.222617974504828" lon="-6.465706983581185">
        <ele>70.310000000000002</ele>
        <time>2026-07-07T09:36:50Z</time>
      </trkpt>
      <trkpt lat="55.222658040001988" lon="-6.465616961941123">
        <ele>69.829999999999998</ele>
        <time>2026-07-07T09:36:51Z</time>
      </trkpt>
      <trkpt lat="55.222704978659749" lon="-6.465511014685035">
        <ele>69.349999999999994</ele>
        <time>2026-07-07T09:36:52Z</time>
      </trkpt>
      <trkpt lat="55.223076967522502" lon="-6.46431902423501">
        <ele>69.829999999999998</ele>
        <time>2026-07-07T09:37:01Z</time>
      </trkpt>
      <trkpt lat="55.223454991355538" lon="-6.462618000805378">
        <ele>70.790000000000006</ele>
        <time>2026-07-07T09:37:11Z</time>
      </trkpt>
      <trkpt lat="55.223654983565211" lon="-6.461723987013102">
        <ele>68.870000000000005</ele>
        <time>2026-07-07T09:37:19Z</time>
      </trkpt>
      <trkpt lat="55.223708963021636" lon="-6.461485018953681">
        <ele>67.909999999999997</ele>
        <time>2026-07-07T09:37:24Z</time>
      </trkpt>
      <trkpt lat="55.223661018535495" lon="-6.461367001757026">
        <ele>67.909999999999997</ele>
        <time>2026-07-07T09:37:25Z</time>
      </trkpt>
      <trkpt lat="55.223603015765548" lon="-6.461318973451853">
        <ele>67.430000000000007</ele>
        <time>2026-07-07T09:37:26Z</time>
      </trkpt>
      <trkpt lat="55.223444011062384" lon="-6.461184024810791">
        <ele>66.950000000000003</ele>
        <time>2026-07-07T09:37:28Z</time>
      </trkpt>
      <trkpt lat="55.22339397110045" lon="-6.461074976250529">
        <ele>66.469999999999999</ele>
        <time>2026-07-07T09:37:29Z</time>
      </trkpt>
      <trkpt lat="55.223337979987264" lon="-6.460954025387764">
        <ele>65.989999999999995</ele>
        <time>2026-07-07T09:37:30Z</time>
      </trkpt>
      <trkpt lat="55.22328500635922" lon="-6.460804995149374">
        <ele>65.030000000000001</ele>
        <time>2026-07-07T09:37:31Z</time>
      </trkpt>
      <trkpt lat="55.223235972225666" lon="-6.460643978789449">
        <ele>64.549999999999997</ele>
        <time>2026-07-07T09:37:32Z</time>
      </trkpt>
      <trkpt lat="55.22244899533689" lon="-6.45806604065001">
        <ele>64.069999999999993</ele>
        <time>2026-07-07T09:37:47Z</time>
      </trkpt>
      <trkpt lat="55.221872990950942" lon="-6.456144992262125">
        <ele>61.659999999999997</ele>
        <time>2026-07-07T09:37:56Z</time>
      </trkpt>
      <trkpt lat="55.22103002294898" lon="-6.453310986980796">
        <ele>61.18</ele>
        <time>2026-07-07T09:38:09Z</time>
      </trkpt>
      <trkpt lat="55.220147995278239" lon="-6.450835978612304">
        <ele>62.140000000000001</ele>
        <time>2026-07-07T09:38:21Z</time>
      </trkpt>
      <trkpt lat="55.219413992017508" lon="-6.449045017361641">
        <ele>63.100000000000001</ele>
        <time>2026-07-07T09:38:31Z</time>
      </trkpt>
      <trkpt lat="55.218273969367146" lon="-6.447208039462566">
        <ele>63.100000000000001</ele>
        <time>2026-07-07T09:38:42Z</time>
      </trkpt>
      <trkpt lat="55.216880980879068" lon="-6.444508982822299">
        <ele>63.579999999999998</ele>
        <time>2026-07-07T09:38:57Z</time>
      </trkpt>
      <trkpt lat="55.216329032555223" lon="-6.443438027054071">
        <ele>66.469999999999999</ele>
        <time>2026-07-07T09:39:03Z</time>
      </trkpt>
      <trkpt lat="55.215603997930884" lon="-6.441710013896227">
        <ele>70.790000000000006</ele>
        <time>2026-07-07T09:39:12Z</time>
      </trkpt>
      <trkpt lat="55.215096976608038" lon="-6.440076967701316">
        <ele>74.159999999999997</ele>
        <time>2026-07-07T09:39:20Z</time>
      </trkpt>
      <trkpt lat="55.215039979666471" lon="-6.439868006855249">
        <ele>74.159999999999997</ele>
        <time>2026-07-07T09:39:21Z</time>
      </trkpt>
      <trkpt lat="55.214878041297197" lon="-6.439272975549102">
        <ele>75.120000000000005</ele>
        <time>2026-07-07T09:39:24Z</time>
      </trkpt>
      <trkpt lat="55.214362973347306" lon="-6.43711999990046">
        <ele>80.409999999999997</ele>
        <time>2026-07-07T09:39:34Z</time>
      </trkpt>
      <trkpt lat="55.214239004999399" lon="-6.436528991907835">
        <ele>82.329999999999998</ele>
        <time>2026-07-07T09:39:37Z</time>
      </trkpt>
      <trkpt lat="55.214242022484541" lon="-6.436363030225039">
        <ele>82.810000000000002</ele>
        <time>2026-07-07T09:39:38Z</time>
      </trkpt>
      <trkpt lat="55.214246967807412" lon="-6.436169994994998">
        <ele>83.290000000000006</ele>
        <time>2026-07-07T09:39:39Z</time>
      </trkpt>
      <trkpt lat="55.214346963912249" lon="-6.433658022433519">
        <ele>93.870000000000005</ele>
        <time>2026-07-07T09:39:50Z</time>
      </trkpt>
      <trkpt lat="55.214502029120922" lon="-6.432153973728418">
        <ele>99.629999999999995</ele>
        <time>2026-07-07T09:39:58Z</time>
      </trkpt>
      <trkpt lat="55.214808974415064" lon="-6.429357016459107">
        <ele>99.629999999999995</ele>
        <time>2026-07-07T09:40:11Z</time>
      </trkpt>
      <trkpt lat="55.214953981339931" lon="-6.428034016862512">
        <ele>104.44</ele>
        <time>2026-07-07T09:40:19Z</time>
      </trkpt>
      <trkpt lat="55.214978037402034" lon="-6.427822038531303">
        <ele>106.36</ele>
        <time>2026-07-07T09:40:23Z</time>
      </trkpt>
      <trkpt lat="55.214918022975326" lon="-6.427710978314281">
        <ele>106.84</ele>
        <time>2026-07-07T09:40:24Z</time>
      </trkpt>
      <trkpt lat="55.21486597135663" lon="-6.427711984142661">
        <ele>106.84</ele>
        <time>2026-07-07T09:40:25Z</time>
      </trkpt>
      <trkpt lat="55.214796988293529" lon="-6.427712989971042">
        <ele>107.31999999999999</ele>
        <time>2026-07-07T09:40:26Z</time>
      </trkpt>
      <trkpt lat="55.214719958603382" lon="-6.427713995799422">
        <ele>106.84</ele>
        <time>2026-07-07T09:40:27Z</time>
      </trkpt>
      <trkpt lat="55.213744975626469" lon="-6.427728999406099">
        <ele>107.81</ele>
        <time>2026-07-07T09:40:36Z</time>
      </trkpt>
      <trkpt lat="55.211906991899014" lon="-6.427764035761356">
        <ele>114.05</ele>
        <time>2026-07-07T09:40:50Z</time>
      </trkpt>
      <trkpt lat="55.211343979462981" lon="-6.427719024941325">
        <ele>116.45999999999999</ele>
        <time>2026-07-07T09:40:54Z</time>
      </trkpt>
      <trkpt lat="55.211208024993539" lon="-6.427655993029475">
        <ele>117.90000000000001</ele>
        <time>2026-07-07T09:40:55Z</time>
      </trkpt>
      <trkpt lat="55.2095159702003" lon="-6.426651002839208">
        <ele>115.98</ele>
        <time>2026-07-07T09:41:07Z</time>
      </trkpt>
      <trkpt lat="55.208373013883829" lon="-6.425971984863281">
        <ele>112.13</ele>
        <time>2026-07-07T09:41:15Z</time>
      </trkpt>
      <trkpt lat="55.208256002515554" lon="-6.425849022343755">
        <ele>112.13</ele>
        <time>2026-07-07T09:41:16Z</time>
      </trkpt>
      <trkpt lat="55.208136979490519" lon="-6.425702003762126">
        <ele>112.13</ele>
        <time>2026-07-07T09:41:17Z</time>
      </trkpt>
      <trkpt lat="55.207416974008083" lon="-6.424776976928115">
        <ele>113.56999999999999</ele>
        <time>2026-07-07T09:41:23Z</time>
      </trkpt>
      <trkpt lat="55.207355031743646" lon="-6.424591988325119">
        <ele>114.53</ele>
        <time>2026-07-07T09:41:24Z</time>
      </trkpt>
      <trkpt lat="55.207290994003415" lon="-6.42440197058022">
        <ele>115.01000000000001</ele>
        <time>2026-07-07T09:41:25Z</time>
      </trkpt>
      <trkpt lat="55.206858990713954" lon="-6.423119958490133">
        <ele>118.86</ele>
        <time>2026-07-07T09:41:32Z</time>
      </trkpt>
      <trkpt lat="55.206804005429149" lon="-6.422957014292479">
        <ele>119.34</ele>
        <time>2026-07-07T09:41:33Z</time>
      </trkpt>
      <trkpt lat="55.206715995445848" lon="-6.422840002924204">
        <ele>119.34</ele>
        <time>2026-07-07T09:41:34Z</time>
      </trkpt>
      <trkpt lat="55.206622034311295" lon="-6.422735983505845">
        <ele>119.34</ele>
        <time>2026-07-07T09:41:35Z</time>
      </trkpt>
      <trkpt lat="55.206510974094272" lon="-6.42270396463573">
        <ele>119.34</ele>
        <time>2026-07-07T09:41:36Z</time>
      </trkpt>
      <trkpt lat="55.206393040716648" lon="-6.422694995999336">
        <ele>118.86</ele>
        <time>2026-07-07T09:41:37Z</time>
      </trkpt>
      <trkpt lat="55.206273011863232" lon="-6.422686027362943">
        <ele>118.86</ele>
        <time>2026-07-07T09:41:38Z</time>
      </trkpt>
      <trkpt lat="55.204422036185861" lon="-6.422548983246088">
        <ele>115.01000000000001</ele>
        <time>2026-07-07T09:41:52Z</time>
      </trkpt>
      <trkpt lat="55.20306802354753" lon="-6.422598017379642">
        <ele>110.69</ele>
        <time>2026-07-07T09:42:01Z</time>
      </trkpt>
      <trkpt lat="55.201530028134584" lon="-6.42287696711719">
        <ele>104.92</ele>
        <time>2026-07-07T09:42:11Z</time>
      </trkpt>
      <trkpt lat="55.20042504183948" lon="-6.422844026237726">
        <ele>108.29000000000001</ele>
        <time>2026-07-07T09:42:19Z</time>
      </trkpt>
      <trkpt lat="55.198885034769773" lon="-6.422341028228402">
        <ele>106.36</ele>
        <time>2026-07-07T09:42:31Z</time>
      </trkpt>
      <trkpt lat="55.198738016188145" lon="-6.422292999923229">
        <ele>105.88</ele>
        <time>2026-07-07T09:42:36Z</time>
      </trkpt>
      <trkpt lat="55.198513967916369" lon="-6.422213958576322">
        <ele>104.44</ele>
        <time>2026-07-07T09:42:46Z</time>
      </trkpt>
      <trkpt lat="55.197606962174177" lon="-6.421883963048458">
        <ele>110.20999999999999</ele>
        <time>2026-07-07T09:42:54Z</time>
      </trkpt>
      <trkpt lat="55.196147002279758" lon="-6.421351963654161">
        <ele>115.01000000000001</ele>
        <time>2026-07-07T09:43:03Z</time>
      </trkpt>
      <trkpt lat="55.194585034623742" lon="-6.421149959787726">
        <ele>113.56999999999999</ele>
        <time>2026-07-07T09:43:13Z</time>
      </trkpt>
      <trkpt lat="55.191643992438912" lon="-6.421187007799745">
        <ele>109.25</ele>
        <time>2026-07-07T09:43:31Z</time>
      </trkpt>
      <trkpt lat="55.189609033986926" lon="-6.421245010569692">
        <ele>104.44</ele>
        <time>2026-07-07T09:43:44Z</time>
      </trkpt>
      <trkpt lat="55.18783601000905" lon="-6.421285998076201">
        <ele>99.629999999999995</ele>
        <time>2026-07-07T09:43:56Z</time>
      </trkpt>
      <trkpt lat="55.186050999909639" lon="-6.421316005289555">
        <ele>94.829999999999998</ele>
        <time>2026-07-07T09:44:07Z</time>
      </trkpt>
      <trkpt lat="55.184634039178491" lon="-6.421340983361006">
        <ele>96.269999999999996</ele>
        <time>2026-07-07T09:44:17Z</time>
      </trkpt>
      <trkpt lat="55.182928992435336" lon="-6.421369984745979">
        <ele>94.829999999999998</ele>
        <time>2026-07-07T09:44:27Z</time>
      </trkpt>
      <trkpt lat="55.180838964879513" lon="-6.421409966424108">
        <ele>90.980000000000004</ele>
        <time>2026-07-07T09:44:40Z</time>
      </trkpt>
      <trkpt lat="55.178958987817168" lon="-6.421511974185705">
        <ele>89.060000000000002</ele>
        <time>2026-07-07T09:44:52Z</time>
      </trkpt>
      <trkpt lat="55.177659038454294" lon="-6.421469980850816">
        <ele>91.459999999999994</ele>
        <time>2026-07-07T09:45:01Z</time>
      </trkpt>
      <trkpt lat="55.176479034125805" lon="-6.421396974474192">
        <ele>90.019999999999996</ele>
        <time>2026-07-07T09:45:09Z</time>
      </trkpt>
      <trkpt lat="55.175070036202669" lon="-6.421308964490891">
        <ele>91.459999999999994</ele>
        <time>2026-07-07T09:45:19Z</time>
      </trkpt>
      <trkpt lat="55.174093041568995" lon="-6.421231012791395">
        <ele>97.230000000000004</ele>
        <time>2026-07-07T09:45:26Z</time>
      </trkpt>
      <trkpt lat="55.173980975523591" lon="-6.421175021678209">
        <ele>98.189999999999998</ele>
        <time>2026-07-07T09:45:27Z</time>
      </trkpt>
      <trkpt lat="55.173865975812078" lon="-6.421117018908262">
        <ele>98.189999999999998</ele>
        <time>2026-07-07T09:45:28Z</time>
      </trkpt>
      <trkpt lat="55.172650013118982" lon="-6.420285031199455">
        <ele>95.310000000000002</ele>
        <time>2026-07-07T09:45:37Z</time>
      </trkpt>
      <trkpt lat="55.17075696028769" lon="-6.419166969135404">
        <ele>94.829999999999998</ele>
        <time>2026-07-07T09:45:50Z</time>
      </trkpt>
      <trkpt lat="55.169649040326476" lon="-6.418516030535102">
        <ele>92.420000000000002</ele>
        <time>2026-07-07T09:45:59Z</time>
      </trkpt>
      <trkpt lat="55.168340960517526" lon="-6.417883029207587">
        <ele>86.659999999999997</ele>
        <time>2026-07-07T09:46:10Z</time>
      </trkpt>
      <trkpt lat="55.166748985648155" lon="-6.416677040979266">
        <ele>77.519999999999996</ele>
        <time>2026-07-07T09:46:21Z</time>
      </trkpt>
      <trkpt lat="55.165134966373444" lon="-6.415759976953268">
        <ele>76.560000000000002</ele>
        <time>2026-07-07T09:46:32Z</time>
      </trkpt>
      <trkpt lat="55.163202015683055" lon="-6.414734032005072">
        <ele>73.200000000000003</ele>
        <time>2026-07-07T09:46:45Z</time>
      </trkpt>
      <trkpt lat="55.161365959793329" lon="-6.413889974355698">
        <ele>66.950000000000003</ele>
        <time>2026-07-07T09:46:57Z</time>
      </trkpt>
      <trkpt lat="55.161218019202352" lon="-6.413867007941008">
        <ele>66.469999999999999</ele>
        <time>2026-07-07T09:46:58Z</time>
      </trkpt>
      <trkpt lat="55.160277988761663" lon="-6.413833983242512">
        <ele>67.909999999999997</ele>
        <time>2026-07-07T09:47:04Z</time>
      </trkpt>
      <trkpt lat="55.159208960831165" lon="-6.413797019049525">
        <ele>66.950000000000003</ele>
        <time>2026-07-07T09:47:12Z</time>
      </trkpt>
      <trkpt lat="55.157866012305021" lon="-6.413748990744352">
        <ele>65.989999999999995</ele>
        <time>2026-07-07T09:47:24Z</time>
      </trkpt>
      <trkpt lat="55.157012986019254" lon="-6.41348697245121">
        <ele>65.030000000000001</ele>
        <time>2026-07-07T09:47:31Z</time>
      </trkpt>
      <trkpt lat="55.156763037666678" lon="-6.413439027965069">
        <ele>65.030000000000001</ele>
        <time>2026-07-07T09:47:33Z</time>
      </trkpt>
      <trkpt lat="55.155684035271406" lon="-6.413496024906635">
        <ele>65.989999999999995</ele>
        <time>2026-07-07T09:47:42Z</time>
      </trkpt>
      <trkpt lat="55.154260033741593" lon="-6.413594009354711">
        <ele>63.579999999999998</ele>
        <time>2026-07-07T09:47:56Z</time>
      </trkpt>
      <trkpt lat="55.154142016544938" lon="-6.413601972162724">
        <ele>63.579999999999998</ele>
        <time>2026-07-07T09:47:58Z</time>
      </trkpt>
      <trkpt lat="55.154111003503203" lon="-6.413604989647865">
        <ele>64.069999999999993</ele>
        <time>2026-07-07T09:47:59Z</time>
      </trkpt>
      <trkpt lat="55.154015030711889" lon="-6.413546986877918">
        <ele>64.069999999999993</ele>
        <time>2026-07-07T09:48:00Z</time>
      </trkpt>
      <trkpt lat="55.154015030711889" lon="-6.413546986877918">
        <ele>64.069999999999993</ele>
        <time>2026-07-07T09:48:13Z</time>
      </trkpt>
      <trkpt lat="55.154031962156296" lon="-6.413407009094954">
        <ele>64.549999999999997</ele>
        <time>2026-07-07T09:48:26Z</time>
      </trkpt>
      <trkpt lat="55.154045959934592" lon="-6.413284968584776">
        <ele>64.549999999999997</ele>
        <time>2026-07-07T09:48:27Z</time>
      </trkpt>
      <trkpt lat="55.15406196936965" lon="-6.413157982751727">
        <ele>64.549999999999997</ele>
        <time>2026-07-07T09:48:28Z</time>
      </trkpt>
      <trkpt lat="55.154221979901195" lon="-6.41181000508368">
        <ele>63.100000000000001</ele>
        <time>2026-07-07T09:48:36Z</time>
      </trkpt>
      <trkpt lat="55.154451979324222" lon="-6.409801030531526">
        <ele>61.18</ele>
        <time>2026-07-07T09:48:47Z</time>
      </trkpt>
      <trkpt lat="55.154505958780646" lon="-6.409457037225366">
        <ele>62.619999999999997</ele>
        <time>2026-07-07T09:48:49Z</time>
      </trkpt>
      <trkpt lat="55.154627999290824" lon="-6.408905005082488">
        <ele>63.579999999999998</ele>
        <time>2026-07-07T09:48:52Z</time>
      </trkpt>
      <trkpt lat="55.155403995886445" lon="-6.406248025596142">
        <ele>63.100000000000001</ele>
        <time>2026-07-07T09:49:05Z</time>
      </trkpt>
      <trkpt lat="55.156212011352181" lon="-6.40334403142333">
        <ele>65.989999999999995</ele>
        <time>2026-07-07T09:49:18Z</time>
      </trkpt>
      <trkpt lat="55.15711197629571" lon="-6.400008033961058">
        <ele>71.760000000000005</ele>
        <time>2026-07-07T09:49:33Z</time>
      </trkpt>
      <trkpt lat="55.157984029501677" lon="-6.396935982629657">
        <ele>73.680000000000007</ele>
        <time>2026-07-07T09:49:46Z</time>
      </trkpt>
      <trkpt lat="55.158564979210496" lon="-6.394195016473532">
        <ele>75.599999999999994</ele>
        <time>2026-07-07T09:49:57Z</time>
      </trkpt>
      <trkpt lat="55.159008968621492" lon="-6.391791002824903">
        <ele>76.560000000000002</ele>
        <time>2026-07-07T09:50:08Z</time>
      </trkpt>
      <trkpt lat="55.159485982730985" lon="-6.388951968401671">
        <ele>79.450000000000003</ele>
        <time>2026-07-07T09:50:19Z</time>
      </trkpt>
      <trkpt lat="55.159987974911928" lon="-6.385460989549756">
        <ele>78.969999999999999</ele>
        <time>2026-07-07T09:50:31Z</time>
      </trkpt>
      <trkpt lat="55.160675961524248" lon="-6.380679029971361">
        <ele>82.810000000000002</ele>
        <time>2026-07-07T09:50:47Z</time>
      </trkpt>
      <trkpt lat="55.161162028089166" lon="-6.377200037240982">
        <ele>90.980000000000004</ele>
        <time>2026-07-07T09:51:00Z</time>
      </trkpt>
      <trkpt lat="55.161197986453772" lon="-6.376950005069375">
        <ele>91.939999999999998</ele>
        <time>2026-07-07T09:51:01Z</time>
      </trkpt>
      <trkpt lat="55.16123897396028" lon="-6.376712964847684">
        <ele>92.900000000000006</ele>
        <time>2026-07-07T09:51:02Z</time>
      </trkpt>
      <trkpt lat="55.161274010315537" lon="-6.37648799456656">
        <ele>93.390000000000001</ele>
        <time>2026-07-07T09:51:03Z</time>
      </trkpt>
      <trkpt lat="55.161303011700511" lon="-6.376276016235352">
        <ele>94.349999999999994</ele>
        <time>2026-07-07T09:51:04Z</time>
      </trkpt>
      <trkpt lat="55.16132497228682" lon="-6.376108964905143">
        <ele>94.829999999999998</ele>
        <time>2026-07-07T09:51:05Z</time>
      </trkpt>
      <trkpt lat="55.161394039168954" lon="-6.375603033229709">
        <ele>95.790000000000006</ele>
        <time>2026-07-07T09:51:10Z</time>
      </trkpt>
      <trkpt lat="55.161399990320206" lon="-6.375553999096155">
        <ele>95.790000000000006</ele>
        <time>2026-07-07T09:51:11Z</time>
      </trkpt>
      <trkpt lat="55.16140996478498" lon="-6.375481998547912">
        <ele>95.790000000000006</ele>
        <time>2026-07-07T09:51:12Z</time>
      </trkpt>
      <trkpt lat="55.161375012248755" lon="-6.375543018803001">
        <ele>95.790000000000006</ele>
        <time>2026-07-07T09:51:13Z</time>
      </trkpt>
      <trkpt lat="55.161352967843413" lon="-6.375579982995987">
        <ele>95.790000000000006</ele>
        <time>2026-07-07T09:51:14Z</time>
      </trkpt>
      <trkpt lat="55.161327989771962" lon="-6.375621976330876">
        <ele>95.790000000000006</ele>
        <time>2026-07-07T09:51:15Z</time>
      </trkpt>
      <trkpt lat="55.161305023357272" lon="-6.375662963837385">
        <ele>95.790000000000006</ele>
        <time>2026-07-07T09:51:16Z</time>
      </trkpt>
      <trkpt lat="55.16125800088048" lon="-6.375748962163925">
        <ele>95.790000000000006</ele>
        <time>2026-07-07T09:51:18Z</time>
      </trkpt>
      <trkpt lat="55.161244003102183" lon="-6.375842001289129">
        <ele>96.269999999999996</ele>
        <time>2026-07-07T09:51:19Z</time>
      </trkpt>
      <trkpt lat="55.161226987838745" lon="-6.375949960201979">
        <ele>96.269999999999996</ele>
        <time>2026-07-07T09:51:20Z</time>
      </trkpt>
      <trkpt lat="55.161136966198683" lon="-6.376539040356875">
        <ele>98.189999999999998</ele>
        <time>2026-07-07T09:51:27Z</time>
      </trkpt>
      <trkpt lat="55.16104401089251" lon="-6.376576004549861">
        <ele>99.629999999999995</ele>
        <time>2026-07-07T09:51:34Z</time>
      </trkpt>
      <trkpt lat="55.16098097898066" lon="-6.376576004549861">
        <ele>100.11</ele>
        <time>2026-07-07T09:51:35Z</time>
      </trkpt>
      <trkpt lat="55.160907972604036" lon="-6.376576004549861">
        <ele>100.11</ele>
        <time>2026-07-07T09:51:36Z</time>
      </trkpt>
      <trkpt lat="55.160068022087216" lon="-6.37668002396822">
        <ele>99.629999999999995</ele>
        <time>2026-07-07T09:51:44Z</time>
      </trkpt>
      <trkpt lat="55.158369010314345" lon="-6.377147985622287">
        <ele>93.870000000000005</ele>
        <time>2026-07-07T09:51:57Z</time>
      </trkpt>
      <trkpt lat="55.156749961897731" lon="-6.376833999529481">
        <ele>92.900000000000006</ele>
        <time>2026-07-07T09:52:07Z</time>
      </trkpt>
      <trkpt lat="55.153852002695203" lon="-6.376238968223333">
        <ele>89.060000000000002</ele>
        <time>2026-07-07T09:52:23Z</time>
      </trkpt>
      <trkpt lat="55.152357006445527" lon="-6.376245003193617">
        <ele>88.099999999999994</ele>
        <time>2026-07-07T09:52:31Z</time>
      </trkpt>
      <trkpt lat="55.150930993258953" lon="-6.376485982909799">
        <ele>86.180000000000007</ele>
        <time>2026-07-07T09:52:39Z</time>
      </trkpt>
      <trkpt lat="55.148987984284759" lon="-6.376814972609282">
        <ele>81.849999999999994</ele>
        <time>2026-07-07T09:52:50Z</time>
      </trkpt>
      <trkpt lat="55.146601991727948" lon="-6.37721898034215">
        <ele>77.040000000000006</ele>
        <time>2026-07-07T09:53:04Z</time>
      </trkpt>
      <trkpt lat="55.145634971559048" lon="-6.377441016957164">
        <ele>80.890000000000001</ele>
        <time>2026-07-07T09:53:10Z</time>
      </trkpt>
      <trkpt lat="55.145488958805799" lon="-6.377518968656659">
        <ele>80.890000000000001</ele>
        <time>2026-07-07T09:53:11Z</time>
      </trkpt>
      <trkpt lat="55.145356021821499" lon="-6.377646960318089">
        <ele>81.370000000000005</ele>
        <time>2026-07-07T09:53:12Z</time>
      </trkpt>
      <trkpt lat="55.144873978570104" lon="-6.378071000799537">
        <ele>84.730000000000004</ele>
        <time>2026-07-07T09:53:16Z</time>
      </trkpt>
      <trkpt lat="55.144760990515351" lon="-6.37809899635613">
        <ele>85.209999999999994</ele>
        <time>2026-07-07T09:53:17Z</time>
      </trkpt>
      <trkpt lat="55.14355399645865" lon="-6.378290019929409">
        <ele>79.450000000000003</ele>
        <time>2026-07-07T09:53:26Z</time>
      </trkpt>
      <trkpt lat="55.143421981483698" lon="-6.378279961645603">
        <ele>78.969999999999999</ele>
        <time>2026-07-07T09:53:27Z</time>
      </trkpt>
      <trkpt lat="55.143285021185875" lon="-6.378254983574152">
        <ele>78</ele>
        <time>2026-07-07T09:53:28Z</time>
      </trkpt>
      <trkpt lat="55.142312971875072" lon="-6.377800013870001">
        <ele>73.200000000000003</ele>
        <time>2026-07-07T09:53:35Z</time>
      </trkpt>
      <trkpt lat="55.142164025455713" lon="-6.377814011648297">
        <ele>72.239999999999995</ele>
        <time>2026-07-07T09:53:36Z</time>
      </trkpt>
      <trkpt lat="55.142025975510478" lon="-6.377827003598213">
        <ele>71.269999999999996</ele>
        <time>2026-07-07T09:53:37Z</time>
      </trkpt>
      <trkpt lat="55.141862025484443" lon="-6.377843013033271">
        <ele>70.790000000000006</ele>
        <time>2026-07-07T09:53:38Z</time>
      </trkpt>
      <trkpt lat="55.141749959439039" lon="-6.37790797278285">
        <ele>70.790000000000006</ele>
        <time>2026-07-07T09:53:39Z</time>
      </trkpt>
      <trkpt lat="55.141260037198663" lon="-6.378194969147444">
        <ele>70.790000000000006</ele>
        <time>2026-07-07T09:53:43Z</time>
      </trkpt>
      <trkpt lat="55.141160963103175" lon="-6.378317009657621">
        <ele>70.310000000000002</ele>
        <time>2026-07-07T09:53:44Z</time>
      </trkpt>
      <trkpt lat="55.14056802727282" lon="-6.379150003194809">
        <ele>68.390000000000001</ele>
        <time>2026-07-07T09:53:50Z</time>
      </trkpt>
      <trkpt lat="55.139742996543646" lon="-6.380304023623467">
        <ele>65.510000000000005</ele>
        <time>2026-07-07T09:53:59Z</time>
      </trkpt>
      <trkpt lat="55.138753009960055" lon="-6.381721990182996">
        <ele>66.950000000000003</ele>
        <time>2026-07-07T09:54:08Z</time>
      </trkpt>
      <trkpt lat="55.137999979779124" lon="-6.382795963436365">
        <ele>71.269999999999996</ele>
        <time>2026-07-07T09:54:17Z</time>
      </trkpt>
      <trkpt lat="55.137784983962774" lon="-6.383099975064397">
        <ele>73.200000000000003</ele>
        <time>2026-07-07T09:54:26Z</time>
      </trkpt>
      <trkpt lat="55.137803005054593" lon="-6.383152026683092">
        <ele>73.680000000000007</ele>
        <time>2026-07-07T09:54:27Z</time>
      </trkpt>
      <trkpt lat="55.137815997004509" lon="-6.38319200836122">
        <ele>73.680000000000007</ele>
        <time>2026-07-07T09:54:28Z</time>
      </trkpt>
      <trkpt lat="55.137831000611186" lon="-6.383237019181252">
        <ele>74.159999999999997</ele>
        <time>2026-07-07T09:54:29Z</time>
      </trkpt>
      <trkpt lat="55.137850027531385" lon="-6.383295021951199">
        <ele>74.159999999999997</ele>
        <time>2026-07-07T09:54:30Z</time>
      </trkpt>
      <trkpt lat="55.137870982289314" lon="-6.383356964215636">
        <ele>74.640000000000001</ele>
        <time>2026-07-07T09:54:31Z</time>
      </trkpt>
      <trkpt lat="55.137846004217863" lon="-6.383455032482743">
        <ele>74.640000000000001</ele>
        <time>2026-07-07T09:54:32Z</time>
      </trkpt>
      <trkpt lat="55.137822031974792" lon="-6.383551005274057">
        <ele>75.120000000000005</ele>
        <time>2026-07-07T09:54:33Z</time>
      </trkpt>
      <trkpt lat="55.13779797591269" lon="-6.383646978065372">
        <ele>75.120000000000005</ele>
        <time>2026-07-07T09:54:34Z</time>
      </trkpt>
      <trkpt lat="55.13777400366962" lon="-6.383743034675717">
        <ele>75.120000000000005</ele>
        <time>2026-07-07T09:54:35Z</time>
      </trkpt>
      <trkpt lat="55.137748019769788" lon="-6.383846970275044">
        <ele>75.120000000000005</ele>
        <time>2026-07-07T09:54:36Z</time>
      </trkpt>
      <trkpt lat="55.137724969536066" lon="-6.38394202105701">
        <ele>75.120000000000005</ele>
        <time>2026-07-07T09:54:37Z</time>
      </trkpt>
      <trkpt lat="55.137705020606518" lon="-6.384019972756505">
        <ele>75.120000000000005</ele>
        <time>2026-07-07T09:54:38Z</time>
      </trkpt>
      <trkpt lat="55.137698985636234" lon="-6.384044028818607">
        <ele>74.640000000000001</ele>
        <time>2026-07-07T09:54:39Z</time>
      </trkpt>
      <trkpt lat="55.137727987021208" lon="-6.384104965254664">
        <ele>74.159999999999997</ele>
        <time>2026-07-07T09:54:40Z</time>
      </trkpt>
      <trkpt lat="55.137746008113027" lon="-6.384142013266683">
        <ele>74.159999999999997</ele>
        <time>2026-07-07T09:54:41Z</time>
      </trkpt>
      <trkpt lat="55.137764029204845" lon="-6.38417998328805">
        <ele>73.680000000000007</ele>
        <time>2026-07-07T09:54:42Z</time>
      </trkpt>
      <trkpt lat="55.137780960649252" lon="-6.384216025471687">
        <ele>73.200000000000003</ele>
        <time>2026-07-07T09:54:43Z</time>
      </trkpt>
      <trkpt lat="55.137799987569451" lon="-6.384257012978196">
        <ele>73.200000000000003</ele>
        <time>2026-07-07T09:54:44Z</time>
      </trkpt>
      <trkpt lat="55.137823959812522" lon="-6.384306969121099">
        <ele>73.200000000000003</ele>
        <time>2026-07-07T09:54:45Z</time>
      </trkpt>
      <trkpt lat="55.137884980067611" lon="-6.384435966610909">
        <ele>72.719999999999999</ele>
        <time>2026-07-07T09:54:47Z</time>
      </trkpt>
      <trkpt lat="55.137956980615854" lon="-6.38454501517117">
        <ele>72.239999999999995</ele>
        <time>2026-07-07T09:54:49Z</time>
      </trkpt>
      <trkpt lat="55.138066029176116" lon="-6.384705025702715">
        <ele>71.269999999999996</ele>
        <time>2026-07-07T09:54:52Z</time>
      </trkpt>
      <trkpt lat="55.138234002515674" lon="-6.384949022904038">
        <ele>69.829999999999998</ele>
        <time>2026-07-07T09:54:57Z</time>
      </trkpt>
      <trkpt lat="55.138293011114001" lon="-6.385036027058959">
        <ele>68.390000000000001</ele>
        <time>2026-07-07T09:54:59Z</time>
      </trkpt>
      <trkpt lat="55.138367023319006" lon="-6.385142980143428">
        <ele>66.950000000000003</ele>
        <time>2026-07-07T09:55:02Z</time>
      </trkpt>
      <trkpt lat="55.138387978076935" lon="-6.385173993185163">
        <ele>66.469999999999999</ele>
        <time>2026-07-07T09:55:03Z</time>
      </trkpt>
      <trkpt lat="55.138387978076935" lon="-6.385173993185163">
        <ele>65.510000000000005</ele>
        <time>2026-07-07T09:55:17Z</time>
      </trkpt>
      <trkpt lat="55.138407004997134" lon="-6.385201988741756">
        <ele>65.510000000000005</ele>
        <time>2026-07-07T09:55:37Z</time>
      </trkpt>
      <trkpt lat="55.138407004997134" lon="-6.385201988741756">
        <ele>65.510000000000005</ele>
        <time>2026-07-07T09:55:38Z</time>
      </trkpt>
      <trkpt lat="55.138407004997134" lon="-6.385201988741756">
        <ele>65.030000000000001</ele>
        <time>2026-07-07T09:55:39Z</time>
      </trkpt>
      <trkpt lat="55.138407004997134" lon="-6.385201988741756">
        <ele>64.549999999999997</ele>
        <time>2026-07-07T09:55:40Z</time>
      </trkpt>
      <trkpt lat="55.138407004997134" lon="-6.385201988741756">
        <ele>64.069999999999993</ele>
        <time>2026-07-07T09:55:41Z</time>
      </trkpt>
      <trkpt lat="55.138407004997134" lon="-6.385201988741756">
        <ele>63.579999999999998</ele>
        <time>2026-07-07T09:55:59Z</time>
      </trkpt>
      <trkpt lat="55.138407004997134" lon="-6.385201988741756">
        <ele>63.100000000000001</ele>
        <time>2026-07-07T09:56:33Z</time>
      </trkpt>
      <trkpt lat="55.138407004997134" lon="-6.385201988741756">
        <ele>61.18</ele>
        <time>2026-07-07T09:57:21Z</time>
      </trkpt>
      <trkpt lat="55.138407004997134" lon="-6.385201988741756">
        <ele>60.700000000000003</ele>
        <time>2026-07-07T09:58:20Z</time>
      </trkpt>
      <trkpt lat="55.138557041063905" lon="-6.385224033147097">
        <ele>63.579999999999998</ele>
        <time>2026-07-07T09:58:36Z</time>
      </trkpt>
      <trkpt lat="55.138546982780099" lon="-6.385222021490336">
        <ele>64.549999999999997</ele>
        <time>2026-07-07T09:58:37Z</time>
      </trkpt>
      <trkpt lat="55.138543965294957" lon="-6.385342972353101">
        <ele>65.510000000000005</ele>
        <time>2026-07-07T09:58:38Z</time>
      </trkpt>
      <trkpt lat="55.138546982780099" lon="-6.38531799428165">
        <ele>65.989999999999995</ele>
        <time>2026-07-07T09:58:39Z</time>
      </trkpt>
      <trkpt lat="55.138407004997134" lon="-6.385201988741756">
        <ele>66.469999999999999</ele>
        <time>2026-07-07T09:58:40Z</time>
      </trkpt>
      <trkpt lat="55.138297034427524" lon="-6.38504097238183">
        <ele>71.269999999999996</ele>
        <time>2026-07-07T09:58:47Z</time>
      </trkpt>
      <trkpt lat="55.138250011950731" lon="-6.384972995147109">
        <ele>71.760000000000005</ele>
        <time>2026-07-07T09:58:48Z</time>
      </trkpt>
      <trkpt lat="55.137956980615854" lon="-6.384546020999551">
        <ele>75.120000000000005</ele>
        <time>2026-07-07T09:58:54Z</time>
      </trkpt>
      <trkpt lat="55.137914987280965" lon="-6.384483994916081">
        <ele>75.599999999999994</ele>
        <time>2026-07-07T09:58:55Z</time>
      </trkpt>
      <trkpt lat="55.137876011431217" lon="-6.38441601768136">
        <ele>75.599999999999994</ele>
        <time>2026-07-07T09:58:56Z</time>
      </trkpt>
      <trkpt lat="55.13783996924758" lon="-6.384342005476356">
        <ele>75.599999999999994</ele>
        <time>2026-07-07T09:58:57Z</time>
      </trkpt>
      <trkpt lat="55.137803005054593" lon="-6.384262964129448">
        <ele>75.599999999999994</ele>
        <time>2026-07-07T09:58:58Z</time>
      </trkpt>
      <trkpt lat="55.137766962870955" lon="-6.384186018258333">
        <ele>75.599999999999994</ele>
        <time>2026-07-07T09:58:59Z</time>
      </trkpt>
      <trkpt lat="55.137724969536066" lon="-6.383939003571868">
        <ele>75.599999999999994</ele>
        <time>2026-07-07T09:59:00Z</time>
      </trkpt>
      <trkpt lat="55.137757994234562" lon="-6.383810006082058">
        <ele>75.120000000000005</ele>
        <time>2026-07-07T09:59:01Z</time>
      </trkpt>
      <trkpt lat="55.137792024761438" lon="-6.383672039955854">
        <ele>74.640000000000001</ele>
        <time>2026-07-07T09:59:02Z</time>
      </trkpt>
      <trkpt lat="55.137823959812522" lon="-6.383545976132155">
        <ele>74.159999999999997</ele>
        <time>2026-07-07T09:59:03Z</time>
      </trkpt>
      <trkpt lat="55.137851033359766" lon="-6.383438017219305">
        <ele>73.680000000000007</ele>
        <time>2026-07-07T09:59:04Z</time>
      </trkpt>
      <trkpt lat="55.137870982289314" lon="-6.383356964215636">
        <ele>72.719999999999999</ele>
        <time>2026-07-07T09:59:05Z</time>
      </trkpt>
      <trkpt lat="55.137847010046244" lon="-6.383285969495773">
        <ele>72.239999999999995</ele>
        <time>2026-07-07T09:59:06Z</time>
      </trkpt>
      <trkpt lat="55.137823037803173" lon="-6.38321396894753">
        <ele>71.760000000000005</ele>
        <time>2026-07-07T09:59:07Z</time>
      </trkpt>
      <trkpt lat="55.137808034196496" lon="-6.38316803611815">
        <ele>71.760000000000005</ele>
        <time>2026-07-07T09:59:08Z</time>
      </trkpt>
      <trkpt lat="55.137784983962774" lon="-6.383099975064397">
        <ele>70.310000000000002</ele>
        <time>2026-07-07T09:59:15Z</time>
      </trkpt>
      <trkpt lat="55.137772997841239" lon="-6.383117996156216">
        <ele>70.310000000000002</ele>
        <time>2026-07-07T09:59:16Z</time>
      </trkpt>
      <trkpt lat="55.137743996456265" lon="-6.383158983662725">
        <ele>70.790000000000006</ele>
        <time>2026-07-07T09:59:17Z</time>
      </trkpt>
      <trkpt lat="55.137707032263279" lon="-6.3832120411098">
        <ele>70.790000000000006</ele>
        <time>2026-07-07T09:59:18Z</time>
      </trkpt>
      <trkpt lat="55.137665960937738" lon="-6.383271971717477">
        <ele>71.269999999999996</ele>
        <time>2026-07-07T09:59:19Z</time>
      </trkpt>
      <trkpt lat="55.137116024270654" lon="-6.384060960263014">
        <ele>73.680000000000007</ele>
        <time>2026-07-07T09:59:28Z</time>
      </trkpt>
      <trkpt lat="55.136891975998878" lon="-6.384558007121086">
        <ele>75.120000000000005</ele>
        <time>2026-07-07T09:59:34Z</time>
      </trkpt>
      <trkpt lat="55.136878984048963" lon="-6.384589020162821">
        <ele>75.120000000000005</ele>
        <time>2026-07-07T09:59:35Z</time>
      </trkpt>
      <trkpt lat="55.136878984048963" lon="-6.384589020162821">
        <ele>75.120000000000005</ele>
        <time>2026-07-07T09:59:36Z</time>
      </trkpt>
      <trkpt lat="55.136860040947795" lon="-6.384632019326091">
        <ele>75.599999999999994</ele>
        <time>2026-07-07T09:59:37Z</time>
      </trkpt>
      <trkpt lat="55.136860040947795" lon="-6.384632019326091">
        <ele>76.079999999999998</ele>
        <time>2026-07-07T09:59:53Z</time>
      </trkpt>
      <trkpt lat="55.136773036792874" lon="-6.384722040966153">
        <ele>78.480000000000004</ele>
        <time>2026-07-07T09:59:59Z</time>
      </trkpt>
      <trkpt lat="55.136756021529436" lon="-6.384689016267657">
        <ele>77.040000000000006</ele>
        <time>2026-07-07T10:00:00Z</time>
      </trkpt>
      <trkpt lat="55.136736994609237" lon="-6.384650962427259">
        <ele>76.079999999999998</ele>
        <time>2026-07-07T10:00:01Z</time>
      </trkpt>
      <trkpt lat="55.136720985174179" lon="-6.384618021547794">
        <ele>75.599999999999994</ele>
        <time>2026-07-07T10:00:02Z</time>
      </trkpt>
      <trkpt lat="55.13670195825398" lon="-6.384581979364157">
        <ele>75.120000000000005</ele>
        <time>2026-07-07T10:00:03Z</time>
      </trkpt>
      <trkpt lat="55.136685026809573" lon="-6.384547026827931">
        <ele>74.640000000000001</ele>
        <time>2026-07-07T10:00:04Z</time>
      </trkpt>
      <trkpt lat="55.136559968814254" lon="-6.384318033233285">
        <ele>71.760000000000005</ele>
        <time>2026-07-07T10:00:13Z</time>
      </trkpt>
      <trkpt lat="55.136559968814254" lon="-6.384318033233285">
        <ele>70.790000000000006</ele>
        <time>2026-07-07T10:00:26Z</time>
      </trkpt>
      <trkpt lat="55.136559968814254" lon="-6.384318033233285">
        <ele>70.790000000000006</ele>
        <time>2026-07-07T10:00:32Z</time>
      </trkpt>
      <trkpt lat="55.136715034022927" lon="-6.384350974112749">
        <ele>96.75</ele>
        <time>2026-07-07T10:22:38Z</time>
      </trkpt>
      <trkpt lat="55.136618977412581" lon="-6.384218037128449">
        <ele>75.599999999999994</ele>
        <time>2026-07-07T10:23:25Z</time>
      </trkpt>
      <trkpt lat="55.136598022654653" lon="-6.3842430151999">
        <ele>68.390000000000001</ele>
        <time>2026-07-07T10:24:24Z</time>
      </trkpt>
      <trkpt lat="55.136569021269679" lon="-6.384333036839962">
        <ele>68.870000000000005</ele>
        <time>2026-07-07T10:24:39Z</time>
      </trkpt>
      <trkpt lat="55.136587964370847" lon="-6.384364971891046">
        <ele>69.349999999999994</ele>
        <time>2026-07-07T10:24:40Z</time>
      </trkpt>
      <trkpt lat="55.136611014604568" lon="-6.384405037388206">
        <ele>69.349999999999994</ele>
        <time>2026-07-07T10:24:41Z</time>
      </trkpt>
      <trkpt lat="55.136663988232613" lon="-6.384506039321423">
        <ele>69.829999999999998</ele>
        <time>2026-07-07T10:24:43Z</time>
      </trkpt>
      <trkpt lat="55.136695001274347" lon="-6.384565969929099">
        <ele>69.829999999999998</ele>
        <time>2026-07-07T10:24:44Z</time>
      </trkpt>
      <trkpt lat="55.136759961023927" lon="-6.384697984904051">
        <ele>71.760000000000005</ele>
        <time>2026-07-07T10:24:51Z</time>
      </trkpt>
      <trkpt lat="55.136773958802223" lon="-6.384725980460644">
        <ele>72.239999999999995</ele>
        <time>2026-07-07T10:24:53Z</time>
      </trkpt>
      <trkpt lat="55.136840008199215" lon="-6.384678035974503">
        <ele>72.239999999999995</ele>
        <time>2026-07-07T10:24:54Z</time>
      </trkpt>
      <trkpt lat="55.136857023462653" lon="-6.384637970477343">
        <ele>71.760000000000005</ele>
        <time>2026-07-07T10:24:55Z</time>
      </trkpt>
      <trkpt lat="55.136888958513737" lon="-6.384565969929099">
        <ele>71.269999999999996</ele>
        <time>2026-07-07T10:24:56Z</time>
      </trkpt>
      <trkpt lat="55.136930029839277" lon="-6.384471002966166">
        <ele>70.790000000000006</ele>
        <time>2026-07-07T10:24:57Z</time>
      </trkpt>
      <trkpt lat="55.13697998598218" lon="-6.384357009083033">
        <ele>71.269999999999996</ele>
        <time>2026-07-07T10:24:58Z</time>
      </trkpt>
      <trkpt lat="55.137106971815228" lon="-6.384074036031961">
        <ele>71.269999999999996</ele>
        <time>2026-07-07T10:25:00Z</time>
      </trkpt>
      <trkpt lat="55.137203028425574" lon="-6.383935986086726">
        <ele>71.269999999999996</ele>
        <time>2026-07-07T10:25:01Z</time>
      </trkpt>
      <trkpt lat="55.13730201870203" lon="-6.38379299081862">
        <ele>71.760000000000005</ele>
        <time>2026-07-07T10:25:02Z</time>
      </trkpt>
      <trkpt lat="55.137408971786499" lon="-6.38364102691412">
        <ele>71.760000000000005</ele>
        <time>2026-07-07T10:25:03Z</time>
      </trkpt>
      <trkpt lat="55.137520032003522" lon="-6.383481016382575">
        <ele>72.239999999999995</ele>
        <time>2026-07-07T10:25:04Z</time>
      </trkpt>
      <trkpt lat="55.138862980529666" lon="-6.381566002964973">
        <ele>67.430000000000007</ele>
        <time>2026-07-07T10:25:15Z</time>
      </trkpt>
      <trkpt lat="55.139699997380376" lon="-6.380365965887904">
        <ele>64.549999999999997</ele>
        <time>2026-07-07T10:25:24Z</time>
      </trkpt>
      <trkpt lat="55.140036027878523" lon="-6.379870008677244">
        <ele>63.579999999999998</ele>
        <time>2026-07-07T10:25:30Z</time>
      </trkpt>
      <trkpt lat="55.140019012615085" lon="-6.379760960116983">
        <ele>63.579999999999998</ele>
        <time>2026-07-07T10:25:31Z</time>
      </trkpt>
      <trkpt lat="55.139997974038124" lon="-6.379629028961062">
        <ele>63.579999999999998</ele>
        <time>2026-07-07T10:25:32Z</time>
      </trkpt>
      <trkpt lat="55.139940977096558" lon="-6.378394039347768">
        <ele>67.430000000000007</ele>
        <time>2026-07-07T10:25:38Z</time>
      </trkpt>
      <trkpt lat="55.139932008460164" lon="-6.377604966983199">
        <ele>67.909999999999997</ele>
        <time>2026-07-07T10:25:43Z</time>
      </trkpt>
      <trkpt lat="55.139908958226442" lon="-6.377482004463673">
        <ele>67.430000000000007</ele>
        <time>2026-07-07T10:25:44Z</time>
      </trkpt>
      <trkpt lat="55.139856990426779" lon="-6.377334985882044">
        <ele>66.950000000000003</ele>
        <time>2026-07-07T10:25:45Z</time>
      </trkpt>
      <trkpt lat="55.13979597017169" lon="-6.377208000048995">
        <ele>66.950000000000003</ele>
        <time>2026-07-07T10:25:46Z</time>
      </trkpt>
      <trkpt lat="55.139707960188389" lon="-6.377099035307765">
        <ele>67.430000000000007</ele>
        <time>2026-07-07T10:25:47Z</time>
      </trkpt>
      <trkpt lat="55.138729037716985" lon="-6.375891035422683">
        <ele>70.790000000000006</ele>
        <time>2026-07-07T10:25:57Z</time>
      </trkpt>
      <trkpt lat="55.13783996924758" lon="-6.374670965597034">
        <ele>73.680000000000007</ele>
        <time>2026-07-07T10:26:05Z</time>
      </trkpt>
      <trkpt lat="55.137058021500707" lon="-6.373300021514297">
        <ele>81.849999999999994</ele>
        <time>2026-07-07T10:26:15Z</time>
      </trkpt>
      <trkpt lat="55.136909997090697" lon="-6.373082008212805">
        <ele>83.769999999999996</ele>
        <time>2026-07-07T10:26:17Z</time>
      </trkpt>
      <trkpt lat="55.136837996542454" lon="-6.372975977137685">
        <ele>84.25</ele>
        <time>2026-07-07T10:26:18Z</time>
      </trkpt>
      <trkpt lat="55.13676499016583" lon="-6.372814038768411">
        <ele>84.730000000000004</ele>
        <time>2026-07-07T10:26:19Z</time>
      </trkpt>
      <trkpt lat="55.136733977124095" lon="-6.372627960518003">
        <ele>85.209999999999994</ele>
        <time>2026-07-07T10:26:20Z</time>
      </trkpt>
      <trkpt lat="55.13669902458787" lon="-6.372426962479949">
        <ele>85.209999999999994</ele>
        <time>2026-07-07T10:26:21Z</time>
      </trkpt>
      <trkpt lat="55.136661976575851" lon="-6.372214984148741">
        <ele>85.209999999999994</ele>
        <time>2026-07-07T10:26:22Z</time>
      </trkpt>
      <trkpt lat="55.136518981307745" lon="-6.371405040845275">
        <ele>84.730000000000004</ele>
        <time>2026-07-07T10:26:26Z</time>
      </trkpt>
      <trkpt lat="55.136468019336462" lon="-6.37129096314311">
        <ele>85.209999999999994</ele>
        <time>2026-07-07T10:26:27Z</time>
      </trkpt>
      <trkpt lat="55.136406999081373" lon="-6.371185015887022">
        <ele>85.209999999999994</ele>
        <time>2026-07-07T10:26:28Z</time>
      </trkpt>
      <trkpt lat="55.136331981047988" lon="-6.371104968711734">
        <ele>85.689999999999998</ele>
        <time>2026-07-07T10:26:29Z</time>
      </trkpt>
      <trkpt lat="55.136254029348493" lon="-6.371022993698716">
        <ele>86.180000000000007</ele>
        <time>2026-07-07T10:26:30Z</time>
      </trkpt>
      <trkpt lat="55.136169036850333" lon="-6.370933977887034">
        <ele>86.659999999999997</ele>
        <time>2026-07-07T10:26:31Z</time>
      </trkpt>
      <trkpt lat="55.136079015210271" lon="-6.370839010924101">
        <ele>87.140000000000001</ele>
        <time>2026-07-07T10:26:32Z</time>
      </trkpt>
      <trkpt lat="55.13599201105535" lon="-6.370719987899065">
        <ele>87.620000000000005</ele>
        <time>2026-07-07T10:26:33Z</time>
      </trkpt>
      <trkpt lat="55.13590500690043" lon="-6.370585961267352">
        <ele>87.620000000000005</ele>
        <time>2026-07-07T10:26:34Z</time>
      </trkpt>
      <trkpt lat="55.13581900857389" lon="-6.370454030111432">
        <ele>88.099999999999994</ele>
        <time>2026-07-07T10:26:35Z</time>
      </trkpt>
      <trkpt lat="55.135747008025646" lon="-6.370315980166197">
        <ele>88.099999999999994</ele>
        <time>2026-07-07T10:26:36Z</time>
      </trkpt>
      <trkpt lat="55.135693028569221" lon="-6.370165022090077">
        <ele>88.579999999999998</ele>
        <time>2026-07-07T10:26:37Z</time>
      </trkpt>
      <trkpt lat="55.135637959465384" lon="-6.370009034872055">
        <ele>88.579999999999998</ele>
        <time>2026-07-07T10:26:38Z</time>
      </trkpt>
      <trkpt lat="55.135579034686089" lon="-6.369842989370227">
        <ele>89.060000000000002</ele>
        <time>2026-07-07T10:26:39Z</time>
      </trkpt>
      <trkpt lat="55.135517008602619" lon="-6.369668981060386">
        <ele>89.540000000000006</ele>
        <time>2026-07-07T10:26:40Z</time>
      </trkpt>
      <trkpt lat="55.135456994175911" lon="-6.369503019377589">
        <ele>89.540000000000006</ele>
        <time>2026-07-07T10:26:41Z</time>
      </trkpt>
      <trkpt lat="55.135398991405964" lon="-6.369337979704142">
        <ele>89.540000000000006</ele>
        <time>2026-07-07T10:26:42Z</time>
      </trkpt>
      <trkpt lat="55.135338976979256" lon="-6.369171012192965">
        <ele>89.060000000000002</ele>
        <time>2026-07-07T10:26:43Z</time>
      </trkpt>
      <trkpt lat="55.135226994752884" lon="-6.368856020271778">
        <ele>87.620000000000005</ele>
        <time>2026-07-07T10:26:45Z</time>
      </trkpt>
      <trkpt lat="55.13515499420464" lon="-6.368720987811685">
        <ele>86.659999999999997</ele>
        <time>2026-07-07T10:26:46Z</time>
      </trkpt>
      <trkpt lat="55.135076036676764" lon="-6.368594001978636">
        <ele>86.180000000000007</ele>
        <time>2026-07-07T10:26:47Z</time>
      </trkpt>
      <trkpt lat="55.134400958195329" lon="-6.367723038420081">
        <ele>82.810000000000002</ele>
        <time>2026-07-07T10:26:56Z</time>
      </trkpt>
      <trkpt lat="55.134339015930891" lon="-6.367645002901554">
        <ele>82.810000000000002</ele>
        <time>2026-07-07T10:27:00Z</time>
      </trkpt>
      <trkpt lat="55.134327029809356" lon="-6.367629999294877">
        <ele>82.810000000000002</ele>
        <time>2026-07-07T10:27:01Z</time>
      </trkpt>
      <trkpt lat="55.134318983182311" lon="-6.367620024830103">
        <ele>82.810000000000002</ele>
        <time>2026-07-07T10:27:04Z</time>
      </trkpt>
      <trkpt lat="55.134290987625718" lon="-6.367655983194709">
        <ele>83.290000000000006</ele>
        <time>2026-07-07T10:27:05Z</time>
      </trkpt>
      <trkpt lat="55.134267015382648" lon="-6.367717003449798">
        <ele>83.290000000000006</ele>
        <time>2026-07-07T10:27:06Z</time>
      </trkpt>
      <trkpt lat="55.134232984855771" lon="-6.367808030918241">
        <ele>83.769999999999996</ele>
        <time>2026-07-07T10:27:07Z</time>
      </trkpt>
      <trkpt lat="55.134190991520882" lon="-6.367920013144612">
        <ele>83.769999999999996</ele>
        <time>2026-07-07T10:27:08Z</time>
      </trkpt>
      <trkpt lat="55.133743984624743" lon="-6.369104962795973">
        <ele>84.25</ele>
        <time>2026-07-07T10:27:15Z</time>
      </trkpt>
      <trkpt lat="55.132850976660848" lon="-6.371480980888009">
        <ele>87.140000000000001</ele>
        <time>2026-07-07T10:27:27Z</time>
      </trkpt>
      <trkpt lat="55.132204983383417" lon="-6.373231960460544">
        <ele>89.540000000000006</ele>
        <time>2026-07-07T10:27:36Z</time>
      </trkpt>
      <trkpt lat="55.131670972332358" lon="-6.374523025006056">
        <ele>92.900000000000006</ele>
        <time>2026-07-07T10:27:45Z</time>
      </trkpt>
      <trkpt lat="55.131448013707995" lon="-6.375035997480154">
        <ele>93.390000000000001</ele>
        <time>2026-07-07T10:27:54Z</time>
      </trkpt>
      <trkpt lat="55.131376013159752" lon="-6.375215034931898">
        <ele>93.870000000000005</ele>
        <time>2026-07-07T10:28:03Z</time>
      </trkpt>
      <trkpt lat="55.131364027038217" lon="-6.375246969982982">
        <ele>94.349999999999994</ele>
        <time>2026-07-07T10:28:12Z</time>
      </trkpt>
      <trkpt lat="55.131712965667248" lon="-6.375085031613708">
        <ele>148.66</ele>
        <time>2026-07-07T10:39:47Z</time>
      </trkpt>
      <trkpt lat="55.131425969302654" lon="-6.375279994681478">
        <ele>112.61</ele>
        <time>2026-07-07T10:39:49Z</time>
      </trkpt>
      <trkpt lat="55.131375007331371" lon="-6.375285023823381">
        <ele>101.08</ele>
        <time>2026-07-07T10:40:11Z</time>
      </trkpt>
      <trkpt lat="55.131391016766429" lon="-6.375274965539575">
        <ele>96.269999999999996</ele>
        <time>2026-07-07T10:40:54Z</time>
      </trkpt>
      <trkpt lat="55.131390010938048" lon="-6.375260967761278">
        <ele>101.08</ele>
        <time>2026-07-07T10:41:29Z</time>
      </trkpt>
      <trkpt lat="55.131380036473274" lon="-6.375250993296504">
        <ele>99.150000000000006</ele>
        <time>2026-07-07T10:42:02Z</time>
      </trkpt>
      <trkpt lat="55.131407026201487" lon="-6.375255016610026">
        <ele>98.670000000000002</ele>
        <time>2026-07-07T10:42:15Z</time>
      </trkpt>
      <trkpt lat="55.131411971524358" lon="-6.375116966664791">
        <ele>98.189999999999998</ele>
        <time>2026-07-07T10:42:17Z</time>
      </trkpt>
      <trkpt lat="55.131656974554062" lon="-6.374554960057139">
        <ele>96.75</ele>
        <time>2026-07-07T10:42:23Z</time>
      </trkpt>
      <trkpt lat="55.132201965898275" lon="-6.37324201874435">
        <ele>95.790000000000006</ele>
        <time>2026-07-07T10:42:30Z</time>
      </trkpt>
      <trkpt lat="55.13285499997437" lon="-6.371470000594854">
        <ele>91.939999999999998</ele>
        <time>2026-07-07T10:42:39Z</time>
      </trkpt>
      <trkpt lat="55.133678019046783" lon="-6.369278971105814">
        <ele>88.579999999999998</ele>
        <time>2026-07-07T10:42:51Z</time>
      </trkpt>
      <trkpt lat="55.134239019826055" lon="-6.367792021483183">
        <ele>90.980000000000004</ele>
        <time>2026-07-07T10:43:01Z</time>
      </trkpt>
      <trkpt lat="55.134267015382648" lon="-6.367718009278178">
        <ele>91.459999999999994</ele>
        <time>2026-07-07T10:43:02Z</time>
      </trkpt>
      <trkpt lat="55.134287970140576" lon="-6.367662018164992">
        <ele>91.939999999999998</ele>
        <time>2026-07-07T10:43:03Z</time>
      </trkpt>
      <trkpt lat="55.134352007880807" lon="-6.367661012336612">
        <ele>92.420000000000002</ele>
        <time>2026-07-07T10:43:04Z</time>
      </trkpt>
      <trkpt lat="55.134386038407683" lon="-6.367704011499882">
        <ele>92.900000000000006</ele>
        <time>2026-07-07T10:43:05Z</time>
      </trkpt>
      <trkpt lat="55.134430965408683" lon="-6.367758996784687">
        <ele>93.390000000000001</ele>
        <time>2026-07-07T10:43:06Z</time>
      </trkpt>
      <trkpt lat="55.134484022855759" lon="-6.367825968191028">
        <ele>93.870000000000005</ele>
        <time>2026-07-07T10:43:07Z</time>
      </trkpt>
      <trkpt lat="55.135064972564578" lon="-6.368575980886817">
        <ele>91.459999999999994</ele>
        <time>2026-07-07T10:43:14Z</time>
      </trkpt>
      <trkpt lat="55.135163040831685" lon="-6.36873297393322">
        <ele>91.939999999999998</ele>
        <time>2026-07-07T10:43:15Z</time>
      </trkpt>
      <trkpt lat="55.135247027501464" lon="-6.368911005556583">
        <ele>92.900000000000006</ele>
        <time>2026-07-07T10:43:16Z</time>
      </trkpt>
      <trkpt lat="55.135317016392946" lon="-6.369108986109495">
        <ele>94.349999999999994</ele>
        <time>2026-07-07T10:43:17Z</time>
      </trkpt>
      <trkpt lat="55.135596971958876" lon="-6.369894035160542">
        <ele>97.709999999999994</ele>
        <time>2026-07-07T10:43:21Z</time>
      </trkpt>
      <trkpt lat="55.135796964168549" lon="-6.370419999584556">
        <ele>97.230000000000004</ele>
        <time>2026-07-07T10:43:24Z</time>
      </trkpt>
      <trkpt lat="55.135892014950514" lon="-6.370565006509423">
        <ele>96.75</ele>
        <time>2026-07-07T10:43:25Z</time>
      </trkpt>
      <trkpt lat="55.135989999398589" lon="-6.370715964585543">
        <ele>95.790000000000006</ele>
        <time>2026-07-07T10:43:26Z</time>
      </trkpt>
      <trkpt lat="55.13620600104332" lon="-6.370972031727433">
        <ele>94.349999999999994</ele>
        <time>2026-07-07T10:43:28Z</time>
      </trkpt>
      <trkpt lat="55.136308008804917" lon="-6.371078984811902">
        <ele>93.390000000000001</ele>
        <time>2026-07-07T10:43:29Z</time>
      </trkpt>
      <trkpt lat="55.13640196993947" lon="-6.371178980916739">
        <ele>92.420000000000002</ele>
        <time>2026-07-07T10:43:30Z</time>
      </trkpt>
      <trkpt lat="55.136481011286378" lon="-6.371318958699703">
        <ele>91.459999999999994</ele>
        <time>2026-07-07T10:43:31Z</time>
      </trkpt>
      <trkpt lat="55.136533984914422" lon="-6.371487015858293">
        <ele>90.5</ele>
        <time>2026-07-07T10:43:32Z</time>
      </trkpt>
      <trkpt lat="55.136563992127776" lon="-6.371660018339753">
        <ele>89.540000000000006</ele>
        <time>2026-07-07T10:43:33Z</time>
      </trkpt>
      <trkpt lat="55.13659399934113" lon="-6.371831009164453">
        <ele>89.540000000000006</ele>
        <time>2026-07-07T10:43:34Z</time>
      </trkpt>
      <trkpt lat="55.136776976287365" lon="-6.372886039316654">
        <ele>88.579999999999998</ele>
        <time>2026-07-07T10:43:41Z</time>
      </trkpt>
      <trkpt lat="55.136862974613905" lon="-6.373013025149703">
        <ele>88.579999999999998</ele>
        <time>2026-07-07T10:43:42Z</time>
      </trkpt>
      <trkpt lat="55.13693799264729" lon="-6.373122995719314">
        <ele>88.579999999999998</ele>
        <time>2026-07-07T10:43:43Z</time>
      </trkpt>
      <trkpt lat="55.137019967660308" lon="-6.373244030401111">
        <ele>88.099999999999994</ele>
        <time>2026-07-07T10:43:44Z</time>
      </trkpt>
      <trkpt lat="55.137107977643609" lon="-6.373374033719301">
        <ele>88.099999999999994</ele>
        <time>2026-07-07T10:43:45Z</time>
      </trkpt>
      <trkpt lat="55.13719498179853" lon="-6.373530020937324">
        <ele>88.099999999999994</ele>
        <time>2026-07-07T10:43:46Z</time>
      </trkpt>
      <trkpt lat="55.138061000034213" lon="-6.375054018571973">
        <ele>82.810000000000002</ele>
        <time>2026-07-07T10:43:56Z</time>
      </trkpt>
      <trkpt lat="55.138950990512967" lon="-6.37616503983736">
        <ele>78.969999999999999</ele>
        <time>2026-07-07T10:44:05Z</time>
      </trkpt>
      <trkpt lat="55.139831006526947" lon="-6.377263991162181">
        <ele>76.560000000000002</ele>
        <time>2026-07-07T10:44:14Z</time>
      </trkpt>
      <trkpt lat="55.13988196849823" lon="-6.377403968945146">
        <ele>76.079999999999998</ele>
        <time>2026-07-07T10:44:15Z</time>
      </trkpt>
      <trkpt lat="55.139927985146642" lon="-6.377534978091717">
        <ele>75.599999999999994</ele>
        <time>2026-07-07T10:44:16Z</time>
      </trkpt>
      <trkpt lat="55.139933014288545" lon="-6.37768903747201">
        <ele>75.120000000000005</ele>
        <time>2026-07-07T10:44:17Z</time>
      </trkpt>
      <trkpt lat="55.139935025945306" lon="-6.377860028296709">
        <ele>75.599999999999994</ele>
        <time>2026-07-07T10:44:18Z</time>
      </trkpt>
      <trkpt lat="55.139937037602067" lon="-6.378052979707718">
        <ele>75.599999999999994</ele>
        <time>2026-07-07T10:44:19Z</time>
      </trkpt>
      <trkpt lat="55.139951035380363" lon="-6.379199959337711">
        <ele>74.640000000000001</ele>
        <time>2026-07-07T10:44:25Z</time>
      </trkpt>
      <trkpt lat="55.139952041208744" lon="-6.379344966262579">
        <ele>73.680000000000007</ele>
        <time>2026-07-07T10:44:26Z</time>
      </trkpt>
      <trkpt lat="55.139975007623434" lon="-6.379488967359066">
        <ele>73.680000000000007</ele>
        <time>2026-07-07T10:44:27Z</time>
      </trkpt>
      <trkpt lat="55.139990011230111" lon="-6.379583012312651">
        <ele>73.200000000000003</ele>
        <time>2026-07-07T10:44:28Z</time>
      </trkpt>
      <trkpt lat="55.140000991523266" lon="-6.379649983718991">
        <ele>72.719999999999999</ele>
        <time>2026-07-07T10:44:29Z</time>
      </trkpt>
      <trkpt lat="55.140009038150311" lon="-6.379700023680925">
        <ele>72.719999999999999</ele>
        <time>2026-07-07T10:44:30Z</time>
      </trkpt>
      <trkpt lat="55.140015995129943" lon="-6.379740005359054">
        <ele>72.239999999999995</ele>
        <time>2026-07-07T10:44:31Z</time>
      </trkpt>
      <trkpt lat="55.140015995129943" lon="-6.379740005359054">
        <ele>70.310000000000002</ele>
        <time>2026-07-07T10:44:35Z</time>
      </trkpt>
      <trkpt lat="55.140052037313581" lon="-6.379863973706961">
        <ele>70.310000000000002</ele>
        <time>2026-07-07T10:44:39Z</time>
      </trkpt>
      <trkpt lat="55.140078021213412" lon="-6.379832038655877">
        <ele>69.829999999999998</ele>
        <time>2026-07-07T10:44:40Z</time>
      </trkpt>
      <trkpt lat="55.140124037861824" lon="-6.37977403588593">
        <ele>69.349999999999994</ele>
        <time>2026-07-07T10:44:41Z</time>
      </trkpt>
      <trkpt lat="55.140565009787679" lon="-6.379155032336712">
        <ele>68.870000000000005</ele>
        <time>2026-07-07T10:44:47Z</time>
      </trkpt>
      <trkpt lat="55.140655031427741" lon="-6.379028968513012">
        <ele>68.870000000000005</ele>
        <time>2026-07-07T10:44:48Z</time>
      </trkpt>
      <trkpt lat="55.140956025570631" lon="-6.378606017678976">
        <ele>68.870000000000005</ele>
        <time>2026-07-07T10:44:51Z</time>
      </trkpt>
      <trkpt lat="55.141060966998339" lon="-6.378458999097347">
        <ele>69.349999999999994</ele>
        <time>2026-07-07T10:44:52Z</time>
      </trkpt>
      <trkpt lat="55.14116900973022" lon="-6.378306029364467">
        <ele>69.829999999999998</ele>
        <time>2026-07-07T10:44:53Z</time>
      </trkpt>
      <trkpt lat="55.14127898029983" lon="-6.378183988854289">
        <ele>70.310000000000002</ele>
        <time>2026-07-07T10:44:54Z</time>
      </trkpt>
      <trkpt lat="55.141408983618021" lon="-6.378107964992523">
        <ele>70.310000000000002</ele>
        <time>2026-07-07T10:44:55Z</time>
      </trkpt>
      <trkpt lat="55.141539992764592" lon="-6.378032024949789">
        <ele>70.790000000000006</ele>
        <time>2026-07-07T10:44:56Z</time>
      </trkpt>
      <trkpt lat="55.142086995765567" lon="-6.37782096862793">
        <ele>72.239999999999995</ele>
        <time>2026-07-07T10:45:00Z</time>
      </trkpt>
      <trkpt lat="55.142227979376912" lon="-6.377807976678014">
        <ele>72.239999999999995</ele>
        <time>2026-07-07T10:45:01Z</time>
      </trkpt>
      <trkpt lat="55.142365023493767" lon="-6.377823986113071">
        <ele>73.200000000000003</ele>
        <time>2026-07-07T10:45:02Z</time>
      </trkpt>
      <trkpt lat="55.143518038094044" lon="-6.378287002444267">
        <ele>77.519999999999996</ele>
        <time>2026-07-07T10:45:10Z</time>
      </trkpt>
      <trkpt lat="55.14366396702826" lon="-6.378297982737422">
        <ele>78.480000000000004</ele>
        <time>2026-07-07T10:45:11Z</time>
      </trkpt>
      <trkpt lat="55.14480197802186" lon="-6.378089021891356">
        <ele>84.25</ele>
        <time>2026-07-07T10:45:18Z</time>
      </trkpt>
      <trkpt lat="55.14493097551167" lon="-6.37805700302124">
        <ele>84.730000000000004</ele>
        <time>2026-07-07T10:45:19Z</time>
      </trkpt>
      <trkpt lat="55.145057961344719" lon="-6.377934040501714">
        <ele>85.209999999999994</ele>
        <time>2026-07-07T10:45:20Z</time>
      </trkpt>
      <trkpt lat="55.145183019340038" lon="-6.377814011648297">
        <ele>84.730000000000004</ele>
        <time>2026-07-07T10:45:21Z</time>
      </trkpt>
      <trkpt lat="55.145594989880919" lon="-6.377459960058332">
        <ele>82.810000000000002</ele>
        <time>2026-07-07T10:45:24Z</time>
      </trkpt>
      <trkpt lat="55.145747037604451" lon="-6.377388965338469">
        <ele>82.329999999999998</ele>
        <time>2026-07-07T10:45:25Z</time>
      </trkpt>
      <trkpt lat="55.145903024822474" lon="-6.377336997538805">
        <ele>82.329999999999998</ele>
        <time>2026-07-07T10:45:26Z</time>
      </trkpt>
      <trkpt lat="55.14780898578465" lon="-6.377014964818955">
        <ele>78.969999999999999</ele>
        <time>2026-07-07T10:45:38Z</time>
      </trkpt>
      <trkpt lat="55.15004200860858" lon="-6.37663702480495">
        <ele>84.730000000000004</ele>
        <time>2026-07-07T10:45:51Z</time>
      </trkpt>
      <trkpt lat="55.152182998135686" lon="-6.376275010406971">
        <ele>90.5</ele>
        <time>2026-07-07T10:46:03Z</time>
      </trkpt>
      <trkpt lat="55.153369037434459" lon="-6.376154981553555">
        <ele>89.540000000000006</ele>
        <time>2026-07-07T10:46:10Z</time>
      </trkpt>
      <trkpt lat="55.155166033655405" lon="-6.37650802731514">
        <ele>93.390000000000001</ele>
        <time>2026-07-07T10:46:20Z</time>
      </trkpt>
      <trkpt lat="55.157750006765127" lon="-6.377039020881057">
        <ele>97.709999999999994</ele>
        <time>2026-07-07T10:46:35Z</time>
      </trkpt>
      <trkpt lat="55.159107036888599" lon="-6.376970037817955">
        <ele>98.189999999999998</ele>
        <time>2026-07-07T10:46:43Z</time>
      </trkpt>
      <trkpt lat="55.16020598821342" lon="-6.37663803063333">
        <ele>100.59999999999999</ele>
        <time>2026-07-07T10:46:51Z</time>
      </trkpt>
      <trkpt lat="55.160414027050138" lon="-6.376591008156538">
        <ele>101.08</ele>
        <time>2026-07-07T10:46:53Z</time>
      </trkpt>
      <trkpt lat="55.160509999841452" lon="-6.376582039520145">
        <ele>101.08</ele>
        <time>2026-07-07T10:46:54Z</time>
      </trkpt>
      <trkpt lat="55.161040993407369" lon="-6.376576004549861">
        <ele>101.56</ele>
        <time>2026-07-07T10:47:01Z</time>
      </trkpt>
      <trkpt lat="55.16108701005578" lon="-6.376576004549861">
        <ele>101.08</ele>
        <time>2026-07-07T10:47:02Z</time>
      </trkpt>
      <trkpt lat="55.161141995340586" lon="-6.37650802731514">
        <ele>101.08</ele>
        <time>2026-07-07T10:47:03Z</time>
      </trkpt>
      <trkpt lat="55.161156998947263" lon="-6.376409037038684">
        <ele>100.59999999999999</ele>
        <time>2026-07-07T10:47:04Z</time>
      </trkpt>
      <trkpt lat="55.161176025867462" lon="-6.376286996528506">
        <ele>100.59999999999999</ele>
        <time>2026-07-07T10:47:05Z</time>
      </trkpt>
      <trkpt lat="55.161196980625391" lon="-6.376148024573922">
        <ele>100.59999999999999</ele>
        <time>2026-07-07T10:47:06Z</time>
      </trkpt>
      <trkpt lat="55.161218019202352" lon="-6.376010980457068">
        <ele>99.629999999999995</ele>
        <time>2026-07-07T10:47:07Z</time>
      </trkpt>
      <trkpt lat="55.1612379681319" lon="-6.375879971310496">
        <ele>99.150000000000006</ele>
        <time>2026-07-07T10:47:08Z</time>
      </trkpt>
      <trkpt lat="55.161256995052099" lon="-6.375760026276112">
        <ele>98.189999999999998</ele>
        <time>2026-07-07T10:47:09Z</time>
      </trkpt>
      <trkpt lat="55.161260012537241" lon="-6.375739993527532">
        <ele>97.709999999999994</ele>
        <time>2026-07-07T10:47:10Z</time>
      </trkpt>
      <trkpt lat="55.161310974508524" lon="-6.375651983544231">
        <ele>97.230000000000004</ele>
        <time>2026-07-07T10:47:11Z</time>
      </trkpt>
      <trkpt lat="55.16132396645844" lon="-6.37562901712954">
        <ele>96.75</ele>
        <time>2026-07-07T10:47:12Z</time>
      </trkpt>
      <trkpt lat="55.16132396645844" lon="-6.37562901712954">
        <ele>95.310000000000002</ele>
        <time>2026-07-07T10:47:25Z</time>
      </trkpt>
      <trkpt lat="55.161393033340573" lon="-6.375510999932885">
        <ele>95.790000000000006</ele>
        <time>2026-07-07T10:47:35Z</time>
      </trkpt>
      <trkpt lat="55.161419017240405" lon="-6.37541301548481">
        <ele>96.269999999999996</ele>
        <time>2026-07-07T10:47:36Z</time>
      </trkpt>
      <trkpt lat="55.161568969488144" lon="-6.374369971454144">
        <ele>97.230000000000004</ele>
        <time>2026-07-07T10:47:42Z</time>
      </trkpt>
      <trkpt lat="55.161897037178278" lon="-6.372130997478962">
        <ele>100.59999999999999</ele>
        <time>2026-07-07T10:47:50Z</time>
      </trkpt>
      <trkpt lat="55.162544036284089" lon="-6.368307005614042">
        <ele>104.92</ele>
        <time>2026-07-07T10:48:02Z</time>
      </trkpt>
      <trkpt lat="55.163274016231298" lon="-6.366143971681595">
        <ele>106.36</ele>
        <time>2026-07-07T10:48:10Z</time>
      </trkpt>
      <trkpt lat="55.164368022233248" lon="-6.364271035417914">
        <ele>106.84</ele>
        <time>2026-07-07T10:48:18Z</time>
      </trkpt>
      <trkpt lat="55.166514962911606" lon="-6.360733034089208">
        <ele>105.88</ele>
        <time>2026-07-07T10:48:33Z</time>
      </trkpt>
      <trkpt lat="55.16858696937561" lon="-6.35700099170208">
        <ele>106.84</ele>
        <time>2026-07-07T10:48:48Z</time>
      </trkpt>
      <trkpt lat="55.169277973473072" lon="-6.354932002723217">
        <ele>106.36</ele>
        <time>2026-07-07T10:48:55Z</time>
      </trkpt>
      <trkpt lat="55.170029997825623" lon="-6.350833000615239">
        <ele>108.29000000000001</ele>
        <time>2026-07-07T10:49:07Z</time>
      </trkpt>
      <trkpt lat="55.170730976387858" lon="-6.346957962960005">
        <ele>107.31999999999999</ele>
        <time>2026-07-07T10:49:19Z</time>
      </trkpt>
      <trkpt lat="55.171419968828559" lon="-6.344976983964443">
        <ele>103.48</ele>
        <time>2026-07-07T10:49:26Z</time>
      </trkpt>
      <trkpt lat="55.173181006684899" lon="-6.340704979375005">
        <ele>100.11</ele>
        <time>2026-07-07T10:49:41Z</time>
      </trkpt>
      <trkpt lat="55.175276985391974" lon="-6.335672987625003">
        <ele>104.44</ele>
        <time>2026-07-07T10:49:59Z</time>
      </trkpt>
      <trkpt lat="55.176696041598916" lon="-6.332303965464234">
        <ele>109.25</ele>
        <time>2026-07-07T10:50:11Z</time>
      </trkpt>
      <trkpt lat="55.178261026740074" lon="-6.328528001904488">
        <ele>114.05</ele>
        <time>2026-07-07T10:50:24Z</time>
      </trkpt>
      <trkpt lat="55.179528035223484" lon="-6.326302019879222">
        <ele>115.01000000000001</ele>
        <time>2026-07-07T10:50:33Z</time>
      </trkpt>
      <trkpt lat="55.180687000975013" lon="-6.324336966499686">
        <ele>108.29000000000001</ele>
        <time>2026-07-07T10:50:41Z</time>
      </trkpt>
      <trkpt lat="55.18106896430254" lon="-6.32253703661263">
        <ele>107.81</ele>
        <time>2026-07-07T10:50:47Z</time>
      </trkpt>
      <trkpt lat="55.181643040850759" lon="-6.31931503303349">
        <ele>109.25</ele>
        <time>2026-07-07T10:50:57Z</time>
      </trkpt>
      <trkpt lat="55.182478968054056" lon="-6.315304962918162">
        <ele>105.40000000000001</ele>
        <time>2026-07-07T10:51:09Z</time>
      </trkpt>
      <trkpt lat="55.18349401652813" lon="-6.310165012255311">
        <ele>109.25</ele>
        <time>2026-07-07T10:51:25Z</time>
      </trkpt>
      <trkpt lat="55.18407697789371" lon="-6.306491978466511">
        <ele>109.73</ele>
        <time>2026-07-07T10:51:36Z</time>
      </trkpt>
      <trkpt lat="55.184754990041256" lon="-6.302237994968891">
        <ele>110.20999999999999</ele>
        <time>2026-07-07T10:51:49Z</time>
      </trkpt>
      <trkpt lat="55.185226975008845" lon="-6.299584032967687">
        <ele>110.20999999999999</ele>
        <time>2026-07-07T10:51:58Z</time>
      </trkpt>
      <trkpt lat="55.185683034360409" lon="-6.297546979039908">
        <ele>105.40000000000001</ele>
        <time>2026-07-07T10:52:07Z</time>
      </trkpt>
      <trkpt lat="55.186275970190763" lon="-6.295377993956208">
        <ele>100.59999999999999</ele>
        <time>2026-07-07T10:52:17Z</time>
      </trkpt>
      <trkpt lat="55.187101000919938" lon="-6.292791003361344">
        <ele>90.980000000000004</ele>
        <time>2026-07-07T10:52:30Z</time>
      </trkpt>
      <trkpt lat="55.187239972874522" lon="-6.292369980365038">
        <ele>90.019999999999996</ele>
        <time>2026-07-07T10:52:32Z</time>
      </trkpt>
      <trkpt lat="55.187735008075833" lon="-6.290079038590193">
        <ele>89.540000000000006</ele>
        <time>2026-07-07T10:52:42Z</time>
      </trkpt>
      <trkpt lat="55.188503041863441" lon="-6.286933980882168">
        <ele>87.620000000000005</ele>
        <time>2026-07-07T10:52:55Z</time>
      </trkpt>
      <trkpt lat="55.189300999045372" lon="-6.284113973379135">
        <ele>87.140000000000001</ele>
        <time>2026-07-07T10:53:06Z</time>
      </trkpt>
      <trkpt lat="55.189448017627001" lon="-6.283593960106373">
        <ele>85.209999999999994</ele>
        <time>2026-07-07T10:53:10Z</time>
      </trkpt>
      <trkpt lat="55.189606016501784" lon="-6.283035976812244">
        <ele>80.890000000000001</ele>
        <time>2026-07-07T10:53:21Z</time>
      </trkpt>
      <trkpt lat="55.189907010644674" lon="-6.281797969713807">
        <ele>78</ele>
        <time>2026-07-07T10:53:29Z</time>
      </trkpt>
      <trkpt lat="55.190222002565861" lon="-6.279399991035461">
        <ele>77.519999999999996</ele>
        <time>2026-07-07T10:53:41Z</time>
      </trkpt>
      <trkpt lat="55.190506987273693" lon="-6.277046017348766">
        <ele>76.079999999999998</ele>
        <time>2026-07-07T10:53:51Z</time>
      </trkpt>
      <trkpt lat="55.190906971693039" lon="-6.274265991523862">
        <ele>74.640000000000001</ele>
        <time>2026-07-07T10:54:02Z</time>
      </trkpt>
      <trkpt lat="55.191566040739417" lon="-6.272028023377061">
        <ele>67.909999999999997</ele>
        <time>2026-07-07T10:54:11Z</time>
      </trkpt>
      <trkpt lat="55.192401967942715" lon="-6.270335968583822">
        <ele>62.619999999999997</ele>
        <time>2026-07-07T10:54:19Z</time>
      </trkpt>
      <trkpt lat="55.193585995584726" lon="-6.268349038437009">
        <ele>55.890000000000001</ele>
        <time>2026-07-07T10:54:29Z</time>
      </trkpt>
      <trkpt lat="55.194629961624742" lon="-6.266579031944275">
        <ele>48.200000000000003</ele>
        <time>2026-07-07T10:54:39Z</time>
      </trkpt>
      <trkpt lat="55.195465972647071" lon="-6.264955038204789">
        <ele>44.840000000000003</ele>
        <time>2026-07-07T10:54:49Z</time>
      </trkpt>
      <trkpt lat="55.196597026661038" lon="-6.262698965147138">
        <ele>47.719999999999999</ele>
        <time>2026-07-07T10:55:03Z</time>
      </trkpt>
      <trkpt lat="55.196934984996915" lon="-6.262065041810274">
        <ele>49.159999999999997</ele>
        <time>2026-07-07T10:55:07Z</time>
      </trkpt>
      <trkpt lat="55.197022994980216" lon="-6.261954987421632">
        <ele>49.159999999999997</ele>
        <time>2026-07-07T10:55:08Z</time>
      </trkpt>
      <trkpt lat="55.197117039933801" lon="-6.261911988258362">
        <ele>48.68</ele>
        <time>2026-07-07T10:55:09Z</time>
      </trkpt>
      <trkpt lat="55.197213012725115" lon="-6.261868989095092">
        <ele>48.68</ele>
        <time>2026-07-07T10:55:10Z</time>
      </trkpt>
      <trkpt lat="55.197317032143474" lon="-6.2618219666183">
        <ele>48.68</ele>
        <time>2026-07-07T10:55:11Z</time>
      </trkpt>
      <trkpt lat="55.198732987046242" lon="-6.261224001646042">
        <ele>45.32</ele>
        <time>2026-07-07T10:55:24Z</time>
      </trkpt>
      <trkpt lat="55.199177982285619" lon="-6.260997019708157">
        <ele>43.880000000000003</ele>
        <time>2026-07-07T10:55:28Z</time>
      </trkpt>
      <trkpt lat="55.199260041117668" lon="-6.260871961712837">
        <ele>42.920000000000002</ele>
        <time>2026-07-07T10:55:29Z</time>
      </trkpt>
      <trkpt lat="55.199303962290287" lon="-6.2607909925282">
        <ele>41.950000000000003</ele>
        <time>2026-07-07T10:55:30Z</time>
      </trkpt>
      <trkpt lat="55.199361965060234" lon="-6.260559987276793">
        <ele>40.990000000000002</ele>
        <time>2026-07-07T10:55:31Z</time>
      </trkpt>
      <trkpt lat="55.199412005022168" lon="-6.260362006723881">
        <ele>40.509999999999998</ele>
        <time>2026-07-07T10:55:32Z</time>
      </trkpt>
      <trkpt lat="55.199434971436858" lon="-6.260194033384323">
        <ele>39.549999999999997</ele>
        <time>2026-07-07T10:55:33Z</time>
      </trkpt>
      <trkpt lat="55.199461039155722" lon="-6.260003009811044">
        <ele>39.07</ele>
        <time>2026-07-07T10:55:34Z</time>
      </trkpt>
      <trkpt lat="55.199703024700284" lon="-6.258134013041854">
        <ele>37.630000000000003</ele>
        <time>2026-07-07T10:55:45Z</time>
      </trkpt>
      <trkpt lat="55.199982980266213" lon="-6.255809962749481">
        <ele>33.780000000000001</ele>
        <time>2026-07-07T10:55:58Z</time>
      </trkpt>
      <trkpt lat="55.200213985517621" lon="-6.253921017050743">
        <ele>33.299999999999997</ele>
        <time>2026-07-07T10:56:09Z</time>
      </trkpt>
      <trkpt lat="55.200425963848829" lon="-6.252242960035801">
        <ele>30.899999999999999</ele>
        <time>2026-07-07T10:56:20Z</time>
      </trkpt>
      <trkpt lat="55.200626961886883" lon="-6.2508649751544">
        <ele>22.73</ele>
        <time>2026-07-07T10:56:30Z</time>
      </trkpt>
      <trkpt lat="55.200655963271856" lon="-6.250684009864926">
        <ele>22.25</ele>
        <time>2026-07-07T10:56:31Z</time>
      </trkpt>
      <trkpt lat="55.200699968263507" lon="-6.250617038458586">
        <ele>21.289999999999999</ele>
        <time>2026-07-07T10:56:32Z</time>
      </trkpt>
      <trkpt lat="55.200755959376693" lon="-6.250528022646904">
        <ele>20.809999999999999</ele>
        <time>2026-07-07T10:56:33Z</time>
      </trkpt>
      <trkpt lat="55.200809016823769" lon="-6.250445963814855">
        <ele>20.809999999999999</ele>
        <time>2026-07-07T10:56:34Z</time>
      </trkpt>
      <trkpt lat="55.200869031250477" lon="-6.250364994630218">
        <ele>20.32</ele>
        <time>2026-07-07T10:56:35Z</time>
      </trkpt>
      <trkpt lat="55.201219981536269" lon="-6.250028964132071">
        <ele>17.440000000000001</ele>
        <time>2026-07-07T10:56:44Z</time>
      </trkpt>
      <trkpt lat="55.201341016218066" lon="-6.249898038804531">
        <ele>16.48</ele>
        <time>2026-07-07T10:56:53Z</time>
      </trkpt>
      <trkpt lat="55.201490968465805" lon="-6.249691005796194">
        <ele>17.920000000000002</ele>
        <time>2026-07-07T10:57:05Z</time>
      </trkpt>
      <trkpt lat="55.201512007042766" lon="-6.24966099858284">
        <ele>18.399999999999999</ele>
        <time>2026-07-07T10:57:14Z</time>
      </trkpt>
      <trkpt lat="55.201535979285836" lon="-6.249627973884344">
        <ele>18.399999999999999</ele>
        <time>2026-07-07T10:57:15Z</time>
      </trkpt>
      <trkpt lat="55.201574033126235" lon="-6.249576006084681">
        <ele>18.879999999999999</ele>
        <time>2026-07-07T10:57:16Z</time>
      </trkpt>
      <trkpt lat="55.201802020892501" lon="-6.249185996130109">
        <ele>20.32</ele>
        <time>2026-07-07T10:57:22Z</time>
      </trkpt>
      <trkpt lat="55.201828004792333" lon="-6.249110978096724">
        <ele>20.32</ele>
        <time>2026-07-07T10:57:23Z</time>
      </trkpt>
      <trkpt lat="55.202094968408346" lon="-6.248348979279399">
        <ele>17.920000000000002</ele>
        <time>2026-07-07T10:57:34Z</time>
      </trkpt>
      <trkpt lat="55.20212396979332" lon="-6.24826499260962">
        <ele>16.960000000000001</ele>
        <time>2026-07-07T10:57:43Z</time>
      </trkpt>
      <trkpt lat="55.202135033905506" lon="-6.248233979567885">
        <ele>16.960000000000001</ele>
        <time>2026-07-07T10:57:44Z</time>
      </trkpt>
      <trkpt lat="55.20214500837028" lon="-6.248203972354531">
        <ele>16.960000000000001</ele>
        <time>2026-07-07T10:57:45Z</time>
      </trkpt>
      <trkpt lat="55.202400991693139" lon="-6.247381959110498">
        <ele>16.960000000000001</ele>
        <time>2026-07-07T10:57:56Z</time>
      </trkpt>
      <trkpt lat="55.202463017776608" lon="-6.247194036841393">
        <ele>17.440000000000001</ele>
        <time>2026-07-07T10:58:04Z</time>
      </trkpt>
      <trkpt lat="55.202480033040047" lon="-6.247143996879458">
        <ele>17.920000000000002</ele>
        <time>2026-07-07T10:58:05Z</time>
      </trkpt>
      <trkpt lat="55.20251096226275" lon="-6.247070990502834">
        <ele>17.920000000000002</ele>
        <time>2026-07-07T10:58:06Z</time>
      </trkpt>
      <trkpt lat="55.20285596139729" lon="-6.246045967563987">
        <ele>18.879999999999999</ele>
        <time>2026-07-07T10:58:14Z</time>
      </trkpt>
      <trkpt lat="55.203381003811955" lon="-6.244419040158391">
        <ele>15.52</ele>
        <time>2026-07-07T10:58:25Z</time>
      </trkpt>
      <trkpt lat="55.203990032896399" lon="-6.242573009803891">
        <ele>12.15</ele>
        <time>2026-07-07T10:58:36Z</time>
      </trkpt>
      <trkpt lat="55.204437961801887" lon="-6.241189995780587">
        <ele>11.19</ele>
        <time>2026-07-07T10:58:44Z</time>
      </trkpt>
      <trkpt lat="55.204819003120065" lon="-6.240039998665452">
        <ele>9.75</ele>
        <time>2026-07-07T10:58:52Z</time>
      </trkpt>
      <trkpt lat="55.204819003120065" lon="-6.239947965368629">
        <ele>9.75</ele>
        <time>2026-07-07T10:58:53Z</time>
      </trkpt>
      <trkpt lat="55.204770974814892" lon="-6.23986498452723">
        <ele>8.789999999999999</ele>
        <time>2026-07-07T10:58:54Z</time>
      </trkpt>
      <trkpt lat="55.204754965379834" lon="-6.239847969263792">
        <ele>8.789999999999999</ele>
        <time>2026-07-07T10:58:55Z</time>
      </trkpt>
      <trkpt lat="55.204634014517069" lon="-6.239881999790669">
        <ele>8.310000000000001</ele>
        <time>2026-07-07T10:58:56Z</time>
      </trkpt>
      <trkpt lat="55.204580035060644" lon="-6.239812010899186">
        <ele>7.83</ele>
        <time>2026-07-07T10:58:57Z</time>
      </trkpt>
      <trkpt lat="55.204519014805555" lon="-6.239731963723898">
        <ele>7.83</ele>
        <time>2026-07-07T10:58:58Z</time>
      </trkpt>
      <trkpt lat="55.204138979315758" lon="-6.239238018169999">
        <ele>9.27</ele>
        <time>2026-07-07T10:59:04Z</time>
      </trkpt>
      <trkpt lat="55.204072007909417" lon="-6.239150008186698">
        <ele>9.27</ele>
        <time>2026-07-07T10:59:05Z</time>
      </trkpt>
      <trkpt lat="55.203264998272061" lon="-6.238018032163382">
        <ele>11.67</ele>
        <time>2026-07-07T10:59:16Z</time>
      </trkpt>
      <trkpt lat="55.203038016334176" lon="-6.237689964473248">
        <ele>12.630000000000001</ele>
        <time>2026-07-07T10:59:19Z</time>
      </trkpt>
      <trkpt lat="55.202463017776608" lon="-6.236107964068651">
        <ele>13.6</ele>
        <time>2026-07-07T10:59:28Z</time>
      </trkpt>
      <trkpt lat="55.201710993424058" lon="-6.235111020505428">
        <ele>12.630000000000001</ele>
        <time>2026-07-07T10:59:35Z</time>
      </trkpt>
      <trkpt lat="55.201596999540925" lon="-6.234980011358857">
        <ele>13.119999999999999</ele>
        <time>2026-07-07T10:59:36Z</time>
      </trkpt>
      <trkpt lat="55.200655041262507" lon="-6.234253970906138">
        <ele>16.960000000000001</ele>
        <time>2026-07-07T10:59:45Z</time>
      </trkpt>
      <trkpt lat="55.199681986123323" lon="-6.233562966808677">
        <ele>17.440000000000001</ele>
        <time>2026-07-07T10:59:55Z</time>
      </trkpt>
      <trkpt lat="55.199348973110318" lon="-6.233262978494167">
        <ele>16.960000000000001</ele>
        <time>2026-07-07T10:59:58Z</time>
      </trkpt>
      <trkpt lat="55.199283007532358" lon="-6.233196007087827">
        <ele>16.48</ele>
        <time>2026-07-07T10:59:59Z</time>
      </trkpt>
      <trkpt lat="55.199210001155734" lon="-6.232976987957954">
        <ele>16</ele>
        <time>2026-07-07T11:00:00Z</time>
      </trkpt>
      <trkpt lat="55.199170019477606" lon="-6.232822006568313">
        <ele>16</ele>
        <time>2026-07-07T11:00:01Z</time>
      </trkpt>
      <trkpt lat="55.199149986729026" lon="-6.232642969116569">
        <ele>15.52</ele>
        <time>2026-07-07T11:00:02Z</time>
      </trkpt>
      <trkpt lat="55.199129031971097" lon="-6.232454041019082">
        <ele>15.52</ele>
        <time>2026-07-07T11:00:03Z</time>
      </trkpt>
      <trkpt lat="55.199100030586123" lon="-6.232254970818758">
        <ele>16</ele>
        <time>2026-07-07T11:00:04Z</time>
      </trkpt>
      <trkpt lat="55.199049990624189" lon="-6.232077023014426">
        <ele>16</ele>
        <time>2026-07-07T11:00:05Z</time>
      </trkpt>
      <trkpt lat="55.199001040309668" lon="-6.231901003047824">
        <ele>16.48</ele>
        <time>2026-07-07T11:00:06Z</time>
      </trkpt>
      <trkpt lat="55.198960974812508" lon="-6.231759013608098">
        <ele>16.48</ele>
        <time>2026-07-07T11:00:07Z</time>
      </trkpt>
      <trkpt lat="55.198859972879291" lon="-6.231608977541328">
        <ele>16.960000000000001</ele>
        <time>2026-07-07T11:00:08Z</time>
      </trkpt>
      <trkpt lat="55.19877296872437" lon="-6.231479980051518">
        <ele>17.440000000000001</ele>
        <time>2026-07-07T11:00:09Z</time>
      </trkpt>
      <trkpt lat="55.19868403673172" lon="-6.231346959248185">
        <ele>17.920000000000002</ele>
        <time>2026-07-07T11:00:10Z</time>
      </trkpt>
      <trkpt lat="55.198593009263277" lon="-6.231212010607123">
        <ele>18.399999999999999</ele>
        <time>2026-07-07T11:00:11Z</time>
      </trkpt>
      <trkpt lat="55.198117000982165" lon="-6.230317996814847">
        <ele>21.289999999999999</ele>
        <time>2026-07-07T11:00:17Z</time>
      </trkpt>
      <trkpt lat="55.198051035404205" lon="-6.230150023475289">
        <ele>21.77</ele>
        <time>2026-07-07T11:00:18Z</time>
      </trkpt>
      <trkpt lat="55.197647027671337" lon="-6.228721998631954">
        <ele>23.690000000000001</ele>
        <time>2026-07-07T11:00:25Z</time>
      </trkpt>
      <trkpt lat="55.197566980496049" lon="-6.228502979502082">
        <ele>23.690000000000001</ele>
        <time>2026-07-07T11:00:26Z</time>
      </trkpt>
      <trkpt lat="55.197476958855987" lon="-6.22828396037221">
        <ele>24.170000000000002</ele>
        <time>2026-07-07T11:00:27Z</time>
      </trkpt>
      <trkpt lat="55.197362964972854" lon="-6.228086985647678">
        <ele>25.129999999999999</ele>
        <time>2026-07-07T11:00:28Z</time>
      </trkpt>
      <trkpt lat="55.19724695943296" lon="-6.227887999266386">
        <ele>25.609999999999999</ele>
        <time>2026-07-07T11:00:29Z</time>
      </trkpt>
      <trkpt lat="55.196197964251041" lon="-6.226610010489821">
        <ele>27.050000000000001</ele>
        <time>2026-07-07T11:00:37Z</time>
      </trkpt>
      <trkpt lat="55.195759003981948" lon="-6.226201979443431">
        <ele>28.02</ele>
        <time>2026-07-07T11:00:40Z</time>
      </trkpt>
      <trkpt lat="55.193781964480877" lon="-6.224224017933011">
        <ele>39.07</ele>
        <time>2026-07-07T11:00:54Z</time>
      </trkpt>
      <trkpt lat="55.191928977146745" lon="-6.222319984808564">
        <ele>39.549999999999997</ele>
        <time>2026-07-07T11:01:07Z</time>
      </trkpt>
      <trkpt lat="55.190100967884064" lon="-6.220443025231361">
        <ele>29.940000000000001</ele>
        <time>2026-07-07T11:01:20Z</time>
      </trkpt>
      <trkpt lat="55.188617035746574" lon="-6.219270983710885">
        <ele>25.129999999999999</ele>
        <time>2026-07-07T11:01:30Z</time>
      </trkpt>
      <trkpt lat="55.187318008393049" lon="-6.218481995165348">
        <ele>23.690000000000001</ele>
        <time>2026-07-07T11:01:39Z</time>
      </trkpt>
      <trkpt lat="55.186355011537671" lon="-6.217501983046532">
        <ele>20.32</ele>
        <time>2026-07-07T11:01:46Z</time>
      </trkpt>
      <trkpt lat="55.184776028618217" lon="-6.215594010427594">
        <ele>24.649999999999999</ele>
        <time>2026-07-07T11:01:58Z</time>
      </trkpt>
      <trkpt lat="55.182826984673738" lon="-6.213440028950572">
        <ele>24.649999999999999</ele>
        <time>2026-07-07T11:02:11Z</time>
      </trkpt>
      <trkpt lat="55.182085018604994" lon="-6.212827982380986">
        <ele>25.609999999999999</ele>
        <time>2026-07-07T11:02:16Z</time>
      </trkpt>
      <trkpt lat="55.181105006486177" lon="-6.21240503154695">
        <ele>27.050000000000001</ele>
        <time>2026-07-07T11:02:23Z</time>
      </trkpt>
      <trkpt lat="55.180989000946283" lon="-6.212357003241777">
        <ele>27.530000000000001</ele>
        <time>2026-07-07T11:02:24Z</time>
      </trkpt>
      <trkpt lat="55.180605025961995" lon="-6.212199004366994">
        <ele>28.98</ele>
        <time>2026-07-07T11:02:29Z</time>
      </trkpt>
      <trkpt lat="55.180526990443468" lon="-6.21212599799037">
        <ele>29.460000000000001</ele>
        <time>2026-07-07T11:02:30Z</time>
      </trkpt>
      <trkpt lat="55.180523972958326" lon="-6.212064977735281">
        <ele>29.460000000000001</ele>
        <time>2026-07-07T11:02:31Z</time>
      </trkpt>
      <trkpt lat="55.180520033463836" lon="-6.211987026035786">
        <ele>29.460000000000001</ele>
        <time>2026-07-07T11:02:32Z</time>
      </trkpt>
      <trkpt lat="55.180515004321933" lon="-6.21188904158771">
        <ele>29.940000000000001</ele>
        <time>2026-07-07T11:02:33Z</time>
      </trkpt>
      <trkpt lat="55.180508969351649" lon="-6.211773036047816">
        <ele>30.420000000000002</ele>
        <time>2026-07-07T11:02:34Z</time>
      </trkpt>
      <trkpt lat="55.180472005158663" lon="-6.211024029180408">
        <ele>34.740000000000002</ele>
        <time>2026-07-07T11:02:39Z</time>
      </trkpt>
      <trkpt lat="55.180426994338632" lon="-6.209089988842607">
        <ele>51.090000000000003</ele>
        <time>2026-07-07T11:02:51Z</time>
      </trkpt>
      <trkpt lat="55.180463036522269" lon="-6.208339976146817">
        <ele>54.450000000000003</ele>
        <time>2026-07-07T11:02:55Z</time>
      </trkpt>
      <trkpt lat="55.180429005995393" lon="-6.207056036219001">
        <ele>63.579999999999998</ele>
        <time>2026-07-07T11:03:03Z</time>
      </trkpt>
      <trkpt lat="55.180393969640136" lon="-6.206652028486133">
        <ele>66.950000000000003</ele>
        <time>2026-07-07T11:03:06Z</time>
      </trkpt>
      <trkpt lat="55.180363040417433" lon="-6.206505009904504">
        <ele>68.390000000000001</ele>
        <time>2026-07-07T11:03:07Z</time>
      </trkpt>
      <trkpt lat="55.180318029597402" lon="-6.206350028514862">
        <ele>70.310000000000002</ele>
        <time>2026-07-07T11:03:08Z</time>
      </trkpt>
      <trkpt lat="55.180249968543649" lon="-6.206253971904516">
        <ele>71.760000000000005</ele>
        <time>2026-07-07T11:03:09Z</time>
      </trkpt>
      <trkpt lat="55.180189032107592" lon="-6.206166967749596">
        <ele>73.680000000000007</ele>
        <time>2026-07-07T11:03:10Z</time>
      </trkpt>
      <trkpt lat="55.180136980488896" lon="-6.206093961372972">
        <ele>75.599999999999994</ele>
        <time>2026-07-07T11:03:11Z</time>
      </trkpt>
      <trkpt lat="55.180092975497246" lon="-6.206031013280153">
        <ele>77.519999999999996</ele>
        <time>2026-07-07T11:03:12Z</time>
      </trkpt>
      <trkpt lat="55.180071014910936" lon="-6.205950966104865">
        <ele>79.450000000000003</ele>
        <time>2026-07-07T11:03:13Z</time>
      </trkpt>
      <trkpt lat="55.18005802296102" lon="-6.205848958343267">
        <ele>80.890000000000001</ele>
        <time>2026-07-07T11:03:14Z</time>
      </trkpt>
      <trkpt lat="55.180075960233808" lon="-6.205731024965644">
        <ele>82.329999999999998</ele>
        <time>2026-07-07T11:03:15Z</time>
      </trkpt>
      <trkpt lat="55.180099010467529" lon="-6.205607978627086">
        <ele>83.769999999999996</ele>
        <time>2026-07-07T11:03:16Z</time>
      </trkpt>
      <trkpt lat="55.180121976882219" lon="-6.205479986965656">
        <ele>85.209999999999994</ele>
        <time>2026-07-07T11:03:17Z</time>
      </trkpt>
      <trkpt lat="55.18031601794064" lon="-6.204424034804106">
        <ele>92.900000000000006</ele>
        <time>2026-07-07T11:03:26Z</time>
      </trkpt>
      <trkpt lat="55.18033898435533" lon="-6.204297970980406">
        <ele>93.870000000000005</ele>
        <time>2026-07-07T11:03:27Z</time>
      </trkpt>
      <trkpt lat="55.180606031790376" lon="-6.20284304022789">
        <ele>100.59999999999999</ele>
        <time>2026-07-07T11:03:37Z</time>
      </trkpt>
      <trkpt lat="55.180697981268167" lon="-6.202340964227915">
        <ele>102.04000000000001</ele>
        <time>2026-07-07T11:03:40Z</time>
      </trkpt>
      <trkpt lat="55.180730000138283" lon="-6.202166033908725">
        <ele>102.52</ele>
        <time>2026-07-07T11:03:41Z</time>
      </trkpt>
      <trkpt lat="55.1811090297997" lon="-6.200104001909494">
        <ele>104.44</ele>
        <time>2026-07-07T11:03:53Z</time>
      </trkpt>
      <trkpt lat="55.181134007871151" lon="-6.199967041611671">
        <ele>104.44</ele>
        <time>2026-07-07T11:03:54Z</time>
      </trkpt>
      <trkpt lat="55.181178012862802" lon="-6.199846006929874">
        <ele>103.95999999999999</ele>
        <time>2026-07-07T11:03:55Z</time>
      </trkpt>
      <trkpt lat="55.181241966784" lon="-6.199781969189644">
        <ele>103.95999999999999</ele>
        <time>2026-07-07T11:03:56Z</time>
      </trkpt>
      <trkpt lat="55.181309022009373" lon="-6.199713991954923">
        <ele>103.48</ele>
        <time>2026-07-07T11:03:57Z</time>
      </trkpt>
      <trkpt lat="55.181388985365629" lon="-6.199655989184976">
        <ele>103</ele>
        <time>2026-07-07T11:03:58Z</time>
      </trkpt>
      <trkpt lat="55.181483030319214" lon="-6.199607038870454">
        <ele>103</ele>
        <time>2026-07-07T11:03:59Z</time>
      </trkpt>
      <trkpt lat="55.18158596009016" lon="-6.199551969766617">
        <ele>102.52</ele>
        <time>2026-07-07T11:04:00Z</time>
      </trkpt>
      <trkpt lat="55.18209801055491" lon="-6.199282994493842">
        <ele>99.150000000000006</ele>
        <time>2026-07-07T11:04:05Z</time>
      </trkpt>
      <trkpt lat="55.182191971689463" lon="-6.19925600476563">
        <ele>98.189999999999998</ele>
        <time>2026-07-07T11:04:06Z</time>
      </trkpt>
      <trkpt lat="55.182374026626348" lon="-6.199286011978984">
        <ele>96.269999999999996</ele>
        <time>2026-07-07T11:04:08Z</time>
      </trkpt>
      <trkpt lat="55.183368036523461" lon="-6.199443005025387">
        <ele>95.790000000000006</ele>
        <time>2026-07-07T11:04:18Z</time>
      </trkpt>
      <trkpt lat="55.184317035600543" lon="-6.19925600476563">
        <ele>95.790000000000006</ele>
        <time>2026-07-07T11:04:27Z</time>
      </trkpt>
      <trkpt lat="55.185796022415161" lon="-6.19856801815331">
        <ele>92.420000000000002</ele>
        <time>2026-07-07T11:04:40Z</time>
      </trkpt>
      <trkpt lat="55.185871962457895" lon="-6.198542034253478">
        <ele>91.939999999999998</ele>
        <time>2026-07-07T11:04:41Z</time>
      </trkpt>
      <trkpt lat="55.185978999361396" lon="-6.19856902398169">
        <ele>91.459999999999994</ele>
        <time>2026-07-07T11:04:42Z</time>
      </trkpt>
      <trkpt lat="55.186354005709291" lon="-6.198614034801722">
        <ele>91.459999999999994</ele>
        <time>2026-07-07T11:04:47Z</time>
      </trkpt>
      <trkpt lat="55.186397004872561" lon="-6.198585033416748">
        <ele>91.459999999999994</ele>
        <time>2026-07-07T11:04:48Z</time>
      </trkpt>
      <trkpt lat="55.186477974057198" lon="-6.198530970141292">
        <ele>91.939999999999998</ele>
        <time>2026-07-07T11:04:56Z</time>
      </trkpt>
      <trkpt lat="55.186493983492255" lon="-6.198520995676518">
        <ele>91.939999999999998</ele>
        <time>2026-07-07T11:04:57Z</time>
      </trkpt>
      <trkpt lat="55.186493983492255" lon="-6.198520995676518">
        <ele>91.939999999999998</ele>
        <time>2026-07-07T11:04:58Z</time>
      </trkpt>
      <trkpt lat="55.186491971835494" lon="-6.198474979028106">
        <ele>92.420000000000002</ele>
        <time>2026-07-07T11:04:59Z</time>
      </trkpt>
      <trkpt lat="55.186484009027481" lon="-6.198261994868517">
        <ele>92.900000000000006</ele>
        <time>2026-07-07T11:05:01Z</time>
      </trkpt>
      <trkpt lat="55.186479985713959" lon="-6.198140038177371">
        <ele>93.390000000000001</ele>
        <time>2026-07-07T11:05:02Z</time>
      </trkpt>
      <trkpt lat="55.186421982944012" lon="-6.196587039157748">
        <ele>102.04000000000001</ele>
        <time>2026-07-07T11:05:11Z</time>
      </trkpt>
      <trkpt lat="55.186333972960711" lon="-6.194194005802274">
        <ele>110.69</ele>
        <time>2026-07-07T11:05:21Z</time>
      </trkpt>
      <trkpt lat="55.186331961303949" lon="-6.193826962262392">
        <ele>111.65000000000001</ele>
        <time>2026-07-07T11:05:23Z</time>
      </trkpt>
      <trkpt lat="55.186359034851193" lon="-6.193655971437693">
        <ele>112.13</ele>
        <time>2026-07-07T11:05:24Z</time>
      </trkpt>
      <trkpt lat="55.186388958245516" lon="-6.193470982834697">
        <ele>112.13</ele>
        <time>2026-07-07T11:05:25Z</time>
      </trkpt>
      <trkpt lat="55.186802018433809" lon="-6.191842965781689">
        <ele>110.69</ele>
        <time>2026-07-07T11:05:33Z</time>
      </trkpt>
      <trkpt lat="55.1870649587363" lon="-6.189354965463281">
        <ele>111.17</ele>
        <time>2026-07-07T11:05:44Z</time>
      </trkpt>
      <trkpt lat="55.187110975384712" lon="-6.189195960760117">
        <ele>111.17</ele>
        <time>2026-07-07T11:05:45Z</time>
      </trkpt>
      <trkpt lat="55.187182975932956" lon="-6.189053971320391">
        <ele>111.17</ele>
        <time>2026-07-07T11:05:46Z</time>
      </trkpt>
      <trkpt lat="55.187262017279863" lon="-6.188907036557794">
        <ele>110.69</ele>
        <time>2026-07-07T11:05:47Z</time>
      </trkpt>
      <trkpt lat="55.1873620133847" lon="-6.188775021582842">
        <ele>110.20999999999999</ele>
        <time>2026-07-07T11:05:48Z</time>
      </trkpt>
      <trkpt lat="55.188426012173295" lon="-6.187344985082746">
        <ele>97.230000000000004</ele>
        <time>2026-07-07T11:05:58Z</time>
      </trkpt>
      <trkpt lat="55.189710035920143" lon="-6.185501972213388">
        <ele>84.25</ele>
        <time>2026-07-07T11:06:09Z</time>
      </trkpt>
      <trkpt lat="55.190604971721768" lon="-6.183841014280915">
        <ele>80.409999999999997</ele>
        <time>2026-07-07T11:06:18Z</time>
      </trkpt>
      <trkpt lat="55.190674960613251" lon="-6.183658037334681">
        <ele>80.409999999999997</ele>
        <time>2026-07-07T11:06:19Z</time>
      </trkpt>
      <trkpt lat="55.190712008625269" lon="-6.183459972962737">
        <ele>79.930000000000007</ele>
        <time>2026-07-07T11:06:20Z</time>
      </trkpt>
      <trkpt lat="55.190748972818255" lon="-6.183253023773432">
        <ele>79.930000000000007</ele>
        <time>2026-07-07T11:06:21Z</time>
      </trkpt>
      <trkpt lat="55.190787026658654" lon="-6.183030987158418">
        <ele>79.930000000000007</ele>
        <time>2026-07-07T11:06:22Z</time>
      </trkpt>
      <trkpt lat="55.190807981416583" lon="-6.182792019098997">
        <ele>79.450000000000003</ele>
        <time>2026-07-07T11:06:23Z</time>
      </trkpt>
      <trkpt lat="55.190901020541787" lon="-6.180571988224983">
        <ele>76.079999999999998</ele>
        <time>2026-07-07T11:06:32Z</time>
      </trkpt>
      <trkpt lat="55.190893979743123" lon="-6.17994200438261">
        <ele>75.120000000000005</ele>
        <time>2026-07-07T11:06:35Z</time>
      </trkpt>
      <trkpt lat="55.19090797752142" lon="-6.179776964709163">
        <ele>75.120000000000005</ele>
        <time>2026-07-07T11:06:36Z</time>
      </trkpt>
      <trkpt lat="55.190962040796876" lon="-6.179632963612676">
        <ele>75.120000000000005</ele>
        <time>2026-07-07T11:06:37Z</time>
      </trkpt>
      <trkpt lat="55.191033035516739" lon="-6.179527016356587">
        <ele>74.640000000000001</ele>
        <time>2026-07-07T11:06:38Z</time>
      </trkpt>
      <trkpt lat="55.19110101275146" lon="-6.179427020251751">
        <ele>74.640000000000001</ele>
        <time>2026-07-07T11:06:39Z</time>
      </trkpt>
      <trkpt lat="55.191164966672659" lon="-6.179332975298166">
        <ele>74.640000000000001</ele>
        <time>2026-07-07T11:06:40Z</time>
      </trkpt>
      <trkpt lat="55.191292958334088" lon="-6.179143963381648">
        <ele>74.640000000000001</ele>
        <time>2026-07-07T11:06:42Z</time>
      </trkpt>
      <trkpt lat="55.191364958882332" lon="-6.179037010297179">
        <ele>74.640000000000001</ele>
        <time>2026-07-07T11:06:43Z</time>
      </trkpt>
      <trkpt lat="55.191421033814549" lon="-6.178904995322228">
        <ele>74.640000000000001</ele>
        <time>2026-07-07T11:06:44Z</time>
      </trkpt>
      <trkpt lat="55.191772989928722" lon="-6.17807200178504">
        <ele>71.760000000000005</ele>
        <time>2026-07-07T11:06:50Z</time>
      </trkpt>
      <trkpt lat="55.191839039325714" lon="-6.178054986521602">
        <ele>70.790000000000006</ele>
        <time>2026-07-07T11:06:51Z</time>
      </trkpt>
      <trkpt lat="55.191907016560435" lon="-6.178037971258164">
        <ele>69.829999999999998</ele>
        <time>2026-07-07T11:06:52Z</time>
      </trkpt>
      <trkpt lat="55.191971976310015" lon="-6.178038977086544">
        <ele>69.349999999999994</ele>
        <time>2026-07-07T11:06:53Z</time>
      </trkpt>
      <trkpt lat="55.192045988515019" lon="-6.178067978471518">
        <ele>68.390000000000001</ele>
        <time>2026-07-07T11:06:54Z</time>
      </trkpt>
      <trkpt lat="55.192129975184798" lon="-6.178101003170013">
        <ele>67.909999999999997</ele>
        <time>2026-07-07T11:06:55Z</time>
      </trkpt>
      <trkpt lat="55.192216979339719" lon="-6.17813503369689">
        <ele>67.430000000000007</ele>
        <time>2026-07-07T11:06:56Z</time>
      </trkpt>
      <trkpt lat="55.192593997344375" lon="-6.178245004266501">
        <ele>66.950000000000003</ele>
        <time>2026-07-07T11:07:00Z</time>
      </trkpt>
      <trkpt lat="55.192698016762733" lon="-6.178270988166332">
        <ele>66.950000000000003</ele>
        <time>2026-07-07T11:07:01Z</time>
      </trkpt>
      <trkpt lat="55.192802036181092" lon="-6.178296972066164">
        <ele>66.950000000000003</ele>
        <time>2026-07-07T11:07:02Z</time>
      </trkpt>
      <trkpt lat="55.192931033670902" lon="-6.178328990936279">
        <ele>66.950000000000003</ele>
        <time>2026-07-07T11:07:03Z</time>
      </trkpt>
      <trkpt lat="55.193012002855539" lon="-6.17828699760139">
        <ele>66.950000000000003</ele>
        <time>2026-07-07T11:07:04Z</time>
      </trkpt>
      <trkpt lat="55.193119961768389" lon="-6.178228994831443">
        <ele>67.430000000000007</ele>
        <time>2026-07-07T11:07:05Z</time>
      </trkpt>
      <trkpt lat="55.193346021696925" lon="-6.178109971806407">
        <ele>69.349999999999994</ele>
        <time>2026-07-07T11:07:07Z</time>
      </trkpt>
      <trkpt lat="55.194129981100559" lon="-6.177434977144003">
        <ele>77.519999999999996</ele>
        <time>2026-07-07T11:07:15Z</time>
      </trkpt>
      <trkpt lat="55.194207010790706" lon="-6.177324000746012">
        <ele>77.519999999999996</ele>
        <time>2026-07-07T11:07:16Z</time>
      </trkpt>
      <trkpt lat="55.194273982197046" lon="-6.177195003256202">
        <ele>77.519999999999996</ele>
        <time>2026-07-07T11:07:17Z</time>
      </trkpt>
      <trkpt lat="55.194384958595037" lon="-6.176977995783091">
        <ele>77.519999999999996</ele>
        <time>2026-07-07T11:07:19Z</time>
      </trkpt>
      <trkpt lat="55.194427035748959" lon="-6.176898032426834">
        <ele>77.519999999999996</ele>
        <time>2026-07-07T11:07:20Z</time>
      </trkpt>
      <trkpt lat="55.194471962749958" lon="-6.176811028271914">
        <ele>76.560000000000002</ele>
        <time>2026-07-07T11:07:26Z</time>
      </trkpt>
      <trkpt lat="55.19449601881206" lon="-6.176762999966741">
        <ele>76.560000000000002</ele>
        <time>2026-07-07T11:07:30Z</time>
      </trkpt>
      <trkpt lat="55.194509010761976" lon="-6.176738021895289">
        <ele>76.079999999999998</ele>
        <time>2026-07-07T11:07:31Z</time>
      </trkpt>
      <trkpt lat="55.194589979946613" lon="-6.176768029108644">
        <ele>75.599999999999994</ele>
        <time>2026-07-07T11:07:32Z</time>
      </trkpt>
      <trkpt lat="55.194643959403038" lon="-6.17686802521348">
        <ele>75.120000000000005</ele>
        <time>2026-07-07T11:07:33Z</time>
      </trkpt>
      <trkpt lat="55.194709002971649" lon="-6.176988976076245">
        <ele>74.640000000000001</ele>
        <time>2026-07-07T11:07:34Z</time>
      </trkpt>
      <trkpt lat="55.195279978215694" lon="-6.178342988714576">
        <ele>70.310000000000002</ele>
        <time>2026-07-07T11:07:41Z</time>
      </trkpt>
      <trkpt lat="55.196423018351197" lon="-6.181084038689733">
        <ele>57.82</ele>
        <time>2026-07-07T11:07:52Z</time>
      </trkpt>
      <trkpt lat="55.197291970252991" lon="-6.183054037392139">
        <ele>54.450000000000003</ele>
        <time>2026-07-07T11:08:00Z</time>
      </trkpt>
      <trkpt lat="55.198066039010882" lon="-6.185265015810728">
        <ele>57.82</ele>
        <time>2026-07-07T11:08:09Z</time>
      </trkpt>
      <trkpt lat="55.198205010965466" lon="-6.18561202660203">
        <ele>59.259999999999998</ele>
        <time>2026-07-07T11:08:11Z</time>
      </trkpt>
      <trkpt lat="55.198280028998852" lon="-6.185734989121556">
        <ele>59.259999999999998</ele>
        <time>2026-07-07T11:08:12Z</time>
      </trkpt>
      <trkpt lat="55.198353035375476" lon="-6.185848983004689">
        <ele>59.740000000000002</ele>
        <time>2026-07-07T11:08:13Z</time>
      </trkpt>
      <trkpt lat="55.198445990681648" lon="-6.185902962461114">
        <ele>59.740000000000002</ele>
        <time>2026-07-07T11:08:14Z</time>
      </trkpt>
      <trkpt lat="55.198538023978472" lon="-6.185946967452765">
        <ele>60.219999999999999</ele>
        <time>2026-07-07T11:08:15Z</time>
      </trkpt>
      <trkpt lat="55.198636008426547" lon="-6.185954008251429">
        <ele>60.219999999999999</ele>
        <time>2026-07-07T11:08:16Z</time>
      </trkpt>
      <trkpt lat="55.198730975389481" lon="-6.185960965231061">
        <ele>60.219999999999999</ele>
        <time>2026-07-07T11:08:17Z</time>
      </trkpt>
      <trkpt lat="55.198824014514685" lon="-6.185967000201345">
        <ele>60.219999999999999</ele>
        <time>2026-07-07T11:08:18Z</time>
      </trkpt>
      <trkpt lat="55.198915963992476" lon="-6.185974041000009">
        <ele>60.219999999999999</ele>
        <time>2026-07-07T11:08:19Z</time>
      </trkpt>
      <trkpt lat="55.199006991460919" lon="-6.18597999215126">
        <ele>60.219999999999999</ele>
        <time>2026-07-07T11:08:20Z</time>
      </trkpt>
      <trkpt lat="55.199097013100982" lon="-6.185987032949925">
        <ele>59.740000000000002</ele>
        <time>2026-07-07T11:08:21Z</time>
      </trkpt>
      <trkpt lat="55.199258029460907" lon="-6.186097003519535">
        <ele>59.740000000000002</ele>
        <time>2026-07-07T11:08:23Z</time>
      </trkpt>
      <trkpt lat="55.199331035837531" lon="-6.186160035431385">
        <ele>59.259999999999998</ele>
        <time>2026-07-07T11:08:24Z</time>
      </trkpt>
      <trkpt lat="55.199393983930349" lon="-6.186213009059429">
        <ele>59.259999999999998</ele>
        <time>2026-07-07T11:08:25Z</time>
      </trkpt>
      <trkpt lat="55.199509989470243" lon="-6.186247039586306">
        <ele>58.780000000000001</ele>
        <time>2026-07-07T11:08:28Z</time>
      </trkpt>
      <trkpt lat="55.199541002511978" lon="-6.186247039586306">
        <ele>58.780000000000001</ele>
        <time>2026-07-07T11:08:29Z</time>
      </trkpt>
      <trkpt lat="55.199604034423828" lon="-6.186241004616022">
        <ele>58.299999999999997</ele>
        <time>2026-07-07T11:08:30Z</time>
      </trkpt>
      <trkpt lat="55.199601016938686" lon="-6.186170009896159">
        <ele>58.299999999999997</ele>
        <time>2026-07-07T11:08:31Z</time>
      </trkpt>
      <trkpt lat="55.199597999453545" lon="-6.186102032661438">
        <ele>58.299999999999997</ele>
        <time>2026-07-07T11:08:32Z</time>
      </trkpt>
      <trkpt lat="55.199580984190106" lon="-6.185716968029738">
        <ele>58.299999999999997</ele>
        <time>2026-07-07T11:08:36Z</time>
      </trkpt>
      <trkpt lat="55.199506971985102" lon="-6.183828022330999">
        <ele>61.659999999999997</ele>
        <time>2026-07-07T11:08:47Z</time>
      </trkpt>
      <trkpt lat="55.19950102083385" lon="-6.183399958536029">
        <ele>63.579999999999998</ele>
        <time>2026-07-07T11:08:49Z</time>
      </trkpt>
      <trkpt lat="55.19952398724854" lon="-6.183171970769763">
        <ele>64.549999999999997</ele>
        <time>2026-07-07T11:08:50Z</time>
      </trkpt>
      <trkpt lat="55.199552988633513" lon="-6.182933002710342">
        <ele>65.510000000000005</ele>
        <time>2026-07-07T11:08:51Z</time>
      </trkpt>
      <trkpt lat="55.199697995558381" lon="-6.181945027783513">
        <ele>68.390000000000001</ele>
        <time>2026-07-07T11:08:55Z</time>
      </trkpt>
      <trkpt lat="55.199709981679916" lon="-6.181686026975513">
        <ele>69.349999999999994</ele>
        <time>2026-07-07T11:08:56Z</time>
      </trkpt>
      <trkpt lat="55.199768990278244" lon="-6.178693016991019">
        <ele>74.640000000000001</ele>
        <time>2026-07-07T11:09:06Z</time>
      </trkpt>
      <trkpt lat="55.19982498139143" lon="-6.174902971833944">
        <ele>80.409999999999997</ele>
        <time>2026-07-07T11:09:19Z</time>
      </trkpt>
      <trkpt lat="55.199840990826488" lon="-6.173822963610292">
        <ele>82.329999999999998</ele>
        <time>2026-07-07T11:09:24Z</time>
      </trkpt>
      <trkpt lat="55.199905028566718" lon="-6.173652978613973">
        <ele>82.329999999999998</ele>
        <time>2026-07-07T11:09:25Z</time>
      </trkpt>
      <trkpt lat="55.199945010244846" lon="-6.173544013872743">
        <ele>82.329999999999998</ele>
        <time>2026-07-07T11:09:26Z</time>
      </trkpt>
      <trkpt lat="55.200005024671555" lon="-6.173462038859725">
        <ele>82.329999999999998</ele>
        <time>2026-07-07T11:09:27Z</time>
      </trkpt>
      <trkpt lat="55.200076019391418" lon="-6.173425996676087">
        <ele>82.329999999999998</ele>
        <time>2026-07-07T11:09:28Z</time>
      </trkpt>
      <trkpt lat="55.200171992182732" lon="-6.173404036089778">
        <ele>82.810000000000002</ele>
        <time>2026-07-07T11:09:29Z</time>
      </trkpt>
      <trkpt lat="55.200271988287568" lon="-6.173436976969242">
        <ele>83.290000000000006</ele>
        <time>2026-07-07T11:09:30Z</time>
      </trkpt>
      <trkpt lat="55.200381958857179" lon="-6.17347402498126">
        <ele>83.769999999999996</ele>
        <time>2026-07-07T11:09:31Z</time>
      </trkpt>
      <trkpt lat="55.200624028220773" lon="-6.173479976132512">
        <ele>83.769999999999996</ele>
        <time>2026-07-07T11:09:33Z</time>
      </trkpt>
      <trkpt lat="55.200735004618764" lon="-6.173456003889442">
        <ele>84.25</ele>
        <time>2026-07-07T11:09:34Z</time>
      </trkpt>
      <trkpt lat="55.200842041522264" lon="-6.173422979190946">
        <ele>84.730000000000004</ele>
        <time>2026-07-07T11:09:35Z</time>
      </trkpt>
      <trkpt lat="55.20094295963645" lon="-6.173386014997959">
        <ele>85.209999999999994</ele>
        <time>2026-07-07T11:09:36Z</time>
      </trkpt>
      <trkpt lat="55.201031975448132" lon="-6.173296999186277">
        <ele>85.689999999999998</ele>
        <time>2026-07-07T11:09:37Z</time>
      </trkpt>
      <trkpt lat="55.201073968783021" lon="-6.173136988654733">
        <ele>86.180000000000007</ele>
        <time>2026-07-07T11:09:38Z</time>
      </trkpt>
      <trkpt lat="55.201110010966659" lon="-6.172962980344892">
        <ele>87.140000000000001</ele>
        <time>2026-07-07T11:09:39Z</time>
      </trkpt>
      <trkpt lat="55.201147980988026" lon="-6.172783020883799">
        <ele>87.620000000000005</ele>
        <time>2026-07-07T11:09:40Z</time>
      </trkpt>
      <trkpt lat="55.201187962666154" lon="-6.172590991482139">
        <ele>87.620000000000005</ele>
        <time>2026-07-07T11:09:41Z</time>
      </trkpt>
      <trkpt lat="55.201580990105867" lon="-6.170648988336325">
        <ele>88.099999999999994</ele>
        <time>2026-07-07T11:09:49Z</time>
      </trkpt>
      <trkpt lat="55.201589036732912" lon="-6.170384036377072">
        <ele>88.579999999999998</ele>
        <time>2026-07-07T11:09:50Z</time>
      </trkpt>
      <trkpt lat="55.201633963733912" lon="-6.168784014880657">
        <ele>90.980000000000004</ele>
        <time>2026-07-07T11:09:56Z</time>
      </trkpt>
      <trkpt lat="55.201600017026067" lon="-6.166828013956547">
        <ele>89.060000000000002</ele>
        <time>2026-07-07T11:10:04Z</time>
      </trkpt>
      <trkpt lat="55.201540002599359" lon="-6.166691975668073">
        <ele>89.060000000000002</ele>
        <time>2026-07-07T11:10:05Z</time>
      </trkpt>
      <trkpt lat="55.201514018699527" lon="-6.166634978726506">
        <ele>89.540000000000006</ele>
        <time>2026-07-07T11:10:06Z</time>
      </trkpt>
      <trkpt lat="55.201427014544606" lon="-6.166579993441701">
        <ele>90.019999999999996</ele>
        <time>2026-07-07T11:10:07Z</time>
      </trkpt>
      <trkpt lat="55.201347973197699" lon="-6.166530959308147">
        <ele>90.5</ele>
        <time>2026-07-07T11:10:08Z</time>
      </trkpt>
      <trkpt lat="55.201261974871159" lon="-6.166476979851723">
        <ele>91.459999999999994</ele>
        <time>2026-07-07T11:10:09Z</time>
      </trkpt>
      <trkpt lat="55.200356980785728" lon="-6.165755968540907">
        <ele>100.11</ele>
        <time>2026-07-07T11:10:18Z</time>
      </trkpt>
      <trkpt lat="55.199312008917332" lon="-6.165032023563981">
        <ele>104.44</ele>
        <time>2026-07-07T11:10:26Z</time>
      </trkpt>
      <trkpt lat="55.198475997895002" lon="-6.16453698836267">
        <ele>106.36</ele>
        <time>2026-07-07T11:10:33Z</time>
      </trkpt>
      <trkpt lat="55.198386982083321" lon="-6.16442802362144">
        <ele>106.84</ele>
        <time>2026-07-07T11:10:34Z</time>
      </trkpt>
      <trkpt lat="55.198291009292006" lon="-6.164302965626121">
        <ele>106.84</ele>
        <time>2026-07-07T11:10:35Z</time>
      </trkpt>
      <trkpt lat="55.197378974407911" lon="-6.162562966346741">
        <ele>108.29000000000001</ele>
        <time>2026-07-07T11:10:44Z</time>
      </trkpt>
      <trkpt lat="55.197065994143486" lon="-6.16195603273809">
        <ele>106.84</ele>
        <time>2026-07-07T11:10:47Z</time>
      </trkpt>
      <trkpt lat="55.19638798199594" lon="-6.160645019263029">
        <ele>108.29000000000001</ele>
        <time>2026-07-07T11:10:54Z</time>
      </trkpt>
      <trkpt lat="55.195662025362253" lon="-6.159399971365929">
        <ele>117.42</ele>
        <time>2026-07-07T11:11:02Z</time>
      </trkpt>
      <trkpt lat="55.195151986554265" lon="-6.158618023619056">
        <ele>125.11</ele>
        <time>2026-07-07T11:11:10Z</time>
      </trkpt>
      <trkpt lat="55.195118961855769" lon="-6.158567983657122">
        <ele>126.06999999999999</ele>
        <time>2026-07-07T11:11:11Z</time>
      </trkpt>
      <trkpt lat="55.195052996277809" lon="-6.158379977568984">
        <ele>127.03</ele>
        <time>2026-07-07T11:11:12Z</time>
      </trkpt>
      <trkpt lat="55.195080991834402" lon="-6.158296996727586">
        <ele>127.98999999999999</ele>
        <time>2026-07-07T11:11:13Z</time>
      </trkpt>
      <trkpt lat="55.19511803984642" lon="-6.158187026157975">
        <ele>128.94999999999999</ele>
        <time>2026-07-07T11:11:14Z</time>
      </trkpt>
      <trkpt lat="55.195161961019039" lon="-6.158056017011404">
        <ele>129.91999999999999</ele>
        <time>2026-07-07T11:11:15Z</time>
      </trkpt>
      <trkpt lat="55.19520596601069" lon="-6.157899023965001">
        <ele>130.88</ele>
        <time>2026-07-07T11:11:16Z</time>
      </trkpt>
      <trkpt lat="55.195668982341886" lon="-6.15600697696209">
        <ele>145.30000000000001</ele>
        <time>2026-07-07T11:11:25Z</time>
      </trkpt>
      <trkpt lat="55.196222020313144" lon="-6.153423003852367">
        <ele>154.91</ele>
        <time>2026-07-07T11:11:35Z</time>
      </trkpt>
      <trkpt lat="55.196613036096096" lon="-6.151385027915239">
        <ele>152.50999999999999</ele>
        <time>2026-07-07T11:11:43Z</time>
      </trkpt>
      <trkpt lat="55.196608006954193" lon="-6.151148993521929">
        <ele>152.50999999999999</ele>
        <time>2026-07-07T11:11:44Z</time>
      </trkpt>
      <trkpt lat="55.196591997519135" lon="-6.150928968563676">
        <ele>152.99000000000001</ele>
        <time>2026-07-07T11:11:45Z</time>
      </trkpt>
      <trkpt lat="55.196574982255697" lon="-6.150694023817778">
        <ele>152.99000000000001</ele>
        <time>2026-07-07T11:11:46Z</time>
      </trkpt>
      <trkpt lat="55.196556961163878" lon="-6.150447009131312">
        <ele>152.99000000000001</ele>
        <time>2026-07-07T11:11:47Z</time>
      </trkpt>
      <trkpt lat="55.19649401307106" lon="-6.148528978228569">
        <ele>154.91</ele>
        <time>2026-07-07T11:11:55Z</time>
      </trkpt>
      <trkpt lat="55.1964729744941" lon="-6.146351024508476">
        <ele>153.94999999999999</ele>
        <time>2026-07-07T11:12:04Z</time>
      </trkpt>
      <trkpt lat="55.196420000866055" lon="-6.145729003474116">
        <ele>150.58000000000001</ele>
        <time>2026-07-07T11:12:07Z</time>
      </trkpt>
      <trkpt lat="55.196413965895772" lon="-6.145548038184643">
        <ele>149.62</ele>
        <time>2026-07-07T11:12:08Z</time>
      </trkpt>
      <trkpt lat="55.196441961452365" lon="-6.145391967147589">
        <ele>148.66</ele>
        <time>2026-07-07T11:12:09Z</time>
      </trkpt>
      <trkpt lat="55.196471968665719" lon="-6.145226005464792">
        <ele>148.18000000000001</ele>
        <time>2026-07-07T11:12:10Z</time>
      </trkpt>
      <trkpt lat="55.196503987535834" lon="-6.145045040175319">
        <ele>147.69999999999999</ele>
        <time>2026-07-07T11:12:11Z</time>
      </trkpt>
      <trkpt lat="55.196539023891091" lon="-6.144850999116898">
        <ele>147.22</ele>
        <time>2026-07-07T11:12:12Z</time>
      </trkpt>
      <trkpt lat="55.196574982255697" lon="-6.144650001078844">
        <ele>147.22</ele>
        <time>2026-07-07T11:12:13Z</time>
      </trkpt>
      <trkpt lat="55.196612030267715" lon="-6.144443973898888">
        <ele>146.74000000000001</ele>
        <time>2026-07-07T11:12:14Z</time>
      </trkpt>
      <trkpt lat="55.196648994460702" lon="-6.144236018881202">
        <ele>146.74000000000001</ele>
        <time>2026-07-07T11:12:15Z</time>
      </trkpt>
      <trkpt lat="55.196686964482069" lon="-6.144027980044484">
        <ele>147.22</ele>
        <time>2026-07-07T11:12:16Z</time>
      </trkpt>
      <trkpt lat="55.197001034393907" lon="-6.142217991873622">
        <ele>153.47</ele>
        <time>2026-07-07T11:12:24Z</time>
      </trkpt>
      <trkpt lat="55.197193985804915" lon="-6.140828020870686">
        <ele>162.12</ele>
        <time>2026-07-07T11:12:31Z</time>
      </trkpt>
      <trkpt lat="55.197552982717752" lon="-6.13946596160531">
        <ele>169.33000000000001</ele>
        <time>2026-07-07T11:12:38Z</time>
      </trkpt>
      <trkpt lat="55.197964031249285" lon="-6.137986974790692">
        <ele>180.87</ele>
        <time>2026-07-07T11:12:46Z</time>
      </trkpt>
      <trkpt lat="55.198329985141754" lon="-6.136790961027145">
        <ele>186.15000000000001</ele>
        <time>2026-07-07T11:12:53Z</time>
      </trkpt>
      <trkpt lat="55.198379019275308" lon="-6.136631034314632">
        <ele>186.63</ele>
        <time>2026-07-07T11:12:54Z</time>
      </trkpt>
      <trkpt lat="55.198410032317042" lon="-6.136450991034508">
        <ele>187.11000000000001</ele>
        <time>2026-07-07T11:12:55Z</time>
      </trkpt>
      <trkpt lat="55.198424030095339" lon="-6.136258961632848">
        <ele>188.08000000000001</ele>
        <time>2026-07-07T11:12:56Z</time>
      </trkpt>
      <trkpt lat="55.198392011225224" lon="-6.136054024100304">
        <ele>188.56</ele>
        <time>2026-07-07T11:12:57Z</time>
      </trkpt>
      <trkpt lat="55.198359992355108" lon="-6.135860988870263">
        <ele>190</ele>
        <time>2026-07-07T11:12:58Z</time>
      </trkpt>
      <trkpt lat="55.198326967656612" lon="-6.135663008317351">
        <ele>190.96000000000001</ele>
        <time>2026-07-07T11:12:59Z</time>
      </trkpt>
      <trkpt lat="55.197931006550789" lon="-6.13381496630609">
        <ele>195.28</ele>
        <time>2026-07-07T11:13:07Z</time>
      </trkpt>
      <trkpt lat="55.197238996624947" lon="-6.130969980731607">
        <ele>206.81999999999999</ele>
        <time>2026-07-07T11:13:20Z</time>
      </trkpt>
      <trkpt lat="55.196686964482069" lon="-6.128845000639558">
        <ele>207.30000000000001</ele>
        <time>2026-07-07T11:13:30Z</time>
      </trkpt>
      <trkpt lat="55.195942986756563" lon="-6.125857019796968">
        <ele>203.46000000000001</ele>
        <time>2026-07-07T11:13:42Z</time>
      </trkpt>
      <trkpt lat="55.195641992613673" lon="-6.124182986095548">
        <ele>208.25999999999999</ele>
        <time>2026-07-07T11:13:49Z</time>
      </trkpt>
      <trkpt lat="55.195621959865093" lon="-6.123953992500901">
        <ele>209.22</ele>
        <time>2026-07-07T11:13:50Z</time>
      </trkpt>
      <trkpt lat="55.195617014542222" lon="-6.123717036098242">
        <ele>209.69999999999999</ele>
        <time>2026-07-07T11:13:51Z</time>
      </trkpt>
      <trkpt lat="55.195854976773262" lon="-6.121144965291023">
        <ele>221.72</ele>
        <time>2026-07-07T11:14:01Z</time>
      </trkpt>
      <trkpt lat="55.19593502394855" lon="-6.120414985343814">
        <ele>225.09</ele>
        <time>2026-07-07T11:14:04Z</time>
      </trkpt>
      <trkpt lat="55.195917002856731" lon="-6.120134023949504">
        <ele>226.05000000000001</ele>
        <time>2026-07-07T11:14:05Z</time>
      </trkpt>
      <trkpt lat="55.195899987593293" lon="-6.119867982342839">
        <ele>227.00999999999999</ele>
        <time>2026-07-07T11:14:06Z</time>
      </trkpt>
      <trkpt lat="55.195866040885448" lon="-6.119360961019993">
        <ele>228.93000000000001</ele>
        <time>2026-07-07T11:14:08Z</time>
      </trkpt>
      <trkpt lat="55.195850031450391" lon="-6.119105983525515">
        <ele>229.41</ele>
        <time>2026-07-07T11:14:09Z</time>
      </trkpt>
      <trkpt lat="55.195877021178603" lon="-6.118894005194306">
        <ele>230.37</ele>
        <time>2026-07-07T11:14:10Z</time>
      </trkpt>
      <trkpt lat="55.196077013388276" lon="-6.116827027872205">
        <ele>234.22</ele>
        <time>2026-07-07T11:14:18Z</time>
      </trkpt>
      <trkpt lat="55.196061003953218" lon="-6.115007987245917">
        <ele>237.58000000000001</ele>
        <time>2026-07-07T11:14:25Z</time>
      </trkpt>
      <trkpt lat="55.196018004789948" lon="-6.114489985629916">
        <ele>237.58000000000001</ele>
        <time>2026-07-07T11:14:27Z</time>
      </trkpt>
      <trkpt lat="55.195958996191621" lon="-6.113763023167849">
        <ele>238.06</ele>
        <time>2026-07-07T11:14:30Z</time>
      </trkpt>
      <trkpt lat="55.195963019505143" lon="-6.113522965461016">
        <ele>238.53999999999999</ele>
        <time>2026-07-07T11:14:31Z</time>
      </trkpt>
      <trkpt lat="55.19599998369813" lon="-6.112174987792969">
        <ele>239.50999999999999</ele>
        <time>2026-07-07T11:14:36Z</time>
      </trkpt>
      <trkpt lat="55.195981040596962" lon="-6.111909030005336">
        <ele>239.50999999999999</ele>
        <time>2026-07-07T11:14:37Z</time>
      </trkpt>
      <trkpt lat="55.195966036990285" lon="-6.109806010499597">
        <ele>239.02000000000001</ele>
        <time>2026-07-07T11:14:45Z</time>
      </trkpt>
      <trkpt lat="55.196077013388276" lon="-6.107432004064322">
        <ele>243.34999999999999</ele>
        <time>2026-07-07T11:14:54Z</time>
      </trkpt>
      <trkpt lat="55.196121018379927" lon="-6.106474958360195">
        <ele>240.94999999999999</ele>
        <time>2026-07-07T11:14:58Z</time>
      </trkpt>
      <trkpt lat="55.196113977581263" lon="-6.106224004179239">
        <ele>241.43000000000001</ele>
        <time>2026-07-07T11:14:59Z</time>
      </trkpt>
      <trkpt lat="55.195821030065417" lon="-6.104256017133594">
        <ele>239.50999999999999</ele>
        <time>2026-07-07T11:15:07Z</time>
      </trkpt>
      <trkpt lat="55.195768978446722" lon="-6.103750001639128">
        <ele>239.50999999999999</ele>
        <time>2026-07-07T11:15:09Z</time>
      </trkpt>
      <trkpt lat="55.195728996768594" lon="-6.103530982509255">
        <ele>239.50999999999999</ele>
        <time>2026-07-07T11:15:10Z</time>
      </trkpt>
      <trkpt lat="55.195690020918846" lon="-6.103341970592737">
        <ele>239.99000000000001</ele>
        <time>2026-07-07T11:15:11Z</time>
      </trkpt>
      <trkpt lat="55.195652972906828" lon="-6.103165028616786">
        <ele>239.99000000000001</ele>
        <time>2026-07-07T11:15:12Z</time>
      </trkpt>
      <trkpt lat="55.195650961250067" lon="-6.102964030578733">
        <ele>239.50999999999999</ele>
        <time>2026-07-07T11:15:13Z</time>
      </trkpt>
      <trkpt lat="55.195679040625691" lon="-6.102763032540679">
        <ele>239.50999999999999</ele>
        <time>2026-07-07T11:15:14Z</time>
      </trkpt>
      <trkpt lat="55.195708964020014" lon="-6.102549964562058">
        <ele>239.50999999999999</ele>
        <time>2026-07-07T11:15:15Z</time>
      </trkpt>
      <trkpt lat="55.195767972618341" lon="-6.102128019556403">
        <ele>239.50999999999999</ele>
        <time>2026-07-07T11:15:17Z</time>
      </trkpt>
      <trkpt lat="55.195771995931864" lon="-6.101944036781788">
        <ele>239.50999999999999</ele>
        <time>2026-07-07T11:15:18Z</time>
      </trkpt>
      <trkpt lat="55.195732014253736" lon="-6.10175896435976">
        <ele>239.02000000000001</ele>
        <time>2026-07-07T11:15:19Z</time>
      </trkpt>
      <trkpt lat="55.195689015090466" lon="-6.101559977978468">
        <ele>239.50999999999999</ele>
        <time>2026-07-07T11:15:20Z</time>
      </trkpt>
      <trkpt lat="55.195644004270434" lon="-6.101354034617543">
        <ele>239.99000000000001</ele>
        <time>2026-07-07T11:15:21Z</time>
      </trkpt>
      <trkpt lat="55.195474019274116" lon="-6.100568985566497">
        <ele>247.68000000000001</ele>
        <time>2026-07-07T11:15:25Z</time>
      </trkpt>
      <trkpt lat="55.195434959605336" lon="-6.100391037762165">
        <ele>249.12</ele>
        <time>2026-07-07T11:15:26Z</time>
      </trkpt>
      <trkpt lat="55.195400007069111" lon="-6.100201020017266">
        <ele>250.56</ele>
        <time>2026-07-07T11:15:27Z</time>
      </trkpt>
      <trkpt lat="55.195409981533885" lon="-6.10001603141427">
        <ele>251.52000000000001</ele>
        <time>2026-07-07T11:15:28Z</time>
      </trkpt>
      <trkpt lat="55.195420039817691" lon="-6.099814027547836">
        <ele>251.52000000000001</ele>
        <time>2026-07-07T11:15:29Z</time>
      </trkpt>
      <trkpt lat="55.195432025939226" lon="-6.099600959569216">
        <ele>251.03999999999999</ele>
        <time>2026-07-07T11:15:30Z</time>
      </trkpt>
      <trkpt lat="55.195439988747239" lon="-6.099391998723149">
        <ele>251.03999999999999</ele>
        <time>2026-07-07T11:15:31Z</time>
      </trkpt>
      <trkpt lat="55.195415010675788" lon="-6.099197035655379">
        <ele>251.03999999999999</ele>
        <time>2026-07-07T11:15:32Z</time>
      </trkpt>
      <trkpt lat="55.19531300291419" lon="-6.098398994654417">
        <ele>251.03999999999999</ele>
        <time>2026-07-07T11:15:36Z</time>
      </trkpt>
      <trkpt lat="55.195233039557934" lon="-6.098170001059771">
        <ele>251.03999999999999</ele>
        <time>2026-07-07T11:15:37Z</time>
      </trkpt>
      <trkpt lat="55.195169001817703" lon="-6.097989035770297">
        <ele>251.52000000000001</ele>
        <time>2026-07-07T11:15:38Z</time>
      </trkpt>
      <trkpt lat="55.194749990478158" lon="-6.096529997885227">
        <ele>254.88999999999999</ele>
        <time>2026-07-07T11:15:45Z</time>
      </trkpt>
      <trkpt lat="55.194416977465153" lon="-6.094538038596511">
        <ele>262.57999999999998</ele>
        <time>2026-07-07T11:15:54Z</time>
      </trkpt>
      <trkpt lat="55.194364003837109" lon="-6.094318013638258">
        <ele>264.01999999999998</ele>
        <time>2026-07-07T11:15:55Z</time>
      </trkpt>
      <trkpt lat="55.193889001384377" lon="-6.092413980513811">
        <ele>264.01999999999998</ele>
        <time>2026-07-07T11:16:03Z</time>
      </trkpt>
      <trkpt lat="55.193838039413095" lon="-6.092180963605642">
        <ele>262.57999999999998</ele>
        <time>2026-07-07T11:16:04Z</time>
      </trkpt>
      <trkpt lat="55.193752041086555" lon="-6.092027993872762">
        <ele>261.13999999999999</ele>
        <time>2026-07-07T11:16:05Z</time>
      </trkpt>
      <trkpt lat="55.193666964769363" lon="-6.091894973069429">
        <ele>259.20999999999998</ele>
        <time>2026-07-07T11:16:06Z</time>
      </trkpt>
      <trkpt lat="55.193320959806442" lon="-6.091307988390327">
        <ele>252.96000000000001</ele>
        <time>2026-07-07T11:16:10Z</time>
      </trkpt>
      <trkpt lat="55.193247031420469" lon="-6.091138003394008">
        <ele>252</ele>
        <time>2026-07-07T11:16:11Z</time>
      </trkpt>
      <trkpt lat="55.193183999508619" lon="-6.090944968163967">
        <ele>250.56</ele>
        <time>2026-07-07T11:16:12Z</time>
      </trkpt>
      <trkpt lat="55.193058019503951" lon="-6.090524028986692">
        <ele>247.19999999999999</ele>
        <time>2026-07-07T11:16:14Z</time>
      </trkpt>
      <trkpt lat="55.192964980378747" lon="-6.090316995978355">
        <ele>245.75</ele>
        <time>2026-07-07T11:16:15Z</time>
      </trkpt>
      <trkpt lat="55.192770017310977" lon="-6.089938972145319">
        <ele>243.34999999999999</ele>
        <time>2026-07-07T11:16:17Z</time>
      </trkpt>
      <trkpt lat="55.192673960700631" lon="-6.089751971885562">
        <ele>242.38999999999999</ele>
        <time>2026-07-07T11:16:18Z</time>
      </trkpt>
      <trkpt lat="55.192612018436193" lon="-6.089542005211115">
        <ele>240.94999999999999</ele>
        <time>2026-07-07T11:16:19Z</time>
      </trkpt>
      <trkpt lat="55.192546974867582" lon="-6.089319968596101">
        <ele>239.99000000000001</ele>
        <time>2026-07-07T11:16:20Z</time>
      </trkpt>
      <trkpt lat="55.192483020946383" lon="-6.089102039113641">
        <ele>239.50999999999999</ele>
        <time>2026-07-07T11:16:21Z</time>
      </trkpt>
      <trkpt lat="55.192011035978794" lon="-6.087676025927067">
        <ele>231.81</ele>
        <time>2026-07-07T11:16:28Z</time>
      </trkpt>
      <trkpt lat="55.191567968577147" lon="-6.086789974942803">
        <ele>225.56999999999999</ele>
        <time>2026-07-07T11:16:33Z</time>
      </trkpt>
      <trkpt lat="55.191491022706032" lon="-6.086614960804582">
        <ele>224.61000000000001</ele>
        <time>2026-07-07T11:16:34Z</time>
      </trkpt>
      <trkpt lat="55.191473001614213" lon="-6.086418991908431">
        <ele>223.63999999999999</ele>
        <time>2026-07-07T11:16:35Z</time>
      </trkpt>
      <trkpt lat="55.191451041027904" lon="-6.086189998313785">
        <ele>222.19999999999999</ele>
        <time>2026-07-07T11:16:36Z</time>
      </trkpt>
      <trkpt lat="55.191466966643929" lon="-6.086030993610621">
        <ele>220.75999999999999</ele>
        <time>2026-07-07T11:16:37Z</time>
      </trkpt>
      <trkpt lat="55.191484987735748" lon="-6.085852039977908">
        <ele>219.80000000000001</ele>
        <time>2026-07-07T11:16:38Z</time>
      </trkpt>
      <trkpt lat="55.191576015204191" lon="-6.084857024252415">
        <ele>212.59</ele>
        <time>2026-07-07T11:16:44Z</time>
      </trkpt>
      <trkpt lat="55.191599987447262" lon="-6.084591988474131">
        <ele>209.69999999999999</ele>
        <time>2026-07-07T11:16:46Z</time>
      </trkpt>
      <trkpt lat="55.191613985225558" lon="-6.084425020962954">
        <ele>208.25999999999999</ele>
        <time>2026-07-07T11:16:47Z</time>
      </trkpt>
      <trkpt lat="55.191662013530731" lon="-6.083884974941611">
        <ele>202.97999999999999</ele>
        <time>2026-07-07T11:16:50Z</time>
      </trkpt>
      <trkpt lat="55.191650027409196" lon="-6.083725970238447">
        <ele>202.00999999999999</ele>
        <time>2026-07-07T11:16:51Z</time>
      </trkpt>
      <trkpt lat="55.191629994660616" lon="-6.083563026040793">
        <ele>200.56999999999999</ele>
        <time>2026-07-07T11:16:52Z</time>
      </trkpt>
      <trkpt lat="55.191442994400859" lon="-6.082027964293957">
        <ele>186.63</ele>
        <time>2026-07-07T11:17:00Z</time>
      </trkpt>
      <trkpt lat="55.191404018551111" lon="-6.081831995397806">
        <ele>184.71000000000001</ele>
        <time>2026-07-07T11:17:01Z</time>
      </trkpt>
      <trkpt lat="55.191353978589177" lon="-6.081661004573107">
        <ele>183.27000000000001</ele>
        <time>2026-07-07T11:17:02Z</time>
      </trkpt>
      <trkpt lat="55.191304022446275" lon="-6.081490013748407">
        <ele>181.83000000000001</ele>
        <time>2026-07-07T11:17:03Z</time>
      </trkpt>
      <trkpt lat="55.19125297665596" lon="-6.081318017095327">
        <ele>179.90000000000001</ele>
        <time>2026-07-07T11:17:04Z</time>
      </trkpt>
      <trkpt lat="55.191203020513058" lon="-6.081145014613867">
        <ele>177.97999999999999</ele>
        <time>2026-07-07T11:17:05Z</time>
      </trkpt>
      <trkpt lat="55.191172007471323" lon="-6.080966982990503">
        <ele>176.53999999999999</ele>
        <time>2026-07-07T11:17:06Z</time>
      </trkpt>
      <trkpt lat="55.191172007471323" lon="-6.080798003822565">
        <ele>174.62</ele>
        <time>2026-07-07T11:17:07Z</time>
      </trkpt>
      <trkpt lat="55.191172007471323" lon="-6.080643022432923">
        <ele>173.16999999999999</ele>
        <time>2026-07-07T11:17:08Z</time>
      </trkpt>
      <trkpt lat="55.191172007471323" lon="-6.080498015508056">
        <ele>171.25</ele>
        <time>2026-07-07T11:17:09Z</time>
      </trkpt>
      <trkpt lat="55.191163960844278" lon="-6.08035895973444">
        <ele>169.33000000000001</ele>
        <time>2026-07-07T11:17:10Z</time>
      </trkpt>
      <trkpt lat="55.191137976944447" lon="-6.080226022750139">
        <ele>167.41</ele>
        <time>2026-07-07T11:17:11Z</time>
      </trkpt>
      <trkpt lat="55.191110987216234" lon="-6.080091996118426">
        <ele>165.47999999999999</ele>
        <time>2026-07-07T11:17:12Z</time>
      </trkpt>
      <trkpt lat="55.191106963902712" lon="-6.079952018335462">
        <ele>164.03999999999999</ele>
        <time>2026-07-07T11:17:13Z</time>
      </trkpt>
      <trkpt lat="55.191106963902712" lon="-6.079800976440311">
        <ele>162.12</ele>
        <time>2026-07-07T11:17:14Z</time>
      </trkpt>
      <trkpt lat="55.191145017743111" lon="-6.079203011468053">
        <ele>156.34999999999999</ele>
        <time>2026-07-07T11:17:18Z</time>
      </trkpt>
      <trkpt lat="55.191401001065969" lon="-6.07754004187882">
        <ele>140.00999999999999</ele>
        <time>2026-07-07T11:17:28Z</time>
      </trkpt>
      <trkpt lat="55.191500997170806" lon="-6.076840991154313">
        <ele>130.88</ele>
        <time>2026-07-07T11:17:33Z</time>
      </trkpt>
      <trkpt lat="55.191509965807199" lon="-6.076695984229446">
        <ele>128.94999999999999</ele>
        <time>2026-07-07T11:17:34Z</time>
      </trkpt>
      <trkpt lat="55.191537039354444" lon="-6.07627596706152">
        <ele>123.19</ele>
        <time>2026-07-07T11:17:37Z</time>
      </trkpt>
      <trkpt lat="55.191566040739417" lon="-6.076158033683896">
        <ele>121.26000000000001</ele>
        <time>2026-07-07T11:17:38Z</time>
      </trkpt>
      <trkpt lat="55.19159403629601" lon="-6.076046973466873">
        <ele>119.81999999999999</ele>
        <time>2026-07-07T11:17:39Z</time>
      </trkpt>
      <trkpt lat="55.191652039065957" lon="-6.075813034549356">
        <ele>115.98</ele>
        <time>2026-07-07T11:17:41Z</time>
      </trkpt>
      <trkpt lat="55.191661007702351" lon="-6.075708009302616">
        <ele>114.53</ele>
        <time>2026-07-07T11:17:42Z</time>
      </trkpt>
      <trkpt lat="55.191652039065957" lon="-6.075589992105961">
        <ele>113.09</ele>
        <time>2026-07-07T11:17:43Z</time>
      </trkpt>
      <trkpt lat="55.191641980782151" lon="-6.075463006272912">
        <ele>111.17</ele>
        <time>2026-07-07T11:17:44Z</time>
      </trkpt>
      <trkpt lat="55.191633012145758" lon="-6.075335014611483">
        <ele>110.20999999999999</ele>
        <time>2026-07-07T11:17:45Z</time>
      </trkpt>
      <trkpt lat="55.191623037680984" lon="-6.075207022950053">
        <ele>108.77</ele>
        <time>2026-07-07T11:17:46Z</time>
      </trkpt>
      <trkpt lat="55.191612979397178" lon="-6.075080037117004">
        <ele>107.81</ele>
        <time>2026-07-07T11:17:47Z</time>
      </trkpt>
      <trkpt lat="55.191603004932404" lon="-6.074947016313672">
        <ele>106.84</ele>
        <time>2026-07-07T11:17:48Z</time>
      </trkpt>
      <trkpt lat="55.191620020195842" lon="-6.074816007167101">
        <ele>105.88</ele>
        <time>2026-07-07T11:17:49Z</time>
      </trkpt>
      <trkpt lat="55.191646004095674" lon="-6.074669994413853">
        <ele>104.92</ele>
        <time>2026-07-07T11:17:50Z</time>
      </trkpt>
      <trkpt lat="55.191673999652267" lon="-6.074518030509353">
        <ele>103.48</ele>
        <time>2026-07-07T11:17:51Z</time>
      </trkpt>
      <trkpt lat="55.191708030179143" lon="-6.074323989450932">
        <ele>102.04000000000001</ele>
        <time>2026-07-07T11:17:52Z</time>
      </trkpt>
      <trkpt lat="55.191758992150426" lon="-6.074203038588166">
        <ele>100.59999999999999</ele>
        <time>2026-07-07T11:17:53Z</time>
      </trkpt>
      <trkpt lat="55.191807020455599" lon="-6.074088960886002">
        <ele>99.150000000000006</ele>
        <time>2026-07-07T11:17:54Z</time>
      </trkpt>
      <trkpt lat="55.191880026832223" lon="-6.073915958404541">
        <ele>96.75</ele>
        <time>2026-07-07T11:17:56Z</time>
      </trkpt>
      <trkpt lat="55.191880026832223" lon="-6.073915958404541">
        <ele>95.790000000000006</ele>
        <time>2026-07-07T11:17:57Z</time>
      </trkpt>
      <trkpt lat="55.191967030987144" lon="-6.073792995885015">
        <ele>94.829999999999998</ele>
        <time>2026-07-07T11:17:58Z</time>
      </trkpt>
      <trkpt lat="55.192013969644904" lon="-6.073726024478674">
        <ele>93.390000000000001</ele>
        <time>2026-07-07T11:17:59Z</time>
      </trkpt>
      <trkpt lat="55.192061997950077" lon="-6.073657963424921">
        <ele>92.420000000000002</ele>
        <time>2026-07-07T11:18:00Z</time>
      </trkpt>
      <trkpt lat="55.192154031246901" lon="-6.073516979813576">
        <ele>90.980000000000004</ele>
        <time>2026-07-07T11:18:02Z</time>
      </trkpt>
      <trkpt lat="55.192215973511338" lon="-6.073388988152146">
        <ele>87.140000000000001</ele>
        <time>2026-07-07T11:18:08Z</time>
      </trkpt>
      <trkpt lat="55.192329967394471" lon="-6.073154965415597">
        <ele>84.730000000000004</ele>
        <time>2026-07-07T11:18:19Z</time>
      </trkpt>
      <trkpt lat="55.192389981821179" lon="-6.073029991239309">
        <ele>84.25</ele>
        <time>2026-07-07T11:18:21Z</time>
      </trkpt>
      <trkpt lat="55.192415965721011" lon="-6.072976011782885">
        <ele>84.25</ele>
        <time>2026-07-07T11:18:22Z</time>
      </trkpt>
      <trkpt lat="55.192441027611494" lon="-6.072925971820951">
        <ele>84.730000000000004</ele>
        <time>2026-07-07T11:18:23Z</time>
      </trkpt>
      <trkpt lat="55.192520990967751" lon="-6.072894958779216">
        <ele>84.730000000000004</ele>
        <time>2026-07-07T11:18:24Z</time>
      </trkpt>
      <trkpt lat="55.192553009837866" lon="-6.072936030104756">
        <ele>85.209999999999994</ele>
        <time>2026-07-07T11:18:25Z</time>
      </trkpt>
      <trkpt lat="55.192592991515994" lon="-6.072986992076039">
        <ele>85.209999999999994</ele>
        <time>2026-07-07T11:18:26Z</time>
      </trkpt>
      <trkpt lat="55.192630961537361" lon="-6.073036026209593">
        <ele>85.689999999999998</ele>
        <time>2026-07-07T11:18:27Z</time>
      </trkpt>
      <trkpt lat="55.192678989842534" lon="-6.07305396348238">
        <ele>85.689999999999998</ele>
        <time>2026-07-07T11:18:28Z</time>
      </trkpt>
      <trkpt lat="55.192725006490946" lon="-6.073069972917438">
        <ele>85.689999999999998</ele>
        <time>2026-07-07T11:18:29Z</time>
      </trkpt>
      <trkpt lat="55.192771023139358" lon="-6.073086988180876">
        <ele>85.689999999999998</ele>
        <time>2026-07-07T11:18:30Z</time>
      </trkpt>
      <trkpt lat="55.192866995930672" lon="-6.073122024536133">
        <ele>85.689999999999998</ele>
        <time>2026-07-07T11:18:31Z</time>
      </trkpt>
      <trkpt lat="55.192899014800787" lon="-6.073086988180876">
        <ele>86.180000000000007</ele>
        <time>2026-07-07T11:18:32Z</time>
      </trkpt>
      <trkpt lat="55.192956011742353" lon="-6.073024040088058">
        <ele>86.659999999999997</ele>
        <time>2026-07-07T11:18:33Z</time>
      </trkpt>
      <trkpt lat="55.193017031997442" lon="-6.072956984862685">
        <ele>86.659999999999997</ele>
        <time>2026-07-07T11:18:34Z</time>
      </trkpt>
      <trkpt lat="55.19307897426188" lon="-6.072889007627964">
        <ele>86.659999999999997</ele>
        <time>2026-07-07T11:18:35Z</time>
      </trkpt>
      <trkpt lat="55.19335700199008" lon="-6.072345022112131">
        <ele>88.099999999999994</ele>
        <time>2026-07-07T11:18:41Z</time>
      </trkpt>
      <trkpt lat="55.193411987274885" lon="-6.072309985756874">
        <ele>88.579999999999998</ele>
        <time>2026-07-07T11:18:42Z</time>
      </trkpt>
      <trkpt lat="55.19346697255969" lon="-6.072275033220649">
        <ele>89.060000000000002</ele>
        <time>2026-07-07T11:18:43Z</time>
      </trkpt>
      <trkpt lat="55.19357300363481" lon="-6.072205966338515">
        <ele>89.540000000000006</ele>
        <time>2026-07-07T11:18:45Z</time>
      </trkpt>
      <trkpt lat="55.193630000576377" lon="-6.072169002145529">
        <ele>90.019999999999996</ele>
        <time>2026-07-07T11:18:46Z</time>
      </trkpt>
      <trkpt lat="55.193686997517943" lon="-6.072123991325498">
        <ele>90.5</ele>
        <time>2026-07-07T11:18:47Z</time>
      </trkpt>
      <trkpt lat="55.1937220338732" lon="-6.072047967463732">
        <ele>90.5</ele>
        <time>2026-07-07T11:18:48Z</time>
      </trkpt>
      <trkpt lat="55.193751035258174" lon="-6.071985019370914">
        <ele>90.5</ele>
        <time>2026-07-07T11:18:49Z</time>
      </trkpt>
      <trkpt lat="55.193780958652496" lon="-6.0718700196594">
        <ele>90.5</ele>
        <time>2026-07-07T11:18:50Z</time>
      </trkpt>
      <trkpt lat="55.193762015551329" lon="-6.071801958605647">
        <ele>89.540000000000006</ele>
        <time>2026-07-07T11:18:51Z</time>
      </trkpt>
      <trkpt lat="55.193740976974368" lon="-6.071728030219674">
        <ele>89.540000000000006</ele>
        <time>2026-07-07T11:18:52Z</time>
      </trkpt>
      <trkpt lat="55.193719016388059" lon="-6.071653012186289">
        <ele>89.060000000000002</ele>
        <time>2026-07-07T11:18:53Z</time>
      </trkpt>
      <trkpt lat="55.193698983639479" lon="-6.071582017466426">
        <ele>88.579999999999998</ele>
        <time>2026-07-07T11:18:54Z</time>
      </trkpt>
      <trkpt lat="55.19368196837604" lon="-6.071522003039718">
        <ele>88.099999999999994</ele>
        <time>2026-07-07T11:18:55Z</time>
      </trkpt>
      <trkpt lat="55.193707030266523" lon="-6.071428963914514">
        <ele>87.620000000000005</ele>
        <time>2026-07-07T11:18:56Z</time>
      </trkpt>
      <trkpt lat="55.193751035258174" lon="-6.071410020813346">
        <ele>86.659999999999997</ele>
        <time>2026-07-07T11:18:57Z</time>
      </trkpt>
      <trkpt lat="55.193793028593063" lon="-6.071391999721527">
        <ele>85.689999999999998</ele>
        <time>2026-07-07T11:18:58Z</time>
      </trkpt>
      <trkpt lat="55.19381096586585" lon="-6.071384036913514">
        <ele>85.209999999999994</ele>
        <time>2026-07-07T11:18:59Z</time>
      </trkpt>
      <trkpt lat="55.19381096586585" lon="-6.071281023323536">
        <ele>84.25</ele>
        <time>2026-07-07T11:19:00Z</time>
      </trkpt>
      <trkpt lat="55.19381096586585" lon="-6.071191001683474">
        <ele>83.290000000000006</ele>
        <time>2026-07-07T11:19:01Z</time>
      </trkpt>
      <trkpt lat="55.193803003057837" lon="-6.071130987256765">
        <ele>82.329999999999998</ele>
        <time>2026-07-07T11:19:02Z</time>
      </trkpt>
      <trkpt lat="55.19378799945116" lon="-6.071029985323548">
        <ele>80.890000000000001</ele>
        <time>2026-07-07T11:19:03Z</time>
      </trkpt>
      <trkpt lat="55.193770984187722" lon="-6.070910962298513">
        <ele>79.930000000000007</ele>
        <time>2026-07-07T11:19:04Z</time>
      </trkpt>
      <trkpt lat="55.193752963095903" lon="-6.070780958980322">
        <ele>78.969999999999999</ele>
        <time>2026-07-07T11:19:05Z</time>
      </trkpt>
      <trkpt lat="55.193766038864851" lon="-6.070643998682499">
        <ele>78</ele>
        <time>2026-07-07T11:19:06Z</time>
      </trkpt>
      <trkpt lat="55.193791016936302" lon="-6.070518018677831">
        <ele>77.040000000000006</ele>
        <time>2026-07-07T11:19:07Z</time>
      </trkpt>
      <trkpt lat="55.193815995007753" lon="-6.070392960682511">
        <ele>76.079999999999998</ele>
        <time>2026-07-07T11:19:08Z</time>
      </trkpt>
      <trkpt lat="55.193847008049488" lon="-6.070266980677843">
        <ele>74.640000000000001</ele>
        <time>2026-07-07T11:19:09Z</time>
      </trkpt>
      <trkpt lat="55.193885983899236" lon="-6.070142006501555">
        <ele>72.719999999999999</ele>
        <time>2026-07-07T11:19:10Z</time>
      </trkpt>
      <trkpt lat="55.193925965577364" lon="-6.070016026496887">
        <ele>70.790000000000006</ele>
        <time>2026-07-07T11:19:11Z</time>
      </trkpt>
      <trkpt lat="55.194379007443786" lon="-6.068585989996791">
        <ele>52.530000000000001</ele>
        <time>2026-07-07T11:19:23Z</time>
      </trkpt>
      <trkpt lat="55.194773962721229" lon="-6.067189984023571">
        <ele>42.920000000000002</ele>
        <time>2026-07-07T11:19:34Z</time>
      </trkpt>
      <trkpt lat="55.195135977119207" lon="-6.065800013020635">
        <ele>29.460000000000001</ele>
        <time>2026-07-07T11:19:46Z</time>
      </trkpt>
      <trkpt lat="55.195149974897504" lon="-6.065713008865714">
        <ele>28.98</ele>
        <time>2026-07-07T11:19:47Z</time>
      </trkpt>
      <trkpt lat="55.1951639726758" lon="-6.065632961690426">
        <ele>28.5</ele>
        <time>2026-07-07T11:19:48Z</time>
      </trkpt>
      <trkpt lat="55.195174030959606" lon="-6.06557403691113">
        <ele>28.02</ele>
        <time>2026-07-07T11:19:49Z</time>
      </trkpt>
      <trkpt lat="55.195181993767619" lon="-6.065529026091099">
        <ele>27.530000000000001</ele>
        <time>2026-07-07T11:19:50Z</time>
      </trkpt>
      <trkpt lat="55.195188028737903" lon="-6.065491978079081">
        <ele>27.050000000000001</ele>
        <time>2026-07-07T11:19:51Z</time>
      </trkpt>
      <trkpt lat="55.195192974060774" lon="-6.065464988350868">
        <ele>26.57</ele>
        <time>2026-07-07T11:19:52Z</time>
      </trkpt>
      <trkpt lat="55.195195991545916" lon="-6.06544503942132">
        <ele>26.57</ele>
        <time>2026-07-07T11:19:53Z</time>
      </trkpt>
      <trkpt lat="55.195195991545916" lon="-6.06544503942132">
        <ele>26.09</ele>
        <time>2026-07-07T11:20:02Z</time>
      </trkpt>
      <trkpt lat="55.19520403817296" lon="-6.06540204025805">
        <ele>26.09</ele>
        <time>2026-07-07T11:20:03Z</time>
      </trkpt>
      <trkpt lat="55.195219963788986" lon="-6.065480997785926">
        <ele>27.530000000000001</ele>
        <time>2026-07-07T11:20:13Z</time>
      </trkpt>
      <trkpt lat="55.195208983495831" lon="-6.0654909722507">
        <ele>33.299999999999997</ele>
        <time>2026-07-07T11:32:41Z</time>
      </trkpt>
      <trkpt lat="55.195198003202677" lon="-6.065502958372235">
        <ele>33.299999999999997</ele>
        <time>2026-07-07T11:33:24Z</time>
      </trkpt>
      <trkpt lat="55.195181993767619" lon="-6.065528020262718">
        <ele>34.740000000000002</ele>
        <time>2026-07-07T11:34:08Z</time>
      </trkpt>
      <trkpt lat="55.194973032921553" lon="-6.066445000469685">
        <ele>34.740000000000002</ele>
        <time>2026-07-07T11:34:15Z</time>
      </trkpt>
      <trkpt lat="55.194943025708199" lon="-6.066558994352818">
        <ele>35.229999999999997</ele>
        <time>2026-07-07T11:34:16Z</time>
      </trkpt>
      <trkpt lat="55.1947339810431" lon="-6.067342031747103">
        <ele>41.950000000000003</ele>
        <time>2026-07-07T11:34:23Z</time>
      </trkpt>
      <trkpt lat="55.194701040163636" lon="-6.06746600009501">
        <ele>42.920000000000002</ele>
        <time>2026-07-07T11:34:24Z</time>
      </trkpt>
      <trkpt lat="55.194257972761989" lon="-6.068968959152699">
        <ele>52.049999999999997</ele>
        <time>2026-07-07T11:34:34Z</time>
      </trkpt>
      <trkpt lat="55.193793028593063" lon="-6.070508966222405">
        <ele>68.870000000000005</ele>
        <time>2026-07-07T11:34:44Z</time>
      </trkpt>
      <trkpt lat="55.1937669608742" lon="-6.070638969540596">
        <ele>70.790000000000006</ele>
        <time>2026-07-07T11:34:45Z</time>
      </trkpt>
      <trkpt lat="55.193749023601413" lon="-6.070752963423729">
        <ele>72.239999999999995</ele>
        <time>2026-07-07T11:34:46Z</time>
      </trkpt>
      <trkpt lat="55.19376402720809" lon="-6.07086100615561">
        <ele>73.200000000000003</ele>
        <time>2026-07-07T11:34:47Z</time>
      </trkpt>
      <trkpt lat="55.193780958652496" lon="-6.070979023352265">
        <ele>74.159999999999997</ele>
        <time>2026-07-07T11:34:48Z</time>
      </trkpt>
      <trkpt lat="55.193796968087554" lon="-6.071091005578637">
        <ele>75.599999999999994</ele>
        <time>2026-07-07T11:34:49Z</time>
      </trkpt>
      <trkpt lat="55.19381096586585" lon="-6.071191001683474">
        <ele>77.040000000000006</ele>
        <time>2026-07-07T11:34:50Z</time>
      </trkpt>
      <trkpt lat="55.19381096586585" lon="-6.071284962818027">
        <ele>78.480000000000004</ele>
        <time>2026-07-07T11:34:51Z</time>
      </trkpt>
      <trkpt lat="55.19381096586585" lon="-6.071364004164934">
        <ele>79.930000000000007</ele>
        <time>2026-07-07T11:34:52Z</time>
      </trkpt>
      <trkpt lat="55.193775007501245" lon="-6.071399040520191">
        <ele>81.370000000000005</ele>
        <time>2026-07-07T11:34:53Z</time>
      </trkpt>
      <trkpt lat="55.193733014166355" lon="-6.071416977792978">
        <ele>82.810000000000002</ele>
        <time>2026-07-07T11:34:54Z</time>
      </trkpt>
      <trkpt lat="55.193694038316607" lon="-6.071433993056417">
        <ele>84.25</ele>
        <time>2026-07-07T11:34:55Z</time>
      </trkpt>
      <trkpt lat="55.193694960325956" lon="-6.071567013859749">
        <ele>85.689999999999998</ele>
        <time>2026-07-07T11:34:56Z</time>
      </trkpt>
      <trkpt lat="55.193706024438143" lon="-6.071606995537877">
        <ele>87.140000000000001</ele>
        <time>2026-07-07T11:34:57Z</time>
      </trkpt>
      <trkpt lat="55.193720022216439" lon="-6.071657035499811">
        <ele>88.099999999999994</ele>
        <time>2026-07-07T11:34:58Z</time>
      </trkpt>
      <trkpt lat="55.193740976974368" lon="-6.071727024391294">
        <ele>89.060000000000002</ele>
        <time>2026-07-07T11:34:59Z</time>
      </trkpt>
      <trkpt lat="55.19376503303647" lon="-6.071812016889453">
        <ele>89.540000000000006</ele>
        <time>2026-07-07T11:35:00Z</time>
      </trkpt>
      <trkpt lat="55.19378699362278" lon="-6.071888962760568">
        <ele>90.5</ele>
        <time>2026-07-07T11:35:01Z</time>
      </trkpt>
      <trkpt lat="55.193737037479877" lon="-6.072016032412648">
        <ele>91.939999999999998</ele>
        <time>2026-07-07T11:35:02Z</time>
      </trkpt>
      <trkpt lat="55.193697977811098" lon="-6.072102030739188">
        <ele>92.900000000000006</ele>
        <time>2026-07-07T11:35:03Z</time>
      </trkpt>
      <trkpt lat="55.193641986697912" lon="-6.072161039337516">
        <ele>94.349999999999994</ele>
        <time>2026-07-07T11:35:04Z</time>
      </trkpt>
      <trkpt lat="55.193576021119952" lon="-6.072204038500786">
        <ele>95.310000000000002</ele>
        <time>2026-07-07T11:35:05Z</time>
      </trkpt>
      <trkpt lat="55.19350896589458" lon="-6.072247037664056">
        <ele>95.790000000000006</ele>
        <time>2026-07-07T11:35:06Z</time>
      </trkpt>
      <trkpt lat="55.193440988659859" lon="-6.072290958836675">
        <ele>96.269999999999996</ele>
        <time>2026-07-07T11:35:07Z</time>
      </trkpt>
      <trkpt lat="55.193368988111615" lon="-6.072337981313467">
        <ele>95.790000000000006</ele>
        <time>2026-07-07T11:35:08Z</time>
      </trkpt>
      <trkpt lat="55.19329103641212" lon="-6.072430014610291">
        <ele>95.310000000000002</ele>
        <time>2026-07-07T11:35:09Z</time>
      </trkpt>
      <trkpt lat="55.193243008106947" lon="-6.072533028200269">
        <ele>94.829999999999998</ele>
        <time>2026-07-07T11:35:10Z</time>
      </trkpt>
      <trkpt lat="55.193195985630155" lon="-6.072636963799596">
        <ele>94.829999999999998</ele>
        <time>2026-07-07T11:35:11Z</time>
      </trkpt>
      <trkpt lat="55.192987024784088" lon="-6.072990009561181">
        <ele>93.870000000000005</ele>
        <time>2026-07-07T11:35:15Z</time>
      </trkpt>
      <trkpt lat="55.192930027842522" lon="-6.073052035644651">
        <ele>93.870000000000005</ele>
        <time>2026-07-07T11:35:16Z</time>
      </trkpt>
      <trkpt lat="55.192878982052207" lon="-6.073109032586217">
        <ele>93.870000000000005</ele>
        <time>2026-07-07T11:35:17Z</time>
      </trkpt>
      <trkpt lat="55.192803964018822" lon="-6.073098974302411">
        <ele>93.870000000000005</ele>
        <time>2026-07-07T11:35:18Z</time>
      </trkpt>
      <trkpt lat="55.192749984562397" lon="-6.073080031201243">
        <ele>93.870000000000005</ele>
        <time>2026-07-07T11:35:19Z</time>
      </trkpt>
      <trkpt lat="55.192693993449211" lon="-6.073058992624283">
        <ele>93.870000000000005</ele>
        <time>2026-07-07T11:35:20Z</time>
      </trkpt>
      <trkpt lat="55.192628027871251" lon="-6.073033008724451">
        <ele>94.349999999999994</ele>
        <time>2026-07-07T11:35:21Z</time>
      </trkpt>
      <trkpt lat="55.192577987909317" lon="-6.07296796515584">
        <ele>94.349999999999994</ele>
        <time>2026-07-07T11:35:22Z</time>
      </trkpt>
      <trkpt lat="55.192534988746047" lon="-6.072913985699415">
        <ele>94.349999999999994</ele>
        <time>2026-07-07T11:35:23Z</time>
      </trkpt>
      <trkpt lat="55.192501964047551" lon="-6.072869980707765">
        <ele>94.349999999999994</ele>
        <time>2026-07-07T11:35:24Z</time>
      </trkpt>
      <trkpt lat="55.192459970712662" lon="-6.072884984314442">
        <ele>93.870000000000005</ele>
        <time>2026-07-07T11:35:25Z</time>
      </trkpt>
      <trkpt lat="55.192431975156069" lon="-6.072943992912769">
        <ele>93.870000000000005</ele>
        <time>2026-07-07T11:35:26Z</time>
      </trkpt>
      <trkpt lat="55.192397022619843" lon="-6.073015993461013">
        <ele>93.870000000000005</ele>
        <time>2026-07-07T11:35:27Z</time>
      </trkpt>
      <trkpt lat="55.192355029284954" lon="-6.073101991787553">
        <ele>93.390000000000001</ele>
        <time>2026-07-07T11:35:28Z</time>
      </trkpt>
      <trkpt lat="55.192314041778445" lon="-6.073187990114093">
        <ele>93.390000000000001</ele>
        <time>2026-07-07T11:35:29Z</time>
      </trkpt>
      <trkpt lat="55.192269030958414" lon="-6.073281029239297">
        <ele>92.900000000000006</ele>
        <time>2026-07-07T11:35:30Z</time>
      </trkpt>
      <trkpt lat="55.192212034016848" lon="-6.073398040607572">
        <ele>92.900000000000006</ele>
        <time>2026-07-07T11:35:31Z</time>
      </trkpt>
      <trkpt lat="55.192088987678289" lon="-6.073618987575173">
        <ele>93.390000000000001</ele>
        <time>2026-07-07T11:35:33Z</time>
      </trkpt>
      <trkpt lat="55.192036014050245" lon="-6.07369601726532">
        <ele>93.390000000000001</ele>
        <time>2026-07-07T11:35:34Z</time>
      </trkpt>
      <trkpt lat="55.191994020715356" lon="-6.073755025863648">
        <ele>93.390000000000001</ele>
        <time>2026-07-07T11:35:35Z</time>
      </trkpt>
      <trkpt lat="55.191965019330382" lon="-6.073796013370156">
        <ele>93.870000000000005</ele>
        <time>2026-07-07T11:35:36Z</time>
      </trkpt>
      <trkpt lat="55.191943980753422" lon="-6.07382602058351">
        <ele>94.349999999999994</ele>
        <time>2026-07-07T11:35:37Z</time>
      </trkpt>
      <trkpt lat="55.191927971318364" lon="-6.0738489869982">
        <ele>94.829999999999998</ele>
        <time>2026-07-07T11:35:38Z</time>
      </trkpt>
      <trkpt lat="55.191859994083643" lon="-6.07389098033309">
        <ele>95.310000000000002</ele>
        <time>2026-07-07T11:35:39Z</time>
      </trkpt>
      <trkpt lat="55.191838033497334" lon="-6.073862984776497">
        <ele>96.269999999999996</ele>
        <time>2026-07-07T11:35:41Z</time>
      </trkpt>
      <trkpt lat="55.191342998296022" lon="-6.073198970407248">
        <ele>91.939999999999998</ele>
        <time>2026-07-07T11:35:47Z</time>
      </trkpt>
      <trkpt lat="55.191255994141102" lon="-6.073042983189225">
        <ele>90.980000000000004</ele>
        <time>2026-07-07T11:35:48Z</time>
      </trkpt>
      <trkpt lat="55.190984001383185" lon="-6.072555994614959">
        <ele>89.540000000000006</ele>
        <time>2026-07-07T11:35:51Z</time>
      </trkpt>
      <trkpt lat="55.190891968086362" lon="-6.072391960769892">
        <ele>89.540000000000006</ele>
        <time>2026-07-07T11:35:52Z</time>
      </trkpt>
      <trkpt lat="55.190041959285736" lon="-6.071442039683461">
        <ele>91.459999999999994</ele>
        <time>2026-07-07T11:36:01Z</time>
      </trkpt>
      <trkpt lat="55.189954033121467" lon="-6.071342965587974">
        <ele>91.939999999999998</ele>
        <time>2026-07-07T11:36:02Z</time>
      </trkpt>
      <trkpt lat="55.189864011481404" lon="-6.071242969483137">
        <ele>92.420000000000002</ele>
        <time>2026-07-07T11:36:03Z</time>
      </trkpt>
      <trkpt lat="55.189323965460062" lon="-6.070857988670468">
        <ele>94.829999999999998</ele>
        <time>2026-07-07T11:36:08Z</time>
      </trkpt>
      <trkpt lat="55.189215000718832" lon="-6.070785988122225">
        <ele>95.310000000000002</ele>
        <time>2026-07-07T11:36:09Z</time>
      </trkpt>
      <trkpt lat="55.188020998612046" lon="-6.070149969309568">
        <ele>100.59999999999999</ele>
        <time>2026-07-07T11:36:21Z</time>
      </trkpt>
      <trkpt lat="55.186821967363358" lon="-6.069556027650833">
        <ele>102.04000000000001</ele>
        <time>2026-07-07T11:36:34Z</time>
      </trkpt>
      <trkpt lat="55.185829969123006" lon="-6.069453014060855">
        <ele>105.88</ele>
        <time>2026-07-07T11:36:44Z</time>
      </trkpt>
      <trkpt lat="55.185519000515342" lon="-6.069453014060855">
        <ele>107.31999999999999</ele>
        <time>2026-07-07T11:36:47Z</time>
      </trkpt>
      <trkpt lat="55.185425961390138" lon="-6.069427030161023">
        <ele>108.29000000000001</ele>
        <time>2026-07-07T11:36:48Z</time>
      </trkpt>
      <trkpt lat="55.184995969757438" lon="-6.069268025457859">
        <ele>110.20999999999999</ele>
        <time>2026-07-07T11:36:54Z</time>
      </trkpt>
      <trkpt lat="55.184927992522717" lon="-6.069259978830814">
        <ele>110.69</ele>
        <time>2026-07-07T11:36:55Z</time>
      </trkpt>
      <trkpt lat="55.184864038601518" lon="-6.069303983822465">
        <ele>110.69</ele>
        <time>2026-07-07T11:36:56Z</time>
      </trkpt>
      <trkpt lat="55.184791032224894" lon="-6.06935502961278">
        <ele>110.20999999999999</ele>
        <time>2026-07-07T11:36:57Z</time>
      </trkpt>
      <trkpt lat="55.184711990877986" lon="-6.069410014897585">
        <ele>109.73</ele>
        <time>2026-07-07T11:36:58Z</time>
      </trkpt>
      <trkpt lat="55.184375960379839" lon="-6.069602966308594">
        <ele>105.40000000000001</ele>
        <time>2026-07-07T11:37:02Z</time>
      </trkpt>
      <trkpt lat="55.184284010902047" lon="-6.069602966308594">
        <ele>104.92</ele>
        <time>2026-07-07T11:37:03Z</time>
      </trkpt>
      <trkpt lat="55.184216033667326" lon="-6.069558961316943">
        <ele>104.44</ele>
        <time>2026-07-07T11:37:04Z</time>
      </trkpt>
      <trkpt lat="55.183986034244299" lon="-6.069411020725966">
        <ele>103.95999999999999</ele>
        <time>2026-07-07T11:37:07Z</time>
      </trkpt>
      <trkpt lat="55.183923002332449" lon="-6.069369027391076">
        <ele>103.95999999999999</ele>
        <time>2026-07-07T11:37:08Z</time>
      </trkpt>
      <trkpt lat="55.183885032311082" lon="-6.06922997161746">
        <ele>103.95999999999999</ele>
        <time>2026-07-07T11:37:09Z</time>
      </trkpt>
      <trkpt lat="55.183858964592218" lon="-6.069127041846514">
        <ele>104.44</ele>
        <time>2026-07-07T11:37:10Z</time>
      </trkpt>
      <trkpt lat="55.183830969035625" lon="-6.069015981629491">
        <ele>104.44</ele>
        <time>2026-07-07T11:37:11Z</time>
      </trkpt>
      <trkpt lat="55.183792999014258" lon="-6.068896958604455">
        <ele>104.44</ele>
        <time>2026-07-07T11:37:12Z</time>
      </trkpt>
      <trkpt lat="55.183742037042975" lon="-6.068784976378083">
        <ele>104.92</ele>
        <time>2026-07-07T11:37:13Z</time>
      </trkpt>
      <trkpt lat="55.183631982654333" lon="-6.068547014147043">
        <ele>106.84</ele>
        <time>2026-07-07T11:37:15Z</time>
      </trkpt>
      <trkpt lat="55.183014990761876" lon="-6.066829981282353">
        <ele>115.01000000000001</ele>
        <time>2026-07-07T11:37:26Z</time>
      </trkpt>
      <trkpt lat="55.182582987472415" lon="-6.064953021705151">
        <ele>132.31999999999999</ele>
        <time>2026-07-07T11:37:37Z</time>
      </trkpt>
      <trkpt lat="55.182560021057725" lon="-6.064814971759915">
        <ele>133.75999999999999</ele>
        <time>2026-07-07T11:37:38Z</time>
      </trkpt>
      <trkpt lat="55.182482991367579" lon="-6.064574997872114">
        <ele>136.63999999999999</ele>
        <time>2026-07-07T11:37:40Z</time>
      </trkpt>
      <trkpt lat="55.182437980547547" lon="-6.064463015645742">
        <ele>137.61000000000001</ele>
        <time>2026-07-07T11:37:41Z</time>
      </trkpt>
      <trkpt lat="55.182389030233026" lon="-6.064375005662441">
        <ele>138.56999999999999</ele>
        <time>2026-07-07T11:37:42Z</time>
      </trkpt>
      <trkpt lat="55.182344019412994" lon="-6.064321026206017">
        <ele>139.53</ele>
        <time>2026-07-07T11:37:43Z</time>
      </trkpt>
      <trkpt lat="55.182303031906486" lon="-6.064270986244083">
        <ele>140.49000000000001</ele>
        <time>2026-07-07T11:37:44Z</time>
      </trkpt>
      <trkpt lat="55.182272018864751" lon="-6.064233016222715">
        <ele>141.44999999999999</ele>
        <time>2026-07-07T11:37:45Z</time>
      </trkpt>
      <trkpt lat="55.1822470407933" lon="-6.064203009009361">
        <ele>141.93000000000001</ele>
        <time>2026-07-07T11:37:46Z</time>
      </trkpt>
      <trkpt lat="55.182223990559578" lon="-6.064174007624388">
        <ele>142.88999999999999</ele>
        <time>2026-07-07T11:37:47Z</time>
      </trkpt>
      <trkpt lat="55.182175962254405" lon="-6.064133020117879">
        <ele>143.84999999999999</ele>
        <time>2026-07-07T11:37:48Z</time>
      </trkpt>
      <trkpt lat="55.181585038080812" lon="-6.06362197548151">
        <ele>153.47</ele>
        <time>2026-07-07T11:37:56Z</time>
      </trkpt>
      <trkpt lat="55.181355960667133" lon="-6.063348976895213">
        <ele>156.34999999999999</ele>
        <time>2026-07-07T11:37:59Z</time>
      </trkpt>
      <trkpt lat="55.18128496594727" lon="-6.063216961920261">
        <ele>157.78999999999999</ele>
        <time>2026-07-07T11:38:00Z</time>
      </trkpt>
      <trkpt lat="55.181212965399027" lon="-6.06308301910758">
        <ele>158.75</ele>
        <time>2026-07-07T11:38:01Z</time>
      </trkpt>
      <trkpt lat="55.180868972092867" lon="-6.062511960044503">
        <ele>166.93000000000001</ele>
        <time>2026-07-07T11:38:06Z</time>
      </trkpt>
      <trkpt lat="55.180796971544623" lon="-6.062433002516627">
        <ele>168.84999999999999</ele>
        <time>2026-07-07T11:38:07Z</time>
      </trkpt>
      <trkpt lat="55.180090041831136" lon="-6.061930004507303">
        <ele>181.83000000000001</ele>
        <time>2026-07-07T11:38:15Z</time>
      </trkpt>
      <trkpt lat="55.179921984672546" lon="-6.061870995908976">
        <ele>185.19</ele>
        <time>2026-07-07T11:38:17Z</time>
      </trkpt>
      <trkpt lat="55.17986498773098" lon="-6.061850963160396">
        <ele>186.15000000000001</ele>
        <time>2026-07-07T11:38:18Z</time>
      </trkpt>
      <trkpt lat="55.179811008274555" lon="-6.061787009239197">
        <ele>187.59</ele>
        <time>2026-07-07T11:38:19Z</time>
      </trkpt>
      <trkpt lat="55.179804973304272" lon="-6.061683995649219">
        <ele>189.03999999999999</ele>
        <time>2026-07-07T11:38:20Z</time>
      </trkpt>
      <trkpt lat="55.179817965254188" lon="-6.061590034514666">
        <ele>190.47999999999999</ele>
        <time>2026-07-07T11:38:21Z</time>
      </trkpt>
      <trkpt lat="55.179831963032484" lon="-6.061485009267926">
        <ele>191.91999999999999</ele>
        <time>2026-07-07T11:38:22Z</time>
      </trkpt>
      <trkpt lat="55.179837998002768" lon="-6.061390964314342">
        <ele>192.88</ele>
        <time>2026-07-07T11:38:23Z</time>
      </trkpt>
      <trkpt lat="55.179816959425807" lon="-6.061317035928369">
        <ele>194.31999999999999</ele>
        <time>2026-07-07T11:38:24Z</time>
      </trkpt>
      <trkpt lat="55.179759962484241" lon="-6.06127898208797">
        <ele>195.28</ele>
        <time>2026-07-07T11:38:25Z</time>
      </trkpt>
      <trkpt lat="55.179709000512958" lon="-6.061309995129705">
        <ele>196.25</ele>
        <time>2026-07-07T11:38:26Z</time>
      </trkpt>
      <trkpt lat="55.17964999191463" lon="-6.061374032869935">
        <ele>197.69</ele>
        <time>2026-07-07T11:38:27Z</time>
      </trkpt>
      <trkpt lat="55.179583020508289" lon="-6.061459025368094">
        <ele>198.65000000000001</ele>
        <time>2026-07-07T11:38:28Z</time>
      </trkpt>
      <trkpt lat="55.178654976189137" lon="-6.062639029696584">
        <ele>210.19</ele>
        <time>2026-07-07T11:38:39Z</time>
      </trkpt>
      <trkpt lat="55.17842598259449" lon="-6.062929965555668">
        <ele>214.99000000000001</ele>
        <time>2026-07-07T11:38:43Z</time>
      </trkpt>
      <trkpt lat="55.178366973996162" lon="-6.062929965555668">
        <ele>216.43000000000001</ele>
        <time>2026-07-07T11:38:44Z</time>
      </trkpt>
      <trkpt lat="55.178325986489654" lon="-6.062929965555668">
        <ele>217.40000000000001</ele>
        <time>2026-07-07T11:38:45Z</time>
      </trkpt>
      <trkpt lat="55.178300002589822" lon="-6.0629110224545">
        <ele>218.36000000000001</ele>
        <time>2026-07-07T11:38:46Z</time>
      </trkpt>
      <trkpt lat="55.178298996761441" lon="-6.062841033563018">
        <ele>218.84</ele>
        <time>2026-07-07T11:38:47Z</time>
      </trkpt>
      <trkpt lat="55.178301008418202" lon="-6.062727039679885">
        <ele>219.80000000000001</ele>
        <time>2026-07-07T11:38:48Z</time>
      </trkpt>
      <trkpt lat="55.178305031731725" lon="-6.062586978077889">
        <ele>220.28</ele>
        <time>2026-07-07T11:38:49Z</time>
      </trkpt>
      <trkpt lat="55.178283993154764" lon="-6.061211004853249">
        <ele>224.12</ele>
        <time>2026-07-07T11:38:56Z</time>
      </trkpt>
      <trkpt lat="55.178277036175132" lon="-6.061035990715027">
        <ele>224.12</ele>
        <time>2026-07-07T11:38:57Z</time>
      </trkpt>
      <trkpt lat="55.178236970677972" lon="-6.060890983790159">
        <ele>224.61000000000001</ele>
        <time>2026-07-07T11:38:58Z</time>
      </trkpt>
      <trkpt lat="55.178182991221547" lon="-6.060780007392168">
        <ele>225.09</ele>
        <time>2026-07-07T11:38:59Z</time>
      </trkpt>
      <trkpt lat="55.178106967359781" lon="-6.060713035985827">
        <ele>225.56999999999999</ele>
        <time>2026-07-07T11:39:00Z</time>
      </trkpt>
      <trkpt lat="55.178022980690002" lon="-6.060639023780823">
        <ele>226.05000000000001</ele>
        <time>2026-07-07T11:39:01Z</time>
      </trkpt>
      <trkpt lat="55.17793295904994" lon="-6.060559982433915">
        <ele>226.53</ele>
        <time>2026-07-07T11:39:02Z</time>
      </trkpt>
      <trkpt lat="55.177247989922762" lon="-6.060212971642613">
        <ele>229.88999999999999</ele>
        <time>2026-07-07T11:39:08Z</time>
      </trkpt>
      <trkpt lat="55.177118992432952" lon="-6.060176007449627">
        <ele>230.37</ele>
        <time>2026-07-07T11:39:09Z</time>
      </trkpt>
      <trkpt lat="55.176073014736176" lon="-6.060172989964485">
        <ele>226.53</ele>
        <time>2026-07-07T11:39:18Z</time>
      </trkpt>
      <trkpt lat="55.174961993470788" lon="-6.060272986069322">
        <ele>215.47</ele>
        <time>2026-07-07T11:39:28Z</time>
      </trkpt>
      <trkpt lat="55.174559997394681" lon="-6.060194028541446">
        <ele>210.66999999999999</ele>
        <time>2026-07-07T11:39:32Z</time>
      </trkpt>
      <trkpt lat="55.174134029075503" lon="-6.059855986386538">
        <ele>206.34</ele>
        <time>2026-07-07T11:39:37Z</time>
      </trkpt>
      <trkpt lat="55.173964966088533" lon="-6.059785997495055">
        <ele>203.94</ele>
        <time>2026-07-07T11:39:39Z</time>
      </trkpt>
      <trkpt lat="55.173897994682193" lon="-6.059762025251985">
        <ele>202.97999999999999</ele>
        <time>2026-07-07T11:39:40Z</time>
      </trkpt>
      <trkpt lat="55.173844015225768" lon="-6.059655994176865">
        <ele>202.00999999999999</ele>
        <time>2026-07-07T11:39:41Z</time>
      </trkpt>
      <trkpt lat="55.173837980255485" lon="-6.059563960880041">
        <ele>201.53</ele>
        <time>2026-07-07T11:39:42Z</time>
      </trkpt>
      <trkpt lat="55.173844015225768" lon="-6.059482991695404">
        <ele>200.56999999999999</ele>
        <time>2026-07-07T11:39:43Z</time>
      </trkpt>
      <trkpt lat="55.1738509722054" lon="-6.059390958398581">
        <ele>200.09</ele>
        <time>2026-07-07T11:39:44Z</time>
      </trkpt>
      <trkpt lat="55.17384803853929" lon="-6.059285011142492">
        <ele>199.13</ele>
        <time>2026-07-07T11:39:45Z</time>
      </trkpt>
      <trkpt lat="55.173825994133949" lon="-6.059163976460695">
        <ele>198.16999999999999</ele>
        <time>2026-07-07T11:39:46Z</time>
      </trkpt>
      <trkpt lat="55.173793975263834" lon="-6.059035984799266">
        <ele>195.77000000000001</ele>
        <time>2026-07-07T11:39:48Z</time>
      </trkpt>
      <trkpt lat="55.173476971685886" lon="-6.058156974613667">
        <ele>189.03999999999999</ele>
        <time>2026-07-07T11:39:53Z</time>
      </trkpt>
      <trkpt lat="55.173426009714603" lon="-6.058015991002321">
        <ele>188.08000000000001</ele>
        <time>2026-07-07T11:39:54Z</time>
      </trkpt>
      <trkpt lat="55.173408994451165" lon="-6.057855980470777">
        <ele>187.59</ele>
        <time>2026-07-07T11:39:55Z</time>
      </trkpt>
      <trkpt lat="55.173391979187727" lon="-6.057707034051418">
        <ele>187.11000000000001</ele>
        <time>2026-07-07T11:39:56Z</time>
      </trkpt>
      <trkpt lat="55.173386028036475" lon="-6.057563032954931">
        <ele>186.63</ele>
        <time>2026-07-07T11:39:57Z</time>
      </trkpt>
      <trkpt lat="55.173392985016108" lon="-6.057406961917877">
        <ele>186.15000000000001</ele>
        <time>2026-07-07T11:39:58Z</time>
      </trkpt>
      <trkpt lat="55.173400025814772" lon="-6.0570880305022">
        <ele>184.71000000000001</ele>
        <time>2026-07-07T11:40:00Z</time>
      </trkpt>
      <trkpt lat="55.173374963924289" lon="-6.056949980556965">
        <ele>183.75</ele>
        <time>2026-07-07T11:40:01Z</time>
      </trkpt>
      <trkpt lat="55.173327019438148" lon="-6.056803967803717">
        <ele>181.34999999999999</ele>
        <time>2026-07-07T11:40:03Z</time>
      </trkpt>
      <trkpt lat="55.173043962568045" lon="-6.056107012555003">
        <ele>175.09999999999999</ele>
        <time>2026-07-07T11:40:07Z</time>
      </trkpt>
      <trkpt lat="55.173000041395426" lon="-6.055953036993742">
        <ele>174.13999999999999</ele>
        <time>2026-07-07T11:40:08Z</time>
      </trkpt>
      <trkpt lat="55.172819998115301" lon="-6.055316012352705">
        <ele>167.88999999999999</ele>
        <time>2026-07-07T11:40:12Z</time>
      </trkpt>
      <trkpt lat="55.172769036144018" lon="-6.055162958800793">
        <ele>165.96000000000001</ele>
        <time>2026-07-07T11:40:13Z</time>
      </trkpt>
      <trkpt lat="55.172696029767394" lon="-6.055053994059563">
        <ele>164.52000000000001</ele>
        <time>2026-07-07T11:40:14Z</time>
      </trkpt>
      <trkpt lat="55.172625035047531" lon="-6.054947040975094">
        <ele>162.59999999999999</ele>
        <time>2026-07-07T11:40:15Z</time>
      </trkpt>
      <trkpt lat="55.172541970387101" lon="-6.054867999628186">
        <ele>161.16</ele>
        <time>2026-07-07T11:40:16Z</time>
      </trkpt>
      <trkpt lat="55.172459995374084" lon="-6.054800022393465">
        <ele>160.19999999999999</ele>
        <time>2026-07-07T11:40:17Z</time>
      </trkpt>
      <trkpt lat="55.172381037846208" lon="-6.054733972996473">
        <ele>159.24000000000001</ele>
        <time>2026-07-07T11:40:18Z</time>
      </trkpt>
      <trkpt lat="55.172320017591119" lon="-6.054636994376779">
        <ele>158.27000000000001</ele>
        <time>2026-07-07T11:40:19Z</time>
      </trkpt>
      <trkpt lat="55.172277018427849" lon="-6.054539009928703">
        <ele>157.78999999999999</ele>
        <time>2026-07-07T11:40:20Z</time>
      </trkpt>
      <trkpt lat="55.172263020649552" lon="-6.054441025480628">
        <ele>157.31</ele>
        <time>2026-07-07T11:40:21Z</time>
      </trkpt>
      <trkpt lat="55.172257991507649" lon="-6.054337006062269">
        <ele>156.83000000000001</ele>
        <time>2026-07-07T11:40:22Z</time>
      </trkpt>
      <trkpt lat="55.172252040356398" lon="-6.054234998300672">
        <ele>156.83000000000001</ele>
        <time>2026-07-07T11:40:23Z</time>
      </trkpt>
      <trkpt lat="55.172248017042875" lon="-6.054158974438906">
        <ele>156.34999999999999</ele>
        <time>2026-07-07T11:40:24Z</time>
      </trkpt>
      <trkpt lat="55.172248017042875" lon="-6.054158974438906">
        <ele>155.87</ele>
        <time>2026-07-07T11:40:25Z</time>
      </trkpt>
      <trkpt lat="55.172252040356398" lon="-6.054113963618875">
        <ele>155.38999999999999</ele>
        <time>2026-07-07T11:40:29Z</time>
      </trkpt>
      <trkpt lat="55.172266038134694" lon="-6.054068030789495">
        <ele>155.38999999999999</ele>
        <time>2026-07-07T11:40:30Z</time>
      </trkpt>
      <trkpt lat="55.172289004549384" lon="-6.05399502441287">
        <ele>155.38999999999999</ele>
        <time>2026-07-07T11:40:31Z</time>
      </trkpt>
      <trkpt lat="55.172354970127344" lon="-6.053785979747772">
        <ele>155.38999999999999</ele>
        <time>2026-07-07T11:40:33Z</time>
      </trkpt>
      <trkpt lat="55.172380032017827" lon="-6.053648013621569">
        <ele>154.91</ele>
        <time>2026-07-07T11:40:34Z</time>
      </trkpt>
      <trkpt lat="55.172389000654221" lon="-6.053505018353462">
        <ele>154.91</ele>
        <time>2026-07-07T11:40:35Z</time>
      </trkpt>
      <trkpt lat="55.172383971512318" lon="-6.053339978680015">
        <ele>154.43000000000001</ele>
        <time>2026-07-07T11:40:36Z</time>
      </trkpt>
      <trkpt lat="55.172343989834189" lon="-6.053207041695714">
        <ele>153.94999999999999</ele>
        <time>2026-07-07T11:40:37Z</time>
      </trkpt>
      <trkpt lat="55.172304008156061" lon="-6.053074020892382">
        <ele>152.99000000000001</ele>
        <time>2026-07-07T11:40:38Z</time>
      </trkpt>
      <trkpt lat="55.172267965972424" lon="-6.052951980382204">
        <ele>152.03</ele>
        <time>2026-07-07T11:40:39Z</time>
      </trkpt>
      <trkpt lat="55.172174004837871" lon="-6.052858019247651">
        <ele>151.06</ele>
        <time>2026-07-07T11:40:40Z</time>
      </trkpt>
      <trkpt lat="55.172102004289627" lon="-6.052786018699408">
        <ele>150.09999999999999</ele>
        <time>2026-07-07T11:40:41Z</time>
      </trkpt>
      <trkpt lat="55.172038972377777" lon="-6.052722986787558">
        <ele>149.13999999999999</ele>
        <time>2026-07-07T11:40:42Z</time>
      </trkpt>
      <trkpt lat="55.172026986256242" lon="-6.052590971812606">
        <ele>147.69999999999999</ele>
        <time>2026-07-07T11:40:43Z</time>
      </trkpt>
      <trkpt lat="55.172022040933371" lon="-6.052477983757854">
        <ele>146.74000000000001</ele>
        <time>2026-07-07T11:40:44Z</time>
      </trkpt>
      <trkpt lat="55.172011982649565" lon="-6.052238009870052">
        <ele>143.84999999999999</ele>
        <time>2026-07-07T11:40:46Z</time>
      </trkpt>
      <trkpt lat="55.171992033720016" lon="-6.052112029865384">
        <ele>142.41</ele>
        <time>2026-07-07T11:40:47Z</time>
      </trkpt>
      <trkpt lat="55.171963032335043" lon="-6.052002981305122">
        <ele>141.44999999999999</ele>
        <time>2026-07-07T11:40:48Z</time>
      </trkpt>
      <trkpt lat="55.171934030950069" lon="-6.051895022392273">
        <ele>140.00999999999999</ele>
        <time>2026-07-07T11:40:49Z</time>
      </trkpt>
      <trkpt lat="55.171888014301658" lon="-6.051796032115817">
        <ele>139.05000000000001</ele>
        <time>2026-07-07T11:40:50Z</time>
      </trkpt>
      <trkpt lat="55.171831017360091" lon="-6.051700981333852">
        <ele>137.61000000000001</ele>
        <time>2026-07-07T11:40:51Z</time>
      </trkpt>
      <trkpt lat="55.171773014590144" lon="-6.051601991057396">
        <ele>136.63999999999999</ele>
        <time>2026-07-07T11:40:52Z</time>
      </trkpt>
      <trkpt lat="55.171662038192153" lon="-6.051413984969258">
        <ele>134.72</ele>
        <time>2026-07-07T11:40:54Z</time>
      </trkpt>
      <trkpt lat="55.171606969088316" lon="-6.051323041319847">
        <ele>134.24000000000001</ele>
        <time>2026-07-07T11:40:55Z</time>
      </trkpt>
      <trkpt lat="55.171536980196834" lon="-6.051241988316178">
        <ele>133.75999999999999</ele>
        <time>2026-07-07T11:40:56Z</time>
      </trkpt>
      <trkpt lat="55.17056199721992" lon="-6.050275973975658">
        <ele>121.26000000000001</ele>
        <time>2026-07-07T11:41:09Z</time>
      </trkpt>
      <trkpt lat="55.170238958671689" lon="-6.049765013158321">
        <ele>117.90000000000001</ele>
        <time>2026-07-07T11:41:14Z</time>
      </trkpt>
      <trkpt lat="55.170165030285716" lon="-6.049689995124936">
        <ele>116.94</ele>
        <time>2026-07-07T11:41:15Z</time>
      </trkpt>
      <trkpt lat="55.169249977916479" lon="-6.048662038519979">
        <ele>105.40000000000001</ele>
        <time>2026-07-07T11:41:27Z</time>
      </trkpt>
      <trkpt lat="55.168696017935872" lon="-6.04783097282052">
        <ele>102.04000000000001</ele>
        <time>2026-07-07T11:41:35Z</time>
      </trkpt>
      <trkpt lat="55.168533995747566" lon="-6.047501983121038">
        <ele>101.56</ele>
        <time>2026-07-07T11:41:38Z</time>
      </trkpt>
      <trkpt lat="55.168509017676115" lon="-6.047350019216538">
        <ele>102.04000000000001</ele>
        <time>2026-07-07T11:41:39Z</time>
      </trkpt>
      <trkpt lat="55.168488984927535" lon="-6.047230996191502">
        <ele>102.52</ele>
        <time>2026-07-07T11:41:40Z</time>
      </trkpt>
      <trkpt lat="55.168468030169606" lon="-6.047104010358453">
        <ele>102.52</ele>
        <time>2026-07-07T11:41:41Z</time>
      </trkpt>
      <trkpt lat="55.168444979935884" lon="-6.046965038403869">
        <ele>102.04000000000001</ele>
        <time>2026-07-07T11:41:42Z</time>
      </trkpt>
      <trkpt lat="55.168424025177956" lon="-6.046808967366815">
        <ele>102.04000000000001</ele>
        <time>2026-07-07T11:41:43Z</time>
      </trkpt>
      <trkpt lat="55.168361999094486" lon="-6.045096041634679">
        <ele>100.11</ele>
        <time>2026-07-07T11:41:53Z</time>
      </trkpt>
      <trkpt lat="55.168366022408009" lon="-6.044925972819328">
        <ele>98.670000000000002</ele>
        <time>2026-07-07T11:41:54Z</time>
      </trkpt>
      <trkpt lat="55.168386977165937" lon="-6.044781971722841">
        <ele>98.189999999999998</ele>
        <time>2026-07-07T11:41:56Z</time>
      </trkpt>
      <trkpt lat="55.168406004086137" lon="-6.044652974233031">
        <ele>98.670000000000002</ele>
        <time>2026-07-07T11:41:57Z</time>
      </trkpt>
      <trkpt lat="55.168439028784633" lon="-6.04443303309381">
        <ele>99.150000000000006</ele>
        <time>2026-07-07T11:41:58Z</time>
      </trkpt>
      <trkpt lat="55.168440034613013" lon="-6.044333036988974">
        <ele>99.629999999999995</ele>
        <time>2026-07-07T11:41:59Z</time>
      </trkpt>
      <trkpt lat="55.16841203905642" lon="-6.044204039499164">
        <ele>100.11</ele>
        <time>2026-07-07T11:42:00Z</time>
      </trkpt>
      <trkpt lat="55.168378008529544" lon="-6.044056015089154">
        <ele>101.56</ele>
        <time>2026-07-07T11:42:02Z</time>
      </trkpt>
      <trkpt lat="55.168179022148252" lon="-6.043155966326594">
        <ele>107.81</ele>
        <time>2026-07-07T11:42:07Z</time>
      </trkpt>
      <trkpt lat="55.168148009106517" lon="-6.04301699437201">
        <ele>109.25</ele>
        <time>2026-07-07T11:42:08Z</time>
      </trkpt>
      <trkpt lat="55.16809000633657" lon="-6.042481977492571">
        <ele>115.98</ele>
        <time>2026-07-07T11:42:12Z</time>
      </trkpt>
      <trkpt lat="55.16809000633657" lon="-6.04234803467989">
        <ele>117.42</ele>
        <time>2026-07-07T11:42:13Z</time>
      </trkpt>
      <trkpt lat="55.168115990236402" lon="-6.04209297336638">
        <ele>120.3</ele>
        <time>2026-07-07T11:42:15Z</time>
      </trkpt>
      <trkpt lat="55.168122025206685" lon="-6.041958024725318">
        <ele>121.73999999999999</ele>
        <time>2026-07-07T11:42:16Z</time>
      </trkpt>
      <trkpt lat="55.168101992458105" lon="-6.041818968951702">
        <ele>122.70999999999999</ele>
        <time>2026-07-07T11:42:17Z</time>
      </trkpt>
      <trkpt lat="55.168080031871796" lon="-6.041669016703963">
        <ele>123.19</ele>
        <time>2026-07-07T11:42:18Z</time>
      </trkpt>
      <trkpt lat="55.168056981638074" lon="-6.04151202365756">
        <ele>123.67</ele>
        <time>2026-07-07T11:42:19Z</time>
      </trkpt>
      <trkpt lat="55.167994033545256" lon="-6.041045989841223">
        <ele>124.63</ele>
        <time>2026-07-07T11:42:22Z</time>
      </trkpt>
      <trkpt lat="55.167985986918211" lon="-6.040904000401497">
        <ele>124.63</ele>
        <time>2026-07-07T11:42:23Z</time>
      </trkpt>
      <trkpt lat="55.167976012453437" lon="-6.040721023455262">
        <ele>125.11</ele>
        <time>2026-07-07T11:42:24Z</time>
      </trkpt>
      <trkpt lat="55.167997973039746" lon="-6.040617004036903">
        <ele>126.06999999999999</ele>
        <time>2026-07-07T11:42:25Z</time>
      </trkpt>
      <trkpt lat="55.168024962767959" lon="-6.040490018203855">
        <ele>126.55</ele>
        <time>2026-07-07T11:42:26Z</time>
      </trkpt>
      <trkpt lat="55.168052036315203" lon="-6.040362026542425">
        <ele>127.98999999999999</ele>
        <time>2026-07-07T11:42:27Z</time>
      </trkpt>
      <trkpt lat="55.168044995516539" lon="-6.040220037102699">
        <ele>129.43000000000001</ele>
        <time>2026-07-07T11:42:28Z</time>
      </trkpt>
      <trkpt lat="55.168018005788326" lon="-6.040073018521071">
        <ele>130.88</ele>
        <time>2026-07-07T11:42:29Z</time>
      </trkpt>
      <trkpt lat="55.167989004403353" lon="-6.039917031303048">
        <ele>131.84</ele>
        <time>2026-07-07T11:42:30Z</time>
      </trkpt>
      <trkpt lat="55.167958997189999" lon="-6.039756014943123">
        <ele>132.80000000000001</ele>
        <time>2026-07-07T11:42:31Z</time>
      </trkpt>
      <trkpt lat="55.167588014155626" lon="-6.037789033725858">
        <ele>145.78</ele>
        <time>2026-07-07T11:42:43Z</time>
      </trkpt>
      <trkpt lat="55.167517019435763" lon="-6.037546964362264">
        <ele>147.22</ele>
        <time>2026-07-07T11:42:45Z</time>
      </trkpt>
      <trkpt lat="55.167477037757635" lon="-6.037411009892821">
        <ele>147.69999999999999</ele>
        <time>2026-07-07T11:42:46Z</time>
      </trkpt>
      <trkpt lat="55.16718802973628" lon="-6.036542980000377">
        <ele>148.66</ele>
        <time>2026-07-07T11:42:52Z</time>
      </trkpt>
      <trkpt lat="55.167117035016418" lon="-6.036405013874173">
        <ele>148.66</ele>
        <time>2026-07-07T11:42:53Z</time>
      </trkpt>
      <trkpt lat="55.167042016983032" lon="-6.036286996677518">
        <ele>148.66</ele>
        <time>2026-07-07T11:42:54Z</time>
      </trkpt>
      <trkpt lat="55.166239030659199" lon="-6.035652989521623">
        <ele>146.74000000000001</ele>
        <time>2026-07-07T11:43:03Z</time>
      </trkpt>
      <trkpt lat="55.165534028783441" lon="-6.034915968775749">
        <ele>140.49000000000001</ele>
        <time>2026-07-07T11:43:11Z</time>
      </trkpt>
      <trkpt lat="55.164151014760137" lon="-6.033623982220888">
        <ele>129.91999999999999</ele>
        <time>2026-07-07T11:43:24Z</time>
      </trkpt>
      <trkpt lat="55.16338599845767" lon="-6.032929038628936">
        <ele>125.59</ele>
        <time>2026-07-07T11:43:31Z</time>
      </trkpt>
      <trkpt lat="55.163287008181214" lon="-6.032849997282028">
        <ele>125.59</ele>
        <time>2026-07-07T11:43:32Z</time>
      </trkpt>
      <trkpt lat="55.16218202188611" lon="-6.03223099373281">
        <ele>119.34</ele>
        <time>2026-07-07T11:43:41Z</time>
      </trkpt>
      <trkpt lat="55.161439971998334" lon="-6.03169497102499">
        <ele>115.98</ele>
        <time>2026-07-07T11:43:48Z</time>
      </trkpt>
      <trkpt lat="55.161353973671794" lon="-6.031569996848702">
        <ele>115.5</ele>
        <time>2026-07-07T11:43:49Z</time>
      </trkpt>
      <trkpt lat="55.161273004487157" lon="-6.031446028500795">
        <ele>114.53</ele>
        <time>2026-07-07T11:43:50Z</time>
      </trkpt>
      <trkpt lat="55.1611930411309" lon="-6.031324993818998">
        <ele>114.05</ele>
        <time>2026-07-07T11:43:51Z</time>
      </trkpt>
      <trkpt lat="55.161112993955612" lon="-6.031203959137201">
        <ele>114.05</ele>
        <time>2026-07-07T11:43:52Z</time>
      </trkpt>
      <trkpt lat="55.160402040928602" lon="-6.030544973909855">
        <ele>115.5</ele>
        <time>2026-07-07T11:44:01Z</time>
      </trkpt>
      <trkpt lat="55.160382008180022" lon="-6.030531981959939">
        <ele>114.53</ele>
        <time>2026-07-07T11:44:10Z</time>
      </trkpt>
      <trkpt lat="55.160382008180022" lon="-6.030531981959939">
        <ele>114.05</ele>
        <time>2026-07-07T11:45:10Z</time>
      </trkpt>
      <trkpt lat="55.160230966284871" lon="-6.030443971976638">
        <ele>112.61</ele>
        <time>2026-07-07T11:45:15Z</time>
      </trkpt>
      <trkpt lat="55.159266963601112" lon="-6.030152030289173">
        <ele>110.20999999999999</ele>
        <time>2026-07-07T11:45:23Z</time>
      </trkpt>
      <trkpt lat="55.157730979844928" lon="-6.029804013669491">
        <ele>114.05</ele>
        <time>2026-07-07T11:45:36Z</time>
      </trkpt>
      <trkpt lat="55.1569829788059" lon="-6.029612990096211">
        <ele>113.09</ele>
        <time>2026-07-07T11:45:48Z</time>
      </trkpt>
      <trkpt lat="55.15691801905632" lon="-6.029595974832773">
        <ele>112.13</ele>
        <time>2026-07-07T11:45:57Z</time>
      </trkpt>
      <trkpt lat="55.156504036858678" lon="-6.029490027576685">
        <ele>110.69</ele>
        <time>2026-07-07T11:46:03Z</time>
      </trkpt>
      <trkpt lat="55.155830970034003" lon="-6.029563033953309">
        <ele>108.77</ele>
        <time>2026-07-07T11:46:09Z</time>
      </trkpt>
      <trkpt lat="55.155506003648043" lon="-6.029460020363331">
        <ele>109.25</ele>
        <time>2026-07-07T11:46:12Z</time>
      </trkpt>
      <trkpt lat="55.154851963743567" lon="-6.029498996213079">
        <ele>112.61</ele>
        <time>2026-07-07T11:46:18Z</time>
      </trkpt>
      <trkpt lat="55.153816966339946" lon="-6.029879031702876">
        <ele>115.98</ele>
        <time>2026-07-07T11:46:28Z</time>
      </trkpt>
      <trkpt lat="55.152716003358364" lon="-6.030034013092518">
        <ele>123.19</ele>
        <time>2026-07-07T11:46:38Z</time>
      </trkpt>
      <trkpt lat="55.152617013081908" lon="-6.030077012255788">
        <ele>124.63</ele>
        <time>2026-07-07T11:46:39Z</time>
      </trkpt>
      <trkpt lat="55.152518022805452" lon="-6.030120011419058">
        <ele>125.59</ele>
        <time>2026-07-07T11:46:40Z</time>
      </trkpt>
      <trkpt lat="55.152080990374088" lon="-6.03029603138566">
        <ele>127.51000000000001</ele>
        <time>2026-07-07T11:46:44Z</time>
      </trkpt>
      <trkpt lat="55.151970013976097" lon="-6.030305000022054">
        <ele>128.47</ele>
        <time>2026-07-07T11:46:45Z</time>
      </trkpt>
      <trkpt lat="55.151198040693998" lon="-6.030235011130571">
        <ele>135.19999999999999</ele>
        <time>2026-07-07T11:46:53Z</time>
      </trkpt>
      <trkpt lat="55.151105001568794" lon="-6.030223025009036">
        <ele>135.68000000000001</ele>
        <time>2026-07-07T11:46:54Z</time>
      </trkpt>
      <trkpt lat="55.150455990806222" lon="-6.03008103556931">
        <ele>138.09</ele>
        <time>2026-07-07T11:47:03Z</time>
      </trkpt>
      <trkpt lat="55.149707989767194" lon="-6.029847012832761">
        <ele>138.09</ele>
        <time>2026-07-07T11:47:12Z</time>
      </trkpt>
      <trkpt lat="55.148764019832015" lon="-6.029755985364318">
        <ele>132.80000000000001</ele>
        <time>2026-07-07T11:47:20Z</time>
      </trkpt>
      <trkpt lat="55.147703038528562" lon="-6.029794039204717">
        <ele>137.13</ele>
        <time>2026-07-07T11:47:30Z</time>
      </trkpt>
      <trkpt lat="55.147261982783675" lon="-6.029919013381004">
        <ele>134.24000000000001</ele>
        <time>2026-07-07T11:47:34Z</time>
      </trkpt>
      <trkpt lat="55.147138014435768" lon="-6.029993025586009">
        <ele>133.28</ele>
        <time>2026-07-07T11:47:35Z</time>
      </trkpt>
      <trkpt lat="55.146666029468179" lon="-6.030409019440413">
        <ele>128.47</ele>
        <time>2026-07-07T11:47:40Z</time>
      </trkpt>
      <trkpt lat="55.146016012877226" lon="-6.030547991394997">
        <ele>131.36000000000001</ele>
        <time>2026-07-07T11:47:47Z</time>
      </trkpt>
      <trkpt lat="55.145627008751035" lon="-6.030795006081462">
        <ele>130.40000000000001</ele>
        <time>2026-07-07T11:47:52Z</time>
      </trkpt>
      <trkpt lat="55.145469009876251" lon="-6.030967002734542">
        <ele>129.91999999999999</ele>
        <time>2026-07-07T11:47:53Z</time>
      </trkpt>
      <trkpt lat="55.14527496881783" lon="-6.03122198022902">
        <ele>128.47</ele>
        <time>2026-07-07T11:47:56Z</time>
      </trkpt>
      <trkpt lat="55.145201962441206" lon="-6.031283000484109">
        <ele>127.51000000000001</ele>
        <time>2026-07-07T11:47:57Z</time>
      </trkpt>
      <trkpt lat="55.144955031573772" lon="-6.031434964388609">
        <ele>125.11</ele>
        <time>2026-07-07T11:48:00Z</time>
      </trkpt>
      <trkpt lat="55.144891999661922" lon="-6.031549964100123">
        <ele>124.63</ele>
        <time>2026-07-07T11:48:01Z</time>
      </trkpt>
      <trkpt lat="55.144853023812175" lon="-6.031676027923822">
        <ele>124.15000000000001</ele>
        <time>2026-07-07T11:48:02Z</time>
      </trkpt>
      <trkpt lat="55.14482100494206" lon="-6.031798990443349">
        <ele>124.63</ele>
        <time>2026-07-07T11:48:03Z</time>
      </trkpt>
      <trkpt lat="55.144811030477285" lon="-6.031938968226314">
        <ele>125.11</ele>
        <time>2026-07-07T11:48:04Z</time>
      </trkpt>
      <trkpt lat="55.14480197802186" lon="-6.032052040100098">
        <ele>125.11</ele>
        <time>2026-07-07T11:48:05Z</time>
      </trkpt>
      <trkpt lat="55.144831985235214" lon="-6.03223099373281">
        <ele>125.11</ele>
        <time>2026-07-07T11:48:06Z</time>
      </trkpt>
      <trkpt lat="55.144859980791807" lon="-6.032389998435974">
        <ele>125.59</ele>
        <time>2026-07-07T11:48:07Z</time>
      </trkpt>
      <trkpt lat="55.144888982176781" lon="-6.032556965947151">
        <ele>125.59</ele>
        <time>2026-07-07T11:48:08Z</time>
      </trkpt>
      <trkpt lat="55.145192993804812" lon="-6.034339964389801">
        <ele>126.06999999999999</ele>
        <time>2026-07-07T11:48:19Z</time>
      </trkpt>
      <trkpt lat="55.145207997411489" lon="-6.034509027376771">
        <ele>125.59</ele>
        <time>2026-07-07T11:48:21Z</time>
      </trkpt>
      <trkpt lat="55.145470015704632" lon="-6.036801980808377">
        <ele>115.5</ele>
        <time>2026-07-07T11:48:32Z</time>
      </trkpt>
      <trkpt lat="55.145642012357712" lon="-6.037527015432715">
        <ele>107.81</ele>
        <time>2026-07-07T11:48:37Z</time>
      </trkpt>
      <trkpt lat="55.145661039277911" lon="-6.03760396130383">
        <ele>106.36</ele>
        <time>2026-07-07T11:48:38Z</time>
      </trkpt>
      <trkpt lat="55.145675037056208" lon="-6.037661964073777">
        <ele>104.44</ele>
        <time>2026-07-07T11:48:39Z</time>
      </trkpt>
      <trkpt lat="55.145685011520982" lon="-6.037707980722189">
        <ele>103</ele>
        <time>2026-07-07T11:48:40Z</time>
      </trkpt>
      <trkpt lat="55.145690040662885" lon="-6.037801019847393">
        <ele>101.56</ele>
        <time>2026-07-07T11:48:41Z</time>
      </trkpt>
      <trkpt lat="55.145660033449531" lon="-6.037846030667424">
        <ele>99.629999999999995</ele>
        <time>2026-07-07T11:48:42Z</time>
      </trkpt>
      <trkpt lat="55.145613010972738" lon="-6.037909984588623">
        <ele>98.189999999999998</ele>
        <time>2026-07-07T11:48:43Z</time>
      </trkpt>
      <trkpt lat="55.145572023466229" lon="-6.037907972931862">
        <ele>96.75</ele>
        <time>2026-07-07T11:48:44Z</time>
      </trkpt>
      <trkpt lat="55.145523995161057" lon="-6.037905961275101">
        <ele>95.310000000000002</ele>
        <time>2026-07-07T11:48:45Z</time>
      </trkpt>
      <trkpt lat="55.145460963249207" lon="-6.037904033437371">
        <ele>94.349999999999994</ele>
        <time>2026-07-07T11:48:46Z</time>
      </trkpt>
      <trkpt lat="55.145388040691614" lon="-6.03790101595223">
        <ele>92.420000000000002</ele>
        <time>2026-07-07T11:48:47Z</time>
      </trkpt>
      <trkpt lat="55.145301958546042" lon="-6.037896992638707">
        <ele>90.5</ele>
        <time>2026-07-07T11:48:48Z</time>
      </trkpt>
      <trkpt lat="55.144439963623881" lon="-6.037862962111831">
        <ele>73.200000000000003</ele>
        <time>2026-07-07T11:48:57Z</time>
      </trkpt>
      <trkpt lat="55.144180962815881" lon="-6.037851981818676">
        <ele>71.760000000000005</ele>
        <time>2026-07-07T11:48:59Z</time>
      </trkpt>
      <trkpt lat="55.144104016944766" lon="-6.037848964333534">
        <ele>70.790000000000006</ele>
        <time>2026-07-07T11:49:00Z</time>
      </trkpt>
      <trkpt lat="55.144030004739761" lon="-6.037846030667424">
        <ele>69.829999999999998</ele>
        <time>2026-07-07T11:49:01Z</time>
      </trkpt>
      <trkpt lat="55.143956998363137" lon="-6.037911996245384">
        <ele>68.870000000000005</ele>
        <time>2026-07-07T11:49:02Z</time>
      </trkpt>
      <trkpt lat="55.143892960622907" lon="-6.037971004843712">
        <ele>68.390000000000001</ele>
        <time>2026-07-07T11:49:03Z</time>
      </trkpt>
      <trkpt lat="55.143772009760141" lon="-6.038081981241703">
        <ele>68.390000000000001</ele>
        <time>2026-07-07T11:49:06Z</time>
      </trkpt>
      <trkpt lat="55.143614010885358" lon="-6.038054991513491">
        <ele>68.390000000000001</ele>
        <time>2026-07-07T11:49:07Z</time>
      </trkpt>
      <trkpt lat="55.14353396371007" lon="-6.037994977086783">
        <ele>68.390000000000001</ele>
        <time>2026-07-07T11:49:08Z</time>
      </trkpt>
      <trkpt lat="55.143446959555149" lon="-6.037929011508822">
        <ele>68.390000000000001</ele>
        <time>2026-07-07T11:49:09Z</time>
      </trkpt>
      <trkpt lat="55.143356015905738" lon="-6.037864973768592">
        <ele>68.390000000000001</ele>
        <time>2026-07-07T11:49:10Z</time>
      </trkpt>
      <trkpt lat="55.143251996487379" lon="-6.037835972383618">
        <ele>67.909999999999997</ele>
        <time>2026-07-07T11:49:11Z</time>
      </trkpt>
      <trkpt lat="55.14314697124064" lon="-6.037805965170264">
        <ele>67.909999999999997</ele>
        <time>2026-07-07T11:49:12Z</time>
      </trkpt>
      <trkpt lat="55.142750004306436" lon="-6.037694988772273">
        <ele>69.829999999999998</ele>
        <time>2026-07-07T11:49:16Z</time>
      </trkpt>
      <trkpt lat="55.142676997929811" lon="-6.037674034014344">
        <ele>70.790000000000006</ele>
        <time>2026-07-07T11:49:17Z</time>
      </trkpt>
      <trkpt lat="55.142593011260033" lon="-6.037589963525534">
        <ele>72.239999999999995</ele>
        <time>2026-07-07T11:49:18Z</time>
      </trkpt>
      <trkpt lat="55.141605036333203" lon="-6.036600982770324">
        <ele>81.370000000000005</ele>
        <time>2026-07-07T11:49:29Z</time>
      </trkpt>
      <trkpt lat="55.141477966681123" lon="-6.036541974171996">
        <ele>81.849999999999994</ele>
        <time>2026-07-07T11:49:30Z</time>
      </trkpt>
      <trkpt lat="55.141357015818357" lon="-6.03648598305881">
        <ele>82.329999999999998</ele>
        <time>2026-07-07T11:49:31Z</time>
      </trkpt>
      <trkpt lat="55.141232963651419" lon="-6.036448013037443">
        <ele>82.810000000000002</ele>
        <time>2026-07-07T11:49:32Z</time>
      </trkpt>
      <trkpt lat="55.141111006960273" lon="-6.036440972238779">
        <ele>82.810000000000002</ele>
        <time>2026-07-07T11:49:33Z</time>
      </trkpt>
      <trkpt lat="55.140995001420379" lon="-6.036434015259147">
        <ele>83.290000000000006</ele>
        <time>2026-07-07T11:49:34Z</time>
      </trkpt>
      <trkpt lat="55.140885030850768" lon="-6.036452036350966">
        <ele>83.290000000000006</ele>
        <time>2026-07-07T11:49:35Z</time>
      </trkpt>
      <trkpt lat="55.14078201726079" lon="-6.036520013585687">
        <ele>83.769999999999996</ele>
        <time>2026-07-07T11:49:36Z</time>
      </trkpt>
      <trkpt lat="55.140683026984334" lon="-6.036585979163647">
        <ele>84.25</ele>
        <time>2026-07-07T11:49:37Z</time>
      </trkpt>
      <trkpt lat="55.140594011172652" lon="-6.03667700663209">
        <ele>84.25</ele>
        <time>2026-07-07T11:49:38Z</time>
      </trkpt>
      <trkpt lat="55.140506001189351" lon="-6.036777002736926">
        <ele>84.25</ele>
        <time>2026-07-07T11:49:39Z</time>
      </trkpt>
      <trkpt lat="55.140414973720908" lon="-6.036882027983666">
        <ele>84.25</ele>
        <time>2026-07-07T11:49:40Z</time>
      </trkpt>
      <trkpt lat="55.140024963766336" lon="-6.037301039323211">
        <ele>83.290000000000006</ele>
        <time>2026-07-07T11:49:45Z</time>
      </trkpt>
      <trkpt lat="55.138696013018489" lon="-6.038090027868748">
        <ele>80.890000000000001</ele>
        <time>2026-07-07T11:49:55Z</time>
      </trkpt>
      <trkpt lat="55.138592999428511" lon="-6.038148030638695">
        <ele>81.370000000000005</ele>
        <time>2026-07-07T11:49:56Z</time>
      </trkpt>
      <trkpt lat="55.138495014980435" lon="-6.038234028965235">
        <ele>81.849999999999994</ele>
        <time>2026-07-07T11:49:57Z</time>
      </trkpt>
      <trkpt lat="55.137981958687305" lon="-6.038687992841005">
        <ele>84.25</ele>
        <time>2026-07-07T11:50:03Z</time>
      </trkpt>
      <trkpt lat="55.137896966189146" lon="-6.038713976740837">
        <ele>83.769999999999996</ele>
        <time>2026-07-07T11:50:04Z</time>
      </trkpt>
      <trkpt lat="55.137681970372796" lon="-6.038780026137829">
        <ele>80.890000000000001</ele>
        <time>2026-07-07T11:50:10Z</time>
      </trkpt>
      <trkpt lat="55.137651963159442" lon="-6.038788994774222">
        <ele>79.930000000000007</ele>
        <time>2026-07-07T11:50:23Z</time>
      </trkpt>
      <trkpt lat="55.137598989531398" lon="-6.038806010037661">
        <ele>78.969999999999999</ele>
        <time>2026-07-07T11:51:13Z</time>
      </trkpt>
      <trkpt lat="55.137267988175154" lon="-6.038908017799258">
        <ele>74.640000000000001</ele>
        <time>2026-07-07T11:51:18Z</time>
      </trkpt>
      <trkpt lat="55.1364850345999" lon="-6.039374973624945">
        <ele>62.140000000000001</ele>
        <time>2026-07-07T11:51:26Z</time>
      </trkpt>
      <trkpt lat="55.13633499853313" lon="-6.039471030235291">
        <ele>57.82</ele>
        <time>2026-07-07T11:51:29Z</time>
      </trkpt>
      <trkpt lat="55.136289987713099" lon="-6.039529033005238">
        <ele>56.859999999999999</ele>
        <time>2026-07-07T11:51:30Z</time>
      </trkpt>
      <trkpt lat="55.136235002428293" lon="-6.039610002189875">
        <ele>55.409999999999997</ele>
        <time>2026-07-07T11:51:31Z</time>
      </trkpt>
      <trkpt lat="55.136174988001585" lon="-6.039699018001556">
        <ele>54.450000000000003</ele>
        <time>2026-07-07T11:51:32Z</time>
      </trkpt>
      <trkpt lat="55.136114973574877" lon="-6.039786022156477">
        <ele>53.969999999999999</ele>
        <time>2026-07-07T11:51:33Z</time>
      </trkpt>
      <trkpt lat="55.136054959148169" lon="-6.039874032139778">
        <ele>53.009999999999998</ele>
        <time>2026-07-07T11:51:34Z</time>
      </trkpt>
      <trkpt lat="55.135984970256686" lon="-6.039956007152796">
        <ele>51.57</ele>
        <time>2026-07-07T11:51:35Z</time>
      </trkpt>
      <trkpt lat="55.135897966101766" lon="-6.039992971345782">
        <ele>50.130000000000003</ele>
        <time>2026-07-07T11:51:36Z</time>
      </trkpt>
      <trkpt lat="55.13579998165369" lon="-6.040033958852291">
        <ele>48.200000000000003</ele>
        <time>2026-07-07T11:51:37Z</time>
      </trkpt>
      <trkpt lat="55.13461603783071" lon="-6.040641982108355">
        <ele>29.460000000000001</ele>
        <time>2026-07-07T11:51:49Z</time>
      </trkpt>
      <trkpt lat="55.133437039330602" lon="-6.041476987302303">
        <ele>17.440000000000001</ele>
        <time>2026-07-07T11:52:00Z</time>
      </trkpt>
      <trkpt lat="55.133143002167344" lon="-6.041854005306959">
        <ele>14.56</ele>
        <time>2026-07-07T11:52:03Z</time>
      </trkpt>
      <trkpt lat="55.133074019104242" lon="-6.042019966989756">
        <ele>13.6</ele>
        <time>2026-07-07T11:52:04Z</time>
      </trkpt>
      <trkpt lat="55.133007969707251" lon="-6.042191041633487">
        <ele>12.630000000000001</ele>
        <time>2026-07-07T11:52:05Z</time>
      </trkpt>
      <trkpt lat="55.132233984768391" lon="-6.043864991515875">
        <ele>5.91</ele>
        <time>2026-07-07T11:52:15Z</time>
      </trkpt>
      <trkpt lat="55.131781026721001" lon="-6.044699996709824">
        <ele>5.42</ele>
        <time>2026-07-07T11:52:21Z</time>
      </trkpt>
      <trkpt lat="55.131691005080938" lon="-6.04486201889813">
        <ele>5.42</ele>
        <time>2026-07-07T11:52:22Z</time>
      </trkpt>
      <trkpt lat="55.131377018988132" lon="-6.045640027150512">
        <ele>5.42</ele>
        <time>2026-07-07T11:52:28Z</time>
      </trkpt>
      <trkpt lat="55.131334019824862" lon="-6.045856028795242">
        <ele>5.42</ele>
        <time>2026-07-07T11:52:30Z</time>
      </trkpt>
      <trkpt lat="55.131288003176451" lon="-6.045914031565189">
        <ele>5.42</ele>
        <time>2026-07-07T11:52:31Z</time>
      </trkpt>
      <trkpt lat="55.131228994578123" lon="-6.045947978273034">
        <ele>5.42</ele>
        <time>2026-07-07T11:52:32Z</time>
      </trkpt>
      <trkpt lat="55.131164034828544" lon="-6.045985026285052">
        <ele>5.91</ele>
        <time>2026-07-07T11:52:33Z</time>
      </trkpt>
      <trkpt lat="55.131085999310017" lon="-6.046029031276703">
        <ele>5.91</ele>
        <time>2026-07-07T11:52:35Z</time>
      </trkpt>
      <trkpt lat="55.130935963243246" lon="-6.046203961595893">
        <ele>6.39</ele>
        <time>2026-07-07T11:52:36Z</time>
      </trkpt>
      <trkpt lat="55.130872009322047" lon="-6.046304041519761">
        <ele>6.87</ele>
        <time>2026-07-07T11:52:37Z</time>
      </trkpt>
      <trkpt lat="55.130817024037242" lon="-6.046401020139456">
        <ele>6.87</ele>
        <time>2026-07-07T11:52:38Z</time>
      </trkpt>
      <trkpt lat="55.130779976025224" lon="-6.046490035951138">
        <ele>6.87</ele>
        <time>2026-07-07T11:52:39Z</time>
      </trkpt>
      <trkpt lat="55.13074703514576" lon="-6.046566981822252">
        <ele>6.39</ele>
        <time>2026-07-07T11:52:40Z</time>
      </trkpt>
      <trkpt lat="55.130719961598516" lon="-6.046632025390863">
        <ele>6.39</ele>
        <time>2026-07-07T11:52:41Z</time>
      </trkpt>
      <trkpt lat="55.130696995183825" lon="-6.046686004847288">
        <ele>6.39</ele>
        <time>2026-07-07T11:52:42Z</time>
      </trkpt>
      <trkpt lat="55.130553999915719" lon="-6.046686004847288">
        <ele>6.87</ele>
        <time>2026-07-07T11:52:44Z</time>
      </trkpt>
      <trkpt lat="55.130553999915719" lon="-6.046686004847288">
        <ele>6.87</ele>
        <time>2026-07-07T11:52:45Z</time>
      </trkpt>
      <trkpt lat="55.130425002425909" lon="-6.046449970453978">
        <ele>6.39</ele>
        <time>2026-07-07T11:52:48Z</time>
      </trkpt>
      <trkpt lat="55.129724023863673" lon="-6.045710016041994">
        <ele>5.91</ele>
        <time>2026-07-07T11:52:56Z</time>
      </trkpt>
      <trkpt lat="55.12961002998054" lon="-6.045463001355529">
        <ele>4.94</ele>
        <time>2026-07-07T11:52:57Z</time>
      </trkpt>
      <trkpt lat="55.129613969475031" lon="-6.045311037451029">
        <ele>3.98</ele>
        <time>2026-07-07T11:52:58Z</time>
      </trkpt>
      <trkpt lat="55.129617992788553" lon="-6.045157983899117">
        <ele>3.5</ele>
        <time>2026-07-07T11:52:59Z</time>
      </trkpt>
      <trkpt lat="55.129663003608584" lon="-6.044410988688469">
        <ele>2.54</ele>
        <time>2026-07-07T11:53:03Z</time>
      </trkpt>
      <trkpt lat="55.129665015265346" lon="-6.044227005913854">
        <ele>2.54</ele>
        <time>2026-07-07T11:53:04Z</time>
      </trkpt>
      <trkpt lat="55.129643976688385" lon="-6.04404897429049">
        <ele>3.02</ele>
        <time>2026-07-07T11:53:05Z</time>
      </trkpt>
      <trkpt lat="55.12961296364665" lon="-6.043874965980649">
        <ele>3.02</ele>
        <time>2026-07-07T11:53:06Z</time>
      </trkpt>
      <trkpt lat="55.12956602498889" lon="-6.043712021782994">
        <ele>3.02</ele>
        <time>2026-07-07T11:53:07Z</time>
      </trkpt>
      <trkpt lat="55.129499975591898" lon="-6.043571960180998">
        <ele>2.54</ele>
        <time>2026-07-07T11:53:08Z</time>
      </trkpt>
      <trkpt lat="55.129423029720783" lon="-6.043456038460136">
        <ele>2.54</ele>
        <time>2026-07-07T11:53:09Z</time>
      </trkpt>
      <trkpt lat="55.129346000030637" lon="-6.043340032920241">
        <ele>2.54</ele>
        <time>2026-07-07T11:53:10Z</time>
      </trkpt>
      <trkpt lat="55.12924499809742" lon="-6.04327398352325">
        <ele>2.54</ele>
        <time>2026-07-07T11:53:11Z</time>
      </trkpt>
      <trkpt lat="55.129143996164203" lon="-6.043224027380347">
        <ele>2.54</ele>
        <time>2026-07-07T11:53:13Z</time>
      </trkpt>
      <trkpt lat="55.127789983525872" lon="-6.043111039325595">
        <ele>3.5</ele>
        <time>2026-07-07T11:53:25Z</time>
      </trkpt>
      <trkpt lat="55.127493012696505" lon="-6.043031997978687">
        <ele>3.98</ele>
        <time>2026-07-07T11:53:28Z</time>
      </trkpt>
      <trkpt lat="55.126296998932958" lon="-6.042459011077881">
        <ele>4.46</ele>
        <time>2026-07-07T11:53:40Z</time>
      </trkpt>
      <trkpt lat="55.126155009493232" lon="-6.042459011077881">
        <ele>3.98</ele>
        <time>2026-07-07T11:53:41Z</time>
      </trkpt>
      <trkpt lat="55.126119973137975" lon="-6.042541991919279">
        <ele>3.98</ele>
        <time>2026-07-07T11:53:42Z</time>
      </trkpt>
      <trkpt lat="55.126085020601749" lon="-6.042624972760677">
        <ele>3.5</ele>
        <time>2026-07-07T11:53:43Z</time>
      </trkpt>
      <trkpt lat="55.126044033095241" lon="-6.042723041027784">
        <ele>3.5</ele>
        <time>2026-07-07T11:53:44Z</time>
      </trkpt>
      <trkpt lat="55.125998016446829" lon="-6.042829994112253">
        <ele>3.5</ele>
        <time>2026-07-07T11:53:45Z</time>
      </trkpt>
      <trkpt lat="55.125956023111939" lon="-6.042928984388709">
        <ele>3.5</ele>
        <time>2026-07-07T11:53:46Z</time>
      </trkpt>
      <trkpt lat="55.125906988978386" lon="-6.043025040999055">
        <ele>3.5</ele>
        <time>2026-07-07T11:53:47Z</time>
      </trkpt>
      <trkpt lat="55.125862983986735" lon="-6.043053958564997">
        <ele>3.5</ele>
        <time>2026-07-07T11:53:48Z</time>
      </trkpt>
      <trkpt lat="55.125801963731647" lon="-6.043006014078856">
        <ele>3.98</ele>
        <time>2026-07-07T11:53:50Z</time>
      </trkpt>
      <trkpt lat="55.125754019245505" lon="-6.042955974116921">
        <ele>4.46</ele>
        <time>2026-07-07T11:53:51Z</time>
      </trkpt>
      <trkpt lat="55.125235011801124" lon="-6.042422968894243">
        <ele>4.46</ele>
        <time>2026-07-07T11:53:57Z</time>
      </trkpt>
      <trkpt lat="55.124965030699968" lon="-6.042172014713287">
        <ele>4.46</ele>
        <time>2026-07-07T11:54:00Z</time>
      </trkpt>
      <trkpt lat="55.124877020716667" lon="-6.042089033871889">
        <ele>4.94</ele>
        <time>2026-07-07T11:54:02Z</time>
      </trkpt>
      <trkpt lat="55.124795967712998" lon="-6.042014015838504">
        <ele>4.94</ele>
        <time>2026-07-07T11:54:03Z</time>
      </trkpt>
      <trkpt lat="55.124721033498645" lon="-6.041944026947022">
        <ele>4.94</ele>
        <time>2026-07-07T11:54:04Z</time>
      </trkpt>
      <trkpt lat="55.12464702129364" lon="-6.041919970884919">
        <ele>3.98</ele>
        <time>2026-07-07T11:54:05Z</time>
      </trkpt>
      <trkpt lat="55.124495979398489" lon="-6.042019966989756">
        <ele>3.5</ele>
        <time>2026-07-07T11:54:07Z</time>
      </trkpt>
      <trkpt lat="55.124161038547754" lon="-6.042349962517619">
        <ele>5.42</ele>
        <time>2026-07-07T11:54:11Z</time>
      </trkpt>
      <trkpt lat="55.124124996364117" lon="-6.042386004701257">
        <ele>5.91</ele>
        <time>2026-07-07T11:54:12Z</time>
      </trkpt>
      <trkpt lat="55.124101024121046" lon="-6.042409976944327">
        <ele>5.91</ele>
        <time>2026-07-07T11:54:13Z</time>
      </trkpt>
      <trkpt lat="55.124101024121046" lon="-6.042409976944327">
        <ele>6.39</ele>
        <time>2026-07-07T11:54:22Z</time>
      </trkpt>
      <trkpt lat="55.123957023024559" lon="-6.042558001354337">
        <ele>8.310000000000001</ele>
        <time>2026-07-07T11:54:37Z</time>
      </trkpt>
      <trkpt lat="55.123654017224908" lon="-6.042985981330276">
        <ele>10.23</ele>
        <time>2026-07-07T11:54:43Z</time>
      </trkpt>
      <trkpt lat="55.123494006693363" lon="-6.043210029602051">
        <ele>11.19</ele>
        <time>2026-07-07T11:54:44Z</time>
      </trkpt>
      <trkpt lat="55.123300971463323" lon="-6.04374697431922">
        <ele>15.039999999999999</ele>
        <time>2026-07-07T11:54:48Z</time>
      </trkpt>
      <trkpt lat="55.123269958421588" lon="-6.043958030641079">
        <ele>15.52</ele>
        <time>2026-07-07T11:54:49Z</time>
      </trkpt>
      <trkpt lat="55.123242968693376" lon="-6.044141007587314">
        <ele>16.48</ele>
        <time>2026-07-07T11:54:50Z</time>
      </trkpt>
      <trkpt lat="55.123214973136783" lon="-6.04452196508646">
        <ele>17.440000000000001</ele>
        <time>2026-07-07T11:54:52Z</time>
      </trkpt>
      <trkpt lat="55.123214973136783" lon="-6.044736038893461">
        <ele>17.920000000000002</ele>
        <time>2026-07-07T11:54:53Z</time>
      </trkpt>
      <trkpt lat="55.123214973136783" lon="-6.044956985861063">
        <ele>17.920000000000002</ele>
        <time>2026-07-07T11:54:54Z</time>
      </trkpt>
      <trkpt lat="55.123394010588527" lon="-6.047354964539409">
        <ele>16.960000000000001</ele>
        <time>2026-07-07T11:55:05Z</time>
      </trkpt>
      <trkpt lat="55.123411025851965" lon="-6.04752997867763">
        <ele>16.48</ele>
        <time>2026-07-07T11:55:07Z</time>
      </trkpt>
      <trkpt lat="55.123307006433606" lon="-6.049714973196387">
        <ele>16</ele>
        <time>2026-07-07T11:55:16Z</time>
      </trkpt>
      <trkpt lat="55.12290702201426" lon="-6.05152596719563">
        <ele>15.52</ele>
        <time>2026-07-07T11:55:24Z</time>
      </trkpt>
      <trkpt lat="55.122505025938153" lon="-6.053362023085356">
        <ele>15.039999999999999</ele>
        <time>2026-07-07T11:55:34Z</time>
      </trkpt>
      <trkpt lat="55.122336968779564" lon="-6.05425301939249">
        <ele>14.56</ele>
        <time>2026-07-07T11:55:39Z</time>
      </trkpt>
      <trkpt lat="55.122335962951183" lon="-6.054491987451911">
        <ele>14.56</ele>
        <time>2026-07-07T11:55:40Z</time>
      </trkpt>
      <trkpt lat="55.122335962951183" lon="-6.054540015757084">
        <ele>14.56</ele>
        <time>2026-07-07T11:55:41Z</time>
      </trkpt>
      <trkpt lat="55.122335962951183" lon="-6.054540015757084">
        <ele>14.56</ele>
        <time>2026-07-07T11:55:42Z</time>
      </trkpt>
      <trkpt lat="55.122292963787913" lon="-6.054646968841553">
        <ele>14.56</ele>
        <time>2026-07-07T11:55:43Z</time>
      </trkpt>
      <trkpt lat="55.122292963787913" lon="-6.054646968841553">
        <ele>15.039999999999999</ele>
        <time>2026-07-07T11:55:44Z</time>
      </trkpt>
      <trkpt lat="55.122404024004936" lon="-6.054630959406495">
        <ele>15.52</ele>
        <time>2026-07-07T11:55:46Z</time>
      </trkpt>
      <trkpt lat="55.122466972097754" lon="-6.05463900603354">
        <ele>16</ele>
        <time>2026-07-07T11:55:47Z</time>
      </trkpt>
      <trkpt lat="55.12260602787137" lon="-6.054657027125359">
        <ele>16</ele>
        <time>2026-07-07T11:55:48Z</time>
      </trkpt>
      <trkpt lat="55.123378001153469" lon="-6.055107973515987">
        <ele>14.08</ele>
        <time>2026-07-07T11:55:56Z</time>
      </trkpt>
      <trkpt lat="55.124147040769458" lon="-6.055668974295259">
        <ele>15.52</ele>
        <time>2026-07-07T11:56:02Z</time>
      </trkpt>
      <trkpt lat="55.124678034335375" lon="-6.05633600614965">
        <ele>14.56</ele>
        <time>2026-07-07T11:56:07Z</time>
      </trkpt>
      <trkpt lat="55.124764032661915" lon="-6.056459974497557">
        <ele>14.08</ele>
        <time>2026-07-07T11:56:08Z</time>
      </trkpt>
      <trkpt lat="55.124848019331694" lon="-6.056585032492876">
        <ele>13.6</ele>
        <time>2026-07-07T11:56:09Z</time>
      </trkpt>
      <trkpt lat="55.124882971867919" lon="-6.056754011660814">
        <ele>13.119999999999999</ele>
        <time>2026-07-07T11:56:10Z</time>
      </trkpt>
      <trkpt lat="55.124922031536698" lon="-6.056934976950288">
        <ele>12.630000000000001</ele>
        <time>2026-07-07T11:56:11Z</time>
      </trkpt>
      <trkpt lat="55.124963019043207" lon="-6.05713002383709">
        <ele>12.15</ele>
        <time>2026-07-07T11:56:12Z</time>
      </trkpt>
      <trkpt lat="55.125220008194447" lon="-6.058203997090459">
        <ele>9.27</ele>
        <time>2026-07-07T11:56:19Z</time>
      </trkpt>
      <trkpt lat="55.125243980437517" lon="-6.05844296514988">
        <ele>9.27</ele>
        <time>2026-07-07T11:56:22Z</time>
      </trkpt>
      <trkpt lat="55.12520500458777" lon="-6.058467021211982">
        <ele>8.310000000000001</ele>
        <time>2026-07-07T11:56:30Z</time>
      </trkpt>
      <trkpt lat="55.125169968232512" lon="-6.058487975969911">
        <ele>8.310000000000001</ele>
        <time>2026-07-07T11:56:32Z</time>
      </trkpt>
      <trkpt lat="55.125040970742702" lon="-6.058569028973579">
        <ele>7.83</ele>
        <time>2026-07-07T11:56:34Z</time>
      </trkpt>
      <trkpt lat="55.124964024871588" lon="-6.05861596763134">
        <ele>7.83</ele>
        <time>2026-07-07T11:56:35Z</time>
      </trkpt>
      <trkpt lat="55.124795967712998" lon="-6.058758040890098">
        <ele>7.83</ele>
        <time>2026-07-07T11:56:36Z</time>
      </trkpt>
      <trkpt lat="55.124198002740741" lon="-6.060090009123087">
        <ele>8.789999999999999</ele>
        <time>2026-07-07T11:56:44Z</time>
      </trkpt>
      <trkpt lat="55.123965991660953" lon="-6.060739019885659">
        <ele>6.87</ele>
        <time>2026-07-07T11:56:49Z</time>
      </trkpt>
      <trkpt lat="55.123212039470673" lon="-6.06231196783483">
        <ele>6.87</ele>
        <time>2026-07-07T11:56:59Z</time>
      </trkpt>
      <trkpt lat="55.123082958161831" lon="-6.06263198889792">
        <ele>6.39</ele>
        <time>2026-07-07T11:57:01Z</time>
      </trkpt>
      <trkpt lat="55.122878020629287" lon="-6.063141021877527">
        <ele>5.91</ele>
        <time>2026-07-07T11:57:04Z</time>
      </trkpt>
      <trkpt lat="55.122266979888082" lon="-6.064513977617025">
        <ele>6.87</ele>
        <time>2026-07-07T11:57:12Z</time>
      </trkpt>
      <trkpt lat="55.122217023745179" lon="-6.064710030332208">
        <ele>7.35</ele>
        <time>2026-07-07T11:57:13Z</time>
      </trkpt>
      <trkpt lat="55.122166983783245" lon="-6.064907005056739">
        <ele>7.35</ele>
        <time>2026-07-07T11:57:14Z</time>
      </trkpt>
      <trkpt lat="55.121821984648705" lon="-6.066273003816605">
        <ele>9.27</ele>
        <time>2026-07-07T11:57:21Z</time>
      </trkpt>
      <trkpt lat="55.121525013819337" lon="-6.06761603616178">
        <ele>14.08</ele>
        <time>2026-07-07T11:57:30Z</time>
      </trkpt>
      <trkpt lat="55.121174985542893" lon="-6.069231983274221">
        <ele>12.630000000000001</ele>
        <time>2026-07-07T11:57:39Z</time>
      </trkpt>
      <trkpt lat="55.120849013328552" lon="-6.07148302718997">
        <ele>11.67</ele>
        <time>2026-07-07T11:57:50Z</time>
      </trkpt>
      <trkpt lat="55.120853958651423" lon="-6.071678996086121">
        <ele>11.67</ele>
        <time>2026-07-07T11:57:51Z</time>
      </trkpt>
      <trkpt lat="55.120857981964946" lon="-6.071887034922838">
        <ele>12.15</ele>
        <time>2026-07-07T11:57:52Z</time>
      </trkpt>
      <trkpt lat="55.120863011106849" lon="-6.072101024910808">
        <ele>12.15</ele>
        <time>2026-07-07T11:57:53Z</time>
      </trkpt>
      <trkpt lat="55.120868040248752" lon="-6.072319960221648">
        <ele>12.15</ele>
        <time>2026-07-07T11:57:54Z</time>
      </trkpt>
      <trkpt lat="55.120873991400003" lon="-6.072549959644675">
        <ele>12.15</ele>
        <time>2026-07-07T11:57:55Z</time>
      </trkpt>
      <trkpt lat="55.120893018320203" lon="-6.072783982381225">
        <ele>12.15</ele>
        <time>2026-07-07T11:57:56Z</time>
      </trkpt>
      <trkpt lat="55.120962001383305" lon="-6.073615970090032">
        <ele>12.15</ele>
        <time>2026-07-07T11:58:00Z</time>
      </trkpt>
      <trkpt lat="55.120962001383305" lon="-6.073840018361807">
        <ele>12.630000000000001</ele>
        <time>2026-07-07T11:58:01Z</time>
      </trkpt>
      <trkpt lat="55.120962001383305" lon="-6.075298972427845">
        <ele>15.039999999999999</ele>
        <time>2026-07-07T11:58:09Z</time>
      </trkpt>
      <trkpt lat="55.120962001383305" lon="-6.075656963512301">
        <ele>14.56</ele>
        <time>2026-07-07T11:58:10Z</time>
      </trkpt>
      <trkpt lat="55.120962001383305" lon="-6.075834995135665">
        <ele>14.56</ele>
        <time>2026-07-07T11:58:11Z</time>
      </trkpt>
      <trkpt lat="55.120962001383305" lon="-6.076999995857477">
        <ele>13.119999999999999</ele>
        <time>2026-07-07T11:58:17Z</time>
      </trkpt>
      <trkpt lat="55.120979016646743" lon="-6.077201999723911">
        <ele>12.630000000000001</ele>
        <time>2026-07-07T11:58:18Z</time>
      </trkpt>
      <trkpt lat="55.121056968346238" lon="-6.077609024941921">
        <ele>11.67</ele>
        <time>2026-07-07T11:58:20Z</time>
      </trkpt>
      <trkpt lat="55.121140033006668" lon="-6.07803700491786">
        <ele>11.19</ele>
        <time>2026-07-07T11:58:22Z</time>
      </trkpt>
      <trkpt lat="55.121181020513177" lon="-6.078253006562591">
        <ele>11.19</ele>
        <time>2026-07-07T11:58:23Z</time>
      </trkpt>
      <trkpt lat="55.121262995526195" lon="-6.078679980710149">
        <ele>12.15</ele>
        <time>2026-07-07T11:58:25Z</time>
      </trkpt>
      <trkpt lat="55.121272969990969" lon="-6.078882990404964">
        <ele>12.630000000000001</ele>
        <time>2026-07-07T11:58:26Z</time>
      </trkpt>
      <trkpt lat="55.121314041316509" lon="-6.080000968649983">
        <ele>14.08</ele>
        <time>2026-07-07T11:58:32Z</time>
      </trkpt>
      <trkpt lat="55.121344970539212" lon="-6.080194003880024">
        <ele>14.08</ele>
        <time>2026-07-07T11:58:33Z</time>
      </trkpt>
      <trkpt lat="55.12146801687777" lon="-6.080721979960799">
        <ele>15.039999999999999</ele>
        <time>2026-07-07T11:58:35Z</time>
      </trkpt>
      <trkpt lat="55.121515961363912" lon="-6.08087302185595">
        <ele>16</ele>
        <time>2026-07-07T11:58:37Z</time>
      </trkpt>
      <trkpt lat="55.121589973568916" lon="-6.081181978806853">
        <ele>16.48</ele>
        <time>2026-07-07T11:58:38Z</time>
      </trkpt>
      <trkpt lat="55.121728023514152" lon="-6.081822020933032">
        <ele>18.399999999999999</ele>
        <time>2026-07-07T11:58:42Z</time>
      </trkpt>
      <trkpt lat="55.121780997142196" lon="-6.081977002322674">
        <ele>18.399999999999999</ele>
        <time>2026-07-07T11:58:43Z</time>
      </trkpt>
      <trkpt lat="55.121894991025329" lon="-6.082275984808803">
        <ele>18.399999999999999</ele>
        <time>2026-07-07T11:58:45Z</time>
      </trkpt>
      <trkpt lat="55.121924998238683" lon="-6.082428032532334">
        <ele>18.399999999999999</ele>
        <time>2026-07-07T11:58:46Z</time>
      </trkpt>
      <trkpt lat="55.121948970481753" lon="-6.082587037235498">
        <ele>17.920000000000002</ele>
        <time>2026-07-07T11:58:47Z</time>
      </trkpt>
      <trkpt lat="55.121971014887094" lon="-6.082750987261534">
        <ele>18.399999999999999</ele>
        <time>2026-07-07T11:58:48Z</time>
      </trkpt>
      <trkpt lat="55.121971014887094" lon="-6.082932036370039">
        <ele>18.399999999999999</ele>
        <time>2026-07-07T11:58:49Z</time>
      </trkpt>
      <trkpt lat="55.121994987130165" lon="-6.085092974826694">
        <ele>16.48</ele>
        <time>2026-07-07T11:59:00Z</time>
      </trkpt>
      <trkpt lat="55.122013008221984" lon="-6.085239993408322">
        <ele>16</ele>
        <time>2026-07-07T11:59:01Z</time>
      </trkpt>
      <trkpt lat="55.122106969356537" lon="-6.085435962304473">
        <ele>16</ele>
        <time>2026-07-07T11:59:03Z</time>
      </trkpt>
      <trkpt lat="55.122162038460374" lon="-6.085550040006638">
        <ele>16</ele>
        <time>2026-07-07T11:59:04Z</time>
      </trkpt>
      <trkpt lat="55.122226998209953" lon="-6.085682976990938">
        <ele>16.48</ele>
        <time>2026-07-07T11:59:05Z</time>
      </trkpt>
      <trkpt lat="55.122295981273055" lon="-6.085823960602284">
        <ele>16.48</ele>
        <time>2026-07-07T11:59:06Z</time>
      </trkpt>
      <trkpt lat="55.122362030670047" lon="-6.085959998890758">
        <ele>16.960000000000001</ele>
        <time>2026-07-07T11:59:07Z</time>
      </trkpt>
      <trkpt lat="55.122421039268374" lon="-6.086082961410284">
        <ele>16.960000000000001</ele>
        <time>2026-07-07T11:59:08Z</time>
      </trkpt>
      <trkpt lat="55.122463032603264" lon="-6.08626501634717">
        <ele>16.960000000000001</ele>
        <time>2026-07-07T11:59:09Z</time>
      </trkpt>
      <trkpt lat="55.122795039787889" lon="-6.088046003133059">
        <ele>17.920000000000002</ele>
        <time>2026-07-07T11:59:19Z</time>
      </trkpt>
      <trkpt lat="55.122817000374198" lon="-6.088205007836223">
        <ele>18.399999999999999</ele>
        <time>2026-07-07T11:59:20Z</time>
      </trkpt>
      <trkpt lat="55.122827980667353" lon="-6.088379016146064">
        <ele>18.879999999999999</ele>
        <time>2026-07-07T11:59:21Z</time>
      </trkpt>
      <trkpt lat="55.122823035344481" lon="-6.088745975866914">
        <ele>18.399999999999999</ele>
        <time>2026-07-07T11:59:23Z</time>
      </trkpt>
      <trkpt lat="55.122813982889056" lon="-6.089495988562703">
        <ele>17.920000000000002</ele>
        <time>2026-07-07T11:59:27Z</time>
      </trkpt>
      <trkpt lat="55.122809037566185" lon="-6.089907037094235">
        <ele>17.920000000000002</ele>
        <time>2026-07-07T11:59:29Z</time>
      </trkpt>
      <trkpt lat="55.122792022302747" lon="-6.090121027082205">
        <ele>18.399999999999999</ele>
        <time>2026-07-07T11:59:30Z</time>
      </trkpt>
      <trkpt lat="55.122573003172874" lon="-6.091964961960912">
        <ele>20.809999999999999</ele>
        <time>2026-07-07T11:59:39Z</time>
      </trkpt>
      <trkpt lat="55.122480969876051" lon="-6.093368008732796">
        <ele>20.809999999999999</ele>
        <time>2026-07-07T11:59:47Z</time>
      </trkpt>
      <trkpt lat="55.122397989034653" lon="-6.09367998316884">
        <ele>20.32</ele>
        <time>2026-07-07T11:59:48Z</time>
      </trkpt>
      <trkpt lat="55.121947964653373" lon="-6.095228036865592">
        <ele>18.879999999999999</ele>
        <time>2026-07-07T11:59:57Z</time>
      </trkpt>
      <trkpt lat="55.121863977983594" lon="-6.095617040991783">
        <ele>18.879999999999999</ele>
        <time>2026-07-07T12:00:00Z</time>
      </trkpt>
      <trkpt lat="55.121841011568904" lon="-6.095730029046536">
        <ele>18.879999999999999</ele>
        <time>2026-07-07T12:00:01Z</time>
      </trkpt>
      <trkpt lat="55.121831959113479" lon="-6.095879981294274">
        <ele>18.879999999999999</ele>
        <time>2026-07-07T12:00:02Z</time>
      </trkpt>
      <trkpt lat="55.121813016012311" lon="-6.096163960173726">
        <ele>18.399999999999999</ele>
        <time>2026-07-07T12:00:04Z</time>
      </trkpt>
      <trkpt lat="55.121799018234015" lon="-6.096381973475218">
        <ele>18.399999999999999</ele>
        <time>2026-07-07T12:00:05Z</time>
      </trkpt>
      <trkpt lat="55.121851991862059" lon="-6.097194012254477">
        <ele>17.440000000000001</ele>
        <time>2026-07-07T12:00:10Z</time>
      </trkpt>
      <trkpt lat="55.121862972155213" lon="-6.097355028614402">
        <ele>17.440000000000001</ele>
        <time>2026-07-07T12:00:11Z</time>
      </trkpt>
      <trkpt lat="55.121843023225665" lon="-6.097485031932592">
        <ele>17.440000000000001</ele>
        <time>2026-07-07T12:00:12Z</time>
      </trkpt>
      <trkpt lat="55.121816033497453" lon="-6.097645964473486">
        <ele>17.440000000000001</ele>
        <time>2026-07-07T12:00:13Z</time>
      </trkpt>
      <trkpt lat="55.121786026284099" lon="-6.097814021632075">
        <ele>17.920000000000002</ele>
        <time>2026-07-07T12:00:14Z</time>
      </trkpt>
      <trkpt lat="55.121471034362912" lon="-6.099629960954189">
        <ele>19.84</ele>
        <time>2026-07-07T12:00:24Z</time>
      </trkpt>
      <trkpt lat="55.121342036873102" lon="-6.100376034155488">
        <ele>20.809999999999999</ele>
        <time>2026-07-07T12:00:28Z</time>
      </trkpt>
      <trkpt lat="55.121098961681128" lon="-6.101599037647247">
        <ele>23.690000000000001</ele>
        <time>2026-07-07T12:00:35Z</time>
      </trkpt>
      <trkpt lat="55.120710041373968" lon="-6.103542968630791">
        <ele>23.690000000000001</ele>
        <time>2026-07-07T12:00:45Z</time>
      </trkpt>
      <trkpt lat="55.120528992265463" lon="-6.105520008131862">
        <ele>24.170000000000002</ele>
        <time>2026-07-07T12:00:55Z</time>
      </trkpt>
      <trkpt lat="55.120433019474149" lon="-6.107424963265657">
        <ele>28.02</ele>
        <time>2026-07-07T12:01:06Z</time>
      </trkpt>
      <trkpt lat="55.120417010039091" lon="-6.107740961015225">
        <ele>27.050000000000001</ele>
        <time>2026-07-07T12:01:11Z</time>
      </trkpt>
      <trkpt lat="55.120405023917556" lon="-6.107972972095013">
        <ele>26.09</ele>
        <time>2026-07-07T12:01:36Z</time>
      </trkpt>
      <trkpt lat="55.120326988399029" lon="-6.109042000025511">
        <ele>24.170000000000002</ele>
        <time>2026-07-07T12:01:42Z</time>
      </trkpt>
      <trkpt lat="55.120295975357294" lon="-6.10923302359879">
        <ele>24.170000000000002</ele>
        <time>2026-07-07T12:01:43Z</time>
      </trkpt>
      <trkpt lat="55.120262028649449" lon="-6.109440978616476">
        <ele>24.170000000000002</ele>
        <time>2026-07-07T12:01:44Z</time>
      </trkpt>
      <trkpt lat="55.120224980637431" lon="-6.10966301523149">
        <ele>24.170000000000002</ele>
        <time>2026-07-07T12:01:45Z</time>
      </trkpt>
      <trkpt lat="55.120190028101206" lon="-6.109882034361363">
        <ele>24.649999999999999</ele>
        <time>2026-07-07T12:01:46Z</time>
      </trkpt>
      <trkpt lat="55.120154991745949" lon="-6.110094012692571">
        <ele>25.129999999999999</ele>
        <time>2026-07-07T12:01:47Z</time>
      </trkpt>
      <trkpt lat="55.120119033381343" lon="-6.110319988802075">
        <ele>25.129999999999999</ele>
        <time>2026-07-07T12:01:48Z</time>
      </trkpt>
      <trkpt lat="55.120081985369325" lon="-6.11054202541709">
        <ele>25.609999999999999</ele>
        <time>2026-07-07T12:01:49Z</time>
      </trkpt>
      <trkpt lat="55.120061030611396" lon="-6.110762972384691">
        <ele>25.609999999999999</ele>
        <time>2026-07-07T12:01:50Z</time>
      </trkpt>
      <trkpt lat="55.120061030611396" lon="-6.110985008999705">
        <ele>25.129999999999999</ele>
        <time>2026-07-07T12:01:51Z</time>
      </trkpt>
      <trkpt lat="55.120061030611396" lon="-6.111208973452449">
        <ele>25.129999999999999</ele>
        <time>2026-07-07T12:01:52Z</time>
      </trkpt>
      <trkpt lat="55.120061030611396" lon="-6.111441990360618">
        <ele>25.609999999999999</ele>
        <time>2026-07-07T12:01:53Z</time>
      </trkpt>
      <trkpt lat="55.120061030611396" lon="-6.111907018348575">
        <ele>25.609999999999999</ele>
        <time>2026-07-07T12:01:55Z</time>
      </trkpt>
      <trkpt lat="55.120061030611396" lon="-6.112128971144557">
        <ele>25.609999999999999</ele>
        <time>2026-07-07T12:01:56Z</time>
      </trkpt>
      <trkpt lat="55.120061030611396" lon="-6.112352013587952">
        <ele>25.609999999999999</ele>
        <time>2026-07-07T12:01:57Z</time>
      </trkpt>
      <trkpt lat="55.120061030611396" lon="-6.112626018002629">
        <ele>25.609999999999999</ele>
        <time>2026-07-07T12:01:58Z</time>
      </trkpt>
      <trkpt lat="55.1200280059129" lon="-6.112817041575909">
        <ele>25.609999999999999</ele>
        <time>2026-07-07T12:01:59Z</time>
      </trkpt>
      <trkpt lat="55.119874030351639" lon="-6.113707032054663">
        <ele>26.09</ele>
        <time>2026-07-07T12:02:03Z</time>
      </trkpt>
      <trkpt lat="55.119818039238453" lon="-6.11391800455749">
        <ele>26.09</ele>
        <time>2026-07-07T12:02:04Z</time>
      </trkpt>
      <trkpt lat="55.119292996823788" lon="-6.11580703407526">
        <ele>28.02</ele>
        <time>2026-07-07T12:02:13Z</time>
      </trkpt>
      <trkpt lat="55.11925402097404" lon="-6.116014989092946">
        <ele>28.02</ele>
        <time>2026-07-07T12:02:14Z</time>
      </trkpt>
      <trkpt lat="55.119113959372044" lon="-6.116641033440828">
        <ele>28.02</ele>
        <time>2026-07-07T12:02:17Z</time>
      </trkpt>
      <trkpt lat="55.119058974087238" lon="-6.116834990680218">
        <ele>28.5</ele>
        <time>2026-07-07T12:02:18Z</time>
      </trkpt>
      <trkpt lat="55.119007006287575" lon="-6.117019979283214">
        <ele>28.98</ele>
        <time>2026-07-07T12:02:19Z</time>
      </trkpt>
      <trkpt lat="55.118922013789415" lon="-6.117320973426104">
        <ele>29.940000000000001</ele>
        <time>2026-07-07T12:02:21Z</time>
      </trkpt>
      <trkpt lat="55.118870967999101" lon="-6.117433961480856">
        <ele>30.420000000000002</ele>
        <time>2026-07-07T12:02:22Z</time>
      </trkpt>
      <trkpt lat="55.118799973279238" lon="-6.117534041404724">
        <ele>30.899999999999999</ele>
        <time>2026-07-07T12:02:23Z</time>
      </trkpt>
      <trkpt lat="55.118633005768061" lon="-6.117769991979003">
        <ele>30.420000000000002</ele>
        <time>2026-07-07T12:02:25Z</time>
      </trkpt>
      <trkpt lat="55.118371993303299" lon="-6.118133012205362">
        <ele>29.940000000000001</ele>
        <time>2026-07-07T12:02:28Z</time>
      </trkpt>
      <trkpt lat="55.118268979713321" lon="-6.118228984996676">
        <ele>29.940000000000001</ele>
        <time>2026-07-07T12:02:29Z</time>
      </trkpt>
      <trkpt lat="55.117291985079646" lon="-6.119270017370582">
        <ele>32.82</ele>
        <time>2026-07-07T12:02:37Z</time>
      </trkpt>
      <trkpt lat="55.116916978731751" lon="-6.119724987074733">
        <ele>34.259999999999998</ele>
        <time>2026-07-07T12:02:40Z</time>
      </trkpt>
      <trkpt lat="55.116797033697367" lon="-6.1198699939996">
        <ele>34.740000000000002</ele>
        <time>2026-07-07T12:02:41Z</time>
      </trkpt>
      <trkpt lat="55.116685973480344" lon="-6.120004020631313">
        <ele>35.229999999999997</ele>
        <time>2026-07-07T12:02:42Z</time>
      </trkpt>
      <trkpt lat="55.116445999592543" lon="-6.120458990335465">
        <ele>35.710000000000001</ele>
        <time>2026-07-07T12:02:45Z</time>
      </trkpt>
      <trkpt lat="55.116385985165834" lon="-6.120631992816925">
        <ele>36.670000000000002</ele>
        <time>2026-07-07T12:02:46Z</time>
      </trkpt>
      <trkpt lat="55.116322031244636" lon="-6.120819998905063">
        <ele>37.149999999999999</ele>
        <time>2026-07-07T12:02:47Z</time>
      </trkpt>
      <trkpt lat="55.116296969354153" lon="-6.121067013591528">
        <ele>38.109999999999999</ele>
        <time>2026-07-07T12:02:48Z</time>
      </trkpt>
      <trkpt lat="55.116284983232617" lon="-6.121314028277993">
        <ele>38.590000000000003</ele>
        <time>2026-07-07T12:02:49Z</time>
      </trkpt>
      <trkpt lat="55.116274002939463" lon="-6.121551990509033">
        <ele>39.07</ele>
        <time>2026-07-07T12:02:50Z</time>
      </trkpt>
      <trkpt lat="55.116255981847644" lon="-6.121948035433888">
        <ele>39.549999999999997</ele>
        <time>2026-07-07T12:02:52Z</time>
      </trkpt>
      <trkpt lat="55.11624701321125" lon="-6.122138975188136">
        <ele>40.030000000000001</ele>
        <time>2026-07-07T12:02:53Z</time>
      </trkpt>
      <trkpt lat="55.116231003776193" lon="-6.122506018728018">
        <ele>40.509999999999998</ele>
        <time>2026-07-07T12:02:55Z</time>
      </trkpt>
      <trkpt lat="55.11622304096818" lon="-6.122678015381098">
        <ele>40.509999999999998</ele>
        <time>2026-07-07T12:02:56Z</time>
      </trkpt>
      <trkpt lat="55.116188004612923" lon="-6.122844982892275">
        <ele>40.509999999999998</ele>
        <time>2026-07-07T12:02:57Z</time>
      </trkpt>
      <trkpt lat="55.116136958822608" lon="-6.123022008687258">
        <ele>40.509999999999998</ele>
        <time>2026-07-07T12:02:58Z</time>
      </trkpt>
      <trkpt lat="55.116078034043312" lon="-6.123224012553692">
        <ele>40.509999999999998</ele>
        <time>2026-07-07T12:02:59Z</time>
      </trkpt>
      <trkpt lat="55.115884998813272" lon="-6.123871011659503">
        <ele>40.030000000000001</ele>
        <time>2026-07-07T12:03:02Z</time>
      </trkpt>
      <trkpt lat="55.11551602743566" lon="-6.124508958309889">
        <ele>40.030000000000001</ele>
        <time>2026-07-07T12:03:06Z</time>
      </trkpt>
      <trkpt lat="55.115101039409637" lon="-6.125226030126214">
        <ele>41.950000000000003</ele>
        <time>2026-07-07T12:03:14Z</time>
      </trkpt>
      <trkpt lat="55.115101039409637" lon="-6.125226030126214">
        <ele>42.439999999999998</ele>
        <time>2026-07-07T12:03:23Z</time>
      </trkpt>
      <trkpt lat="55.115101039409637" lon="-6.125226030126214">
        <ele>42.920000000000002</ele>
        <time>2026-07-07T12:04:13Z</time>
      </trkpt>
      <trkpt lat="55.115101039409637" lon="-6.125226030126214">
        <ele>42.920000000000002</ele>
        <time>2026-07-07T12:05:09Z</time>
      </trkpt>
      <trkpt lat="55.115101039409637" lon="-6.125226030126214">
        <ele>43.399999999999999</ele>
        <time>2026-07-07T12:06:17Z</time>
      </trkpt>
      <trkpt lat="55.115101039409637" lon="-6.125226030126214">
        <ele>42.920000000000002</ele>
        <time>2026-07-07T12:07:38Z</time>
      </trkpt>
      <trkpt lat="55.115055022761226" lon="-6.12530498765409">
        <ele>43.399999999999999</ele>
        <time>2026-07-07T12:08:45Z</time>
      </trkpt>
      <trkpt lat="55.114814965054393" lon="-6.125832041725516">
        <ele>44.359999999999999</ele>
        <time>2026-07-07T12:08:51Z</time>
      </trkpt>
      <trkpt lat="55.114223035052419" lon="-6.127329971641302">
        <ele>44.840000000000003</ele>
        <time>2026-07-07T12:09:01Z</time>
      </trkpt>
      <trkpt lat="55.113817015662789" lon="-6.128493966534734">
        <ele>42.439999999999998</ele>
        <time>2026-07-07T12:09:08Z</time>
      </trkpt>
      <trkpt lat="55.113778039813042" lon="-6.128652971237898">
        <ele>41.950000000000003</ele>
        <time>2026-07-07T12:09:09Z</time>
      </trkpt>
      <trkpt lat="55.113741997629404" lon="-6.128800995647907">
        <ele>41.469999999999999</ele>
        <time>2026-07-07T12:09:10Z</time>
      </trkpt>
      <trkpt lat="55.113658010959625" lon="-6.128893028944731">
        <ele>41.469999999999999</ele>
        <time>2026-07-07T12:09:11Z</time>
      </trkpt>
      <trkpt lat="55.113567989319563" lon="-6.128948014229536">
        <ele>40.990000000000002</ele>
        <time>2026-07-07T12:09:12Z</time>
      </trkpt>
      <trkpt lat="55.113472016528249" lon="-6.129008028656244">
        <ele>40.990000000000002</ele>
        <time>2026-07-07T12:09:13Z</time>
      </trkpt>
      <trkpt lat="55.112584037706256" lon="-6.129732979461551">
        <ele>43.399999999999999</ele>
        <time>2026-07-07T12:09:22Z</time>
      </trkpt>
      <trkpt lat="55.111832013353705" lon="-6.130730006843805">
        <ele>46.280000000000001</ele>
        <time>2026-07-07T12:09:30Z</time>
      </trkpt>
      <trkpt lat="55.111002959311008" lon="-6.132336985319853">
        <ele>48.200000000000003</ele>
        <time>2026-07-07T12:09:40Z</time>
      </trkpt>
      <trkpt lat="55.110842026770115" lon="-6.132656000554562">
        <ele>48.68</ele>
        <time>2026-07-07T12:09:42Z</time>
      </trkpt>
      <trkpt lat="55.110414968803525" lon="-6.133707007393241">
        <ele>50.609999999999999</ele>
        <time>2026-07-07T12:09:48Z</time>
      </trkpt>
      <trkpt lat="55.110341040417552" lon="-6.133889984339476">
        <ele>51.090000000000003</ele>
        <time>2026-07-07T12:09:49Z</time>
      </trkpt>
      <trkpt lat="55.10980200022459" lon="-6.134718032553792">
        <ele>53.490000000000002</ele>
        <time>2026-07-07T12:09:55Z</time>
      </trkpt>
      <trkpt lat="55.109699992462993" lon="-6.134850969538093">
        <ele>53.969999999999999</ele>
        <time>2026-07-07T12:09:56Z</time>
      </trkpt>
      <trkpt lat="55.108639011159539" lon="-6.136238006874919">
        <ele>60.700000000000003</ele>
        <time>2026-07-07T12:10:06Z</time>
      </trkpt>
      <trkpt lat="55.108308009803295" lon="-6.13675500266254">
        <ele>65.510000000000005</ele>
        <time>2026-07-07T12:10:10Z</time>
      </trkpt>
      <trkpt lat="55.108281020075083" lon="-6.136830020695925">
        <ele>66.469999999999999</ele>
        <time>2026-07-07T12:10:11Z</time>
      </trkpt>
      <trkpt lat="55.108240032568574" lon="-6.137029007077217">
        <ele>67.430000000000007</ele>
        <time>2026-07-07T12:10:12Z</time>
      </trkpt>
      <trkpt lat="55.108208013698459" lon="-6.137187005952001">
        <ele>68.390000000000001</ele>
        <time>2026-07-07T12:10:13Z</time>
      </trkpt>
      <trkpt lat="55.108173983171582" lon="-6.137353973463178">
        <ele>69.349999999999994</ele>
        <time>2026-07-07T12:10:14Z</time>
      </trkpt>
      <trkpt lat="55.108139030635357" lon="-6.137525970116258">
        <ele>70.310000000000002</ele>
        <time>2026-07-07T12:10:15Z</time>
      </trkpt>
      <trkpt lat="55.108100976794958" lon="-6.137709030881524">
        <ele>71.760000000000005</ele>
        <time>2026-07-07T12:10:16Z</time>
      </trkpt>
      <trkpt lat="55.108059989288449" lon="-6.137902988120914">
        <ele>72.719999999999999</ele>
        <time>2026-07-07T12:10:17Z</time>
      </trkpt>
      <trkpt lat="55.107534024864435" lon="-6.139619015157223">
        <ele>78.969999999999999</ele>
        <time>2026-07-07T12:10:26Z</time>
      </trkpt>
      <trkpt lat="55.107496976852417" lon="-6.139798974618316">
        <ele>79.450000000000003</ele>
        <time>2026-07-07T12:10:27Z</time>
      </trkpt>
      <trkpt lat="55.107283992692828" lon="-6.140749985352159">
        <ele>82.329999999999998</ele>
        <time>2026-07-07T12:10:32Z</time>
      </trkpt>
      <trkpt lat="55.107048964127898" lon="-6.141490023583174">
        <ele>85.209999999999994</ele>
        <time>2026-07-07T12:10:36Z</time>
      </trkpt>
      <trkpt lat="55.106990961357951" lon="-6.14167501218617">
        <ele>85.689999999999998</ele>
        <time>2026-07-07T12:10:37Z</time>
      </trkpt>
      <trkpt lat="55.106291994452477" lon="-6.143558006733656">
        <ele>86.659999999999997</ele>
        <time>2026-07-07T12:10:47Z</time>
      </trkpt>
      <trkpt lat="55.105441985651851" lon="-6.145858000963926">
        <ele>90.019999999999996</ele>
        <time>2026-07-07T12:11:00Z</time>
      </trkpt>
      <trkpt lat="55.104658026248217" lon="-6.147577967494726">
        <ele>96.269999999999996</ele>
        <time>2026-07-07T12:11:10Z</time>
      </trkpt>
      <trkpt lat="55.103774992749095" lon="-6.149082016199827">
        <ele>109.73</ele>
        <time>2026-07-07T12:11:20Z</time>
      </trkpt>
      <trkpt lat="55.103274006396532" lon="-6.150000002235174">
        <ele>118.38</ele>
        <time>2026-07-07T12:11:26Z</time>
      </trkpt>
      <trkpt lat="55.10292699560523" lon="-6.150348018854857">
        <ele>121.73999999999999</ele>
        <time>2026-07-07T12:11:30Z</time>
      </trkpt>
      <trkpt lat="55.102842003107071" lon="-6.150405015796423">
        <ele>122.70999999999999</ele>
        <time>2026-07-07T12:11:31Z</time>
      </trkpt>
      <trkpt lat="55.102761033922434" lon="-6.150458995252848">
        <ele>123.19</ele>
        <time>2026-07-07T12:11:32Z</time>
      </trkpt>
      <trkpt lat="55.102675035595894" lon="-6.150515992194414">
        <ele>124.15000000000001</ele>
        <time>2026-07-07T12:11:33Z</time>
      </trkpt>
      <trkpt lat="55.102593982592225" lon="-6.150570977479219">
        <ele>125.59</ele>
        <time>2026-07-07T12:11:34Z</time>
      </trkpt>
      <trkpt lat="55.10251997038722" lon="-6.150620011612773">
        <ele>128.47</ele>
        <time>2026-07-07T12:11:36Z</time>
      </trkpt>
      <trkpt lat="55.102378986775875" lon="-6.150713972747326">
        <ele>129.91999999999999</ele>
        <time>2026-07-07T12:11:37Z</time>
      </trkpt>
      <trkpt lat="55.102298017591238" lon="-6.150768036022782">
        <ele>131.36000000000001</ele>
        <time>2026-07-07T12:11:38Z</time>
      </trkpt>
      <trkpt lat="55.10221797041595" lon="-6.150839030742645">
        <ele>132.31999999999999</ele>
        <time>2026-07-07T12:11:39Z</time>
      </trkpt>
      <trkpt lat="55.102139012888074" lon="-6.150931986048818">
        <ele>133.75999999999999</ele>
        <time>2026-07-07T12:11:40Z</time>
      </trkpt>
      <trkpt lat="55.102055026218295" lon="-6.151031982153654">
        <ele>134.72</ele>
        <time>2026-07-07T12:11:41Z</time>
      </trkpt>
      <trkpt lat="55.101488996297121" lon="-6.151705970987678">
        <ele>139.05000000000001</ele>
        <time>2026-07-07T12:11:48Z</time>
      </trkpt>
      <trkpt lat="55.1014210190624" lon="-6.151822982355952">
        <ele>139.53</ele>
        <time>2026-07-07T12:11:49Z</time>
      </trkpt>
      <trkpt lat="55.101364022120833" lon="-6.151948040351272">
        <ele>140.00999999999999</ele>
        <time>2026-07-07T12:11:50Z</time>
      </trkpt>
      <trkpt lat="55.101248016580939" lon="-6.15220402367413">
        <ele>140.97</ele>
        <time>2026-07-07T12:11:52Z</time>
      </trkpt>
      <trkpt lat="55.101055987179279" lon="-6.152807017788291">
        <ele>144.34</ele>
        <time>2026-07-07T12:11:56Z</time>
      </trkpt>
      <trkpt lat="55.101020028814673" lon="-6.152971973642707">
        <ele>145.30000000000001</ele>
        <time>2026-07-07T12:11:57Z</time>
      </trkpt>
      <trkpt lat="55.100982980802655" lon="-6.153139024972916">
        <ele>146.25999999999999</ele>
        <time>2026-07-07T12:11:58Z</time>
      </trkpt>
      <trkpt lat="55.100912991911173" lon="-6.153454016894102">
        <ele>147.69999999999999</ele>
        <time>2026-07-07T12:12:00Z</time>
      </trkpt>
      <trkpt lat="55.100875021889806" lon="-6.153613021597266">
        <ele>148.18000000000001</ele>
        <time>2026-07-07T12:12:01Z</time>
      </trkpt>
      <trkpt lat="55.100811989977956" lon="-6.15368602797389">
        <ele>148.18000000000001</ele>
        <time>2026-07-07T12:12:02Z</time>
      </trkpt>
      <trkpt lat="55.100619038566947" lon="-6.153907980769873">
        <ele>148.66</ele>
        <time>2026-07-07T12:12:05Z</time>
      </trkpt>
      <trkpt lat="55.100553994998336" lon="-6.153947040438652">
        <ele>148.66</ele>
        <time>2026-07-07T12:12:06Z</time>
      </trkpt>
      <trkpt lat="55.100487023591995" lon="-6.153969001024962">
        <ele>148.66</ele>
        <time>2026-07-07T12:12:07Z</time>
      </trkpt>
      <trkpt lat="55.100358026102185" lon="-6.154012000188232">
        <ele>148.66</ele>
        <time>2026-07-07T12:12:10Z</time>
      </trkpt>
      <trkpt lat="55.100221987813711" lon="-6.154057011008263">
        <ele>149.13999999999999</ele>
        <time>2026-07-07T12:12:11Z</time>
      </trkpt>
      <trkpt lat="55.100141018629074" lon="-6.154091963544488">
        <ele>149.13999999999999</ele>
        <time>2026-07-07T12:12:12Z</time>
      </trkpt>
      <trkpt lat="55.100070023909211" lon="-6.154195982962847">
        <ele>149.62</ele>
        <time>2026-07-07T12:12:13Z</time>
      </trkpt>
      <trkpt lat="55.099989976733923" lon="-6.154314000159502">
        <ele>150.09999999999999</ele>
        <time>2026-07-07T12:12:14Z</time>
      </trkpt>
      <trkpt lat="55.099904984235764" lon="-6.154436962679029">
        <ele>150.58000000000001</ele>
        <time>2026-07-07T12:12:15Z</time>
      </trkpt>
      <trkpt lat="55.099819991737604" lon="-6.154562020674348">
        <ele>151.06</ele>
        <time>2026-07-07T12:12:16Z</time>
      </trkpt>
      <trkpt lat="55.099575994536281" lon="-6.154918000102043">
        <ele>152.03</ele>
        <time>2026-07-07T12:12:19Z</time>
      </trkpt>
      <trkpt lat="55.098657002672553" lon="-6.1562620382756">
        <ele>156.83000000000001</ele>
        <time>2026-07-07T12:12:30Z</time>
      </trkpt>
      <trkpt lat="55.097973039373755" lon="-6.157364007085562">
        <ele>163.08000000000001</ele>
        <time>2026-07-07T12:12:39Z</time>
      </trkpt>
      <trkpt lat="55.097203999757767" lon="-6.158558009192348">
        <ele>163.08000000000001</ele>
        <time>2026-07-07T12:12:48Z</time>
      </trkpt>
      <trkpt lat="55.097116995602846" lon="-6.158669991418719">
        <ele>163.08000000000001</ele>
        <time>2026-07-07T12:12:49Z</time>
      </trkpt>
      <trkpt lat="55.096435965970159" lon="-6.159554030746222">
        <ele>164.03999999999999</ele>
        <time>2026-07-07T12:12:57Z</time>
      </trkpt>
      <trkpt lat="55.096389027312398" lon="-6.159728961065412">
        <ele>164.03999999999999</ele>
        <time>2026-07-07T12:12:58Z</time>
      </trkpt>
      <trkpt lat="55.096348961815238" lon="-6.159877991303802">
        <ele>163.56</ele>
        <time>2026-07-07T12:12:59Z</time>
      </trkpt>
      <trkpt lat="55.09630998596549" lon="-6.160027021542192">
        <ele>163.56</ele>
        <time>2026-07-07T12:13:00Z</time>
      </trkpt>
      <trkpt lat="55.096270004287362" lon="-6.16017596796155">
        <ele>163.56</ele>
        <time>2026-07-07T12:13:01Z</time>
      </trkpt>
      <trkpt lat="55.096229016780853" lon="-6.16032600402832">
        <ele>164.03999999999999</ele>
        <time>2026-07-07T12:13:02Z</time>
      </trkpt>
      <trkpt lat="55.0960280187428" lon="-6.16107702255249">
        <ele>165.47999999999999</ele>
        <time>2026-07-07T12:13:08Z</time>
      </trkpt>
      <trkpt lat="55.095976972952485" lon="-6.16112002171576">
        <ele>165.47999999999999</ele>
        <time>2026-07-07T12:13:09Z</time>
      </trkpt>
      <trkpt lat="55.095920981839299" lon="-6.161166960373521">
        <ele>165.96000000000001</ele>
        <time>2026-07-07T12:13:10Z</time>
      </trkpt>
      <trkpt lat="55.095873959362507" lon="-6.16116201505065">
        <ele>165.96000000000001</ele>
        <time>2026-07-07T12:13:11Z</time>
      </trkpt>
      <trkpt lat="55.095811011269689" lon="-6.161106023937464">
        <ele>166.44999999999999</ele>
        <time>2026-07-07T12:13:12Z</time>
      </trkpt>
      <trkpt lat="55.095742028206587" lon="-6.161043997853994">
        <ele>166.44999999999999</ele>
        <time>2026-07-07T12:13:13Z</time>
      </trkpt>
      <trkpt lat="55.095647983253002" lon="-6.161010973155499">
        <ele>167.41</ele>
        <time>2026-07-07T12:13:14Z</time>
      </trkpt>
      <trkpt lat="55.095566008239985" lon="-6.161009967327118">
        <ele>168.37</ele>
        <time>2026-07-07T12:13:15Z</time>
      </trkpt>
      <trkpt lat="55.095479004085064" lon="-6.161008039489389">
        <ele>168.84999999999999</ele>
        <time>2026-07-07T12:13:16Z</time>
      </trkpt>
      <trkpt lat="55.09538303129375" lon="-6.161005022004247">
        <ele>168.84999999999999</ele>
        <time>2026-07-07T12:13:17Z</time>
      </trkpt>
      <trkpt lat="55.094841979444027" lon="-6.160993035882711">
        <ele>171.25</ele>
        <time>2026-07-07T12:13:22Z</time>
      </trkpt>
      <trkpt lat="55.094736032187939" lon="-6.161019019782543">
        <ele>171.72999999999999</ele>
        <time>2026-07-07T12:13:23Z</time>
      </trkpt>
      <trkpt lat="55.094634024426341" lon="-6.161079034209251">
        <ele>172.69</ele>
        <time>2026-07-07T12:13:24Z</time>
      </trkpt>
      <trkpt lat="55.093684019520879" lon="-6.161768026649952">
        <ele>179.41999999999999</ele>
        <time>2026-07-07T12:13:34Z</time>
      </trkpt>
      <trkpt lat="55.093106003478169" lon="-6.162314023822546">
        <ele>185.66999999999999</ele>
        <time>2026-07-07T12:13:40Z</time>
      </trkpt>
      <trkpt lat="55.092149041593075" lon="-6.163510037586093">
        <ele>198.16999999999999</ele>
        <time>2026-07-07T12:13:49Z</time>
      </trkpt>
      <trkpt lat="55.090867029502988" lon="-6.164903026074171">
        <ele>208.25999999999999</ele>
        <time>2026-07-07T12:13:59Z</time>
      </trkpt>
      <trkpt lat="55.089489966630936" lon="-6.166804963722825">
        <ele>214.50999999999999</ele>
        <time>2026-07-07T12:14:11Z</time>
      </trkpt>
      <trkpt lat="55.089043965563178" lon="-6.1674590036273">
        <ele>215.94999999999999</ele>
        <time>2026-07-07T12:14:16Z</time>
      </trkpt>
      <trkpt lat="55.08893902413547" lon="-6.167540978640318">
        <ele>216.43000000000001</ele>
        <time>2026-07-07T12:14:17Z</time>
      </trkpt>
      <trkpt lat="55.08883198723197" lon="-6.167624965310097">
        <ele>216.43000000000001</ele>
        <time>2026-07-07T12:14:18Z</time>
      </trkpt>
      <trkpt lat="55.088218012824655" lon="-6.168243968859315">
        <ele>217.88</ele>
        <time>2026-07-07T12:14:24Z</time>
      </trkpt>
      <trkpt lat="55.088131008669734" lon="-6.168420994654298">
        <ele>218.36000000000001</ele>
        <time>2026-07-07T12:14:25Z</time>
      </trkpt>
      <trkpt lat="55.087227020412683" lon="-6.170266019180417">
        <ele>219.31999999999999</ele>
        <time>2026-07-07T12:14:35Z</time>
      </trkpt>
      <trkpt lat="55.087156025692821" lon="-6.170436004176736">
        <ele>219.31999999999999</ele>
        <time>2026-07-07T12:14:36Z</time>
      </trkpt>
      <trkpt lat="55.087114032357931" lon="-6.170626021921635">
        <ele>219.31999999999999</ele>
        <time>2026-07-07T12:14:37Z</time>
      </trkpt>
      <trkpt lat="55.087074972689152" lon="-6.170800030231476">
        <ele>219.31999999999999</ele>
        <time>2026-07-07T12:14:38Z</time>
      </trkpt>
      <trkpt lat="55.087002972140908" lon="-6.171126002445817">
        <ele>218.84</ele>
        <time>2026-07-07T12:14:40Z</time>
      </trkpt>
      <trkpt lat="55.086949998512864" lon="-6.171243013814092">
        <ele>218.36000000000001</ele>
        <time>2026-07-07T12:14:41Z</time>
      </trkpt>
      <trkpt lat="55.086888978257775" lon="-6.171356001868844">
        <ele>218.36000000000001</ele>
        <time>2026-07-07T12:14:42Z</time>
      </trkpt>
      <trkpt lat="55.086818989366293" lon="-6.171406963840127">
        <ele>218.36000000000001</ele>
        <time>2026-07-07T12:14:43Z</time>
      </trkpt>
      <trkpt lat="55.08672502823174" lon="-6.171424984931946">
        <ele>218.36000000000001</ele>
        <time>2026-07-07T12:14:44Z</time>
      </trkpt>
      <trkpt lat="55.086631989106536" lon="-6.171442000195384">
        <ele>218.84</ele>
        <time>2026-07-07T12:14:45Z</time>
      </trkpt>
      <trkpt lat="55.086543979123235" lon="-6.171459015458822">
        <ele>219.31999999999999</ele>
        <time>2026-07-07T12:14:46Z</time>
      </trkpt>
      <trkpt lat="55.086454041302204" lon="-6.171511989086866">
        <ele>220.28</ele>
        <time>2026-07-07T12:14:47Z</time>
      </trkpt>
      <trkpt lat="55.086355973035097" lon="-6.171590024605393">
        <ele>221.24000000000001</ele>
        <time>2026-07-07T12:14:48Z</time>
      </trkpt>
      <trkpt lat="55.085535971447825" lon="-6.172577999532223">
        <ele>231.33000000000001</ele>
        <time>2026-07-07T12:14:55Z</time>
      </trkpt>
      <trkpt lat="55.085334973409772" lon="-6.172870025038719">
        <ele>234.22</ele>
        <time>2026-07-07T12:14:57Z</time>
      </trkpt>
      <trkpt lat="55.085255010053515" lon="-6.173030035570264">
        <ele>235.66</ele>
        <time>2026-07-07T12:14:58Z</time>
      </trkpt>
      <trkpt lat="55.084366025403142" lon="-6.175155015662313">
        <ele>244.78999999999999</ele>
        <time>2026-07-07T12:15:09Z</time>
      </trkpt>
      <trkpt lat="55.083495983853936" lon="-6.177680986002088">
        <ele>244.78999999999999</ele>
        <time>2026-07-07T12:15:21Z</time>
      </trkpt>
      <trkpt lat="55.083378972485662" lon="-6.178117012605071">
        <ele>245.75</ele>
        <time>2026-07-07T12:15:23Z</time>
      </trkpt>
      <trkpt lat="55.08329096250236" lon="-6.178289009258151">
        <ele>246.72</ele>
        <time>2026-07-07T12:15:24Z</time>
      </trkpt>
      <trkpt lat="55.08320203050971" lon="-6.17843896150589">
        <ele>247.19999999999999</ele>
        <time>2026-07-07T12:15:25Z</time>
      </trkpt>
      <trkpt lat="55.082447994500399" lon="-6.179670011624694">
        <ele>247.68000000000001</ele>
        <time>2026-07-07T12:15:34Z</time>
      </trkpt>
      <trkpt lat="55.082354033365846" lon="-6.179778976365924">
        <ele>247.19999999999999</ele>
        <time>2026-07-07T12:15:35Z</time>
      </trkpt>
      <trkpt lat="55.08225898258388" lon="-6.179889030754566">
        <ele>247.19999999999999</ele>
        <time>2026-07-07T12:15:36Z</time>
      </trkpt>
      <trkpt lat="55.081770988181233" lon="-6.180494036525488">
        <ele>245.27000000000001</ele>
        <time>2026-07-07T12:15:43Z</time>
      </trkpt>
      <trkpt lat="55.08167996071279" lon="-6.180648012086749">
        <ele>242.38999999999999</ele>
        <time>2026-07-07T12:15:50Z</time>
      </trkpt>
      <trkpt lat="55.081609971821308" lon="-6.180727975443006">
        <ele>241.91</ele>
        <time>2026-07-07T12:15:51Z</time>
      </trkpt>
      <trkpt lat="55.08154702372849" lon="-6.180712971836329">
        <ele>241.43000000000001</ele>
        <time>2026-07-07T12:15:53Z</time>
      </trkpt>
      <trkpt lat="55.081377038732171" lon="-6.1806729901582">
        <ele>241.43000000000001</ele>
        <time>2026-07-07T12:15:54Z</time>
      </trkpt>
      <trkpt lat="55.081265978515148" lon="-6.180646000429988">
        <ele>240.94999999999999</ele>
        <time>2026-07-07T12:15:56Z</time>
      </trkpt>
      <trkpt lat="55.081208981573582" lon="-6.180600989609957">
        <ele>240.47</ele>
        <time>2026-07-07T12:15:57Z</time>
      </trkpt>
      <trkpt lat="55.081020975485444" lon="-6.180422035977244">
        <ele>239.99000000000001</ele>
        <time>2026-07-07T12:15:58Z</time>
      </trkpt>
      <trkpt lat="55.08094503544271" lon="-6.180291026830673">
        <ele>239.99000000000001</ele>
        <time>2026-07-07T12:15:59Z</time>
      </trkpt>
      <trkpt lat="55.081034973263741" lon="-6.179887019097805">
        <ele>239.02000000000001</ele>
        <time>2026-07-07T12:16:01Z</time>
      </trkpt>
      <trkpt lat="55.080991974100471" lon="-6.179676968604326">
        <ele>238.53999999999999</ele>
        <time>2026-07-07T12:16:02Z</time>
      </trkpt>
      <trkpt lat="55.08083900436759" lon="-6.178315998986363">
        <ele>236.62</ele>
        <time>2026-07-07T12:16:07Z</time>
      </trkpt>
      <trkpt lat="55.080803968012333" lon="-6.177573027089238">
        <ele>233.74000000000001</ele>
        <time>2026-07-07T12:16:11Z</time>
      </trkpt>
      <trkpt lat="55.080975964665413" lon="-6.176404003053904">
        <ele>231.81</ele>
        <time>2026-07-07T12:16:15Z</time>
      </trkpt>
      <trkpt lat="55.081021981313825" lon="-6.176176015287638">
        <ele>232.30000000000001</ele>
        <time>2026-07-07T12:16:16Z</time>
      </trkpt>
      <trkpt lat="55.081081995740533" lon="-6.175930006429553">
        <ele>232.78</ele>
        <time>2026-07-07T12:16:17Z</time>
      </trkpt>
      <trkpt lat="55.08118299767375" lon="-6.175740994513035">
        <ele>233.25999999999999</ele>
        <time>2026-07-07T12:16:18Z</time>
      </trkpt>
      <trkpt lat="55.081286011263728" lon="-6.175548965111375">
        <ele>233.74000000000001</ele>
        <time>2026-07-07T12:16:19Z</time>
      </trkpt>
      <trkpt lat="55.082160998135805" lon="-6.173427002504468">
        <ele>241.43000000000001</ele>
        <time>2026-07-07T12:16:29Z</time>
      </trkpt>
      <trkpt lat="55.082768015563488" lon="-6.170991975814104">
        <ele>247.19999999999999</ele>
        <time>2026-07-07T12:16:39Z</time>
      </trkpt>
      <trkpt lat="55.082834986969829" lon="-6.170732975006104">
        <ele>248.63999999999999</ele>
        <time>2026-07-07T12:16:42Z</time>
      </trkpt>
      <trkpt lat="55.082850996404886" lon="-6.170673966407776">
        <ele>249.12</ele>
        <time>2026-07-07T12:16:43Z</time>
      </trkpt>
      <trkpt lat="55.08285996504128" lon="-6.170639013871551">
        <ele>249.59999999999999</ele>
        <time>2026-07-07T12:16:44Z</time>
      </trkpt>
      <trkpt lat="55.08285996504128" lon="-6.170639013871551">
        <ele>250.08000000000001</ele>
        <time>2026-07-07T12:16:58Z</time>
      </trkpt>
      <trkpt lat="55.08285996504128" lon="-6.170639013871551">
        <ele>250.56</ele>
        <time>2026-07-07T12:17:59Z</time>
      </trkpt>
      <trkpt lat="55.082942023873329" lon="-6.17033701390028">
        <ele>250.56</ele>
        <time>2026-07-07T12:18:33Z</time>
      </trkpt>
      <trkpt lat="55.083290040493011" lon="-6.169039998203516">
        <ele>253.93000000000001</ele>
        <time>2026-07-07T12:18:40Z</time>
      </trkpt>
      <trkpt lat="55.083966962993145" lon="-6.166516961529851">
        <ele>259.20999999999998</ele>
        <time>2026-07-07T12:18:49Z</time>
      </trkpt>
      <trkpt lat="55.08485896512866" lon="-6.163485981523991">
        <ele>267.38</ele>
        <time>2026-07-07T12:18:59Z</time>
      </trkpt>
      <trkpt lat="55.085681984201074" lon="-6.160777034237981">
        <ele>274.11000000000001</ele>
        <time>2026-07-07T12:19:08Z</time>
      </trkpt>
      <trkpt lat="55.08648999966681" lon="-6.156297996640205">
        <ele>286.13</ele>
        <time>2026-07-07T12:19:21Z</time>
      </trkpt>
      <trkpt lat="55.08659603074193" lon="-6.1539860162884">
        <ele>288.52999999999997</ele>
        <time>2026-07-07T12:19:28Z</time>
      </trkpt>
      <trkpt lat="55.086300987750292" lon="-6.151287965476513">
        <ele>289.00999999999999</ele>
        <time>2026-07-07T12:19:36Z</time>
      </trkpt>
      <trkpt lat="55.086083980277181" lon="-6.150051970034838">
        <ele>287.08999999999997</ele>
        <time>2026-07-07T12:19:42Z</time>
      </trkpt>
      <trkpt lat="55.086042992770672" lon="-6.14981995895505">
        <ele>286.13</ele>
        <time>2026-07-07T12:19:49Z</time>
      </trkpt>
      <trkpt lat="55.085954982787371" lon="-6.149317966774106">
        <ele>285.64999999999998</ele>
        <time>2026-07-07T12:20:03Z</time>
      </trkpt>
      <trkpt lat="55.085583999752998" lon="-6.148294033482671">
        <ele>283.73000000000002</ele>
        <time>2026-07-07T12:20:09Z</time>
      </trkpt>
      <trkpt lat="55.085465982556343" lon="-6.148175010457635">
        <ele>283.25</ele>
        <time>2026-07-07T12:20:10Z</time>
      </trkpt>
      <trkpt lat="55.085342014208436" lon="-6.14805699326098">
        <ele>282.27999999999997</ele>
        <time>2026-07-07T12:20:11Z</time>
      </trkpt>
      <trkpt lat="55.085206981748343" lon="-6.147955991327763">
        <ele>281.31999999999999</ele>
        <time>2026-07-07T12:20:12Z</time>
      </trkpt>
      <trkpt lat="55.085065998136997" lon="-6.147849960252643">
        <ele>280.36000000000001</ele>
        <time>2026-07-07T12:20:13Z</time>
      </trkpt>
      <trkpt lat="55.08466400206089" lon="-6.147548966109753">
        <ele>277</ele>
        <time>2026-07-07T12:20:16Z</time>
      </trkpt>
      <trkpt lat="55.08455696515739" lon="-6.147438995540142">
        <ele>276.04000000000002</ele>
        <time>2026-07-07T12:20:17Z</time>
      </trkpt>
      <trkpt lat="55.084465015679598" lon="-6.147291976958513">
        <ele>275.06999999999999</ele>
        <time>2026-07-07T12:20:18Z</time>
      </trkpt>
      <trkpt lat="55.084374994039536" lon="-6.147145964205265">
        <ele>274.11000000000001</ele>
        <time>2026-07-07T12:20:19Z</time>
      </trkpt>
      <trkpt lat="55.084315985441208" lon="-6.146968016400933">
        <ele>273.63</ele>
        <time>2026-07-07T12:20:20Z</time>
      </trkpt>
      <trkpt lat="55.084257982671261" lon="-6.146793002262712">
        <ele>272.67000000000002</ele>
        <time>2026-07-07T12:20:21Z</time>
      </trkpt>
      <trkpt lat="55.084226969629526" lon="-6.146602984517813">
        <ele>271.70999999999998</ele>
        <time>2026-07-07T12:20:22Z</time>
      </trkpt>
      <trkpt lat="55.084201991558075" lon="-6.146407015621662">
        <ele>270.26999999999998</ele>
        <time>2026-07-07T12:20:23Z</time>
      </trkpt>
      <trkpt lat="55.084176007658243" lon="-6.146207023411989">
        <ele>269.31</ele>
        <time>2026-07-07T12:20:24Z</time>
      </trkpt>
      <trkpt lat="55.084149017930031" lon="-6.146003007888794">
        <ele>268.82999999999998</ele>
        <time>2026-07-07T12:20:25Z</time>
      </trkpt>
      <trkpt lat="55.084121022373438" lon="-6.145787006244063">
        <ele>267.86000000000001</ele>
        <time>2026-07-07T12:20:26Z</time>
      </trkpt>
      <trkpt lat="55.084098977968097" lon="-6.145557006821036">
        <ele>266.89999999999998</ele>
        <time>2026-07-07T12:20:27Z</time>
      </trkpt>
      <trkpt lat="55.084107024595141" lon="-6.145320972427726">
        <ele>265.94</ele>
        <time>2026-07-07T12:20:28Z</time>
      </trkpt>
      <trkpt lat="55.084301987662911" lon="-6.142380014061928">
        <ele>250.08000000000001</ele>
        <time>2026-07-07T12:20:39Z</time>
      </trkpt>
      <trkpt lat="55.084756035357714" lon="-6.139798974618316">
        <ele>235.66</ele>
        <time>2026-07-07T12:20:48Z</time>
      </trkpt>
      <trkpt lat="55.085254004225135" lon="-6.137407030910254">
        <ele>222.19999999999999</ele>
        <time>2026-07-07T12:20:57Z</time>
      </trkpt>
      <trkpt lat="55.085636973381042" lon="-6.136324005201459">
        <ele>215.47</ele>
        <time>2026-07-07T12:21:02Z</time>
      </trkpt>
      <trkpt lat="55.08571500889957" lon="-6.136125018820167">
        <ele>214.99000000000001</ele>
        <time>2026-07-07T12:21:03Z</time>
      </trkpt>
      <trkpt lat="55.085773011669517" lon="-6.135883033275604">
        <ele>214.03</ele>
        <time>2026-07-07T12:21:04Z</time>
      </trkpt>
      <trkpt lat="55.08634096942842" lon="-6.133471978828311">
        <ele>204.90000000000001</ele>
        <time>2026-07-07T12:21:14Z</time>
      </trkpt>
      <trkpt lat="55.086838016286492" lon="-6.131013985723257">
        <ele>192.88</ele>
        <time>2026-07-07T12:21:24Z</time>
      </trkpt>
      <trkpt lat="55.087258033454418" lon="-6.129163010045886">
        <ele>180.87</ele>
        <time>2026-07-07T12:21:32Z</time>
      </trkpt>
      <trkpt lat="55.087316958233714" lon="-6.128906020894647">
        <ele>179.41999999999999</ele>
        <time>2026-07-07T12:21:33Z</time>
      </trkpt>
      <trkpt lat="55.087799001485109" lon="-6.126919006928802">
        <ele>167.88999999999999</ele>
        <time>2026-07-07T12:21:41Z</time>
      </trkpt>
      <trkpt lat="55.087879970669746" lon="-6.126696970313788">
        <ele>166.93000000000001</ele>
        <time>2026-07-07T12:21:42Z</time>
      </trkpt>
      <trkpt lat="55.088603999465704" lon="-6.125435996800661">
        <ele>160.19999999999999</ele>
        <time>2026-07-07T12:21:49Z</time>
      </trkpt>
      <trkpt lat="55.088668959215283" lon="-6.125228041782975">
        <ele>159.24000000000001</ele>
        <time>2026-07-07T12:21:50Z</time>
      </trkpt>
      <trkpt lat="55.088928965851665" lon="-6.124345008283854">
        <ele>156.34999999999999</ele>
        <time>2026-07-07T12:21:54Z</time>
      </trkpt>
      <trkpt lat="55.089105991646647" lon="-6.123712006956339">
        <ele>153.47</ele>
        <time>2026-07-07T12:21:57Z</time>
      </trkpt>
      <trkpt lat="55.089188972488046" lon="-6.123527018353343">
        <ele>152.50999999999999</ele>
        <time>2026-07-07T12:21:58Z</time>
      </trkpt>
      <trkpt lat="55.089852986857295" lon="-6.121508991345763">
        <ele>137.13</ele>
        <time>2026-07-07T12:22:07Z</time>
      </trkpt>
      <trkpt lat="55.090558994561434" lon="-6.119359033182263">
        <ele>125.59</ele>
        <time>2026-07-07T12:22:16Z</time>
      </trkpt>
      <trkpt lat="55.090811038389802" lon="-6.118698036298156">
        <ele>123.19</ele>
        <time>2026-07-07T12:22:19Z</time>
      </trkpt>
      <trkpt lat="55.090864012017846" lon="-6.118446998298168">
        <ele>122.70999999999999</ele>
        <time>2026-07-07T12:22:20Z</time>
      </trkpt>
      <trkpt lat="55.090899970382452" lon="-6.118198977783322">
        <ele>122.70999999999999</ele>
        <time>2026-07-07T12:22:21Z</time>
      </trkpt>
      <trkpt lat="55.09093701839447" lon="-6.117951041087508">
        <ele>121.73999999999999</ele>
        <time>2026-07-07T12:22:22Z</time>
      </trkpt>
      <trkpt lat="55.090973982587457" lon="-6.117705032229424">
        <ele>120.78</ele>
        <time>2026-07-07T12:22:23Z</time>
      </trkpt>
      <trkpt lat="55.091032991185784" lon="-6.1174610350281">
        <ele>119.81999999999999</ele>
        <time>2026-07-07T12:22:24Z</time>
      </trkpt>
      <trkpt lat="55.091728018596768" lon="-6.114686960354447">
        <ele>109.73</ele>
        <time>2026-07-07T12:22:35Z</time>
      </trkpt>
      <trkpt lat="55.091768000274897" lon="-6.114418990910053">
        <ele>108.77</ele>
        <time>2026-07-07T12:22:36Z</time>
      </trkpt>
      <trkpt lat="55.092092966660857" lon="-6.111775003373623">
        <ele>101.08</ele>
        <time>2026-07-07T12:22:46Z</time>
      </trkpt>
      <trkpt lat="55.092497980222106" lon="-6.109831994399428">
        <ele>95.310000000000002</ele>
        <time>2026-07-07T12:22:54Z</time>
      </trkpt>
      <trkpt lat="55.092554977163672" lon="-6.109607024118304">
        <ele>94.349999999999994</ele>
        <time>2026-07-07T12:22:55Z</time>
      </trkpt>
      <trkpt lat="55.092612979933619" lon="-6.109378030523658">
        <ele>93.870000000000005</ele>
        <time>2026-07-07T12:22:56Z</time>
      </trkpt>
      <trkpt lat="55.092657990753651" lon="-6.10914601944387">
        <ele>93.390000000000001</ele>
        <time>2026-07-07T12:22:57Z</time>
      </trkpt>
      <trkpt lat="55.092681040987372" lon="-6.108905961737037">
        <ele>92.900000000000006</ele>
        <time>2026-07-07T12:22:58Z</time>
      </trkpt>
      <trkpt lat="55.092681040987372" lon="-6.108677973970771">
        <ele>91.939999999999998</ele>
        <time>2026-07-07T12:22:59Z</time>
      </trkpt>
      <trkpt lat="55.092681040987372" lon="-6.10845803283155">
        <ele>91.459999999999994</ele>
        <time>2026-07-07T12:23:00Z</time>
      </trkpt>
      <trkpt lat="55.092681040987372" lon="-6.108234990388155">
        <ele>90.980000000000004</ele>
        <time>2026-07-07T12:23:01Z</time>
      </trkpt>
      <trkpt lat="55.092690009623766" lon="-6.10800800845027">
        <ele>90.5</ele>
        <time>2026-07-07T12:23:02Z</time>
      </trkpt>
      <trkpt lat="55.092709036543965" lon="-6.107771974056959">
        <ele>89.540000000000006</ele>
        <time>2026-07-07T12:23:03Z</time>
      </trkpt>
      <trkpt lat="55.092719011008739" lon="-6.107524959370494">
        <ele>88.579999999999998</ele>
        <time>2026-07-07T12:23:04Z</time>
      </trkpt>
      <trkpt lat="55.092695960775018" lon="-6.107274005189538">
        <ele>88.099999999999994</ele>
        <time>2026-07-07T12:23:05Z</time>
      </trkpt>
      <trkpt lat="55.092698978260159" lon="-6.10699899494648">
        <ele>87.620000000000005</ele>
        <time>2026-07-07T12:23:06Z</time>
      </trkpt>
      <trkpt lat="55.092738037928939" lon="-6.106749968603253">
        <ele>87.140000000000001</ele>
        <time>2026-07-07T12:23:07Z</time>
      </trkpt>
      <trkpt lat="55.092775002121925" lon="-6.10650697723031">
        <ele>86.180000000000007</ele>
        <time>2026-07-07T12:23:08Z</time>
      </trkpt>
      <trkpt lat="55.092820012941957" lon="-6.106276977807283">
        <ele>85.209999999999994</ele>
        <time>2026-07-07T12:23:09Z</time>
      </trkpt>
      <trkpt lat="55.092868041247129" lon="-6.106056030839682">
        <ele>84.730000000000004</ele>
        <time>2026-07-07T12:23:10Z</time>
      </trkpt>
      <trkpt lat="55.093085970729589" lon="-6.105052968487144">
        <ele>81.370000000000005</ele>
        <time>2026-07-07T12:23:15Z</time>
      </trkpt>
      <trkpt lat="55.093109020963311" lon="-6.104856999590993">
        <ele>80.409999999999997</ele>
        <time>2026-07-07T12:23:16Z</time>
      </trkpt>
      <trkpt lat="55.093104997649789" lon="-6.104659019038081">
        <ele>80.409999999999997</ele>
        <time>2026-07-07T12:23:17Z</time>
      </trkpt>
      <trkpt lat="55.093069961294532" lon="-6.103761987760663">
        <ele>78.480000000000004</ele>
        <time>2026-07-07T12:23:21Z</time>
      </trkpt>
      <trkpt lat="55.092987986281514" lon="-6.103287991136313">
        <ele>77.519999999999996</ele>
        <time>2026-07-07T12:23:23Z</time>
      </trkpt>
      <trkpt lat="55.092929983511567" lon="-6.103063020855188">
        <ele>76.560000000000002</ele>
        <time>2026-07-07T12:23:24Z</time>
      </trkpt>
      <trkpt lat="55.092873992398381" lon="-6.102863028645515">
        <ele>75.599999999999994</ele>
        <time>2026-07-07T12:23:25Z</time>
      </trkpt>
      <trkpt lat="55.092822024598718" lon="-6.102676028385758">
        <ele>74.640000000000001</ele>
        <time>2026-07-07T12:23:26Z</time>
      </trkpt>
      <trkpt lat="55.092776007950306" lon="-6.102511994540691">
        <ele>73.200000000000003</ele>
        <time>2026-07-07T12:23:28Z</time>
      </trkpt>
      <trkpt lat="55.092724040150642" lon="-6.102245030924678">
        <ele>72.239999999999995</ele>
        <time>2026-07-07T12:23:29Z</time>
      </trkpt>
      <trkpt lat="55.092724040150642" lon="-6.102093989029527">
        <ele>71.760000000000005</ele>
        <time>2026-07-07T12:23:30Z</time>
      </trkpt>
      <trkpt lat="55.092724040150642" lon="-6.101942025125027">
        <ele>70.790000000000006</ele>
        <time>2026-07-07T12:23:31Z</time>
      </trkpt>
      <trkpt lat="55.092724040150642" lon="-6.101781008765101">
        <ele>70.310000000000002</ele>
        <time>2026-07-07T12:23:32Z</time>
      </trkpt>
      <trkpt lat="55.092724040150642" lon="-6.101594008505344">
        <ele>68.870000000000005</ele>
        <time>2026-07-07T12:23:33Z</time>
      </trkpt>
      <trkpt lat="55.092759998515248" lon="-6.101410025730729">
        <ele>67.909999999999997</ele>
        <time>2026-07-07T12:23:34Z</time>
      </trkpt>
      <trkpt lat="55.092891007661819" lon="-6.100560016930103">
        <ele>64.549999999999997</ele>
        <time>2026-07-07T12:23:38Z</time>
      </trkpt>
      <trkpt lat="55.092917997390032" lon="-6.100344015285373">
        <ele>64.069999999999993</ele>
        <time>2026-07-07T12:23:39Z</time>
      </trkpt>
      <trkpt lat="55.092924032360315" lon="-6.100105969235301">
        <ele>65.030000000000001</ele>
        <time>2026-07-07T12:23:41Z</time>
      </trkpt>
      <trkpt lat="55.092938030138612" lon="-6.099605988711119">
        <ele>65.510000000000005</ele>
        <time>2026-07-07T12:23:42Z</time>
      </trkpt>
      <trkpt lat="55.092944987118244" lon="-6.099358974024653">
        <ele>65.030000000000001</ele>
        <time>2026-07-07T12:23:43Z</time>
      </trkpt>
      <trkpt lat="55.092951022088528" lon="-6.099113970994949">
        <ele>64.549999999999997</ele>
        <time>2026-07-07T12:23:44Z</time>
      </trkpt>
      <trkpt lat="55.092969965189695" lon="-6.098424978554249">
        <ele>63.100000000000001</ele>
        <time>2026-07-07T12:23:47Z</time>
      </trkpt>
      <trkpt lat="55.092974994331598" lon="-6.098213000223041">
        <ele>62.619999999999997</ele>
        <time>2026-07-07T12:23:48Z</time>
      </trkpt>
      <trkpt lat="55.092982035130262" lon="-6.097991969436407">
        <ele>62.619999999999997</ele>
        <time>2026-07-07T12:23:49Z</time>
      </trkpt>
      <trkpt lat="55.092943981289864" lon="-6.097833970561624">
        <ele>62.619999999999997</ele>
        <time>2026-07-07T12:23:50Z</time>
      </trkpt>
      <trkpt lat="55.092897964641452" lon="-6.097644958645105">
        <ele>62.140000000000001</ele>
        <time>2026-07-07T12:23:51Z</time>
      </trkpt>
      <trkpt lat="55.092848008498549" lon="-6.097441026940942">
        <ele>62.140000000000001</ele>
        <time>2026-07-07T12:23:52Z</time>
      </trkpt>
      <trkpt lat="55.092780031263828" lon="-6.097247991710901">
        <ele>61.659999999999997</ele>
        <time>2026-07-07T12:23:53Z</time>
      </trkpt>
      <trkpt lat="55.092361019924283" lon="-6.095401961356401">
        <ele>62.140000000000001</ele>
        <time>2026-07-07T12:24:02Z</time>
      </trkpt>
      <trkpt lat="55.092172008007765" lon="-6.092785969376564">
        <ele>55.890000000000001</ele>
        <time>2026-07-07T12:24:13Z</time>
      </trkpt>
      <trkpt lat="55.092184999957681" lon="-6.090470971539617">
        <ele>51.57</ele>
        <time>2026-07-07T12:24:24Z</time>
      </trkpt>
      <trkpt lat="55.092197991907597" lon="-6.088929958641529">
        <ele>53.009999999999998</ele>
        <time>2026-07-07T12:24:32Z</time>
      </trkpt>
      <trkpt lat="55.092207966372371" lon="-6.087803011760116">
        <ele>52.530000000000001</ele>
        <time>2026-07-07T12:24:37Z</time>
      </trkpt>
      <trkpt lat="55.092208972200751" lon="-6.087624980136752">
        <ele>52.049999999999997</ele>
        <time>2026-07-07T12:24:39Z</time>
      </trkpt>
      <trkpt lat="55.092208972200751" lon="-6.08686801046133">
        <ele>50.609999999999999</ele>
        <time>2026-07-07T12:24:45Z</time>
      </trkpt>
      <trkpt lat="55.092208972200751" lon="-6.086800033226609">
        <ele>50.130000000000003</ele>
        <time>2026-07-07T12:24:53Z</time>
      </trkpt>
      <trkpt lat="55.092208972200751" lon="-6.086742030456662">
        <ele>50.130000000000003</ele>
        <time>2026-07-07T12:24:54Z</time>
      </trkpt>
      <trkpt lat="55.0921839941293" lon="-6.086657959967852">
        <ele>49.649999999999999</ele>
        <time>2026-07-07T12:24:56Z</time>
      </trkpt>
      <trkpt lat="55.092119034379721" lon="-6.086594006046653">
        <ele>49.159999999999997</ele>
        <time>2026-07-07T12:24:57Z</time>
      </trkpt>
      <trkpt lat="55.091291991993785" lon="-6.085766041651368">
        <ele>46.280000000000001</ele>
        <time>2026-07-07T12:25:05Z</time>
      </trkpt>
      <trkpt lat="55.091162994503975" lon="-6.085636960342526">
        <ele>46.280000000000001</ele>
        <time>2026-07-07T12:25:06Z</time>
      </trkpt>
      <trkpt lat="55.091027040034533" lon="-6.085510980337858">
        <ele>45.799999999999997</ele>
        <time>2026-07-07T12:25:07Z</time>
      </trkpt>
      <trkpt lat="55.089311012998223" lon="-6.084890970960259">
        <ele>41.950000000000003</ele>
        <time>2026-07-07T12:25:16Z</time>
      </trkpt>
      <trkpt lat="55.087389964610338" lon="-6.084069963544607">
        <ele>41.469999999999999</ele>
        <time>2026-07-07T12:25:27Z</time>
      </trkpt>
      <trkpt lat="55.087251998484135" lon="-6.083957981318235">
        <ele>41.950000000000003</ele>
        <time>2026-07-07T12:25:28Z</time>
      </trkpt>
      <trkpt lat="55.087148984894156" lon="-6.083767041563988">
        <ele>41.950000000000003</ele>
        <time>2026-07-07T12:25:29Z</time>
      </trkpt>
      <trkpt lat="55.087044965475798" lon="-6.083575012162328">
        <ele>41.469999999999999</ele>
        <time>2026-07-07T12:25:30Z</time>
      </trkpt>
      <trkpt lat="55.086945975199342" lon="-6.083354987204075">
        <ele>41.469999999999999</ele>
        <time>2026-07-07T12:25:31Z</time>
      </trkpt>
      <trkpt lat="55.086862994357944" lon="-6.083092968910933">
        <ele>41.469999999999999</ele>
        <time>2026-07-07T12:25:32Z</time>
      </trkpt>
      <trkpt lat="55.086650010198355" lon="-6.082208007574081">
        <ele>40.990000000000002</ele>
        <time>2026-07-07T12:25:35Z</time>
      </trkpt>
      <trkpt lat="55.086586978286505" lon="-6.081940960139036">
        <ele>40.509999999999998</ele>
        <time>2026-07-07T12:25:36Z</time>
      </trkpt>
      <trkpt lat="55.08659603074193" lon="-6.081697968766093">
        <ele>40.030000000000001</ele>
        <time>2026-07-07T12:25:37Z</time>
      </trkpt>
      <trkpt lat="55.086604999378324" lon="-6.081449026241899">
        <ele>39.549999999999997</ele>
        <time>2026-07-07T12:25:38Z</time>
      </trkpt>
      <trkpt lat="55.086613968014717" lon="-6.081188013777137">
        <ele>39.549999999999997</ele>
        <time>2026-07-07T12:25:39Z</time>
      </trkpt>
      <trkpt lat="55.086624026298523" lon="-6.080910991877317">
        <ele>39.07</ele>
        <time>2026-07-07T12:25:40Z</time>
      </trkpt>
      <trkpt lat="55.086615979671478" lon="-6.08061402104795">
        <ele>38.590000000000003</ele>
        <time>2026-07-07T12:25:41Z</time>
      </trkpt>
      <trkpt lat="55.086217001080513" lon="-6.07840396463871">
        <ele>33.299999999999997</ele>
        <time>2026-07-07T12:25:48Z</time>
      </trkpt>
      <trkpt lat="55.086111975833774" lon="-6.078130966052413">
        <ele>31.859999999999999</ele>
        <time>2026-07-07T12:25:49Z</time>
      </trkpt>
      <trkpt lat="55.085998987779021" lon="-6.077870037406683">
        <ele>30.899999999999999</ele>
        <time>2026-07-07T12:25:50Z</time>
      </trkpt>
      <trkpt lat="55.085872001945972" lon="-6.077631991356611">
        <ele>29.940000000000001</ele>
        <time>2026-07-07T12:25:51Z</time>
      </trkpt>
      <trkpt lat="55.085721965879202" lon="-6.077450020238757">
        <ele>28.98</ele>
        <time>2026-07-07T12:25:52Z</time>
      </trkpt>
      <trkpt lat="55.085576958954334" lon="-6.077272994443774">
        <ele>28.02</ele>
        <time>2026-07-07T12:25:53Z</time>
      </trkpt>
      <trkpt lat="55.085428012534976" lon="-6.077092029154301">
        <ele>27.050000000000001</ele>
        <time>2026-07-07T12:25:54Z</time>
      </trkpt>
      <trkpt lat="55.08526599034667" lon="-6.076965965330601">
        <ele>26.57</ele>
        <time>2026-07-07T12:25:55Z</time>
      </trkpt>
      <trkpt lat="55.084082968533039" lon="-6.076054014265537">
        <ele>18.879999999999999</ele>
        <time>2026-07-07T12:26:03Z</time>
      </trkpt>
      <trkpt lat="55.083824973553419" lon="-6.075814040377736">
        <ele>17.440000000000001</ele>
        <time>2026-07-07T12:26:05Z</time>
      </trkpt>
      <trkpt lat="55.083695976063609" lon="-6.075662998482585">
        <ele>15.52</ele>
        <time>2026-07-07T12:26:07Z</time>
      </trkpt>
      <trkpt lat="55.083213010802865" lon="-6.074991021305323">
        <ele>13.119999999999999</ele>
        <time>2026-07-07T12:26:10Z</time>
      </trkpt>
      <trkpt lat="55.083130029961467" lon="-6.074796980246902">
        <ele>12.630000000000001</ele>
        <time>2026-07-07T12:26:11Z</time>
      </trkpt>
      <trkpt lat="55.083061968907714" lon="-6.074590031057596">
        <ele>12.630000000000001</ele>
        <time>2026-07-07T12:26:12Z</time>
      </trkpt>
      <trkpt lat="55.08285703137517" lon="-6.073948983103037">
        <ele>13.119999999999999</ele>
        <time>2026-07-07T12:26:15Z</time>
      </trkpt>
      <trkpt lat="55.082780001685023" lon="-6.073773968964815">
        <ele>13.6</ele>
        <time>2026-07-07T12:26:16Z</time>
      </trkpt>
      <trkpt lat="55.082699032500386" lon="-6.073618987575173">
        <ele>14.08</ele>
        <time>2026-07-07T12:26:17Z</time>
      </trkpt>
      <trkpt lat="55.082618985325098" lon="-6.073468029499054">
        <ele>14.56</ele>
        <time>2026-07-07T12:26:18Z</time>
      </trkpt>
      <trkpt lat="55.082541033625603" lon="-6.073317993432283">
        <ele>15.039999999999999</ele>
        <time>2026-07-07T12:26:19Z</time>
      </trkpt>
      <trkpt lat="55.082466015592217" lon="-6.073176003992558">
        <ele>15.039999999999999</ele>
        <time>2026-07-07T12:26:20Z</time>
      </trkpt>
      <trkpt lat="55.082009034231305" lon="-6.072377040982246">
        <ele>16.48</ele>
        <time>2026-07-07T12:26:27Z</time>
      </trkpt>
      <trkpt lat="55.081822033971548" lon="-6.072194986045361">
        <ele>16.960000000000001</ele>
        <time>2026-07-07T12:26:28Z</time>
      </trkpt>
      <trkpt lat="55.081588011234999" lon="-6.072045033797622">
        <ele>17.440000000000001</ele>
        <time>2026-07-07T12:26:30Z</time>
      </trkpt>
      <trkpt lat="55.081467982381582" lon="-6.071968004107475">
        <ele>17.920000000000002</ele>
        <time>2026-07-07T12:26:31Z</time>
      </trkpt>
      <trkpt lat="55.081349965184927" lon="-6.07189298607409">
        <ele>18.399999999999999</ele>
        <time>2026-07-07T12:26:32Z</time>
      </trkpt>
      <trkpt lat="55.080318991094828" lon="-6.071121012791991">
        <ele>23.690000000000001</ele>
        <time>2026-07-07T12:26:41Z</time>
      </trkpt>
      <trkpt lat="55.080222012475133" lon="-6.071008024737239">
        <ele>24.649999999999999</ele>
        <time>2026-07-07T12:26:43Z</time>
      </trkpt>
      <trkpt lat="55.080046998336911" lon="-6.070737037807703">
        <ele>24.649999999999999</ele>
        <time>2026-07-07T12:26:44Z</time>
      </trkpt>
      <trkpt lat="55.079980026930571" lon="-6.070580966770649">
        <ele>24.170000000000002</ele>
        <time>2026-07-07T12:26:45Z</time>
      </trkpt>
      <trkpt lat="55.079921018332243" lon="-6.070412993431091">
        <ele>24.170000000000002</ele>
        <time>2026-07-07T12:26:46Z</time>
      </trkpt>
      <trkpt lat="55.079859998077154" lon="-6.070240996778011">
        <ele>23.690000000000001</ele>
        <time>2026-07-07T12:26:47Z</time>
      </trkpt>
      <trkpt lat="55.079798977822065" lon="-6.070069000124931">
        <ele>23.210000000000001</ele>
        <time>2026-07-07T12:26:48Z</time>
      </trkpt>
      <trkpt lat="55.079637039452791" lon="-6.068930989131331">
        <ele>20.32</ele>
        <time>2026-07-07T12:26:54Z</time>
      </trkpt>
      <trkpt lat="55.079648019745946" lon="-6.068730996921659">
        <ele>20.32</ele>
        <time>2026-07-07T12:26:55Z</time>
      </trkpt>
      <trkpt lat="55.079840971156955" lon="-6.066102012991905">
        <ele>12.630000000000001</ele>
        <time>2026-07-07T12:27:08Z</time>
      </trkpt>
      <trkpt lat="55.079906014725566" lon="-6.065532965585589">
        <ele>11.19</ele>
        <time>2026-07-07T12:27:12Z</time>
      </trkpt>
      <trkpt lat="55.079976003617048" lon="-6.065234988927841">
        <ele>10.23</ele>
        <time>2026-07-07T12:27:14Z</time>
      </trkpt>
      <trkpt lat="55.080633983016014" lon="-6.064208038151264">
        <ele>7.35</ele>
        <time>2026-07-07T12:27:23Z</time>
      </trkpt>
      <trkpt lat="55.080672036856413" lon="-6.06415699236095">
        <ele>7.35</ele>
        <time>2026-07-07T12:27:24Z</time>
      </trkpt>
      <trkpt lat="55.080703971907496" lon="-6.06411499902606">
        <ele>7.35</ele>
        <time>2026-07-07T12:27:31Z</time>
      </trkpt>
      <trkpt lat="55.080720987170935" lon="-6.06409203261137">
        <ele>7.35</ele>
        <time>2026-07-07T12:27:38Z</time>
      </trkpt>
      <trkpt lat="55.080759963020682" lon="-6.063992036506534">
        <ele>7.35</ele>
        <time>2026-07-07T12:27:39Z</time>
      </trkpt>
      <trkpt lat="55.080740014091134" lon="-6.063938979059458">
        <ele>7.35</ele>
        <time>2026-07-07T12:27:41Z</time>
      </trkpt>
      <trkpt lat="55.080555025488138" lon="-6.063445033505559">
        <ele>6.87</ele>
        <time>2026-07-07T12:27:45Z</time>
      </trkpt>
      <trkpt lat="55.080482019111514" lon="-6.063249986618757">
        <ele>6.87</ele>
        <time>2026-07-07T12:27:47Z</time>
      </trkpt>
      <trkpt lat="55.080313961952925" lon="-6.062788981944323">
        <ele>7.35</ele>
        <time>2026-07-07T12:27:53Z</time>
      </trkpt>
      <trkpt lat="55.080269034951925" lon="-6.062574991956353">
        <ele>7.35</ele>
        <time>2026-07-07T12:27:54Z</time>
      </trkpt>
      <trkpt lat="55.080246990546584" lon="-6.062470972537994">
        <ele>7.83</ele>
        <time>2026-07-07T12:27:56Z</time>
      </trkpt>
      <trkpt lat="55.080206003040075" lon="-6.061922963708639">
        <ele>12.630000000000001</ele>
        <time>2026-07-07T12:28:05Z</time>
      </trkpt>
      <trkpt lat="55.080187981948256" lon="-6.061625992879272">
        <ele>13.6</ele>
        <time>2026-07-07T12:28:12Z</time>
      </trkpt>
      <trkpt lat="55.080068958923221" lon="-6.059927986934781">
        <ele>18.399999999999999</ele>
        <time>2026-07-07T12:28:25Z</time>
      </trkpt>
      <trkpt lat="55.079922024160624" lon="-6.058456962928176">
        <ele>20.32</ele>
        <time>2026-07-07T12:28:35Z</time>
      </trkpt>
      <trkpt lat="55.079810963943601" lon="-6.05820500291884">
        <ele>19.84</ele>
        <time>2026-07-07T12:28:36Z</time>
      </trkpt>
      <trkpt lat="55.079737035557628" lon="-6.058094026520848">
        <ele>19.359999999999999</ele>
        <time>2026-07-07T12:28:37Z</time>
      </trkpt>
      <trkpt lat="55.079655982553959" lon="-6.057972991839051">
        <ele>19.359999999999999</ele>
        <time>2026-07-07T12:28:38Z</time>
      </trkpt>
      <trkpt lat="55.079573001712561" lon="-6.057910965755582">
        <ele>18.879999999999999</ele>
        <time>2026-07-07T12:28:39Z</time>
      </trkpt>
      <trkpt lat="55.079479040578008" lon="-6.057839971035719">
        <ele>18.399999999999999</ele>
        <time>2026-07-07T12:28:40Z</time>
      </trkpt>
      <trkpt lat="55.078118992969394" lon="-6.056884014979005">
        <ele>16</ele>
        <time>2026-07-07T12:28:54Z</time>
      </trkpt>
      <trkpt lat="55.076925996690989" lon="-6.056082034483552">
        <ele>18.399999999999999</ele>
        <time>2026-07-07T12:29:06Z</time>
      </trkpt>
      <trkpt lat="55.075835008174181" lon="-6.055353982374072">
        <ele>12.630000000000001</ele>
        <time>2026-07-07T12:29:19Z</time>
      </trkpt>
      <trkpt lat="55.075074015185237" lon="-6.054945029318333">
        <ele>10.23</ele>
        <time>2026-07-07T12:29:28Z</time>
      </trkpt>
      <trkpt lat="55.073905996978283" lon="-6.054754005745053">
        <ele>7.83</ele>
        <time>2026-07-07T12:29:37Z</time>
      </trkpt>
      <trkpt lat="55.072512002661824" lon="-6.054830029606819">
        <ele>6.39</ele>
        <time>2026-07-07T12:29:48Z</time>
      </trkpt>
      <trkpt lat="55.070428010076284" lon="-6.054988028481603">
        <ele>4.94</ele>
        <time>2026-07-07T12:30:01Z</time>
      </trkpt>
      <trkpt lat="55.068420963361859" lon="-6.054886020720005">
        <ele>3.5</ele>
        <time>2026-07-07T12:30:13Z</time>
      </trkpt>
      <trkpt lat="55.067787962034345" lon="-6.054786024615169">
        <ele>4.94</ele>
        <time>2026-07-07T12:30:18Z</time>
      </trkpt>
      <trkpt lat="55.06769098341465" lon="-6.054723998531699">
        <ele>5.42</ele>
        <time>2026-07-07T12:30:19Z</time>
      </trkpt>
      <trkpt lat="55.067617977038026" lon="-6.054616961628199">
        <ele>5.91</ele>
        <time>2026-07-07T12:30:20Z</time>
      </trkpt>
      <trkpt lat="55.067548993974924" lon="-6.054516965523362">
        <ele>5.91</ele>
        <time>2026-07-07T12:30:21Z</time>
      </trkpt>
      <trkpt lat="55.067484034225345" lon="-6.054420992732048">
        <ele>6.39</ele>
        <time>2026-07-07T12:30:22Z</time>
      </trkpt>
      <trkpt lat="55.067416978999972" lon="-6.054323008283973">
        <ele>6.87</ele>
        <time>2026-07-07T12:30:23Z</time>
      </trkpt>
      <trkpt lat="55.067341038957238" lon="-6.054279003292322">
        <ele>6.87</ele>
        <time>2026-07-07T12:30:24Z</time>
      </trkpt>
      <trkpt lat="55.067259985953569" lon="-6.054245978593826">
        <ele>6.39</ele>
        <time>2026-07-07T12:30:25Z</time>
      </trkpt>
      <trkpt lat="55.067119002342224" lon="-6.054245978593826">
        <ele>5.91</ele>
        <time>2026-07-07T12:30:27Z</time>
      </trkpt>
      <trkpt lat="55.067059993743896" lon="-6.054270034655929">
        <ele>5.91</ele>
        <time>2026-07-07T12:30:28Z</time>
      </trkpt>
      <trkpt lat="55.067009031772614" lon="-6.054289983585477">
        <ele>5.91</ele>
        <time>2026-07-07T12:30:29Z</time>
      </trkpt>
      <trkpt lat="55.066969972103834" lon="-6.054313033819199">
        <ele>5.42</ele>
        <time>2026-07-07T12:30:30Z</time>
      </trkpt>
      <trkpt lat="55.066941976547241" lon="-6.054374976083636">
        <ele>5.42</ele>
        <time>2026-07-07T12:30:31Z</time>
      </trkpt>
      <trkpt lat="55.066910963505507" lon="-6.054443037137389">
        <ele>4.94</ele>
        <time>2026-07-07T12:30:32Z</time>
      </trkpt>
      <trkpt lat="55.066881962120533" lon="-6.054505985230207">
        <ele>4.94</ele>
        <time>2026-07-07T12:30:33Z</time>
      </trkpt>
      <trkpt lat="55.06685396656394" lon="-6.054567005485296">
        <ele>4.94</ele>
        <time>2026-07-07T12:30:34Z</time>
      </trkpt>
      <trkpt lat="55.066826976835728" lon="-6.054625008255243">
        <ele>4.46</ele>
        <time>2026-07-07T12:30:35Z</time>
      </trkpt>
      <trkpt lat="55.066797975450754" lon="-6.054688040167093">
        <ele>4.46</ele>
        <time>2026-07-07T12:30:36Z</time>
      </trkpt>
      <trkpt lat="55.066762017086148" lon="-6.054764986038208">
        <ele>4.46</ele>
        <time>2026-07-07T12:30:37Z</time>
      </trkpt>
      <trkpt lat="55.06672203540802" lon="-6.054852996021509">
        <ele>4.46</ele>
        <time>2026-07-07T12:30:38Z</time>
      </trkpt>
      <trkpt lat="55.066302018240094" lon="-6.055765030905604">
        <ele>3.5</ele>
        <time>2026-07-07T12:30:45Z</time>
      </trkpt>
      <trkpt lat="55.066228006035089" lon="-6.055925041437149">
        <ele>3.5</ele>
        <time>2026-07-07T12:30:46Z</time>
      </trkpt>
      <trkpt lat="55.066132033243775" lon="-6.056033000349999">
        <ele>3.02</ele>
        <time>2026-07-07T12:30:47Z</time>
      </trkpt>
      <trkpt lat="55.066032959148288" lon="-6.056139031425118">
        <ele>3.02</ele>
        <time>2026-07-07T12:30:48Z</time>
      </trkpt>
      <trkpt lat="55.065613025799394" lon="-6.05637900531292">
        <ele>2.54</ele>
        <time>2026-07-07T12:30:52Z</time>
      </trkpt>
      <trkpt lat="55.065509006381035" lon="-6.056415969505906">
        <ele>2.54</ele>
        <time>2026-07-07T12:30:53Z</time>
      </trkpt>
      <trkpt lat="55.065216980874538" lon="-6.056518983095884">
        <ele>2.54</ele>
        <time>2026-07-07T12:30:56Z</time>
      </trkpt>
      <trkpt lat="55.065123019739985" lon="-6.056551001966">
        <ele>3.5</ele>
        <time>2026-07-07T12:30:57Z</time>
      </trkpt>
      <trkpt lat="55.065054036676884" lon="-6.056642029434443">
        <ele>3.98</ele>
        <time>2026-07-07T12:30:58Z</time>
      </trkpt>
      <trkpt lat="55.064989998936653" lon="-6.056742025539279">
        <ele>4.46</ele>
        <time>2026-07-07T12:30:59Z</time>
      </trkpt>
      <trkpt lat="55.064942976459861" lon="-6.056845961138606">
        <ele>4.94</ele>
        <time>2026-07-07T12:31:00Z</time>
      </trkpt>
      <trkpt lat="55.064908023923635" lon="-6.056973030790687">
        <ele>5.42</ele>
        <time>2026-07-07T12:31:01Z</time>
      </trkpt>
      <trkpt lat="55.064871981739998" lon="-6.057100016623735">
        <ele>5.91</ele>
        <time>2026-07-07T12:31:02Z</time>
      </trkpt>
      <trkpt lat="55.064835017547011" lon="-6.057234965264797">
        <ele>5.42</ele>
        <time>2026-07-07T12:31:03Z</time>
      </trkpt>
      <trkpt lat="55.064361020922661" lon="-6.058384962379932">
        <ele>4.46</ele>
        <time>2026-07-07T12:31:10Z</time>
      </trkpt>
      <trkpt lat="55.063614025712013" lon="-6.059520961716771">
        <ele>3.02</ele>
        <time>2026-07-07T12:31:18Z</time>
      </trkpt>
      <trkpt lat="55.063530039042234" lon="-6.059611989185214">
        <ele>3.02</ele>
        <time>2026-07-07T12:31:19Z</time>
      </trkpt>
      <trkpt lat="55.063443034887314" lon="-6.059678038582206">
        <ele>3.02</ele>
        <time>2026-07-07T12:31:20Z</time>
      </trkpt>
      <trkpt lat="55.063346978276968" lon="-6.05973101221025">
        <ele>3.02</ele>
        <time>2026-07-07T12:31:21Z</time>
      </trkpt>
      <trkpt lat="55.063245976343751" lon="-6.059788009151816">
        <ele>3.02</ele>
        <time>2026-07-07T12:31:22Z</time>
      </trkpt>
      <trkpt lat="55.063139023259282" lon="-6.059847017750144">
        <ele>3.02</ele>
        <time>2026-07-07T12:31:23Z</time>
      </trkpt>
      <trkpt lat="55.062461011111736" lon="-6.060306010767818">
        <ele>2.06</ele>
        <time>2026-07-07T12:31:29Z</time>
      </trkpt>
      <trkpt lat="55.062379036098719" lon="-6.060410030186176">
        <ele>2.06</ele>
        <time>2026-07-07T12:31:30Z</time>
      </trkpt>
      <trkpt lat="55.061835972592235" lon="-6.061074966564775">
        <ele>2.54</ele>
        <time>2026-07-07T12:31:39Z</time>
      </trkpt>
      <trkpt lat="55.061800014227629" lon="-6.061118971556425">
        <ele>2.54</ele>
        <time>2026-07-07T12:31:40Z</time>
      </trkpt>
      <trkpt lat="55.061737988144159" lon="-6.061190972104669">
        <ele>2.06</ele>
        <time>2026-07-07T12:31:42Z</time>
      </trkpt>
      <trkpt lat="55.061710998415947" lon="-6.061156019568443">
        <ele>2.54</ele>
        <time>2026-07-07T12:31:43Z</time>
      </trkpt>
      <trkpt lat="55.061640003696084" lon="-6.061065997928381">
        <ele>2.54</ele>
        <time>2026-07-07T12:31:44Z</time>
      </trkpt>
      <trkpt lat="55.061590969562531" lon="-6.061004977673292">
        <ele>2.54</ele>
        <time>2026-07-07T12:31:45Z</time>
      </trkpt>
      <trkpt lat="55.061339009553194" lon="-6.060621002689004">
        <ele>2.06</ele>
        <time>2026-07-07T12:31:52Z</time>
      </trkpt>
      <trkpt lat="55.061339009553194" lon="-6.060621002689004">
        <ele>2.06</ele>
        <time>2026-07-07T12:31:53Z</time>
      </trkpt>
      <trkpt lat="55.061127031221986" lon="-6.060157986357808">
        <ele>3.02</ele>
        <time>2026-07-07T12:32:03Z</time>
      </trkpt>
      <trkpt lat="55.060856966301799" lon="-6.059491038322449">
        <ele>3.02</ele>
        <time>2026-07-07T12:32:10Z</time>
      </trkpt>
      <trkpt lat="55.060422029346228" lon="-6.058540027588606">
        <ele>3.5</ele>
        <time>2026-07-07T12:32:19Z</time>
      </trkpt>
      <trkpt lat="55.060356985777617" lon="-6.058441959321499">
        <ele>3.98</ele>
        <time>2026-07-07T12:32:20Z</time>
      </trkpt>
      <trkpt lat="55.059594986960292" lon="-6.057274024933577">
        <ele>4.94</ele>
        <time>2026-07-07T12:32:30Z</time>
      </trkpt>
      <trkpt lat="55.058557977899909" lon="-6.055938033387065">
        <ele>4.94</ele>
        <time>2026-07-07T12:32:41Z</time>
      </trkpt>
      <trkpt lat="55.057605039328337" lon="-6.054316973313689">
        <ele>3.5</ele>
        <time>2026-07-07T12:32:52Z</time>
      </trkpt>
      <trkpt lat="55.056618992239237" lon="-6.052309004589915">
        <ele>5.91</ele>
        <time>2026-07-07T12:33:05Z</time>
      </trkpt>
      <trkpt lat="55.055631017312407" lon="-6.050287960097194">
        <ele>5.42</ele>
        <time>2026-07-07T12:33:17Z</time>
      </trkpt>
      <trkpt lat="55.05486398935318" lon="-6.048678969964385">
        <ele>5.42</ele>
        <time>2026-07-07T12:33:28Z</time>
      </trkpt>
      <trkpt lat="55.054104002192616" lon="-6.046875016763806">
        <ele>3.98</ele>
        <time>2026-07-07T12:33:39Z</time>
      </trkpt>
      <trkpt lat="55.053086020052433" lon="-6.044011004269123">
        <ele>3.02</ele>
        <time>2026-07-07T12:33:55Z</time>
      </trkpt>
      <trkpt lat="55.053048972040415" lon="-6.043814029544592">
        <ele>3.02</ele>
        <time>2026-07-07T12:33:56Z</time>
      </trkpt>
      <trkpt lat="55.05290899425745" lon="-6.042577028274536">
        <ele>2.06</ele>
        <time>2026-07-07T12:34:02Z</time>
      </trkpt>
      <trkpt lat="55.052921986207366" lon="-6.042368989437819">
        <ele>2.06</ele>
        <time>2026-07-07T12:34:03Z</time>
      </trkpt>
      <trkpt lat="55.052933972328901" lon="-6.042160028591752">
        <ele>2.06</ele>
        <time>2026-07-07T12:34:04Z</time>
      </trkpt>
      <trkpt lat="55.052960962057114" lon="-6.041959030553699">
        <ele>2.06</ele>
        <time>2026-07-07T12:34:05Z</time>
      </trkpt>
      <trkpt lat="55.053014019504189" lon="-6.04177001863718">
        <ele>2.06</ele>
        <time>2026-07-07T12:34:06Z</time>
      </trkpt>
      <trkpt lat="55.053687002509832" lon="-6.039335997775197">
        <ele>1.58</ele>
        <time>2026-07-07T12:34:19Z</time>
      </trkpt>
      <trkpt lat="55.05421900190413" lon="-6.037157960236073">
        <ele>2.06</ele>
        <time>2026-07-07T12:34:32Z</time>
      </trkpt>
      <trkpt lat="55.054714037105441" lon="-6.035187039524317">
        <ele>2.54</ele>
        <time>2026-07-07T12:34:43Z</time>
      </trkpt>
      <trkpt lat="55.05510002374649" lon="-6.033460032194853">
        <ele>3.02</ele>
        <time>2026-07-07T12:34:51Z</time>
      </trkpt>
      <trkpt lat="55.055672004818916" lon="-6.030580010265112">
        <ele>3.5</ele>
        <time>2026-07-07T12:35:05Z</time>
      </trkpt>
      <trkpt lat="55.055964030325413" lon="-6.028815032914281">
        <ele>3.5</ele>
        <time>2026-07-07T12:35:12Z</time>
      </trkpt>
      <trkpt lat="55.05654196254909" lon="-6.026189988479018">
        <ele>3.98</ele>
        <time>2026-07-07T12:35:20Z</time>
      </trkpt>
      <trkpt lat="55.057093994691968" lon="-6.024132985621691">
        <ele>3.02</ele>
        <time>2026-07-07T12:35:27Z</time>
      </trkpt>
      <trkpt lat="55.057130036875606" lon="-6.023864010348916">
        <ele>3.02</ele>
        <time>2026-07-07T12:35:28Z</time>
      </trkpt>
      <trkpt lat="55.057165995240211" lon="-6.023589000105858">
        <ele>3.02</ele>
        <time>2026-07-07T12:35:29Z</time>
      </trkpt>
      <trkpt lat="55.057186027988791" lon="-6.023308038711548">
        <ele>3.5</ele>
        <time>2026-07-07T12:35:30Z</time>
      </trkpt>
      <trkpt lat="55.057174041867256" lon="-6.023008972406387">
        <ele>3.5</ele>
        <time>2026-07-07T12:35:31Z</time>
      </trkpt>
      <trkpt lat="55.056970026344061" lon="-6.019525034353137">
        <ele>5.91</ele>
        <time>2026-07-07T12:35:42Z</time>
      </trkpt>
      <trkpt lat="55.056872041895986" lon="-6.018835958093405">
        <ele>6.87</ele>
        <time>2026-07-07T12:35:46Z</time>
      </trkpt>
      <trkpt lat="55.056787971407175" lon="-6.018246039748192">
        <ele>8.310000000000001</ele>
        <time>2026-07-07T12:35:54Z</time>
      </trkpt>
      <trkpt lat="55.056767016649246" lon="-6.018098015338182">
        <ele>8.789999999999999</ele>
        <time>2026-07-07T12:35:55Z</time>
      </trkpt>
      <trkpt lat="55.056569036096334" lon="-6.016706032678485">
        <ele>9.27</ele>
        <time>2026-07-07T12:36:01Z</time>
      </trkpt>
      <trkpt lat="55.056196041405201" lon="-6.013490986078978">
        <ele>8.789999999999999</ele>
        <time>2026-07-07T12:36:12Z</time>
      </trkpt>
      <trkpt lat="55.056212972849607" lon="-6.013214970007539">
        <ele>8.789999999999999</ele>
        <time>2026-07-07T12:36:13Z</time>
      </trkpt>
      <trkpt lat="55.056242980062962" lon="-6.012950018048286">
        <ele>8.789999999999999</ele>
        <time>2026-07-07T12:36:14Z</time>
      </trkpt>
      <trkpt lat="55.056311041116714" lon="-6.012699985876679">
        <ele>8.310000000000001</ele>
        <time>2026-07-07T12:36:15Z</time>
      </trkpt>
      <trkpt lat="55.056382035836577" lon="-6.012436039745808">
        <ele>8.310000000000001</ele>
        <time>2026-07-07T12:36:16Z</time>
      </trkpt>
      <trkpt lat="55.056461999192834" lon="-6.01216396316886">
        <ele>7.83</ele>
        <time>2026-07-07T12:36:17Z</time>
      </trkpt>
      <trkpt lat="55.057262973859906" lon="-6.010262025520206">
        <ele>4.46</ele>
        <time>2026-07-07T12:36:25Z</time>
      </trkpt>
      <trkpt lat="55.058077024295926" lon="-6.008471986278892">
        <ele>4.46</ele>
        <time>2026-07-07T12:36:33Z</time>
      </trkpt>
      <trkpt lat="55.058146007359028" lon="-6.008194964379072">
        <ele>4.46</ele>
        <time>2026-07-07T12:36:34Z</time>
      </trkpt>
      <trkpt lat="55.058190012350678" lon="-6.007898999378085">
        <ele>4.46</ele>
        <time>2026-07-07T12:36:35Z</time>
      </trkpt>
      <trkpt lat="55.058234017342329" lon="-6.007599011063576">
        <ele>4.46</ele>
        <time>2026-07-07T12:36:36Z</time>
      </trkpt>
      <trkpt lat="55.058261007070541" lon="-6.007283013314009">
        <ele>4.46</ele>
        <time>2026-07-07T12:36:37Z</time>
      </trkpt>
      <trkpt lat="55.058626960963011" lon="-6.004779003560543">
        <ele>3.98</ele>
        <time>2026-07-07T12:36:45Z</time>
      </trkpt>
      <trkpt lat="55.058749001473188" lon="-6.004207022488117">
        <ele>4.46</ele>
        <time>2026-07-07T12:36:47Z</time>
      </trkpt>
      <trkpt lat="55.058785965666175" lon="-6.003908962011337">
        <ele>4.46</ele>
        <time>2026-07-07T12:36:48Z</time>
      </trkpt>
      <trkpt lat="55.058980006724596" lon="-6.000992981716991">
        <ele>4.94</ele>
        <time>2026-07-07T12:36:57Z</time>
      </trkpt>
      <trkpt lat="55.058999033644795" lon="-5.998404985293746">
        <ele>8.310000000000001</ele>
        <time>2026-07-07T12:37:05Z</time>
      </trkpt>
      <trkpt lat="55.058971038088202" lon="-5.995616996660829">
        <ele>11.19</ele>
        <time>2026-07-07T12:37:14Z</time>
      </trkpt>
      <trkpt lat="55.058729974552989" lon="-5.992088969796896">
        <ele>16</ele>
        <time>2026-07-07T12:37:25Z</time>
      </trkpt>
      <trkpt lat="55.058511961251497" lon="-5.988996969535947">
        <ele>15.52</ele>
        <time>2026-07-07T12:37:35Z</time>
      </trkpt>
      <trkpt lat="55.058174002915621" lon="-5.985648985952139">
        <ele>15.039999999999999</ele>
        <time>2026-07-07T12:37:46Z</time>
      </trkpt>
      <trkpt lat="55.057754991576076" lon="-5.983557030558586">
        <ele>17.440000000000001</ele>
        <time>2026-07-07T12:37:53Z</time>
      </trkpt>
      <trkpt lat="55.057225003838539" lon="-5.980553040280938">
        <ele>15.039999999999999</ele>
        <time>2026-07-07T12:38:03Z</time>
      </trkpt>
      <trkpt lat="55.056138038635254" lon="-5.977162979543209">
        <ele>10.23</ele>
        <time>2026-07-07T12:38:15Z</time>
      </trkpt>
      <trkpt lat="55.0549700204283" lon="-5.974373985081911">
        <ele>9.75</ele>
        <time>2026-07-07T12:38:26Z</time>
      </trkpt>
      <trkpt lat="55.054245991632342" lon="-5.972283035516739">
        <ele>8.789999999999999</ele>
        <time>2026-07-07T12:38:34Z</time>
      </trkpt>
      <trkpt lat="55.053993025794625" lon="-5.971540985628963">
        <ele>8.789999999999999</ele>
        <time>2026-07-07T12:38:37Z</time>
      </trkpt>
      <trkpt lat="55.053030028939247" lon="-5.969345010817051">
        <ele>7.83</ele>
        <time>2026-07-07T12:38:46Z</time>
      </trkpt>
      <trkpt lat="55.051811970770359" lon="-5.966819962486625">
        <ele>7.83</ele>
        <time>2026-07-07T12:38:56Z</time>
      </trkpt>
      <trkpt lat="55.050788959488273" lon="-5.965708019211888">
        <ele>8.789999999999999</ele>
        <time>2026-07-07T12:39:03Z</time>
      </trkpt>
      <trkpt lat="55.049201007932425" lon="-5.964205982163549">
        <ele>6.87</ele>
        <time>2026-07-07T12:39:14Z</time>
      </trkpt>
      <trkpt lat="55.048417970538139" lon="-5.963587984442711">
        <ele>7.35</ele>
        <time>2026-07-07T12:39:20Z</time>
      </trkpt>
      <trkpt lat="55.048292996361852" lon="-5.963523024693131">
        <ele>7.35</ele>
        <time>2026-07-07T12:39:21Z</time>
      </trkpt>
      <trkpt lat="55.048172967508435" lon="-5.963460998609662">
        <ele>7.35</ele>
        <time>2026-07-07T12:39:22Z</time>
      </trkpt>
      <trkpt lat="55.048048999160528" lon="-5.963487988337874">
        <ele>7.35</ele>
        <time>2026-07-07T12:39:23Z</time>
      </trkpt>
      <trkpt lat="55.047930981963873" lon="-5.963526964187622">
        <ele>7.35</ele>
        <time>2026-07-07T12:39:24Z</time>
      </trkpt>
      <trkpt lat="55.047817993909121" lon="-5.963570969179273">
        <ele>7.35</ele>
        <time>2026-07-07T12:39:25Z</time>
      </trkpt>
      <trkpt lat="55.047712968662381" lon="-5.963641963899136">
        <ele>7.35</ele>
        <time>2026-07-07T12:39:26Z</time>
      </trkpt>
      <trkpt lat="55.046815015375614" lon="-5.964171029627323">
        <ele>5.42</ele>
        <time>2026-07-07T12:39:34Z</time>
      </trkpt>
      <trkpt lat="55.046331966295838" lon="-5.96427102573216">
        <ele>5.42</ele>
        <time>2026-07-07T12:39:37Z</time>
      </trkpt>
      <trkpt lat="55.046154018491507" lon="-5.96427496522665">
        <ele>5.42</ele>
        <time>2026-07-07T12:39:38Z</time>
      </trkpt>
      <trkpt lat="55.045594023540616" lon="-5.964286029338837">
        <ele>5.91</ele>
        <time>2026-07-07T12:39:41Z</time>
      </trkpt>
      <trkpt lat="55.04540802910924" lon="-5.964298015460372">
        <ele>5.91</ele>
        <time>2026-07-07T12:39:42Z</time>
      </trkpt>
      <trkpt lat="55.043526040390134" lon="-5.965205021202564">
        <ele>4.94</ele>
        <time>2026-07-07T12:39:52Z</time>
      </trkpt>
      <trkpt lat="55.042139003053308" lon="-5.965993003919721">
        <ele>3.98</ele>
        <time>2026-07-07T12:39:58Z</time>
      </trkpt>
      <trkpt lat="55.041612032800913" lon="-5.966182015836239">
        <ele>4.46</ele>
        <time>2026-07-07T12:40:01Z</time>
      </trkpt>
      <trkpt lat="55.041439030319452" lon="-5.96620598807931">
        <ele>4.94</ele>
        <time>2026-07-07T12:40:02Z</time>
      </trkpt>
      <trkpt lat="55.039826016873121" lon="-5.966647965833545">
        <ele>6.39</ele>
        <time>2026-07-07T12:40:11Z</time>
      </trkpt>
      <trkpt lat="55.037857023999095" lon="-5.967583972960711">
        <ele>5.42</ele>
        <time>2026-07-07T12:40:21Z</time>
      </trkpt>
      <trkpt lat="55.036442996934056" lon="-5.968150002881885">
        <ele>3.98</ele>
        <time>2026-07-07T12:40:29Z</time>
      </trkpt>
      <trkpt lat="55.035932036116719" lon="-5.968444962054491">
        <ele>3.98</ele>
        <time>2026-07-07T12:40:32Z</time>
      </trkpt>
      <trkpt lat="55.035776970908046" lon="-5.968600027263165">
        <ele>3.98</ele>
        <time>2026-07-07T12:40:33Z</time>
      </trkpt>
      <trkpt lat="55.035629030317068" lon="-5.968774035573006">
        <ele>4.46</ele>
        <time>2026-07-07T12:40:34Z</time>
      </trkpt>
      <trkpt lat="55.035478994250298" lon="-5.968962963670492">
        <ele>4.46</ele>
        <time>2026-07-07T12:40:35Z</time>
      </trkpt>
      <trkpt lat="55.035326024517417" lon="-5.969154993072152">
        <ele>4.94</ele>
        <time>2026-07-07T12:40:36Z</time>
      </trkpt>
      <trkpt lat="55.033991038799286" lon="-5.970550999045372">
        <ele>6.39</ele>
        <time>2026-07-07T12:40:44Z</time>
      </trkpt>
      <trkpt lat="55.032784966751933" lon="-5.971334958449006">
        <ele>7.35</ele>
        <time>2026-07-07T12:40:51Z</time>
      </trkpt>
      <trkpt lat="55.031362976878881" lon="-5.972159989178181">
        <ele>7.35</ele>
        <time>2026-07-07T12:40:59Z</time>
      </trkpt>
      <trkpt lat="55.03080197609961" lon="-5.972399963065982">
        <ele>7.35</ele>
        <time>2026-07-07T12:41:02Z</time>
      </trkpt>
      <trkpt lat="55.029096007347107" lon="-5.972529966384172">
        <ele>5.42</ele>
        <time>2026-07-07T12:41:11Z</time>
      </trkpt>
      <trkpt lat="55.026454031467438" lon="-5.972573971375823">
        <ele>4.46</ele>
        <time>2026-07-07T12:41:25Z</time>
      </trkpt>
      <trkpt lat="55.02435696311295" lon="-5.972300972789526">
        <ele>4.46</ele>
        <time>2026-07-07T12:41:36Z</time>
      </trkpt>
      <trkpt lat="55.022895997390151" lon="-5.972004001960158">
        <ele>3.02</ele>
        <time>2026-07-07T12:41:44Z</time>
      </trkpt>
      <trkpt lat="55.02272198908031" lon="-5.972047001123428">
        <ele>3.02</ele>
        <time>2026-07-07T12:41:45Z</time>
      </trkpt>
      <trkpt lat="55.022557033225894" lon="-5.972137022763491">
        <ele>2.54</ele>
        <time>2026-07-07T12:41:46Z</time>
      </trkpt>
      <trkpt lat="55.022386964410543" lon="-5.97224397584796">
        <ele>2.54</ele>
        <time>2026-07-07T12:41:47Z</time>
      </trkpt>
      <trkpt lat="55.022214967757463" lon="-5.97235101275146">
        <ele>2.54</ele>
        <time>2026-07-07T12:41:48Z</time>
      </trkpt>
      <trkpt lat="55.021125990897417" lon="-5.973703013733029">
        <ele>2.06</ele>
        <time>2026-07-07T12:41:55Z</time>
      </trkpt>
      <trkpt lat="55.020236000418663" lon="-5.974977985024452">
        <ele>2.06</ele>
        <time>2026-07-07T12:42:01Z</time>
      </trkpt>
      <trkpt lat="55.0198869779706" lon="-5.975254001095891">
        <ele>2.06</ele>
        <time>2026-07-07T12:42:03Z</time>
      </trkpt>
      <trkpt lat="55.019712969660759" lon="-5.975389033555985">
        <ele>2.06</ele>
        <time>2026-07-07T12:42:04Z</time>
      </trkpt>
      <trkpt lat="55.018085036426783" lon="-5.976235019043088">
        <ele>2.54</ele>
        <time>2026-07-07T12:42:13Z</time>
      </trkpt>
      <trkpt lat="55.017900969833136" lon="-5.97628396935761">
        <ele>2.06</ele>
        <time>2026-07-07T12:42:14Z</time>
      </trkpt>
      <trkpt lat="55.017697038128972" lon="-5.976272989064455">
        <ele>2.06</ele>
        <time>2026-07-07T12:42:15Z</time>
      </trkpt>
      <trkpt lat="55.016041025519371" lon="-5.97623803652823">
        <ele>3.98</ele>
        <time>2026-07-07T12:42:24Z</time>
      </trkpt>
      <trkpt lat="55.015314985066652" lon="-5.97649896517396">
        <ele>3.5</ele>
        <time>2026-07-07T12:42:28Z</time>
      </trkpt>
      <trkpt lat="55.015134019777179" lon="-5.976613964885473">
        <ele>3.02</ele>
        <time>2026-07-07T12:42:29Z</time>
      </trkpt>
      <trkpt lat="55.013655032962561" lon="-5.978120025247335">
        <ele>2.54</ele>
        <time>2026-07-07T12:42:38Z</time>
      </trkpt>
      <trkpt lat="55.012371009215713" lon="-5.978929968550801">
        <ele>2.54</ele>
        <time>2026-07-07T12:42:45Z</time>
      </trkpt>
      <trkpt lat="55.011704983189702" lon="-5.979200033470988">
        <ele>2.54</ele>
        <time>2026-07-07T12:42:49Z</time>
      </trkpt>
      <trkpt lat="55.01155000180006" lon="-5.979167008772492">
        <ele>2.06</ele>
        <time>2026-07-07T12:42:50Z</time>
      </trkpt>
      <trkpt lat="55.011401977390051" lon="-5.97911898046732">
        <ele>2.54</ele>
        <time>2026-07-07T12:42:51Z</time>
      </trkpt>
      <trkpt lat="55.011266022920609" lon="-5.97898998297751">
        <ele>2.54</ele>
        <time>2026-07-07T12:42:52Z</time>
      </trkpt>
      <trkpt lat="55.011127972975373" lon="-5.978858973830938">
        <ele>3.02</ele>
        <time>2026-07-07T12:42:53Z</time>
      </trkpt>
      <trkpt lat="55.010407967492938" lon="-5.978248016908765">
        <ele>3.5</ele>
        <time>2026-07-07T12:42:58Z</time>
      </trkpt>
      <trkpt lat="55.009089997038245" lon="-5.977956997230649">
        <ele>3.98</ele>
        <time>2026-07-07T12:43:07Z</time>
      </trkpt>
      <trkpt lat="55.008837031200528" lon="-5.977924978360534">
        <ele>3.98</ele>
        <time>2026-07-07T12:43:11Z</time>
      </trkpt>
      <trkpt lat="55.008837031200528" lon="-5.977924978360534">
        <ele>3.98</ele>
        <time>2026-07-07T12:43:21Z</time>
      </trkpt>
      <trkpt lat="55.008837031200528" lon="-5.977924978360534">
        <ele>4.46</ele>
        <time>2026-07-07T12:44:24Z</time>
      </trkpt>
      <trkpt lat="55.008528996258974" lon="-5.977902011945844">
        <ele>4.94</ele>
        <time>2026-07-07T12:44:32Z</time>
      </trkpt>
      <trkpt lat="55.007597012445331" lon="-5.978186996653676">
        <ele>5.42</ele>
        <time>2026-07-07T12:44:38Z</time>
      </trkpt>
      <trkpt lat="55.006040995940566" lon="-5.979372030124068">
        <ele>3.02</ele>
        <time>2026-07-07T12:44:46Z</time>
      </trkpt>
      <trkpt lat="55.004363022744656" lon="-5.981571022421122">
        <ele>2.06</ele>
        <time>2026-07-07T12:44:55Z</time>
      </trkpt>
      <trkpt lat="55.003752987831831" lon="-5.982630997896195">
        <ele>2.06</ele>
        <time>2026-07-07T12:44:59Z</time>
      </trkpt>
      <trkpt lat="55.003647040575743" lon="-5.982919000089169">
        <ele>2.06</ele>
        <time>2026-07-07T12:45:00Z</time>
      </trkpt>
      <trkpt lat="55.003121998161077" lon="-5.984406033530831">
        <ele>2.54</ele>
        <time>2026-07-07T12:45:05Z</time>
      </trkpt>
      <trkpt lat="55.002991994842887" lon="-5.984665034338832">
        <ele>2.54</ele>
        <time>2026-07-07T12:45:06Z</time>
      </trkpt>
      <trkpt lat="55.002819998189807" lon="-5.984859997406602">
        <ele>2.54</ele>
        <time>2026-07-07T12:45:07Z</time>
      </trkpt>
      <trkpt lat="55.002642972394824" lon="-5.985056972131133">
        <ele>2.54</ele>
        <time>2026-07-07T12:45:08Z</time>
      </trkpt>
      <trkpt lat="55.002453038468957" lon="-5.985235003754497">
        <ele>2.54</ele>
        <time>2026-07-07T12:45:09Z</time>
      </trkpt>
      <trkpt lat="55.002258997410536" lon="-5.985408006235957">
        <ele>2.54</ele>
        <time>2026-07-07T12:45:10Z</time>
      </trkpt>
      <trkpt lat="55.000968016684055" lon="-5.986867966130376">
        <ele>2.54</ele>
        <time>2026-07-07T12:45:17Z</time>
      </trkpt>
      <trkpt lat="55.000643972307444" lon="-5.987253030762076">
        <ele>3.02</ele>
        <time>2026-07-07T12:45:19Z</time>
      </trkpt>
      <trkpt lat="55.000498965382576" lon="-5.987398959696293">
        <ele>3.02</ele>
        <time>2026-07-07T12:45:20Z</time>
      </trkpt>
      <trkpt lat="55.000304002314806" lon="-5.987457968294621">
        <ele>3.02</ele>
        <time>2026-07-07T12:45:21Z</time>
      </trkpt>
      <trkpt lat="55.000130999833345" lon="-5.987511025741696">
        <ele>3.02</ele>
        <time>2026-07-07T12:45:22Z</time>
      </trkpt>
      <trkpt lat="54.999962020665407" lon="-5.987533992156386">
        <ele>3.02</ele>
        <time>2026-07-07T12:45:23Z</time>
      </trkpt>
      <trkpt lat="54.999788012355566" lon="-5.987472971901298">
        <ele>3.02</ele>
        <time>2026-07-07T12:45:24Z</time>
      </trkpt>
      <trkpt lat="54.999608974903822" lon="-5.987410023808479">
        <ele>3.5</ele>
        <time>2026-07-07T12:45:25Z</time>
      </trkpt>
      <trkpt lat="54.998296033591032" lon="-5.987331988289952">
        <ele>3.5</ele>
        <time>2026-07-07T12:45:32Z</time>
      </trkpt>
      <trkpt lat="54.996529966592789" lon="-5.987918972969055">
        <ele>3.98</ele>
        <time>2026-07-07T12:45:41Z</time>
      </trkpt>
      <trkpt lat="54.995882967486978" lon="-5.987915033474565">
        <ele>3.5</ele>
        <time>2026-07-07T12:45:46Z</time>
      </trkpt>
      <trkpt lat="54.995812978595495" lon="-5.987899024039507">
        <ele>3.5</ele>
        <time>2026-07-07T12:45:47Z</time>
      </trkpt>
      <trkpt lat="54.995717005804181" lon="-5.987874967977405">
        <ele>3.98</ele>
        <time>2026-07-07T12:45:53Z</time>
      </trkpt>
      <trkpt lat="54.995717005804181" lon="-5.987874967977405">
        <ele>3.98</ele>
        <time>2026-07-07T12:46:38Z</time>
      </trkpt>
      <trkpt lat="54.995480971410871" lon="-5.987833980470896">
        <ele>3.98</ele>
        <time>2026-07-07T12:46:46Z</time>
      </trkpt>
      <trkpt lat="54.995312998071313" lon="-5.987859964370728">
        <ele>3.98</ele>
        <time>2026-07-07T12:46:48Z</time>
      </trkpt>
      <trkpt lat="54.99524200335145" lon="-5.987871028482914">
        <ele>3.98</ele>
        <time>2026-07-07T12:46:49Z</time>
      </trkpt>
      <trkpt lat="54.995147036388516" lon="-5.987942023202777">
        <ele>3.98</ele>
        <time>2026-07-07T12:46:50Z</time>
      </trkpt>
      <trkpt lat="54.99507000669837" lon="-5.987999020144343">
        <ele>3.98</ele>
        <time>2026-07-07T12:46:51Z</time>
      </trkpt>
      <trkpt lat="54.99498400837183" lon="-5.988063979893923">
        <ele>3.98</ele>
        <time>2026-07-07T12:46:52Z</time>
      </trkpt>
      <trkpt lat="54.994932962581515" lon="-5.988130029290915">
        <ele>3.98</ele>
        <time>2026-07-07T12:46:53Z</time>
      </trkpt>
      <trkpt lat="54.994865991175175" lon="-5.988217033445835">
        <ele>3.98</ele>
        <time>2026-07-07T12:46:54Z</time>
      </trkpt>
      <trkpt lat="54.994798013940454" lon="-5.988304959610105">
        <ele>3.98</ele>
        <time>2026-07-07T12:46:55Z</time>
      </trkpt>
      <trkpt lat="54.994504982605577" lon="-5.988622969016433">
        <ele>4.94</ele>
        <time>2026-07-07T12:46:59Z</time>
      </trkpt>
      <trkpt lat="54.994414960965514" lon="-5.988691030070186">
        <ele>4.94</ele>
        <time>2026-07-07T12:47:00Z</time>
      </trkpt>
      <trkpt lat="54.994319994002581" lon="-5.988763030618429">
        <ele>4.94</ele>
        <time>2026-07-07T12:47:01Z</time>
      </trkpt>
      <trkpt lat="54.993729991838336" lon="-5.989198973402381">
        <ele>4.94</ele>
        <time>2026-07-07T12:47:08Z</time>
      </trkpt>
      <trkpt lat="54.993661008775234" lon="-5.989248007535934">
        <ele>5.42</ele>
        <time>2026-07-07T12:47:09Z</time>
      </trkpt>
      <trkpt lat="54.99281401745975" lon="-5.989822000265122">
        <ele>5.91</ele>
        <time>2026-07-07T12:47:20Z</time>
      </trkpt>
      <trkpt lat="54.992734976112843" lon="-5.989877991378307">
        <ele>5.42</ele>
        <time>2026-07-07T12:47:21Z</time>
      </trkpt>
      <trkpt lat="54.991884967312217" lon="-5.990500012412667">
        <ele>2.54</ele>
        <time>2026-07-07T12:47:34Z</time>
      </trkpt>
      <trkpt lat="54.991077035665512" lon="-5.991239966824651">
        <ele>3.02</ele>
        <time>2026-07-07T12:47:45Z</time>
      </trkpt>
      <trkpt lat="54.991008974611759" lon="-5.991335017606616">
        <ele>3.5</ele>
        <time>2026-07-07T12:47:46Z</time>
      </trkpt>
      <trkpt lat="54.990161983296275" lon="-5.992628009989858">
        <ele>4.94</ele>
        <time>2026-07-07T12:47:57Z</time>
      </trkpt>
      <trkpt lat="54.989962996914983" lon="-5.992785003036261">
        <ele>4.94</ele>
        <time>2026-07-07T12:47:59Z</time>
      </trkpt>
      <trkpt lat="54.989847997203469" lon="-5.992819033563137">
        <ele>4.94</ele>
        <time>2026-07-07T12:48:00Z</time>
      </trkpt>
      <trkpt lat="54.988700011745095" lon="-5.992828002199531">
        <ele>4.46</ele>
        <time>2026-07-07T12:48:10Z</time>
      </trkpt>
      <trkpt lat="54.987047016620636" lon="-5.992220984771848">
        <ele>5.42</ele>
        <time>2026-07-07T12:48:24Z</time>
      </trkpt>
      <trkpt lat="54.985339036211371" lon="-5.991272991523147">
        <ele>5.91</ele>
        <time>2026-07-07T12:48:39Z</time>
      </trkpt>
      <trkpt lat="54.983451012521982" lon="-5.989906992763281">
        <ele>4.46</ele>
        <time>2026-07-07T12:48:56Z</time>
      </trkpt>
      <trkpt lat="54.982181992381811" lon="-5.988731011748314">
        <ele>6.87</ele>
        <time>2026-07-07T12:49:08Z</time>
      </trkpt>
      <trkpt lat="54.981369031593204" lon="-5.987386973574758">
        <ele>6.39</ele>
        <time>2026-07-07T12:49:15Z</time>
      </trkpt>
      <trkpt lat="54.979873029515147" lon="-5.984881035983563">
        <ele>5.91</ele>
        <time>2026-07-07T12:49:27Z</time>
      </trkpt>
      <trkpt lat="54.978950014337897" lon="-5.982710961252451">
        <ele>6.39</ele>
        <time>2026-07-07T12:49:37Z</time>
      </trkpt>
      <trkpt lat="54.978680033236742" lon="-5.980871971696615">
        <ele>6.87</ele>
        <time>2026-07-07T12:49:45Z</time>
      </trkpt>
      <trkpt lat="54.978694031015038" lon="-5.980651024729013">
        <ele>6.87</ele>
        <time>2026-07-07T12:49:46Z</time>
      </trkpt>
      <trkpt lat="54.97872001491487" lon="-5.980415996164084">
        <ele>6.87</ele>
        <time>2026-07-07T12:49:47Z</time>
      </trkpt>
      <trkpt lat="54.979213960468769" lon="-5.978104015812278">
        <ele>5.42</ele>
        <time>2026-07-07T12:49:56Z</time>
      </trkpt>
      <trkpt lat="54.979964978992939" lon="-5.974942026659846">
        <ele>5.91</ele>
        <time>2026-07-07T12:50:07Z</time>
      </trkpt>
      <trkpt lat="54.980093976482749" lon="-5.974288992583752">
        <ele>5.91</ele>
        <time>2026-07-07T12:50:09Z</time>
      </trkpt>
      <trkpt lat="54.980967035517097" lon="-5.970586035400629">
        <ele>5.42</ele>
        <time>2026-07-07T12:50:20Z</time>
      </trkpt>
      <trkpt lat="54.980965023860335" lon="-5.97024598158896">
        <ele>5.42</ele>
        <time>2026-07-07T12:50:21Z</time>
      </trkpt>
      <trkpt lat="54.980956977233291" lon="-5.969916991889477">
        <ele>5.42</ele>
        <time>2026-07-07T12:50:22Z</time>
      </trkpt>
      <trkpt lat="54.980929987505078" lon="-5.969611974433065">
        <ele>5.42</ele>
        <time>2026-07-07T12:50:23Z</time>
      </trkpt>
      <trkpt lat="54.980862010270357" lon="-5.969341993331909">
        <ele>5.42</ele>
        <time>2026-07-07T12:50:24Z</time>
      </trkpt>
      <trkpt lat="54.980793027207255" lon="-5.969077041372657">
        <ele>5.42</ele>
        <time>2026-07-07T12:50:25Z</time>
      </trkpt>
      <trkpt lat="54.980692025274038" lon="-5.968834972009063">
        <ele>5.42</ele>
        <time>2026-07-07T12:50:26Z</time>
      </trkpt>
      <trkpt lat="54.980590017512441" lon="-5.96859198063612">
        <ele>5.42</ele>
        <time>2026-07-07T12:50:27Z</time>
      </trkpt>
      <trkpt lat="54.979662979021668" lon="-5.966309001669288">
        <ele>6.39</ele>
        <time>2026-07-07T12:50:37Z</time>
      </trkpt>
      <trkpt lat="54.978809030726552" lon="-5.964462971314788">
        <ele>7.35</ele>
        <time>2026-07-07T12:50:47Z</time>
      </trkpt>
      <trkpt lat="54.977691974490881" lon="-5.962587017565966">
        <ele>7.35</ele>
        <time>2026-07-07T12:50:58Z</time>
      </trkpt>
      <trkpt lat="54.976546000689268" lon="-5.961105013266206">
        <ele>7.83</ele>
        <time>2026-07-07T12:51:09Z</time>
      </trkpt>
      <trkpt lat="54.976318012923002" lon="-5.960905021056533">
        <ele>7.83</ele>
        <time>2026-07-07T12:51:11Z</time>
      </trkpt>
      <trkpt lat="54.976194966584444" lon="-5.960816005244851">
        <ele>7.83</ele>
        <time>2026-07-07T12:51:12Z</time>
      </trkpt>
      <trkpt lat="54.974556975066662" lon="-5.960104968398809">
        <ele>7.83</ele>
        <time>2026-07-07T12:51:25Z</time>
      </trkpt>
      <trkpt lat="54.974433006718755" lon="-5.960119972005487">
        <ele>8.310000000000001</ele>
        <time>2026-07-07T12:51:26Z</time>
      </trkpt>
      <trkpt lat="54.974322030320764" lon="-5.960134975612164">
        <ele>8.310000000000001</ele>
        <time>2026-07-07T12:51:27Z</time>
      </trkpt>
      <trkpt lat="54.974212981760502" lon="-5.96014897339046">
        <ele>8.310000000000001</ele>
        <time>2026-07-07T12:51:28Z</time>
      </trkpt>
      <trkpt lat="54.973028032109141" lon="-5.960275959223509">
        <ele>8.310000000000001</ele>
        <time>2026-07-07T12:51:39Z</time>
      </trkpt>
      <trkpt lat="54.972926024347544" lon="-5.960275959223509">
        <ele>7.83</ele>
        <time>2026-07-07T12:51:40Z</time>
      </trkpt>
      <trkpt lat="54.972828039899468" lon="-5.960218962281942">
        <ele>7.83</ele>
        <time>2026-07-07T12:51:41Z</time>
      </trkpt>
      <trkpt lat="54.972729971632361" lon="-5.960161965340376">
        <ele>7.35</ele>
        <time>2026-07-07T12:51:42Z</time>
      </trkpt>
      <trkpt lat="54.971698997542262" lon="-5.959479007869959">
        <ele>5.42</ele>
        <time>2026-07-07T12:51:53Z</time>
      </trkpt>
      <trkpt lat="54.970605997368693" lon="-5.958363963291049">
        <ele>4.94</ele>
        <time>2026-07-07T12:52:05Z</time>
      </trkpt>
      <trkpt lat="54.969132961705327" lon="-5.956252980977297">
        <ele>6.87</ele>
        <time>2026-07-07T12:52:23Z</time>
      </trkpt>
      <trkpt lat="54.968258980661631" lon="-5.955188982188702">
        <ele>5.91</ele>
        <time>2026-07-07T12:52:33Z</time>
      </trkpt>
      <trkpt lat="54.967921022325754" lon="-5.95466997474432">
        <ele>3.98</ele>
        <time>2026-07-07T12:52:37Z</time>
      </trkpt>
      <trkpt lat="54.967810967937112" lon="-5.954352971166372">
        <ele>3.5</ele>
        <time>2026-07-07T12:52:39Z</time>
      </trkpt>
      <trkpt lat="54.967766962945461" lon="-5.954191032797098">
        <ele>3.02</ele>
        <time>2026-07-07T12:52:40Z</time>
      </trkpt>
      <trkpt lat="54.967723963782191" lon="-5.954036973416805">
        <ele>3.02</ele>
        <time>2026-07-07T12:52:41Z</time>
      </trkpt>
      <trkpt lat="54.967577029019594" lon="-5.95335996709764">
        <ele>0.62</ele>
        <time>2026-07-07T12:52:48Z</time>
      </trkpt>
      <trkpt lat="54.967564959079027" lon="-5.953258965164423">
        <ele>0.62</ele>
        <time>2026-07-07T12:52:49Z</time>
      </trkpt>
      <trkpt lat="54.967603012919426" lon="-5.953134996816516">
        <ele>0.62</ele>
        <time>2026-07-07T12:52:50Z</time>
      </trkpt>
      <trkpt lat="54.967652969062328" lon="-5.953091997653246">
        <ele>0.14</ele>
        <time>2026-07-07T12:52:51Z</time>
      </trkpt>
      <trkpt lat="54.968256969004869" lon="-5.952332010492683">
        <ele>-0.34</ele>
        <time>2026-07-07T12:52:59Z</time>
      </trkpt>
      <trkpt lat="54.968316983431578" lon="-5.952144004404545">
        <ele>-0.34</ele>
        <time>2026-07-07T12:53:00Z</time>
      </trkpt>
      <trkpt lat="54.968355037271976" lon="-5.951952980831265">
        <ele>-0.34</ele>
        <time>2026-07-07T12:53:01Z</time>
      </trkpt>
      <trkpt lat="54.96838403865695" lon="-5.951750976964831">
        <ele>-0.34</ele>
        <time>2026-07-07T12:53:02Z</time>
      </trkpt>
      <trkpt lat="54.968398958444595" lon="-5.951543021947146">
        <ele>0.14</ele>
        <time>2026-07-07T12:53:03Z</time>
      </trkpt>
      <trkpt lat="54.968413040041924" lon="-5.951345041394234">
        <ele>0.14</ele>
        <time>2026-07-07T12:53:04Z</time>
      </trkpt>
      <trkpt lat="54.968441035598516" lon="-5.950964000076056">
        <ele>0.14</ele>
        <time>2026-07-07T12:53:06Z</time>
      </trkpt>
      <trkpt lat="54.968460984528065" lon="-5.950809018686414">
        <ele>0.14</ele>
        <time>2026-07-07T12:53:07Z</time>
      </trkpt>
      <trkpt lat="54.968516975641251" lon="-5.950668035075069">
        <ele>0.62</ele>
        <time>2026-07-07T12:53:08Z</time>
      </trkpt>
      <trkpt lat="54.968581013381481" lon="-5.950520010665059">
        <ele>1.58</ele>
        <time>2026-07-07T12:53:09Z</time>
      </trkpt>
      <trkpt lat="54.968653013929725" lon="-5.950387995690107">
        <ele>2.06</ele>
        <time>2026-07-07T12:53:10Z</time>
      </trkpt>
      <trkpt lat="54.968740018084645" lon="-5.950257992371917">
        <ele>2.06</ele>
        <time>2026-07-07T12:53:11Z</time>
      </trkpt>
      <trkpt lat="54.968827022239566" lon="-5.950127989053726">
        <ele>2.54</ele>
        <time>2026-07-07T12:53:12Z</time>
      </trkpt>
      <trkpt lat="54.968911008909345" lon="-5.950001003220677">
        <ele>3.02</ele>
        <time>2026-07-07T12:53:13Z</time>
      </trkpt>
      <trkpt lat="54.96978398412466" lon="-5.948377009481192">
        <ele>3.02</ele>
        <time>2026-07-07T12:53:23Z</time>
      </trkpt>
      <trkpt lat="54.970436012372375" lon="-5.946182040497661">
        <ele>2.54</ele>
        <time>2026-07-07T12:53:33Z</time>
      </trkpt>
      <trkpt lat="54.970500972121954" lon="-5.944417985156179">
        <ele>3.5</ele>
        <time>2026-07-07T12:53:40Z</time>
      </trkpt>
      <trkpt lat="54.970240965485573" lon="-5.941217020153999">
        <ele>4.94</ele>
        <time>2026-07-07T12:53:50Z</time>
      </trkpt>
      <trkpt lat="54.96984601020813" lon="-5.938734970986843">
        <ele>5.42</ele>
        <time>2026-07-07T12:53:58Z</time>
      </trkpt>
      <trkpt lat="54.969486007466912" lon="-5.936254011467099">
        <ele>5.42</ele>
        <time>2026-07-07T12:54:08Z</time>
      </trkpt>
      <trkpt lat="54.968991978093982" lon="-5.934473024681211">
        <ele>5.42</ele>
        <time>2026-07-07T12:54:13Z</time>
      </trkpt>
      <trkpt lat="54.968379009515047" lon="-5.93247402459383">
        <ele>6.39</ele>
        <time>2026-07-07T12:54:19Z</time>
      </trkpt>
      <trkpt lat="54.967589015141129" lon="-5.929988035932183">
        <ele>7.83</ele>
        <time>2026-07-07T12:54:30Z</time>
      </trkpt>
      <trkpt lat="54.967510979622602" lon="-5.929804975166917">
        <ele>7.83</ele>
        <time>2026-07-07T12:54:31Z</time>
      </trkpt>
      <trkpt lat="54.967409977689385" lon="-5.929654017090797">
        <ele>8.310000000000001</ele>
        <time>2026-07-07T12:54:32Z</time>
      </trkpt>
      <trkpt lat="54.967307969927788" lon="-5.929501969367266">
        <ele>8.310000000000001</ele>
        <time>2026-07-07T12:54:33Z</time>
      </trkpt>
      <trkpt lat="54.96720596216619" lon="-5.929347993806005">
        <ele>8.310000000000001</ele>
        <time>2026-07-07T12:54:34Z</time>
      </trkpt>
      <trkpt lat="54.967094985768199" lon="-5.929200975224376">
        <ele>8.310000000000001</ele>
        <time>2026-07-07T12:54:35Z</time>
      </trkpt>
      <trkpt lat="54.966211030259728" lon="-5.927851991727948">
        <ele>7.83</ele>
        <time>2026-07-07T12:54:44Z</time>
      </trkpt>
      <trkpt lat="54.965496975928545" lon="-5.92596597969532">
        <ele>9.27</ele>
        <time>2026-07-07T12:54:53Z</time>
      </trkpt>
      <trkpt lat="54.965416006743908" lon="-5.92575098387897">
        <ele>9.27</ele>
        <time>2026-07-07T12:54:54Z</time>
      </trkpt>
      <trkpt lat="54.965306958183646" lon="-5.925623998045921">
        <ele>9.75</ele>
        <time>2026-07-07T12:54:55Z</time>
      </trkpt>
      <trkpt lat="54.965186007320881" lon="-5.925482008606195">
        <ele>9.75</ele>
        <time>2026-07-07T12:54:56Z</time>
      </trkpt>
      <trkpt lat="54.965060027316213" lon="-5.925333984196186">
        <ele>10.23</ele>
        <time>2026-07-07T12:54:57Z</time>
      </trkpt>
      <trkpt lat="54.963575005531311" lon="-5.923464987426996">
        <ele>11.67</ele>
        <time>2026-07-07T12:55:09Z</time>
      </trkpt>
      <trkpt lat="54.963366966694593" lon="-5.923125017434359">
        <ele>11.19</ele>
        <time>2026-07-07T12:55:11Z</time>
      </trkpt>
      <trkpt lat="54.963279040530324" lon="-5.92293600551784">
        <ele>11.19</ele>
        <time>2026-07-07T12:55:12Z</time>
      </trkpt>
      <trkpt lat="54.963188013061881" lon="-5.92274003662169">
        <ele>11.19</ele>
        <time>2026-07-07T12:55:13Z</time>
      </trkpt>
      <trkpt lat="54.963108971714973" lon="-5.922539960592985">
        <ele>11.19</ele>
        <time>2026-07-07T12:55:14Z</time>
      </trkpt>
      <trkpt lat="54.963042000308633" lon="-5.922336028888822">
        <ele>11.19</ele>
        <time>2026-07-07T12:55:15Z</time>
      </trkpt>
      <trkpt lat="54.96277897618711" lon="-5.921561038121581">
        <ele>10.710000000000001</ele>
        <time>2026-07-07T12:55:19Z</time>
      </trkpt>
      <trkpt lat="54.962677974253893" lon="-5.921415025368333">
        <ele>11.19</ele>
        <time>2026-07-07T12:55:20Z</time>
      </trkpt>
      <trkpt lat="54.962572026997805" lon="-5.921275969594717">
        <ele>11.19</ele>
        <time>2026-07-07T12:55:21Z</time>
      </trkpt>
      <trkpt lat="54.962460966780782" lon="-5.921158958226442">
        <ele>11.19</ele>
        <time>2026-07-07T12:55:22Z</time>
      </trkpt>
      <trkpt lat="54.962352002039552" lon="-5.921044964343309">
        <ele>11.19</ele>
        <time>2026-07-07T12:55:23Z</time>
      </trkpt>
      <trkpt lat="54.962146980687976" lon="-5.920831980183721">
        <ele>11.67</ele>
        <time>2026-07-07T12:55:25Z</time>
      </trkpt>
      <trkpt lat="54.962058970704675" lon="-5.920697031542659">
        <ele>11.67</ele>
        <time>2026-07-07T12:55:26Z</time>
      </trkpt>
      <trkpt lat="54.961410965770483" lon="-5.919135985895991">
        <ele>11.67</ele>
        <time>2026-07-07T12:55:34Z</time>
      </trkpt>
      <trkpt lat="54.961313987150788" lon="-5.918952003121376">
        <ele>11.67</ele>
        <time>2026-07-07T12:55:35Z</time>
      </trkpt>
      <trkpt lat="54.96120996773243" lon="-5.918792998418212">
        <ele>11.19</ele>
        <time>2026-07-07T12:55:36Z</time>
      </trkpt>
      <trkpt lat="54.961107037961483" lon="-5.918634999543428">
        <ele>11.19</ele>
        <time>2026-07-07T12:55:37Z</time>
      </trkpt>
      <trkpt lat="54.960993966087699" lon="-5.918500972911716">
        <ele>11.19</ele>
        <time>2026-07-07T12:55:38Z</time>
      </trkpt>
      <trkpt lat="54.960858011618257" lon="-5.918373987078667">
        <ele>11.19</ele>
        <time>2026-07-07T12:55:39Z</time>
      </trkpt>
      <trkpt lat="54.960705041885376" lon="-5.91822998598218">
        <ele>10.710000000000001</ele>
        <time>2026-07-07T12:55:40Z</time>
      </trkpt>
      <trkpt lat="54.960533967241645" lon="-5.918070981279016">
        <ele>10.710000000000001</ele>
        <time>2026-07-07T12:55:41Z</time>
      </trkpt>
      <trkpt lat="54.959185989573598" lon="-5.916903968900442">
        <ele>9.27</ele>
        <time>2026-07-07T12:55:48Z</time>
      </trkpt>
      <trkpt lat="54.957667021080852" lon="-5.915410984307528">
        <ele>8.789999999999999</ele>
        <time>2026-07-07T12:55:57Z</time>
      </trkpt>
      <trkpt lat="54.956312002614141" lon="-5.913956975564361">
        <ele>9.27</ele>
        <time>2026-07-07T12:56:05Z</time>
      </trkpt>
      <trkpt lat="54.954693038016558" lon="-5.912820976227522">
        <ele>9.75</ele>
        <time>2026-07-07T12:56:14Z</time>
      </trkpt>
      <trkpt lat="54.953031996265054" lon="-5.911743985489011">
        <ele>5.91</ele>
        <time>2026-07-07T12:56:23Z</time>
      </trkpt>
      <trkpt lat="54.951687036082149" lon="-5.910244965925813">
        <ele>4.46</ele>
        <time>2026-07-07T12:56:31Z</time>
      </trkpt>
      <trkpt lat="54.950306033715606" lon="-5.908326013013721">
        <ele>4.46</ele>
        <time>2026-07-07T12:56:41Z</time>
      </trkpt>
      <trkpt lat="54.948765020817518" lon="-5.906835040077567">
        <ele>5.42</ele>
        <time>2026-07-07T12:56:50Z</time>
      </trkpt>
      <trkpt lat="54.948609033599496" lon="-5.906593976542354">
        <ele>5.91</ele>
        <time>2026-07-07T12:56:51Z</time>
      </trkpt>
      <trkpt lat="54.947799006476998" lon="-5.905443979427218">
        <ele>6.87</ele>
        <time>2026-07-07T12:56:56Z</time>
      </trkpt>
      <trkpt lat="54.947631033137441" lon="-5.905287992209196">
        <ele>6.87</ele>
        <time>2026-07-07T12:56:57Z</time>
      </trkpt>
      <trkpt lat="54.947445960715413" lon="-5.905181039124727">
        <ele>6.87</ele>
        <time>2026-07-07T12:56:58Z</time>
      </trkpt>
      <trkpt lat="54.947258038446307" lon="-5.905072996392846">
        <ele>6.87</ele>
        <time>2026-07-07T12:56:59Z</time>
      </trkpt>
      <trkpt lat="54.947066009044647" lon="-5.904977023601532">
        <ele>6.87</ele>
        <time>2026-07-07T12:57:00Z</time>
      </trkpt>
      <trkpt lat="54.946866016834974" lon="-5.904906028881669">
        <ele>6.87</ele>
        <time>2026-07-07T12:57:01Z</time>
      </trkpt>
      <trkpt lat="54.945258032530546" lon="-5.903977984562516">
        <ele>5.91</ele>
        <time>2026-07-07T12:57:09Z</time>
      </trkpt>
      <trkpt lat="54.94453601539135" lon="-5.902875009924173">
        <ele>5.91</ele>
        <time>2026-07-07T12:57:14Z</time>
      </trkpt>
      <trkpt lat="54.944441970437765" lon="-5.902599999681115">
        <ele>5.91</ele>
        <time>2026-07-07T12:57:15Z</time>
      </trkpt>
      <trkpt lat="54.944136030972004" lon="-5.901758959516883">
        <ele>6.39</ele>
        <time>2026-07-07T12:57:18Z</time>
      </trkpt>
      <trkpt lat="54.944016002118587" lon="-5.901494007557631">
        <ele>6.39</ele>
        <time>2026-07-07T12:57:19Z</time>
      </trkpt>
      <trkpt lat="54.943860014900565" lon="-5.901284040883184">
        <ele>6.39</ele>
        <time>2026-07-07T12:57:20Z</time>
      </trkpt>
      <trkpt lat="54.94370000436902" lon="-5.901082037016749">
        <ele>6.39</ele>
        <time>2026-07-07T12:57:21Z</time>
      </trkpt>
      <trkpt lat="54.943537982180715" lon="-5.900879027321935">
        <ele>6.39</ele>
        <time>2026-07-07T12:57:22Z</time>
      </trkpt>
      <trkpt lat="54.943373026326299" lon="-5.900670988485217">
        <ele>5.91</ele>
        <time>2026-07-07T12:57:23Z</time>
      </trkpt>
      <trkpt lat="54.941811980679631" lon="-5.899372966960073">
        <ele>4.94</ele>
        <time>2026-07-07T12:57:32Z</time>
      </trkpt>
      <trkpt lat="54.940417986363173" lon="-5.898498985916376">
        <ele>3.02</ele>
        <time>2026-07-07T12:57:40Z</time>
      </trkpt>
      <trkpt lat="54.937924034893513" lon="-5.896331006661058">
        <ele>5.42</ele>
        <time>2026-07-07T12:57:53Z</time>
      </trkpt>
      <trkpt lat="54.936259975656867" lon="-5.895086964592338">
        <ele>6.87</ele>
        <time>2026-07-07T12:58:02Z</time>
      </trkpt>
      <trkpt lat="54.933666028082371" lon="-5.893445033580065">
        <ele>9.75</ele>
        <time>2026-07-07T12:58:16Z</time>
      </trkpt>
      <trkpt lat="54.931405009701848" lon="-5.892170984297991">
        <ele>7.83</ele>
        <time>2026-07-07T12:58:28Z</time>
      </trkpt>
      <trkpt lat="54.929736005142331" lon="-5.890782019123435">
        <ele>8.310000000000001</ele>
        <time>2026-07-07T12:58:37Z</time>
      </trkpt>
      <trkpt lat="54.927473980933428" lon="-5.889991018921137">
        <ele>6.87</ele>
        <time>2026-07-07T12:58:48Z</time>
      </trkpt>
      <trkpt lat="54.926089039072394" lon="-5.88984701782465">
        <ele>8.789999999999999</ele>
        <time>2026-07-07T12:58:55Z</time>
      </trkpt>
      <trkpt lat="54.92449102923274" lon="-5.88890396989882">
        <ele>7.35</ele>
        <time>2026-07-07T12:59:03Z</time>
      </trkpt>
      <trkpt lat="54.922229005023837" lon="-5.887521961703897">
        <ele>8.310000000000001</ele>
        <time>2026-07-07T12:59:15Z</time>
      </trkpt>
      <trkpt lat="54.920691009610891" lon="-5.886886026710272">
        <ele>9.75</ele>
        <time>2026-07-07T12:59:23Z</time>
      </trkpt>
      <trkpt lat="54.920521024614573" lon="-5.886792987585068">
        <ele>9.27</ele>
        <time>2026-07-07T12:59:24Z</time>
      </trkpt>
      <trkpt lat="54.920346010476351" lon="-5.886787036433816">
        <ele>8.789999999999999</ele>
        <time>2026-07-07T12:59:25Z</time>
      </trkpt>
      <trkpt lat="54.920165967196226" lon="-5.886789970099926">
        <ele>8.310000000000001</ele>
        <time>2026-07-07T12:59:26Z</time>
      </trkpt>
      <trkpt lat="54.919023010879755" lon="-5.886719981208444">
        <ele>7.83</ele>
        <time>2026-07-07T12:59:32Z</time>
      </trkpt>
      <trkpt lat="54.918847996741533" lon="-5.886635994538665">
        <ele>8.310000000000001</ele>
        <time>2026-07-07T12:59:33Z</time>
      </trkpt>
      <trkpt lat="54.918683962896466" lon="-5.886489981785417">
        <ele>8.789999999999999</ele>
        <time>2026-07-07T12:59:34Z</time>
      </trkpt>
      <trkpt lat="54.917216040194035" lon="-5.884717963635922">
        <ele>10.23</ele>
        <time>2026-07-07T12:59:43Z</time>
      </trkpt>
      <trkpt lat="54.916292019188404" lon="-5.883451038971543">
        <ele>10.23</ele>
        <time>2026-07-07T12:59:49Z</time>
      </trkpt>
      <trkpt lat="54.91613301448524" lon="-5.883292034268379">
        <ele>9.75</ele>
        <time>2026-07-07T12:59:50Z</time>
      </trkpt>
      <trkpt lat="54.915970992296934" lon="-5.883158007636666">
        <ele>9.75</ele>
        <time>2026-07-07T12:59:51Z</time>
      </trkpt>
      <trkpt lat="54.915802013128996" lon="-5.883086007088423">
        <ele>9.75</ele>
        <time>2026-07-07T12:59:52Z</time>
      </trkpt>
      <trkpt lat="54.915638985112309" lon="-5.883049964904785">
        <ele>9.75</ele>
        <time>2026-07-07T12:59:53Z</time>
      </trkpt>
      <trkpt lat="54.915477968752384" lon="-5.883065974339843">
        <ele>9.75</ele>
        <time>2026-07-07T12:59:54Z</time>
      </trkpt>
      <trkpt lat="54.915313012897968" lon="-5.883119031786919">
        <ele>10.23</ele>
        <time>2026-07-07T12:59:55Z</time>
      </trkpt>
      <trkpt lat="54.91514403373003" lon="-5.883174017071724">
        <ele>10.23</ele>
        <time>2026-07-07T12:59:56Z</time>
      </trkpt>
      <trkpt lat="54.914249014109373" lon="-5.883345007896423">
        <ele>12.15</ele>
        <time>2026-07-07T13:00:01Z</time>
      </trkpt>
      <trkpt lat="54.914076011627913" lon="-5.883346013724804">
        <ele>12.630000000000001</ele>
        <time>2026-07-07T13:00:02Z</time>
      </trkpt>
      <trkpt lat="54.913907032459974" lon="-5.883287005126476">
        <ele>12.630000000000001</ele>
        <time>2026-07-07T13:00:03Z</time>
      </trkpt>
      <trkpt lat="54.913733024150133" lon="-5.883226990699768">
        <ele>12.630000000000001</ele>
        <time>2026-07-07T13:00:04Z</time>
      </trkpt>
      <trkpt lat="54.91355599835515" lon="-5.883152978494763">
        <ele>13.119999999999999</ele>
        <time>2026-07-07T13:00:05Z</time>
      </trkpt>
      <trkpt lat="54.911961006000638" lon="-5.881965011358261">
        <ele>13.119999999999999</ele>
        <time>2026-07-07T13:00:14Z</time>
      </trkpt>
      <trkpt lat="54.909662017598748" lon="-5.880068019032478">
        <ele>11.67</ele>
        <time>2026-07-07T13:00:26Z</time>
      </trkpt>
      <trkpt lat="54.907164964824915" lon="-5.877700969576836">
        <ele>7.83</ele>
        <time>2026-07-07T13:00:39Z</time>
      </trkpt>
      <trkpt lat="54.906151005998254" lon="-5.876302029937506">
        <ele>6.87</ele>
        <time>2026-07-07T13:00:47Z</time>
      </trkpt>
      <trkpt lat="54.904845021665096" lon="-5.873931962996721">
        <ele>7.83</ele>
        <time>2026-07-07T13:00:59Z</time>
      </trkpt>
      <trkpt lat="54.904710995033383" lon="-5.873428964987397">
        <ele>7.35</ele>
        <time>2026-07-07T13:01:01Z</time>
      </trkpt>
      <trkpt lat="54.90466296672821" lon="-5.873173987492919">
        <ele>7.35</ele>
        <time>2026-07-07T13:01:02Z</time>
      </trkpt>
      <trkpt lat="54.904620973393321" lon="-5.872907023876905">
        <ele>7.35</ele>
        <time>2026-07-07T13:01:03Z</time>
      </trkpt>
      <trkpt lat="54.904100960120559" lon="-5.870577022433281">
        <ele>8.310000000000001</ele>
        <time>2026-07-07T13:01:12Z</time>
      </trkpt>
      <trkpt lat="54.903122037649155" lon="-5.868052979931235">
        <ele>9.27</ele>
        <time>2026-07-07T13:01:24Z</time>
      </trkpt>
      <trkpt lat="54.902037000283599" lon="-5.865924982354045">
        <ele>7.35</ele>
        <time>2026-07-07T13:01:37Z</time>
      </trkpt>
      <trkpt lat="54.90066597238183" lon="-5.863769995048642">
        <ele>8.310000000000001</ele>
        <time>2026-07-07T13:01:52Z</time>
      </trkpt>
      <trkpt lat="54.899713033810258" lon="-5.862026978284121">
        <ele>9.27</ele>
        <time>2026-07-07T13:02:03Z</time>
      </trkpt>
      <trkpt lat="54.899191008880734" lon="-5.8606499992311">
        <ele>12.630000000000001</ele>
        <time>2026-07-07T13:02:13Z</time>
      </trkpt>
      <trkpt lat="54.898759005591273" lon="-5.85914796218276">
        <ele>13.6</ele>
        <time>2026-07-07T13:02:22Z</time>
      </trkpt>
      <trkpt lat="54.898518025875092" lon="-5.857280977070332">
        <ele>12.15</ele>
        <time>2026-07-07T13:02:31Z</time>
      </trkpt>
      <trkpt lat="54.898510985076427" lon="-5.857107974588871">
        <ele>12.15</ele>
        <time>2026-07-07T13:02:32Z</time>
      </trkpt>
      <trkpt lat="54.898536968976259" lon="-5.856903037056327">
        <ele>11.67</ele>
        <time>2026-07-07T13:02:33Z</time>
      </trkpt>
      <trkpt lat="54.898933013901114" lon="-5.854389974847436">
        <ele>9.27</ele>
        <time>2026-07-07T13:02:45Z</time>
      </trkpt>
      <trkpt lat="54.898986993357539" lon="-5.854171961545944">
        <ele>8.789999999999999</ele>
        <time>2026-07-07T13:02:46Z</time>
      </trkpt>
      <trkpt lat="54.899067962542176" lon="-5.853978004306555">
        <ele>8.310000000000001</ele>
        <time>2026-07-07T13:02:47Z</time>
      </trkpt>
      <trkpt lat="54.899147003889084" lon="-5.853788992390037">
        <ele>8.310000000000001</ele>
        <time>2026-07-07T13:02:48Z</time>
      </trkpt>
      <trkpt lat="54.899913026019931" lon="-5.851712040603161">
        <ele>7.35</ele>
        <time>2026-07-07T13:02:59Z</time>
      </trkpt>
      <trkpt lat="54.900219971314073" lon="-5.850227018818259">
        <ele>7.83</ele>
        <time>2026-07-07T13:03:05Z</time>
      </trkpt>
      <trkpt lat="54.90023497492075" lon="-5.849981009960175">
        <ele>7.83</ele>
        <time>2026-07-07T13:03:06Z</time>
      </trkpt>
      <trkpt lat="54.900247966870666" lon="-5.849736006930471">
        <ele>7.83</ele>
        <time>2026-07-07T13:03:07Z</time>
      </trkpt>
      <trkpt lat="54.900174960494041" lon="-5.848089968785644">
        <ele>8.789999999999999</ele>
        <time>2026-07-07T13:03:14Z</time>
      </trkpt>
      <trkpt lat="54.900203961879015" lon="-5.847853012382984">
        <ele>8.789999999999999</ele>
        <time>2026-07-07T13:03:15Z</time>
      </trkpt>
      <trkpt lat="54.900252996012568" lon="-5.847619995474815">
        <ele>8.789999999999999</ele>
        <time>2026-07-07T13:03:16Z</time>
      </trkpt>
      <trkpt lat="54.900328014045954" lon="-5.847426960244775">
        <ele>8.789999999999999</ele>
        <time>2026-07-07T13:03:17Z</time>
      </trkpt>
      <trkpt lat="54.900419041514397" lon="-5.847250018268824">
        <ele>8.789999999999999</ele>
        <time>2026-07-07T13:03:18Z</time>
      </trkpt>
      <trkpt lat="54.900508979335427" lon="-5.847076009958983">
        <ele>8.789999999999999</ele>
        <time>2026-07-07T13:03:19Z</time>
      </trkpt>
      <trkpt lat="54.900588020682335" lon="-5.846882974728942">
        <ele>8.789999999999999</ele>
        <time>2026-07-07T13:03:20Z</time>
      </trkpt>
      <trkpt lat="54.900634959340096" lon="-5.846678959205747">
        <ele>9.27</ele>
        <time>2026-07-07T13:03:21Z</time>
      </trkpt>
      <trkpt lat="54.900666978210211" lon="-5.846422975882888">
        <ele>9.75</ele>
        <time>2026-07-07T13:03:22Z</time>
      </trkpt>
      <trkpt lat="54.900725986808538" lon="-5.844933008775115">
        <ele>11.19</ele>
        <time>2026-07-07T13:03:28Z</time>
      </trkpt>
      <trkpt lat="54.90070603787899" lon="-5.844757994636893">
        <ele>11.19</ele>
        <time>2026-07-07T13:03:29Z</time>
      </trkpt>
      <trkpt lat="54.900649962946773" lon="-5.844607036560774">
        <ele>11.19</ele>
        <time>2026-07-07T13:03:30Z</time>
      </trkpt>
      <trkpt lat="54.900563964620233" lon="-5.844475021585822">
        <ele>11.67</ele>
        <time>2026-07-07T13:03:31Z</time>
      </trkpt>
      <trkpt lat="54.900458017364144" lon="-5.844349041581154">
        <ele>11.67</ele>
        <time>2026-07-07T13:03:32Z</time>
      </trkpt>
      <trkpt lat="54.900347962975502" lon="-5.844219038262963">
        <ele>11.67</ele>
        <time>2026-07-07T13:03:33Z</time>
      </trkpt>
      <trkpt lat="54.899197965860367" lon="-5.843040039762855">
        <ele>11.19</ele>
        <time>2026-07-07T13:03:42Z</time>
      </trkpt>
      <trkpt lat="54.898282997310162" lon="-5.842537041753531">
        <ele>10.710000000000001</ele>
        <time>2026-07-07T13:03:47Z</time>
      </trkpt>
      <trkpt lat="54.897175999358296" lon="-5.841924995183945">
        <ele>9.75</ele>
        <time>2026-07-07T13:03:52Z</time>
      </trkpt>
      <trkpt lat="54.895640015602112" lon="-5.841490980237722">
        <ele>3.98</ele>
        <time>2026-07-07T13:04:00Z</time>
      </trkpt>
      <trkpt lat="54.893772024661303" lon="-5.841132989153266">
        <ele>3.02</ele>
        <time>2026-07-07T13:04:10Z</time>
      </trkpt>
      <trkpt lat="54.892900977283716" lon="-5.841271039098501">
        <ele>5.42</ele>
        <time>2026-07-07T13:04:15Z</time>
      </trkpt>
      <trkpt lat="54.89226202480495" lon="-5.841650990769267">
        <ele>6.87</ele>
        <time>2026-07-07T13:04:19Z</time>
      </trkpt>
      <trkpt lat="54.89211299456656" lon="-5.841745035722852">
        <ele>7.35</ele>
        <time>2026-07-07T13:04:20Z</time>
      </trkpt>
      <trkpt lat="54.890885967761278" lon="-5.842436961829662">
        <ele>4.94</ele>
        <time>2026-07-07T13:04:28Z</time>
      </trkpt>
      <trkpt lat="54.889794979244471" lon="-5.842704009264708">
        <ele>4.46</ele>
        <time>2026-07-07T13:04:35Z</time>
      </trkpt>
      <trkpt lat="54.889641003683209" lon="-5.842641983181238">
        <ele>4.94</ele>
        <time>2026-07-07T13:04:36Z</time>
      </trkpt>
      <trkpt lat="54.889486022293568" lon="-5.842548022046685">
        <ele>4.94</ele>
        <time>2026-07-07T13:04:37Z</time>
      </trkpt>
      <trkpt lat="54.889345960691571" lon="-5.842410977929831">
        <ele>5.42</ele>
        <time>2026-07-07T13:04:38Z</time>
      </trkpt>
      <trkpt lat="54.889206988736987" lon="-5.842274017632008">
        <ele>5.42</ele>
        <time>2026-07-07T13:04:39Z</time>
      </trkpt>
      <trkpt lat="54.8880510404706" lon="-5.841212030500174">
        <ele>6.39</ele>
        <time>2026-07-07T13:04:48Z</time>
      </trkpt>
      <trkpt lat="54.88779597915709" lon="-5.841069035232067">
        <ele>5.91</ele>
        <time>2026-07-07T13:04:50Z</time>
      </trkpt>
      <trkpt lat="54.886507010087371" lon="-5.840340983122587">
        <ele>5.91</ele>
        <time>2026-07-07T13:05:00Z</time>
      </trkpt>
      <trkpt lat="54.885963024571538" lon="-5.840129004791379">
        <ele>6.39</ele>
        <time>2026-07-07T13:05:04Z</time>
      </trkpt>
      <trkpt lat="54.884254038333893" lon="-5.839532967656851">
        <ele>6.39</ele>
        <time>2026-07-07T13:05:16Z</time>
      </trkpt>
      <trkpt lat="54.882691986858845" lon="-5.838869037106633">
        <ele>7.35</ele>
        <time>2026-07-07T13:05:28Z</time>
      </trkpt>
      <trkpt lat="54.881228003650904" lon="-5.837950967252255">
        <ele>7.35</ele>
        <time>2026-07-07T13:05:41Z</time>
      </trkpt>
      <trkpt lat="54.88005998544395" lon="-5.836625033989549">
        <ele>6.87</ele>
        <time>2026-07-07T13:05:52Z</time>
      </trkpt>
      <trkpt lat="54.878746960312128" lon="-5.8348039817065">
        <ele>8.310000000000001</ele>
        <time>2026-07-07T13:06:05Z</time>
      </trkpt>
      <trkpt lat="54.877548012882471" lon="-5.832492001354694">
        <ele>9.75</ele>
        <time>2026-07-07T13:06:19Z</time>
      </trkpt>
      <trkpt lat="54.877257999032736" lon="-5.830836994573474">
        <ele>9.27</ele>
        <time>2026-07-07T13:06:27Z</time>
      </trkpt>
      <trkpt lat="54.87696697935462" lon="-5.828547980636358">
        <ele>5.91</ele>
        <time>2026-07-07T13:06:38Z</time>
      </trkpt>
      <trkpt lat="54.876917023211718" lon="-5.828381013125181">
        <ele>5.42</ele>
        <time>2026-07-07T13:06:39Z</time>
      </trkpt>
      <trkpt lat="54.876362979412079" lon="-5.826520984992385">
        <ele>4.46</ele>
        <time>2026-07-07T13:06:48Z</time>
      </trkpt>
      <trkpt lat="54.875960983335972" lon="-5.824959017336369">
        <ele>6.39</ele>
        <time>2026-07-07T13:06:56Z</time>
      </trkpt>
      <trkpt lat="54.875936005264521" lon="-5.824751984328032">
        <ele>6.39</ele>
        <time>2026-07-07T13:06:57Z</time>
      </trkpt>
      <trkpt lat="54.875915972515941" lon="-5.824546962976456">
        <ele>6.87</ele>
        <time>2026-07-07T13:06:58Z</time>
      </trkpt>
      <trkpt lat="54.875921001657844" lon="-5.824330039322376">
        <ele>6.39</ele>
        <time>2026-07-07T13:06:59Z</time>
      </trkpt>
      <trkpt lat="54.875927036628127" lon="-5.824111020192504">
        <ele>6.39</ele>
        <time>2026-07-07T13:07:00Z</time>
      </trkpt>
      <trkpt lat="54.875931981950998" lon="-5.823884038254619">
        <ele>6.39</ele>
        <time>2026-07-07T13:07:01Z</time>
      </trkpt>
      <trkpt lat="54.875937011092901" lon="-5.8234360255301">
        <ele>6.39</ele>
        <time>2026-07-07T13:07:03Z</time>
      </trkpt>
      <trkpt lat="54.875937011092901" lon="-5.823223041370511">
        <ele>6.39</ele>
        <time>2026-07-07T13:07:04Z</time>
      </trkpt>
      <trkpt lat="54.875888982787728" lon="-5.823030006140471">
        <ele>6.39</ele>
        <time>2026-07-07T13:07:05Z</time>
      </trkpt>
      <trkpt lat="54.875821005553007" lon="-5.822845017537475">
        <ele>6.39</ele>
        <time>2026-07-07T13:07:06Z</time>
      </trkpt>
      <trkpt lat="54.875750010833144" lon="-5.822649970650673">
        <ele>5.91</ele>
        <time>2026-07-07T13:07:07Z</time>
      </trkpt>
      <trkpt lat="54.875671975314617" lon="-5.822475962340832">
        <ele>5.91</ele>
        <time>2026-07-07T13:07:08Z</time>
      </trkpt>
      <trkpt lat="54.875573990866542" lon="-5.822333972901106">
        <ele>5.42</ele>
        <time>2026-07-07T13:07:09Z</time>
      </trkpt>
      <trkpt lat="54.875479023903608" lon="-5.822195000946522">
        <ele>5.42</ele>
        <time>2026-07-07T13:07:10Z</time>
      </trkpt>
      <trkpt lat="54.875386990606785" lon="-5.822060974314809">
        <ele>5.42</ele>
        <time>2026-07-07T13:07:11Z</time>
      </trkpt>
      <trkpt lat="54.875098988413811" lon="-5.821701977401972">
        <ele>5.42</ele>
        <time>2026-07-07T13:07:14Z</time>
      </trkpt>
      <trkpt lat="54.87498801201582" lon="-5.8215899951756">
        <ele>5.91</ele>
        <time>2026-07-07T13:07:15Z</time>
      </trkpt>
      <trkpt lat="54.873757967725396" lon="-5.820551980286837">
        <ele>4.46</ele>
        <time>2026-07-07T13:07:25Z</time>
      </trkpt>
      <trkpt lat="54.872330026701093" lon="-5.819047009572387">
        <ele>4.94</ele>
        <time>2026-07-07T13:07:37Z</time>
      </trkpt>
      <trkpt lat="54.871071986854076" lon="-5.817217994481325">
        <ele>5.42</ele>
        <time>2026-07-07T13:07:47Z</time>
      </trkpt>
      <trkpt lat="54.869906986132264" lon="-5.815744958817959">
        <ele>4.94</ele>
        <time>2026-07-07T13:07:56Z</time>
      </trkpt>
      <trkpt lat="54.86882396042347" lon="-5.814082995057106">
        <ele>5.42</ele>
        <time>2026-07-07T13:08:06Z</time>
      </trkpt>
      <trkpt lat="54.868508968502283" lon="-5.813415041193366">
        <ele>5.42</ele>
        <time>2026-07-07T13:08:10Z</time>
      </trkpt>
      <trkpt lat="54.867371041327715" lon="-5.811533974483609">
        <ele>6.39</ele>
        <time>2026-07-07T13:08:19Z</time>
      </trkpt>
      <trkpt lat="54.865706982091069" lon="-5.810205023735762">
        <ele>9.27</ele>
        <time>2026-07-07T13:08:30Z</time>
      </trkpt>
      <trkpt lat="54.864203017205" lon="-5.809273961931467">
        <ele>12.630000000000001</ele>
        <time>2026-07-07T13:08:40Z</time>
      </trkpt>
      <trkpt lat="54.862719001248479" lon="-5.808767024427652">
        <ele>15.52</ele>
        <time>2026-07-07T13:08:49Z</time>
      </trkpt>
      <trkpt lat="54.86156003549695" lon="-5.808660993352532">
        <ele>19.359999999999999</ele>
        <time>2026-07-07T13:08:57Z</time>
      </trkpt>
      <trkpt lat="54.860482960939407" lon="-5.808625034987927">
        <ele>21.77</ele>
        <time>2026-07-07T13:09:05Z</time>
      </trkpt>
      <trkpt lat="54.859505966305733" lon="-5.808760989457369">
        <ele>24.649999999999999</ele>
        <time>2026-07-07T13:09:13Z</time>
      </trkpt>
      <trkpt lat="54.858437022194266" lon="-5.809319978579879">
        <ele>25.129999999999999</ele>
        <time>2026-07-07T13:09:23Z</time>
      </trkpt>
      <trkpt lat="54.857008997350931" lon="-5.810136962682009">
        <ele>20.809999999999999</ele>
        <time>2026-07-07T13:09:36Z</time>
      </trkpt>
      <trkpt lat="54.856109032407403" lon="-5.810662005096674">
        <ele>18.399999999999999</ele>
        <time>2026-07-07T13:09:46Z</time>
      </trkpt>
      <trkpt lat="54.854983007535338" lon="-5.811284026131034">
        <ele>14.56</ele>
        <time>2026-07-07T13:09:57Z</time>
      </trkpt>
      <trkpt lat="54.853839967399836" lon="-5.81194301135838">
        <ele>11.67</ele>
        <time>2026-07-07T13:10:08Z</time>
      </trkpt>
      <trkpt lat="54.85279600135982" lon="-5.812533013522625">
        <ele>11.19</ele>
        <time>2026-07-07T13:10:18Z</time>
      </trkpt>
      <trkpt lat="54.852583017200232" lon="-5.812665028497577">
        <ele>9.75</ele>
        <time>2026-07-07T13:10:21Z</time>
      </trkpt>
      <trkpt lat="54.852510010823607" lon="-5.812710039317608">
        <ele>9.27</ele>
        <time>2026-07-07T13:10:22Z</time>
      </trkpt>
      <trkpt lat="54.852239023894072" lon="-5.812882035970688">
        <ele>6.87</ele>
        <time>2026-07-07T13:10:26Z</time>
      </trkpt>
      <trkpt lat="54.851911962032318" lon="-5.813099965453148">
        <ele>4.94</ele>
        <time>2026-07-07T13:10:32Z</time>
      </trkpt>
      <trkpt lat="54.851746000349522" lon="-5.813170960173011">
        <ele>5.91</ele>
        <time>2026-07-07T13:10:37Z</time>
      </trkpt>
      <trkpt lat="54.851489011198282" lon="-5.813388973474503">
        <ele>4.94</ele>
        <time>2026-07-07T13:10:40Z</time>
      </trkpt>
      <trkpt lat="54.851423967629671" lon="-5.813448987901211">
        <ele>3.02</ele>
        <time>2026-07-07T13:10:41Z</time>
      </trkpt>
      <trkpt lat="54.851350039243698" lon="-5.813517970964313">
        <ele>1.58</ele>
        <time>2026-07-07T13:10:42Z</time>
      </trkpt>
      <trkpt lat="54.851120039820671" lon="-5.813754005357623">
        <ele>-0.82</ele>
        <time>2026-07-07T13:10:45Z</time>
      </trkpt>
      <trkpt lat="54.850508999079466" lon="-5.814909031614661">
        <ele>1.1</ele>
        <time>2026-07-07T13:10:56Z</time>
      </trkpt>
      <trkpt lat="54.850366003811359" lon="-5.815046997740865">
        <ele>1.58</ele>
        <time>2026-07-07T13:10:57Z</time>
      </trkpt>
      <trkpt lat="54.850292997434735" lon="-5.815107012167573">
        <ele>1.58</ele>
        <time>2026-07-07T13:10:58Z</time>
      </trkpt>
      <trkpt lat="54.850197024643421" lon="-5.815150011330843">
        <ele>2.06</ele>
        <time>2026-07-07T13:10:59Z</time>
      </trkpt>
      <trkpt lat="54.849924026057124" lon="-5.815240032970905">
        <ele>1.58</ele>
        <time>2026-07-07T13:11:02Z</time>
      </trkpt>
      <trkpt lat="54.849846996366978" lon="-5.815311027690768">
        <ele>2.06</ele>
        <time>2026-07-07T13:11:03Z</time>
      </trkpt>
      <trkpt lat="54.849774995818734" lon="-5.815398031845689">
        <ele>2.06</ele>
        <time>2026-07-07T13:11:04Z</time>
      </trkpt>
      <trkpt lat="54.849748006090522" lon="-5.815542032942176">
        <ele>2.54</ele>
        <time>2026-07-07T13:11:06Z</time>
      </trkpt>
      <trkpt lat="54.849747000262141" lon="-5.815839003771544">
        <ele>3.02</ele>
        <time>2026-07-07T13:11:07Z</time>
      </trkpt>
      <trkpt lat="54.849785976111889" lon="-5.815997002646327">
        <ele>3.5</ele>
        <time>2026-07-07T13:11:08Z</time>
      </trkpt>
      <trkpt lat="54.849743982776999" lon="-5.816261032596231">
        <ele>3.5</ele>
        <time>2026-07-07T13:11:09Z</time>
      </trkpt>
      <trkpt lat="54.849698971956968" lon="-5.816417019814253">
        <ele>3.98</ele>
        <time>2026-07-07T13:11:10Z</time>
      </trkpt>
      <trkpt lat="54.849654966965318" lon="-5.816573007032275">
        <ele>3.98</ele>
        <time>2026-07-07T13:11:11Z</time>
      </trkpt>
      <trkpt lat="54.849609034135938" lon="-5.816732011735439">
        <ele>3.98</ele>
        <time>2026-07-07T13:11:12Z</time>
      </trkpt>
      <trkpt lat="54.849562011659145" lon="-5.816897973418236">
        <ele>3.98</ele>
        <time>2026-07-07T13:11:13Z</time>
      </trkpt>
      <trkpt lat="54.848875030875206" lon="-5.818339996039867">
        <ele>2.54</ele>
        <time>2026-07-07T13:11:22Z</time>
      </trkpt>
      <trkpt lat="54.848804958164692" lon="-5.818510986864567">
        <ele>2.06</ele>
        <time>2026-07-07T13:11:23Z</time>
      </trkpt>
      <trkpt lat="54.848703034222126" lon="-5.818821033462882">
        <ele>2.54</ele>
        <time>2026-07-07T13:11:25Z</time>
      </trkpt>
      <trkpt lat="54.84867000952363" lon="-5.818975009024143">
        <ele>2.54</ele>
        <time>2026-07-07T13:11:26Z</time>
      </trkpt>
      <trkpt lat="54.848636984825134" lon="-5.819122027605772">
        <ele>2.06</ele>
        <time>2026-07-07T13:11:27Z</time>
      </trkpt>
      <trkpt lat="54.848621981218457" lon="-5.819583032280207">
        <ele>2.06</ele>
        <time>2026-07-07T13:11:30Z</time>
      </trkpt>
      <trkpt lat="54.848621981218457" lon="-5.819857036694884">
        <ele>1.58</ele>
        <time>2026-07-07T13:11:32Z</time>
      </trkpt>
      <trkpt lat="54.848660035058856" lon="-5.820027021691203">
        <ele>1.58</ele>
        <time>2026-07-07T13:11:33Z</time>
      </trkpt>
      <trkpt lat="54.84868903644383" lon="-5.820154007524252">
        <ele>1.58</ele>
        <time>2026-07-07T13:11:34Z</time>
      </trkpt>
      <trkpt lat="54.848718037828803" lon="-5.820277975872159">
        <ele>1.58</ele>
        <time>2026-07-07T13:11:35Z</time>
      </trkpt>
      <trkpt lat="54.848743015900254" lon="-5.820390963926911">
        <ele>2.06</ele>
        <time>2026-07-07T13:11:36Z</time>
      </trkpt>
      <trkpt lat="54.848766988143325" lon="-5.82049498334527">
        <ele>2.06</ele>
        <time>2026-07-07T13:11:37Z</time>
      </trkpt>
      <trkpt lat="54.848792972043157" lon="-5.820607971400023">
        <ele>2.54</ele>
        <time>2026-07-07T13:11:38Z</time>
      </trkpt>
      <trkpt lat="54.848761959001422" lon="-5.82079203799367">
        <ele>2.54</ele>
        <time>2026-07-07T13:11:39Z</time>
      </trkpt>
      <trkpt lat="54.848705967888236" lon="-5.820875018835068">
        <ele>2.54</ele>
        <time>2026-07-07T13:11:40Z</time>
      </trkpt>
      <trkpt lat="54.848638996481895" lon="-5.820974009111524">
        <ele>2.54</ele>
        <time>2026-07-07T13:11:41Z</time>
      </trkpt>
      <trkpt lat="54.84856397844851" lon="-5.821083979681134">
        <ele>2.06</ele>
        <time>2026-07-07T13:11:42Z</time>
      </trkpt>
      <trkpt lat="54.848483009263873" lon="-5.82120300270617">
        <ele>2.54</ele>
        <time>2026-07-07T13:11:43Z</time>
      </trkpt>
      <trkpt lat="54.848272958770394" lon="-5.821408024057746">
        <ele>2.54</ele>
        <time>2026-07-07T13:11:45Z</time>
      </trkpt>
      <trkpt lat="54.847691003233194" lon="-5.821767020970583">
        <ele>3.02</ele>
        <time>2026-07-07T13:11:50Z</time>
      </trkpt>
      <trkpt lat="54.847576003521681" lon="-5.821758974343538">
        <ele>3.02</ele>
        <time>2026-07-07T13:11:51Z</time>
      </trkpt>
      <trkpt lat="54.847461003810167" lon="-5.821752017363906">
        <ele>3.5</ele>
        <time>2026-07-07T13:11:52Z</time>
      </trkpt>
      <trkpt lat="54.847347009927034" lon="-5.821740031242371">
        <ele>3.98</ele>
        <time>2026-07-07T13:11:53Z</time>
      </trkpt>
      <trkpt lat="54.847236033529043" lon="-5.821673981845379">
        <ele>3.98</ele>
        <time>2026-07-07T13:11:54Z</time>
      </trkpt>
      <trkpt lat="54.847127990797162" lon="-5.821609022095799">
        <ele>4.46</ele>
        <time>2026-07-07T13:11:55Z</time>
      </trkpt>
      <trkpt lat="54.847017014399171" lon="-5.821526041254401">
        <ele>4.94</ele>
        <time>2026-07-07T13:11:56Z</time>
      </trkpt>
      <trkpt lat="54.846927998587489" lon="-5.821380028501153">
        <ele>5.42</ele>
        <time>2026-07-07T13:11:57Z</time>
      </trkpt>
      <trkpt lat="54.846836971119046" lon="-5.821233009919524">
        <ele>5.91</ele>
        <time>2026-07-07T13:11:58Z</time>
      </trkpt>
      <trkpt lat="54.846744015812874" lon="-5.821081968024373">
        <ele>6.39</ele>
        <time>2026-07-07T13:11:59Z</time>
      </trkpt>
      <trkpt lat="54.846055023372173" lon="-5.819746982306242">
        <ele>7.83</ele>
        <time>2026-07-07T13:12:08Z</time>
      </trkpt>
      <trkpt lat="54.845738019794226" lon="-5.819095959886909">
        <ele>7.83</ele>
        <time>2026-07-07T13:12:14Z</time>
      </trkpt>
      <trkpt lat="54.845707006752491" lon="-5.819038040935993">
        <ele>8.310000000000001</ele>
        <time>2026-07-07T13:12:15Z</time>
      </trkpt>
      <trkpt lat="54.84549100510776" lon="-5.818630009889603">
        <ele>9.27</ele>
        <time>2026-07-07T13:12:23Z</time>
      </trkpt>
      <trkpt lat="54.844892034307122" lon="-5.817562993615866">
        <ele>12.15</ele>
        <time>2026-07-07T13:12:34Z</time>
      </trkpt>
      <trkpt lat="54.844445027410984" lon="-5.817004004493356">
        <ele>11.19</ele>
        <time>2026-07-07T13:12:39Z</time>
      </trkpt>
      <trkpt lat="54.843695014715195" lon="-5.816476028412581">
        <ele>10.23</ele>
        <time>2026-07-07T13:12:45Z</time>
      </trkpt>
      <trkpt lat="54.843583032488823" lon="-5.816363962367177">
        <ele>10.710000000000001</ele>
        <time>2026-07-07T13:12:46Z</time>
      </trkpt>
      <trkpt lat="54.8430419806391" lon="-5.815557036548853">
        <ele>12.630000000000001</ele>
        <time>2026-07-07T13:12:52Z</time>
      </trkpt>
      <trkpt lat="54.842983977869153" lon="-5.815412029623985">
        <ele>13.119999999999999</ele>
        <time>2026-07-07T13:12:53Z</time>
      </trkpt>
      <trkpt lat="54.842929998412728" lon="-5.815249001607299">
        <ele>13.6</ele>
        <time>2026-07-07T13:12:54Z</time>
      </trkpt>
      <trkpt lat="54.842877024784684" lon="-5.815091002732515">
        <ele>13.6</ele>
        <time>2026-07-07T13:12:55Z</time>
      </trkpt>
      <trkpt lat="54.842827990651131" lon="-5.814930992200971">
        <ele>13.6</ele>
        <time>2026-07-07T13:12:56Z</time>
      </trkpt>
      <trkpt lat="54.842712990939617" lon="-5.814620023593307">
        <ele>13.6</ele>
        <time>2026-07-07T13:12:58Z</time>
      </trkpt>
      <trkpt lat="54.84263202175498" lon="-5.814481973648071">
        <ele>13.119999999999999</ele>
        <time>2026-07-07T13:12:59Z</time>
      </trkpt>
      <trkpt lat="54.842534037306905" lon="-5.81439002417028">
        <ele>13.119999999999999</ele>
        <time>2026-07-07T13:13:00Z</time>
      </trkpt>
      <trkpt lat="54.841513959690928" lon="-5.81370497122407">
        <ele>11.19</ele>
        <time>2026-07-07T13:13:08Z</time>
      </trkpt>
      <trkpt lat="54.840503018349409" lon="-5.813127039000392">
        <ele>9.27</ele>
        <time>2026-07-07T13:13:17Z</time>
      </trkpt>
      <trkpt lat="54.839126961305737" lon="-5.812523039057851">
        <ele>7.35</ele>
        <time>2026-07-07T13:13:29Z</time>
      </trkpt>
      <trkpt lat="54.838244011625648" lon="-5.812360011041164">
        <ele>5.91</ele>
        <time>2026-07-07T13:13:38Z</time>
      </trkpt>
      <trkpt lat="54.837806979194283" lon="-5.812302008271217">
        <ele>8.310000000000001</ele>
        <time>2026-07-07T13:13:48Z</time>
      </trkpt>
      <trkpt lat="54.837776971980929" lon="-5.812301002442837">
        <ele>8.789999999999999</ele>
        <time>2026-07-07T13:13:56Z</time>
      </trkpt>
      <trkpt lat="54.837698014453053" lon="-5.812297984957695">
        <ele>8.789999999999999</ele>
        <time>2026-07-07T13:14:03Z</time>
      </trkpt>
      <trkpt lat="54.837221000343561" lon="-5.812280969694257">
        <ele>9.75</ele>
        <time>2026-07-07T13:14:11Z</time>
      </trkpt>
      <trkpt lat="54.836963005363941" lon="-5.812262026593089">
        <ele>11.19</ele>
        <time>2026-07-07T13:14:15Z</time>
      </trkpt>
      <trkpt lat="54.836902990937233" lon="-5.812291027978063">
        <ele>11.19</ele>
        <time>2026-07-07T13:14:16Z</time>
      </trkpt>
      <trkpt lat="54.836839037016034" lon="-5.812334027141333">
        <ele>11.67</ele>
        <time>2026-07-07T13:14:17Z</time>
      </trkpt>
      <trkpt lat="54.836767036467791" lon="-5.812380965799093">
        <ele>11.67</ele>
        <time>2026-07-07T13:14:18Z</time>
      </trkpt>
      <trkpt lat="54.836692018434405" lon="-5.812429999932647">
        <ele>12.15</ele>
        <time>2026-07-07T13:14:19Z</time>
      </trkpt>
      <trkpt lat="54.836606020107865" lon="-5.812486996874213">
        <ele>12.15</ele>
        <time>2026-07-07T13:14:20Z</time>
      </trkpt>
      <trkpt lat="54.8365109693259" lon="-5.812549022957683">
        <ele>12.630000000000001</ele>
        <time>2026-07-07T13:14:21Z</time>
      </trkpt>
      <trkpt lat="54.836409967392683" lon="-5.812614988535643">
        <ele>12.630000000000001</ele>
        <time>2026-07-07T13:14:22Z</time>
      </trkpt>
      <trkpt lat="54.835494998842478" lon="-5.813213959336281">
        <ele>15.039999999999999</ele>
        <time>2026-07-07T13:14:30Z</time>
      </trkpt>
      <trkpt lat="54.835174977779388" lon="-5.813410012051463">
        <ele>16</ele>
        <time>2026-07-07T13:14:33Z</time>
      </trkpt>
      <trkpt lat="54.835082022473216" lon="-5.813462985679507">
        <ele>16.48</ele>
        <time>2026-07-07T13:14:34Z</time>
      </trkpt>
      <trkpt lat="54.834965011104941" lon="-5.813462985679507">
        <ele>16.960000000000001</ele>
        <time>2026-07-07T13:14:35Z</time>
      </trkpt>
      <trkpt lat="54.833976030349731" lon="-5.813559964299202">
        <ele>16.960000000000001</ele>
        <time>2026-07-07T13:14:44Z</time>
      </trkpt>
      <trkpt lat="54.83292100019753" lon="-5.814119959250093">
        <ele>15.52</ele>
        <time>2026-07-07T13:14:53Z</time>
      </trkpt>
      <trkpt lat="54.832654958590865" lon="-5.81426102668047">
        <ele>14.08</ele>
        <time>2026-07-07T13:14:55Z</time>
      </trkpt>
      <trkpt lat="54.832421019673347" lon="-5.814384995028377">
        <ele>11.67</ele>
        <time>2026-07-07T13:14:57Z</time>
      </trkpt>
      <trkpt lat="54.832307025790215" lon="-5.814399998635054">
        <ele>10.710000000000001</ele>
        <time>2026-07-07T13:14:58Z</time>
      </trkpt>
      <trkpt lat="54.832194037735462" lon="-5.81441399641335">
        <ele>9.75</ele>
        <time>2026-07-07T13:14:59Z</time>
      </trkpt>
      <trkpt lat="54.8320849891752" lon="-5.814427994191647">
        <ele>9.27</ele>
        <time>2026-07-07T13:15:00Z</time>
      </trkpt>
      <trkpt lat="54.83197895810008" lon="-5.814441991969943">
        <ele>8.789999999999999</ele>
        <time>2026-07-07T13:15:01Z</time>
      </trkpt>
      <trkpt lat="54.831050997599959" lon="-5.814704010263085">
        <ele>7.83</ele>
        <time>2026-07-07T13:15:09Z</time>
      </trkpt>
      <trkpt lat="54.830126976594329" lon="-5.815396020188928">
        <ele>9.75</ele>
        <time>2026-07-07T13:15:19Z</time>
      </trkpt>
      <trkpt lat="54.829889014363289" lon="-5.815560976043344">
        <ele>10.710000000000001</ele>
        <time>2026-07-07T13:15:22Z</time>
      </trkpt>
      <trkpt lat="54.82980796135962" lon="-5.815597018226981">
        <ele>10.710000000000001</ele>
        <time>2026-07-07T13:15:23Z</time>
      </trkpt>
      <trkpt lat="54.829716011881828" lon="-5.815583020448685">
        <ele>10.710000000000001</ele>
        <time>2026-07-07T13:15:24Z</time>
      </trkpt>
      <trkpt lat="54.829625990241766" lon="-5.815548989921808">
        <ele>10.710000000000001</ele>
        <time>2026-07-07T13:15:25Z</time>
      </trkpt>
      <trkpt lat="54.829529011622071" lon="-5.815512025728822">
        <ele>10.710000000000001</ele>
        <time>2026-07-07T13:15:26Z</time>
      </trkpt>
      <trkpt lat="54.829437984153628" lon="-5.815412029623985">
        <ele>10.710000000000001</ele>
        <time>2026-07-07T13:15:27Z</time>
      </trkpt>
      <trkpt lat="54.829352991655469" lon="-5.815295018255711">
        <ele>10.710000000000001</ele>
        <time>2026-07-07T13:15:28Z</time>
      </trkpt>
      <trkpt lat="54.829263975843787" lon="-5.815170966088772">
        <ele>10.23</ele>
        <time>2026-07-07T13:15:29Z</time>
      </trkpt>
      <trkpt lat="54.82918300665915" lon="-5.815024031326175">
        <ele>10.23</ele>
        <time>2026-07-07T13:15:30Z</time>
      </trkpt>
      <trkpt lat="54.829110000282526" lon="-5.814862009137869">
        <ele>10.23</ele>
        <time>2026-07-07T13:15:31Z</time>
      </trkpt>
      <trkpt lat="54.829039005562663" lon="-5.814704010263085">
        <ele>10.23</ele>
        <time>2026-07-07T13:15:32Z</time>
      </trkpt>
      <trkpt lat="54.828670034185052" lon="-5.813691979274154">
        <ele>10.710000000000001</ele>
        <time>2026-07-07T13:15:40Z</time>
      </trkpt>
      <trkpt lat="54.828188996762037" lon="-5.812288010492921">
        <ele>14.08</ele>
        <time>2026-07-07T13:15:53Z</time>
      </trkpt>
      <trkpt lat="54.827778032049537" lon="-5.811187969520688">
        <ele>14.08</ele>
        <time>2026-07-07T13:16:01Z</time>
      </trkpt>
      <trkpt lat="54.827728997915983" lon="-5.811048997566104">
        <ele>13.6</ele>
        <time>2026-07-07T13:16:02Z</time>
      </trkpt>
      <trkpt lat="54.827660014852881" lon="-5.81076200120151">
        <ele>13.6</ele>
        <time>2026-07-07T13:16:03Z</time>
      </trkpt>
      <trkpt lat="54.827638976275921" lon="-5.810602996498346">
        <ele>13.119999999999999</ele>
        <time>2026-07-07T13:16:04Z</time>
      </trkpt>
      <trkpt lat="54.827619027346373" lon="-5.810450026765466">
        <ele>12.630000000000001</ele>
        <time>2026-07-07T13:16:05Z</time>
      </trkpt>
      <trkpt lat="54.827476032078266" lon="-5.809281002730131">
        <ele>6.87</ele>
        <time>2026-07-07T13:16:13Z</time>
      </trkpt>
      <trkpt lat="54.827439989894629" lon="-5.809154016897082">
        <ele>5.42</ele>
        <time>2026-07-07T13:16:14Z</time>
      </trkpt>
      <trkpt lat="54.827391039580107" lon="-5.809048991650343">
        <ele>4.46</ele>
        <time>2026-07-07T13:16:15Z</time>
      </trkpt>
      <trkpt lat="54.827317027375102" lon="-5.808959975838661">
        <ele>3.5</ele>
        <time>2026-07-07T13:16:16Z</time>
      </trkpt>
      <trkpt lat="54.827234968543053" lon="-5.808861991390586">
        <ele>3.02</ele>
        <time>2026-07-07T13:16:17Z</time>
      </trkpt>
      <trkpt lat="54.827144024893641" lon="-5.808775993064046">
        <ele>2.06</ele>
        <time>2026-07-07T13:16:18Z</time>
      </trkpt>
      <trkpt lat="54.826165018603206" lon="-5.808034026995301">
        <ele>-0.82</ele>
        <time>2026-07-07T13:16:28Z</time>
      </trkpt>
      <trkpt lat="54.82559697702527" lon="-5.807605041190982">
        <ele>-0.82</ele>
        <time>2026-07-07T13:16:34Z</time>
      </trkpt>
      <trkpt lat="54.82546697370708" lon="-5.807596994563937">
        <ele>-1.3</ele>
        <time>2026-07-07T13:16:35Z</time>
      </trkpt>
      <trkpt lat="54.825353985652328" lon="-5.807590037584305">
        <ele>-1.3</ele>
        <time>2026-07-07T13:16:36Z</time>
      </trkpt>
      <trkpt lat="54.825242003425956" lon="-5.807588025927544">
        <ele>-1.79</ele>
        <time>2026-07-07T13:16:37Z</time>
      </trkpt>
      <trkpt lat="54.825125997886062" lon="-5.807628007605672">
        <ele>-1.79</ele>
        <time>2026-07-07T13:16:38Z</time>
      </trkpt>
      <trkpt lat="54.824441028758883" lon="-5.807863036170602">
        <ele>-4.67</ele>
        <time>2026-07-07T13:16:44Z</time>
      </trkpt>
      <trkpt lat="54.824150009080768" lon="-5.807879967615008">
        <ele>-6.11</ele>
        <time>2026-07-07T13:16:47Z</time>
      </trkpt>
      <trkpt lat="54.823931995779276" lon="-5.807822970673442">
        <ele>-6.11</ele>
        <time>2026-07-07T13:16:49Z</time>
      </trkpt>
      <trkpt lat="54.823830993846059" lon="-5.807676035910845">
        <ele>-6.11</ele>
        <time>2026-07-07T13:16:50Z</time>
      </trkpt>
      <trkpt lat="54.823666037991643" lon="-5.807326007634401">
        <ele>-5.63</ele>
        <time>2026-07-07T13:16:52Z</time>
      </trkpt>
      <trkpt lat="54.823566041886806" lon="-5.806925017386675">
        <ele>-4.67</ele>
        <time>2026-07-07T13:16:54Z</time>
      </trkpt>
      <trkpt lat="54.823509966954589" lon="-5.806699963286519">
        <ele>-4.67</ele>
        <time>2026-07-07T13:16:55Z</time>
      </trkpt>
      <trkpt lat="54.823291031643748" lon="-5.805766973644495">
        <ele>-4.19</ele>
        <time>2026-07-07T13:16:59Z</time>
      </trkpt>
      <trkpt lat="54.823238980025053" lon="-5.805536974221468">
        <ele>-4.19</ele>
        <time>2026-07-07T13:17:00Z</time>
      </trkpt>
      <trkpt lat="54.822863973677158" lon="-5.803807033225894">
        <ele>-5.15</ele>
        <time>2026-07-07T13:17:07Z</time>
      </trkpt>
      <trkpt lat="54.822412021458149" lon="-5.801708959043026">
        <ele>-6.11</ele>
        <time>2026-07-07T13:17:14Z</time>
      </trkpt>
      <trkpt lat="54.822343960404396" lon="-5.80139203928411">
        <ele>-5.63</ele>
        <time>2026-07-07T13:17:15Z</time>
      </trkpt>
      <trkpt lat="54.822269026190042" lon="-5.801079981029034">
        <ele>-5.15</ele>
        <time>2026-07-07T13:17:16Z</time>
      </trkpt>
      <trkpt lat="54.821499986574054" lon="-5.798078002408147">
        <ele>-3.23</ele>
        <time>2026-07-07T13:17:25Z</time>
      </trkpt>
      <trkpt lat="54.820956001058221" lon="-5.795483971014619">
        <ele>-2.27</ele>
        <time>2026-07-07T13:17:33Z</time>
      </trkpt>
      <trkpt lat="54.820456020534039" lon="-5.793182970955968">
        <ele>-1.79</ele>
        <time>2026-07-07T13:17:41Z</time>
      </trkpt>
      <trkpt lat="54.82022400945425" lon="-5.792287029325962">
        <ele>-1.79</ele>
        <time>2026-07-07T13:17:45Z</time>
      </trkpt>
      <trkpt lat="54.819781025871634" lon="-5.790679967030883">
        <ele>-1.79</ele>
        <time>2026-07-07T13:17:53Z</time>
      </trkpt>
      <trkpt lat="54.819739032536745" lon="-5.790551975369453">
        <ele>-1.79</ele>
        <time>2026-07-07T13:17:54Z</time>
      </trkpt>
      <trkpt lat="54.819697961211205" lon="-5.790423983708024">
        <ele>-1.3</ele>
        <time>2026-07-07T13:17:55Z</time>
      </trkpt>
      <trkpt lat="54.819553038105369" lon="-5.790234971791506">
        <ele>-0.34</ele>
        <time>2026-07-07T13:17:58Z</time>
      </trkpt>
      <trkpt lat="54.818844012916088" lon="-5.788969974964857">
        <ele>4.94</ele>
        <time>2026-07-07T13:18:07Z</time>
      </trkpt>
      <trkpt lat="54.818487027660012" lon="-5.788167994469404">
        <ele>9.75</ele>
        <time>2026-07-07T13:18:11Z</time>
      </trkpt>
      <trkpt lat="54.818449979647994" lon="-5.787959033623338">
        <ele>11.19</ele>
        <time>2026-07-07T13:18:12Z</time>
      </trkpt>
      <trkpt lat="54.818445034325123" lon="-5.787744037806988">
        <ele>13.119999999999999</ele>
        <time>2026-07-07T13:18:13Z</time>
      </trkpt>
      <trkpt lat="54.818433970212936" lon="-5.787293007597327">
        <ele>16</ele>
        <time>2026-07-07T13:18:15Z</time>
      </trkpt>
      <trkpt lat="54.818406980484724" lon="-5.78708304092288">
        <ele>17.440000000000001</ele>
        <time>2026-07-07T13:18:16Z</time>
      </trkpt>
      <trkpt lat="54.818365992978215" lon="-5.786920012906194">
        <ele>18.399999999999999</ele>
        <time>2026-07-07T13:18:17Z</time>
      </trkpt>
      <trkpt lat="54.818263985216618" lon="-5.786800989881158">
        <ele>19.84</ele>
        <time>2026-07-07T13:18:18Z</time>
      </trkpt>
      <trkpt lat="54.818162983283401" lon="-5.786685990169644">
        <ele>20.809999999999999</ele>
        <time>2026-07-07T13:18:19Z</time>
      </trkpt>
      <trkpt lat="54.818060975521803" lon="-5.786586999893189">
        <ele>22.25</ele>
        <time>2026-07-07T13:18:20Z</time>
      </trkpt>
      <trkpt lat="54.817933989688754" lon="-5.786532014608383">
        <ele>23.210000000000001</ele>
        <time>2026-07-07T13:18:21Z</time>
      </trkpt>
      <trkpt lat="54.817786971107125" lon="-5.786468982696533">
        <ele>24.649999999999999</ele>
        <time>2026-07-07T13:18:22Z</time>
      </trkpt>
      <trkpt lat="54.817664008587599" lon="-5.78643998131156">
        <ele>25.129999999999999</ele>
        <time>2026-07-07T13:18:23Z</time>
      </trkpt>
      <trkpt lat="54.817281039431691" lon="-5.786347026005387">
        <ele>28.02</ele>
        <time>2026-07-07T13:18:26Z</time>
      </trkpt>
      <trkpt lat="54.817156987264752" lon="-5.786312995478511">
        <ele>28.98</ele>
        <time>2026-07-07T13:18:27Z</time>
      </trkpt>
      <trkpt lat="54.817047016695142" lon="-5.78622498549521">
        <ele>29.940000000000001</ele>
        <time>2026-07-07T13:18:28Z</time>
      </trkpt>
      <trkpt lat="54.816932016983628" lon="-5.786135969683528">
        <ele>31.379999999999999</ele>
        <time>2026-07-07T13:18:29Z</time>
      </trkpt>
      <trkpt lat="54.816813999786973" lon="-5.786045026034117">
        <ele>32.82</ele>
        <time>2026-07-07T13:18:30Z</time>
      </trkpt>
      <trkpt lat="54.815522013232112" lon="-5.785045986995101">
        <ele>48.68</ele>
        <time>2026-07-07T13:18:40Z</time>
      </trkpt>
      <trkpt lat="54.814241006970406" lon="-5.784056000411511">
        <ele>64.549999999999997</ele>
        <time>2026-07-07T13:18:50Z</time>
      </trkpt>
      <trkpt lat="54.813264012336731" lon="-5.78338704071939">
        <ele>74.159999999999997</ele>
        <time>2026-07-07T13:18:57Z</time>
      </trkpt>
      <trkpt lat="54.812223985791206" lon="-5.782582964748144">
        <ele>77.040000000000006</ele>
        <time>2026-07-07T13:19:06Z</time>
      </trkpt>
      <trkpt lat="54.811561983078718" lon="-5.782070998102427">
        <ele>78</ele>
        <time>2026-07-07T13:19:15Z</time>
      </trkpt>
      <trkpt lat="54.811514960601926" lon="-5.782035039737821">
        <ele>78</ele>
        <time>2026-07-07T13:19:16Z</time>
      </trkpt>
      <trkpt lat="54.811425022780895" lon="-5.782136963680387">
        <ele>78</ele>
        <time>2026-07-07T13:19:17Z</time>
      </trkpt>
      <trkpt lat="54.811386968940496" lon="-5.78222899697721">
        <ele>78.480000000000004</ele>
        <time>2026-07-07T13:19:18Z</time>
      </trkpt>
      <trkpt lat="54.811343969777226" lon="-5.782336033880711">
        <ele>78.969999999999999</ele>
        <time>2026-07-07T13:19:19Z</time>
      </trkpt>
      <trkpt lat="54.811199968680739" lon="-5.782687989994884">
        <ele>80.409999999999997</ele>
        <time>2026-07-07T13:19:22Z</time>
      </trkpt>
      <trkpt lat="54.811154035851359" lon="-5.782801983878017">
        <ele>80.890000000000001</ele>
        <time>2026-07-07T13:19:28Z</time>
      </trkpt>
      <trkpt lat="54.811154035851359" lon="-5.782801983878017">
        <ele>80.890000000000001</ele>
        <time>2026-07-07T13:20:00Z</time>
      </trkpt>
      <trkpt lat="54.811154035851359" lon="-5.782801983878017">
        <ele>80.890000000000001</ele>
        <time>2026-07-07T13:20:47Z</time>
      </trkpt>
      <trkpt lat="54.811154035851359" lon="-5.782801983878017">
        <ele>81.370000000000005</ele>
        <time>2026-07-07T13:21:30Z</time>
      </trkpt>
      <trkpt lat="54.811154035851359" lon="-5.782801983878017">
        <ele>81.370000000000005</ele>
        <time>2026-07-07T13:22:13Z</time>
      </trkpt>
      <trkpt lat="54.811154035851359" lon="-5.782801983878017">
        <ele>81.370000000000005</ele>
        <time>2026-07-07T13:22:59Z</time>
      </trkpt>
      <trkpt lat="54.81115797534585" lon="-5.782793015241623">
        <ele>80.890000000000001</ele>
        <time>2026-07-07T13:23:23Z</time>
      </trkpt>
      <trkpt lat="54.811140038073063" lon="-5.782836014404893">
        <ele>80.890000000000001</ele>
        <time>2026-07-07T13:23:24Z</time>
      </trkpt>
      <trkpt lat="54.810973992571235" lon="-5.783227030187845">
        <ele>82.329999999999998</ele>
        <time>2026-07-07T13:23:28Z</time>
      </trkpt>
      <trkpt lat="54.810918001458049" lon="-5.783338006585836">
        <ele>82.810000000000002</ele>
        <time>2026-07-07T13:23:29Z</time>
      </trkpt>
      <trkpt lat="54.810852035880089" lon="-5.783465998247266">
        <ele>83.290000000000006</ele>
        <time>2026-07-07T13:23:30Z</time>
      </trkpt>
      <trkpt lat="54.810779029503465" lon="-5.783609999343753">
        <ele>83.290000000000006</ele>
        <time>2026-07-07T13:23:31Z</time>
      </trkpt>
      <trkpt lat="54.810699988156557" lon="-5.783765986561775">
        <ele>83.769999999999996</ele>
        <time>2026-07-07T13:23:32Z</time>
      </trkpt>
      <trkpt lat="54.809966990724206" lon="-5.784901985898614">
        <ele>86.180000000000007</ele>
        <time>2026-07-07T13:23:39Z</time>
      </trkpt>
      <trkpt lat="54.808695036917925" lon="-5.786600997671485">
        <ele>95.790000000000006</ele>
        <time>2026-07-07T13:23:49Z</time>
      </trkpt>
      <trkpt lat="54.806981021538377" lon="-5.788983972743154">
        <ele>108.29000000000001</ele>
        <time>2026-07-07T13:24:02Z</time>
      </trkpt>
      <trkpt lat="54.806856969371438" lon="-5.789163010194898">
        <ele>109.25</ele>
        <time>2026-07-07T13:24:03Z</time>
      </trkpt>
      <trkpt lat="54.80673098936677" lon="-5.789343975484371">
        <ele>110.20999999999999</ele>
        <time>2026-07-07T13:24:04Z</time>
      </trkpt>
      <trkpt lat="54.806199995800853" lon="-5.790437981486321">
        <ele>113.56999999999999</ele>
        <time>2026-07-07T13:24:09Z</time>
      </trkpt>
      <trkpt lat="54.806078961119056" lon="-5.790560021996498">
        <ele>113.56999999999999</ele>
        <time>2026-07-07T13:24:10Z</time>
      </trkpt>
      <trkpt lat="54.805967984721065" lon="-5.790669992566109">
        <ele>113.56999999999999</ele>
        <time>2026-07-07T13:24:11Z</time>
      </trkpt>
      <trkpt lat="54.805862037464976" lon="-5.790776023641229">
        <ele>114.05</ele>
        <time>2026-07-07T13:24:12Z</time>
      </trkpt>
      <trkpt lat="54.80574301443994" lon="-5.790839977562428">
        <ele>114.53</ele>
        <time>2026-07-07T13:24:13Z</time>
      </trkpt>
      <trkpt lat="54.805615022778511" lon="-5.790824973955751">
        <ele>114.53</ele>
        <time>2026-07-07T13:24:14Z</time>
      </trkpt>
      <trkpt lat="54.805479990318418" lon="-5.790807958692312">
        <ele>114.53</ele>
        <time>2026-07-07T13:24:15Z</time>
      </trkpt>
      <trkpt lat="54.804245000705123" lon="-5.790817011147738">
        <ele>116.94</ele>
        <time>2026-07-07T13:24:23Z</time>
      </trkpt>
      <trkpt lat="54.803102966398001" lon="-5.791237028315663">
        <ele>125.11</ele>
        <time>2026-07-07T13:24:31Z</time>
      </trkpt>
      <trkpt lat="54.803002970293164" lon="-5.791276004165411">
        <ele>126.55</ele>
        <time>2026-07-07T13:24:32Z</time>
      </trkpt>
      <trkpt lat="54.802937004715204" lon="-5.791412964463234">
        <ele>128.47</ele>
        <time>2026-07-07T13:24:33Z</time>
      </trkpt>
      <trkpt lat="54.802870033308864" lon="-5.79155202023685">
        <ele>130.40000000000001</ele>
        <time>2026-07-07T13:24:34Z</time>
      </trkpt>
      <trkpt lat="54.80279702693224" lon="-5.79170498996973">
        <ele>132.31999999999999</ele>
        <time>2026-07-07T13:24:35Z</time>
      </trkpt>
      <trkpt lat="54.80271203443408" lon="-5.791860977187753">
        <ele>134.24000000000001</ele>
        <time>2026-07-07T13:24:36Z</time>
      </trkpt>
      <trkpt lat="54.802615977823734" lon="-5.792020987719297">
        <ele>136.16</ele>
        <time>2026-07-07T13:24:37Z</time>
      </trkpt>
      <trkpt lat="54.802513970062137" lon="-5.792189966887236">
        <ele>138.09</ele>
        <time>2026-07-07T13:24:38Z</time>
      </trkpt>
      <trkpt lat="54.801851967349648" lon="-5.792982978746295">
        <ele>149.62</ele>
        <time>2026-07-07T13:24:45Z</time>
      </trkpt>
      <trkpt lat="54.801744008436799" lon="-5.793028995394707">
        <ele>151.06</ele>
        <time>2026-07-07T13:24:46Z</time>
      </trkpt>
      <trkpt lat="54.800720997154713" lon="-5.793467033654451">
        <ele>157.31</ele>
        <time>2026-07-07T13:24:53Z</time>
      </trkpt>
      <trkpt lat="54.798892987892032" lon="-5.793799040839076">
        <ele>162.59999999999999</ele>
        <time>2026-07-07T13:25:04Z</time>
      </trkpt>
      <trkpt lat="54.796811006963253" lon="-5.794113026931882">
        <ele>172.69</ele>
        <time>2026-07-07T13:25:16Z</time>
      </trkpt>
      <trkpt lat="54.795368984341621" lon="-5.794343026354909">
        <ele>188.56</ele>
        <time>2026-07-07T13:25:25Z</time>
      </trkpt>
      <trkpt lat="54.795082993805408" lon="-5.79443003050983">
        <ele>192.40000000000001</ele>
        <time>2026-07-07T13:25:27Z</time>
      </trkpt>
      <trkpt lat="54.79493698105216" lon="-5.794500019401312">
        <ele>193.84</ele>
        <time>2026-07-07T13:25:28Z</time>
      </trkpt>
      <trkpt lat="54.793525971472263" lon="-5.795167973265052">
        <ele>192.88</ele>
        <time>2026-07-07T13:25:37Z</time>
      </trkpt>
      <trkpt lat="54.792176987975836" lon="-5.795602994039655">
        <ele>185.19</ele>
        <time>2026-07-07T13:25:46Z</time>
      </trkpt>
      <trkpt lat="54.790475964546204" lon="-5.795468967407942">
        <ele>175.58000000000001</ele>
        <time>2026-07-07T13:25:56Z</time>
      </trkpt>
      <trkpt lat="54.790316037833691" lon="-5.795404007658362">
        <ele>174.62</ele>
        <time>2026-07-07T13:25:57Z</time>
      </trkpt>
      <trkpt lat="54.790154015645385" lon="-5.795337958261371">
        <ele>173.66</ele>
        <time>2026-07-07T13:25:58Z</time>
      </trkpt>
      <trkpt lat="54.789162017405033" lon="-5.794751979410648">
        <ele>167.88999999999999</ele>
        <time>2026-07-07T13:26:04Z</time>
      </trkpt>
      <trkpt lat="54.78900401853025" lon="-5.794719960540533">
        <ele>166.44999999999999</ele>
        <time>2026-07-07T13:26:05Z</time>
      </trkpt>
      <trkpt lat="54.788502026349306" lon="-5.79473102465272">
        <ele>162.59999999999999</ele>
        <time>2026-07-07T13:26:08Z</time>
      </trkpt>
      <trkpt lat="54.788346961140633" lon="-5.794751979410648">
        <ele>161.63999999999999</ele>
        <time>2026-07-07T13:26:09Z</time>
      </trkpt>
      <trkpt lat="54.788173036649823" lon="-5.79486002214253">
        <ele>160.68000000000001</ele>
        <time>2026-07-07T13:26:10Z</time>
      </trkpt>
      <trkpt lat="54.788010008633137" lon="-5.794961024075747">
        <ele>159.24000000000001</ele>
        <time>2026-07-07T13:26:11Z</time>
      </trkpt>
      <trkpt lat="54.787849998101592" lon="-5.795060014352202">
        <ele>158.27000000000001</ele>
        <time>2026-07-07T13:26:12Z</time>
      </trkpt>
      <trkpt lat="54.786558011546731" lon="-5.796058969572187">
        <ele>151.53999999999999</ele>
        <time>2026-07-07T13:26:20Z</time>
      </trkpt>
      <trkpt lat="54.784658001735806" lon="-5.797081980854273">
        <ele>155.38999999999999</ele>
        <time>2026-07-07T13:26:31Z</time>
      </trkpt>
      <trkpt lat="54.783050017431378" lon="-5.798061992973089">
        <ele>163.56</ele>
        <time>2026-07-07T13:26:41Z</time>
      </trkpt>
      <trkpt lat="54.781891973689198" lon="-5.798980984836817">
        <ele>159.24000000000001</ele>
        <time>2026-07-07T13:26:51Z</time>
      </trkpt>
      <trkpt lat="54.781433986499906" lon="-5.799254989251494">
        <ele>158.27000000000001</ele>
        <time>2026-07-07T13:26:55Z</time>
      </trkpt>
      <trkpt lat="54.780878014862537" lon="-5.799533016979694">
        <ele>156.83000000000001</ele>
        <time>2026-07-07T13:27:02Z</time>
      </trkpt>
      <trkpt lat="54.780840966850519" lon="-5.799491023644805">
        <ele>156.83000000000001</ele>
        <time>2026-07-07T13:27:03Z</time>
      </trkpt>
      <trkpt lat="54.780788999050856" lon="-5.799434026703239">
        <ele>156.83000000000001</ele>
        <time>2026-07-07T13:27:04Z</time>
      </trkpt>
      <trkpt lat="54.780116016045213" lon="-5.799010992050171">
        <ele>160.19999999999999</ele>
        <time>2026-07-07T13:27:10Z</time>
      </trkpt>
      <trkpt lat="54.778839033097029" lon="-5.798597009852529">
        <ele>162.59999999999999</ele>
        <time>2026-07-07T13:27:17Z</time>
      </trkpt>
      <trkpt lat="54.777965974062681" lon="-5.798261985182762">
        <ele>164.03999999999999</ele>
        <time>2026-07-07T13:27:22Z</time>
      </trkpt>
      <trkpt lat="54.777795989066362" lon="-5.798152014613152">
        <ele>164.03999999999999</ele>
        <time>2026-07-07T13:27:23Z</time>
      </trkpt>
      <trkpt lat="54.777637990191579" lon="-5.798007007688284">
        <ele>164.52000000000001</ele>
        <time>2026-07-07T13:27:24Z</time>
      </trkpt>
      <trkpt lat="54.775844011455774" lon="-5.796146979555488">
        <ele>168.84999999999999</ele>
        <time>2026-07-07T13:27:35Z</time>
      </trkpt>
      <trkpt lat="54.774165032431483" lon="-5.794134987518191">
        <ele>171.72999999999999</ele>
        <time>2026-07-07T13:27:46Z</time>
      </trkpt>
      <trkpt lat="54.774057995527983" lon="-5.793999033048749">
        <ele>172.69</ele>
        <time>2026-07-07T13:27:47Z</time>
      </trkpt>
      <trkpt lat="54.773979038000107" lon="-5.793871963396668">
        <ele>173.16999999999999</ele>
        <time>2026-07-07T13:27:48Z</time>
      </trkpt>
      <trkpt lat="54.773935033008456" lon="-5.793714970350266">
        <ele>173.66</ele>
        <time>2026-07-07T13:27:49Z</time>
      </trkpt>
      <trkpt lat="54.773896979168057" lon="-5.793548002839088">
        <ele>174.13999999999999</ele>
        <time>2026-07-07T13:27:50Z</time>
      </trkpt>
      <trkpt lat="54.773868983611465" lon="-5.793349016457796">
        <ele>174.13999999999999</ele>
        <time>2026-07-07T13:27:51Z</time>
      </trkpt>
      <trkpt lat="54.77383897639811" lon="-5.793133014813066">
        <ele>173.66</ele>
        <time>2026-07-07T13:27:52Z</time>
      </trkpt>
      <trkpt lat="54.773530019447207" lon="-5.790961012244225">
        <ele>171.72999999999999</ele>
        <time>2026-07-07T13:28:00Z</time>
      </trkpt>
      <trkpt lat="54.773458018898964" lon="-5.79069497063756">
        <ele>171.25</ele>
        <time>2026-07-07T13:28:01Z</time>
      </trkpt>
      <trkpt lat="54.773378977552056" lon="-5.790448039770126">
        <ele>170.77000000000001</ele>
        <time>2026-07-07T13:28:02Z</time>
      </trkpt>
      <trkpt lat="54.773268001154065" lon="-5.790247041732073">
        <ele>170.28999999999999</ele>
        <time>2026-07-07T13:28:03Z</time>
      </trkpt>
      <trkpt lat="54.773145038634539" lon="-5.790037997066975">
        <ele>170.28999999999999</ele>
        <time>2026-07-07T13:28:04Z</time>
      </trkpt>
      <trkpt lat="54.773012017831206" lon="-5.789815960451961">
        <ele>170.28999999999999</ele>
        <time>2026-07-07T13:28:05Z</time>
      </trkpt>
      <trkpt lat="54.771641995757818" lon="-5.788142010569572">
        <ele>167.41</ele>
        <time>2026-07-07T13:28:13Z</time>
      </trkpt>
      <trkpt lat="54.769938960671425" lon="-5.786434030160308">
        <ele>163.08000000000001</ele>
        <time>2026-07-07T13:28:23Z</time>
      </trkpt>
      <trkpt lat="54.769782973453403" lon="-5.786347026005387">
        <ele>162.59999999999999</ele>
        <time>2026-07-07T13:28:24Z</time>
      </trkpt>
      <trkpt lat="54.769656993448734" lon="-5.786276031285524">
        <ele>162.59999999999999</ele>
        <time>2026-07-07T13:28:25Z</time>
      </trkpt>
      <trkpt lat="54.769492959603667" lon="-5.786295980215073">
        <ele>162.12</ele>
        <time>2026-07-07T13:28:26Z</time>
      </trkpt>
      <trkpt lat="54.769314005970955" lon="-5.786319030448794">
        <ele>162.12</ele>
        <time>2026-07-07T13:28:27Z</time>
      </trkpt>
      <trkpt lat="54.769221972674131" lon="-5.786380972713232">
        <ele>162.59999999999999</ele>
        <time>2026-07-07T13:28:28Z</time>
      </trkpt>
      <trkpt lat="54.769092975184321" lon="-5.786468982696533">
        <ele>163.08000000000001</ele>
        <time>2026-07-07T13:28:29Z</time>
      </trkpt>
      <trkpt lat="54.768843026831746" lon="-5.786639973521233">
        <ele>163.56</ele>
        <time>2026-07-07T13:28:31Z</time>
      </trkpt>
      <trkpt lat="54.768713023513556" lon="-5.786652965471149">
        <ele>163.56</ele>
        <time>2026-07-07T13:28:32Z</time>
      </trkpt>
      <trkpt lat="54.768578996881843" lon="-5.786645002663136">
        <ele>163.08000000000001</ele>
        <time>2026-07-07T13:28:33Z</time>
      </trkpt>
      <trkpt lat="54.768438013270497" lon="-5.786594040691853">
        <ele>162.59999999999999</ele>
        <time>2026-07-07T13:28:34Z</time>
      </trkpt>
      <trkpt lat="54.76829300634563" lon="-5.786517011001706">
        <ele>162.59999999999999</ele>
        <time>2026-07-07T13:28:35Z</time>
      </trkpt>
      <trkpt lat="54.76661897264421" lon="-5.785574968904257">
        <ele>163.08000000000001</ele>
        <time>2026-07-07T13:28:45Z</time>
      </trkpt>
      <trkpt lat="54.765017023310065" lon="-5.785049004480243">
        <ele>163.08000000000001</ele>
        <time>2026-07-07T13:28:54Z</time>
      </trkpt>
      <trkpt lat="54.763656975701451" lon="-5.784673998132348">
        <ele>165.96000000000001</ele>
        <time>2026-07-07T13:29:02Z</time>
      </trkpt>
      <trkpt lat="54.76144096814096" lon="-5.783829018473625">
        <ele>165</ele>
        <time>2026-07-07T13:29:14Z</time>
      </trkpt>
      <trkpt lat="54.760536979883909" lon="-5.783396009355784">
        <ele>160.68000000000001</ele>
        <time>2026-07-07T13:29:19Z</time>
      </trkpt>
      <trkpt lat="54.760377975180745" lon="-5.78328100964427">
        <ele>159.72</ele>
        <time>2026-07-07T13:29:20Z</time>
      </trkpt>
      <trkpt lat="54.75877502001822" lon="-5.781624997034669">
        <ele>152.50999999999999</ele>
        <time>2026-07-07T13:29:31Z</time>
      </trkpt>
      <trkpt lat="54.757327968254685" lon="-5.780527973547578">
        <ele>146.25999999999999</ele>
        <time>2026-07-07T13:29:41Z</time>
      </trkpt>
      <trkpt lat="54.757170975208282" lon="-5.780410962179303">
        <ele>145.78</ele>
        <time>2026-07-07T13:29:42Z</time>
      </trkpt>
      <trkpt lat="54.755551004782319" lon="-5.779594983905554">
        <ele>142.41</ele>
        <time>2026-07-07T13:29:52Z</time>
      </trkpt>
      <trkpt lat="54.75402801297605" lon="-5.779021997004747">
        <ele>143.84999999999999</ele>
        <time>2026-07-07T13:30:01Z</time>
      </trkpt>
      <trkpt lat="54.75280400365591" lon="-5.778521010652185">
        <ele>141.44999999999999</ele>
        <time>2026-07-07T13:30:10Z</time>
      </trkpt>
      <trkpt lat="54.751101974397898" lon="-5.777720035985112">
        <ele>132.31999999999999</ele>
        <time>2026-07-07T13:30:21Z</time>
      </trkpt>
      <trkpt lat="54.749312018975616" lon="-5.777078988030553">
        <ele>118.86</ele>
        <time>2026-07-07T13:30:32Z</time>
      </trkpt>
      <trkpt lat="54.747506976127625" lon="-5.776488985866308">
        <ele>105.88</ele>
        <time>2026-07-07T13:30:44Z</time>
      </trkpt>
      <trkpt lat="54.746267963200808" lon="-5.775888003408909">
        <ele>97.709999999999994</ele>
        <time>2026-07-07T13:30:53Z</time>
      </trkpt>
      <trkpt lat="54.746211972087622" lon="-5.775861013680697">
        <ele>94.349999999999994</ele>
        <time>2026-07-07T13:30:59Z</time>
      </trkpt>
      <trkpt lat="54.746152041479945" lon="-5.775832012295723">
        <ele>93.870000000000005</ele>
        <time>2026-07-07T13:31:02Z</time>
      </trkpt>
      <trkpt lat="54.746138965710998" lon="-5.775837963446975">
        <ele>93.390000000000001</ele>
        <time>2026-07-07T13:31:04Z</time>
      </trkpt>
      <trkpt lat="54.746131002902985" lon="-5.775966038927436">
        <ele>93.390000000000001</ele>
        <time>2026-07-07T13:31:05Z</time>
      </trkpt>
      <trkpt lat="54.746118010953069" lon="-5.776185980066657">
        <ele>92.900000000000006</ele>
        <time>2026-07-07T13:31:07Z</time>
      </trkpt>
      <trkpt lat="54.746045004576445" lon="-5.777406971901655">
        <ele>92.900000000000006</ele>
        <time>2026-07-07T13:31:13Z</time>
      </trkpt>
      <trkpt lat="54.745888011530042" lon="-5.780036961659789">
        <ele>92.420000000000002</ele>
        <time>2026-07-07T13:31:22Z</time>
      </trkpt>
      <trkpt lat="54.745654994621873" lon="-5.783468009904027">
        <ele>89.540000000000006</ele>
        <time>2026-07-07T13:31:33Z</time>
      </trkpt>
      <trkpt lat="54.745031967759132" lon="-5.787207009270787">
        <ele>94.349999999999994</ele>
        <time>2026-07-07T13:31:45Z</time>
      </trkpt>
      <trkpt lat="54.744324032217264" lon="-5.789776984602213">
        <ele>97.709999999999994</ele>
        <time>2026-07-07T13:31:54Z</time>
      </trkpt>
      <trkpt lat="54.743293980136514" lon="-5.792838977649808">
        <ele>101.08</ele>
        <time>2026-07-07T13:32:08Z</time>
      </trkpt>
      <trkpt lat="54.742154963314533" lon="-5.79570097848773">
        <ele>99.629999999999995</ele>
        <time>2026-07-07T13:32:21Z</time>
      </trkpt>
      <trkpt lat="54.740929026156664" lon="-5.798755008727312">
        <ele>99.150000000000006</ele>
        <time>2026-07-07T13:32:35Z</time>
      </trkpt>
      <trkpt lat="54.739562021568418" lon="-5.802638009190559">
        <ele>92.420000000000002</ele>
        <time>2026-07-07T13:32:52Z</time>
      </trkpt>
      <trkpt lat="54.738852996379137" lon="-5.804646983742714">
        <ele>91.459999999999994</ele>
        <time>2026-07-07T13:33:01Z</time>
      </trkpt>
      <trkpt lat="54.737916989251971" lon="-5.806384971365333">
        <ele>90.5</ele>
        <time>2026-07-07T13:33:10Z</time>
      </trkpt>
      <trkpt lat="54.736586026847363" lon="-5.808154977858067">
        <ele>87.620000000000005</ele>
        <time>2026-07-07T13:33:21Z</time>
      </trkpt>
      <trkpt lat="54.735806006938219" lon="-5.809418968856335">
        <ele>88.099999999999994</ele>
        <time>2026-07-07T13:33:29Z</time>
      </trkpt>
      <trkpt lat="54.735396970063448" lon="-5.810899967327714">
        <ele>87.620000000000005</ele>
        <time>2026-07-07T13:33:36Z</time>
      </trkpt>
      <trkpt lat="54.735107962042093" lon="-5.812378032132983">
        <ele>86.659999999999997</ele>
        <time>2026-07-07T13:33:46Z</time>
      </trkpt>
      <trkpt lat="54.735062029212713" lon="-5.812696041539311">
        <ele>86.659999999999997</ele>
        <time>2026-07-07T13:33:51Z</time>
      </trkpt>
      <trkpt lat="54.735046019777656" lon="-5.81280299462378">
        <ele>86.659999999999997</ele>
        <time>2026-07-07T13:33:52Z</time>
      </trkpt>
      <trkpt lat="54.735009977594018" lon="-5.813041962683201">
        <ele>87.140000000000001</ele>
        <time>2026-07-07T13:33:54Z</time>
      </trkpt>
      <trkpt lat="54.734994973987341" lon="-5.813141958788037">
        <ele>87.620000000000005</ele>
        <time>2026-07-07T13:33:55Z</time>
      </trkpt>
      <trkpt lat="54.734882991760969" lon="-5.813186969608069">
        <ele>88.099999999999994</ele>
        <time>2026-07-07T13:33:57Z</time>
      </trkpt>
      <trkpt lat="54.734817026183009" lon="-5.813160985708237">
        <ele>88.579999999999998</ele>
        <time>2026-07-07T13:33:58Z</time>
      </trkpt>
      <trkpt lat="54.734644023701549" lon="-5.813109017908573">
        <ele>88.099999999999994</ele>
        <time>2026-07-07T13:33:59Z</time>
      </trkpt>
      <trkpt lat="54.734546961262822" lon="-5.813083034008741">
        <ele>87.620000000000005</ele>
        <time>2026-07-07T13:34:00Z</time>
      </trkpt>
      <trkpt lat="54.733309959992766" lon="-5.812734011560679">
        <ele>81.370000000000005</ele>
        <time>2026-07-07T13:34:12Z</time>
      </trkpt>
      <trkpt lat="54.732998991385102" lon="-5.812655976042152">
        <ele>79.450000000000003</ele>
        <time>2026-07-07T13:34:15Z</time>
      </trkpt>
      <trkpt lat="54.732893966138363" lon="-5.81262999214232">
        <ele>78.480000000000004</ele>
        <time>2026-07-07T13:34:16Z</time>
      </trkpt>
      <trkpt lat="54.731517992913723" lon="-5.812130011618137">
        <ele>68.870000000000005</ele>
        <time>2026-07-07T13:34:30Z</time>
      </trkpt>
      <trkpt lat="54.730105977505445" lon="-5.81168501637876">
        <ele>64.069999999999993</ele>
        <time>2026-07-07T13:34:42Z</time>
      </trkpt>
      <trkpt lat="54.728864030912519" lon="-5.811252007260919">
        <ele>56.859999999999999</ele>
        <time>2026-07-07T13:34:53Z</time>
      </trkpt>
      <trkpt lat="54.727974962443113" lon="-5.81084799952805">
        <ele>48.68</ele>
        <time>2026-07-07T13:35:01Z</time>
      </trkpt>
      <trkpt lat="54.726961003616452" lon="-5.810322035104036">
        <ele>41.950000000000003</ele>
        <time>2026-07-07T13:35:10Z</time>
      </trkpt>
      <trkpt lat="54.726692028343678" lon="-5.810171999037266">
        <ele>40.030000000000001</ele>
        <time>2026-07-07T13:35:13Z</time>
      </trkpt>
      <trkpt lat="54.726592032238841" lon="-5.810115002095699">
        <ele>39.07</ele>
        <time>2026-07-07T13:35:15Z</time>
      </trkpt>
      <trkpt lat="54.726614998653531" lon="-5.809929007664323">
        <ele>38.590000000000003</ele>
        <time>2026-07-07T13:35:16Z</time>
      </trkpt>
      <trkpt lat="54.726631008088589" lon="-5.809799004346132">
        <ele>38.109999999999999</ele>
        <time>2026-07-07T13:35:17Z</time>
      </trkpt>
      <trkpt lat="54.72689101472497" lon="-5.807864964008331">
        <ele>37.149999999999999</ele>
        <time>2026-07-07T13:35:28Z</time>
      </trkpt>
      <trkpt lat="54.72715001553297" lon="-5.806278018280864">
        <ele>36.189999999999998</ele>
        <time>2026-07-07T13:35:39Z</time>
      </trkpt>
      <trkpt lat="54.727162001654506" lon="-5.806201994419098">
        <ele>36.189999999999998</ele>
        <time>2026-07-07T13:35:40Z</time>
      </trkpt>
      <trkpt lat="54.727284964174032" lon="-5.80607601441443">
        <ele>35.710000000000001</ele>
        <time>2026-07-07T13:35:41Z</time>
      </trkpt>
      <trkpt lat="54.72732100635767" lon="-5.80609898082912">
        <ele>35.710000000000001</ele>
        <time>2026-07-07T13:35:42Z</time>
      </trkpt>
      <trkpt lat="54.727360988035798" lon="-5.806123958900571">
        <ele>35.229999999999997</ele>
        <time>2026-07-07T13:35:43Z</time>
      </trkpt>
      <trkpt lat="54.727402981370687" lon="-5.806151032447815">
        <ele>35.229999999999997</ele>
        <time>2026-07-07T13:35:44Z</time>
      </trkpt>
      <trkpt lat="54.727445980533957" lon="-5.806178022176027">
        <ele>35.229999999999997</ele>
        <time>2026-07-07T13:35:45Z</time>
      </trkpt>
      <trkpt lat="54.727525021880865" lon="-5.80622898414731">
        <ele>34.740000000000002</ele>
        <time>2026-07-07T13:35:47Z</time>
      </trkpt>
      <trkpt lat="54.727606996893883" lon="-5.806281035766006">
        <ele>34.259999999999998</ele>
        <time>2026-07-07T13:35:49Z</time>
      </trkpt>
      <trkpt lat="54.72764303907752" lon="-5.806302996352315">
        <ele>33.780000000000001</ele>
        <time>2026-07-07T13:35:50Z</time>
      </trkpt>
      <trkpt lat="54.727672040462494" lon="-5.806322023272514">
        <ele>33.299999999999997</ele>
        <time>2026-07-07T13:35:51Z</time>
      </trkpt>
      <trkpt lat="54.727702969685197" lon="-5.806117001920939">
        <ele>33.299999999999997</ele>
        <time>2026-07-07T13:35:54Z</time>
      </trkpt>
      <trkpt lat="54.727745968848467" lon="-5.805973000824451">
        <ele>33.780000000000001</ele>
        <time>2026-07-07T13:35:58Z</time>
      </trkpt>
      <trkpt lat="54.727802965790033" lon="-5.805940981954336">
        <ele>34.740000000000002</ele>
        <time>2026-07-07T13:36:09Z</time>
      </trkpt>
      <trkpt lat="54.727811012417078" lon="-5.805937964469194">
        <ele>35.229999999999997</ele>
        <time>2026-07-07T13:36:46Z</time>
      </trkpt>
      <trkpt lat="54.727830961346626" lon="-5.806057993322611">
        <ele>39.549999999999997</ele>
        <time>2026-07-07T14:31:32Z</time>
      </trkpt>
      <trkpt lat="54.727867003530264" lon="-5.805997978895903">
        <ele>40.509999999999998</ele>
        <time>2026-07-07T14:32:13Z</time>
      </trkpt>
      <trkpt lat="54.727830039337277" lon="-5.806010970845819">
        <ele>39.549999999999997</ele>
        <time>2026-07-07T14:32:50Z</time>
      </trkpt>
      <trkpt lat="54.727812018245459" lon="-5.806010970845819">
        <ele>39.549999999999997</ele>
        <time>2026-07-07T14:33:21Z</time>
      </trkpt>
      <trkpt lat="54.727816041558981" lon="-5.806011976674199">
        <ele>40.030000000000001</ele>
        <time>2026-07-07T14:34:02Z</time>
      </trkpt>
      <trkpt lat="54.727816041558981" lon="-5.806011976674199">
        <ele>40.030000000000001</ele>
        <time>2026-07-07T14:34:23Z</time>
      </trkpt>
      <trkpt lat="54.727804977446795" lon="-5.806010970845819">
        <ele>40.030000000000001</ele>
        <time>2026-07-07T14:35:11Z</time>
      </trkpt>
      <trkpt lat="54.727801037952304" lon="-5.806006025522947">
        <ele>40.509999999999998</ele>
        <time>2026-07-07T14:35:21Z</time>
      </trkpt>
      <trkpt lat="54.727637004107237" lon="-5.805960008874536">
        <ele>40.509999999999998</ele>
        <time>2026-07-07T14:35:27Z</time>
      </trkpt>
      <trkpt lat="54.727568021044135" lon="-5.805907035246491">
        <ele>40.509999999999998</ele>
        <time>2026-07-07T14:35:29Z</time>
      </trkpt>
      <trkpt lat="54.727395018562675" lon="-5.806146003305912">
        <ele>40.509999999999998</ele>
        <time>2026-07-07T14:35:35Z</time>
      </trkpt>
      <trkpt lat="54.727367023006082" lon="-5.806127982214093">
        <ele>40.509999999999998</ele>
        <time>2026-07-07T14:35:36Z</time>
      </trkpt>
      <trkpt lat="54.727333998307586" lon="-5.806107027456164">
        <ele>40.509999999999998</ele>
        <time>2026-07-07T14:35:37Z</time>
      </trkpt>
      <trkpt lat="54.727303991094232" lon="-5.806088000535965">
        <ele>40.509999999999998</ele>
        <time>2026-07-07T14:35:38Z</time>
      </trkpt>
      <trkpt lat="54.7272780071944" lon="-5.806071991100907">
        <ele>40.509999999999998</ele>
        <time>2026-07-07T14:35:39Z</time>
      </trkpt>
      <trkpt lat="54.72725797444582" lon="-5.806058999150991">
        <ele>40.509999999999998</ele>
        <time>2026-07-07T14:35:40Z</time>
      </trkpt>
      <trkpt lat="54.72725797444582" lon="-5.806058999150991">
        <ele>40.509999999999998</ele>
        <time>2026-07-07T14:35:54Z</time>
      </trkpt>
      <trkpt lat="54.727231990545988" lon="-5.806041983887553">
        <ele>40.030000000000001</ele>
        <time>2026-07-07T14:36:11Z</time>
      </trkpt>
      <trkpt lat="54.727195026353002" lon="-5.806006025522947">
        <ele>40.030000000000001</ele>
        <time>2026-07-07T14:36:12Z</time>
      </trkpt>
      <trkpt lat="54.727181028574705" lon="-5.806084983050823">
        <ele>40.030000000000001</ele>
        <time>2026-07-07T14:36:13Z</time>
      </trkpt>
      <trkpt lat="54.727163007482886" lon="-5.806198976933956">
        <ele>40.030000000000001</ele>
        <time>2026-07-07T14:36:14Z</time>
      </trkpt>
      <trkpt lat="54.727140041068196" lon="-5.806339038535953">
        <ele>39.549999999999997</ele>
        <time>2026-07-07T14:36:15Z</time>
      </trkpt>
      <trkpt lat="54.726915992796421" lon="-5.807714005932212">
        <ele>38.590000000000003</ele>
        <time>2026-07-07T14:36:22Z</time>
      </trkpt>
      <trkpt lat="54.726678030565381" lon="-5.809429027140141">
        <ele>39.07</ele>
        <time>2026-07-07T14:36:32Z</time>
      </trkpt>
      <trkpt lat="54.726616004481912" lon="-5.80992397852242">
        <ele>39.07</ele>
        <time>2026-07-07T14:36:36Z</time>
      </trkpt>
      <trkpt lat="54.726608041673899" lon="-5.809990027919412">
        <ele>39.07</ele>
        <time>2026-07-07T14:36:37Z</time>
      </trkpt>
      <trkpt lat="54.726490024477243" lon="-5.810043001547456">
        <ele>39.07</ele>
        <time>2026-07-07T14:36:38Z</time>
      </trkpt>
      <trkpt lat="54.726445013657212" lon="-5.810019029304385">
        <ele>39.549999999999997</ele>
        <time>2026-07-07T14:36:39Z</time>
      </trkpt>
      <trkpt lat="54.72637603059411" lon="-5.809981981292367">
        <ele>39.549999999999997</ele>
        <time>2026-07-07T14:36:40Z</time>
      </trkpt>
      <trkpt lat="54.726287014782429" lon="-5.809934036806226">
        <ele>39.549999999999997</ele>
        <time>2026-07-07T14:36:41Z</time>
      </trkpt>
      <trkpt lat="54.726195987313986" lon="-5.809886008501053">
        <ele>39.07</ele>
        <time>2026-07-07T14:36:42Z</time>
      </trkpt>
      <trkpt lat="54.725064011290669" lon="-5.809314027428627">
        <ele>35.229999999999997</ele>
        <time>2026-07-07T14:36:54Z</time>
      </trkpt>
      <trkpt lat="54.723653001710773" lon="-5.808818992227316">
        <ele>31.859999999999999</ele>
        <time>2026-07-07T14:37:08Z</time>
      </trkpt>
      <trkpt lat="54.722610963508487" lon="-5.808463012799621">
        <ele>30.899999999999999</ele>
        <time>2026-07-07T14:37:18Z</time>
      </trkpt>
      <trkpt lat="54.721604967489839" lon="-5.80803100951016">
        <ele>31.859999999999999</ele>
        <time>2026-07-07T14:37:26Z</time>
      </trkpt>
      <trkpt lat="54.720203010365367" lon="-5.807578973472118">
        <ele>23.690000000000001</ele>
        <time>2026-07-07T14:37:38Z</time>
      </trkpt>
      <trkpt lat="54.718825025483966" lon="-5.807361965999007">
        <ele>18.399999999999999</ele>
        <time>2026-07-07T14:37:49Z</time>
      </trkpt>
      <trkpt lat="54.717564973980188" lon="-5.807455005124211">
        <ele>15.039999999999999</ele>
        <time>2026-07-07T14:38:00Z</time>
      </trkpt>
      <trkpt lat="54.717464977875352" lon="-5.807518037036061">
        <ele>15.039999999999999</ele>
        <time>2026-07-07T14:38:01Z</time>
      </trkpt>
      <trkpt lat="54.717365987598896" lon="-5.807579979300499">
        <ele>15.52</ele>
        <time>2026-07-07T14:38:02Z</time>
      </trkpt>
      <trkpt lat="54.716739021241665" lon="-5.808152966201305">
        <ele>18.879999999999999</ele>
        <time>2026-07-07T14:38:10Z</time>
      </trkpt>
      <trkpt lat="54.716685963794589" lon="-5.808266960084438">
        <ele>18.879999999999999</ele>
        <time>2026-07-07T14:38:11Z</time>
      </trkpt>
      <trkpt lat="54.716629972681403" lon="-5.808383971452713">
        <ele>18.399999999999999</ele>
        <time>2026-07-07T14:38:12Z</time>
      </trkpt>
      <trkpt lat="54.71657901071012" lon="-5.808499976992607">
        <ele>18.399999999999999</ele>
        <time>2026-07-07T14:38:13Z</time>
      </trkpt>
      <trkpt lat="54.716531988233328" lon="-5.808630986139178">
        <ele>18.879999999999999</ele>
        <time>2026-07-07T14:38:14Z</time>
      </trkpt>
      <trkpt lat="54.716109959408641" lon="-5.809694984927774">
        <ele>15.52</ele>
        <time>2026-07-07T14:38:22Z</time>
      </trkpt>
      <trkpt lat="54.716037958860397" lon="-5.809806967154145">
        <ele>15.039999999999999</ele>
        <time>2026-07-07T14:38:23Z</time>
      </trkpt>
      <trkpt lat="54.715951960533857" lon="-5.80990101210773">
        <ele>15.039999999999999</ele>
        <time>2026-07-07T14:38:24Z</time>
      </trkpt>
      <trkpt lat="54.715860011056066" lon="-5.809952979907394">
        <ele>15.039999999999999</ele>
        <time>2026-07-07T14:38:25Z</time>
      </trkpt>
      <trkpt lat="54.715765966102481" lon="-5.809992039576173">
        <ele>15.039999999999999</ele>
        <time>2026-07-07T14:38:26Z</time>
      </trkpt>
      <trkpt lat="54.715669993311167" lon="-5.810007965192199">
        <ele>15.039999999999999</ele>
        <time>2026-07-07T14:38:27Z</time>
      </trkpt>
      <trkpt lat="54.714841023087502" lon="-5.810151966288686">
        <ele>14.56</ele>
        <time>2026-07-07T14:38:37Z</time>
      </trkpt>
      <trkpt lat="54.713989002630115" lon="-5.810255985707045">
        <ele>11.19</ele>
        <time>2026-07-07T14:38:46Z</time>
      </trkpt>
      <trkpt lat="54.713889006525278" lon="-5.810265960171819">
        <ele>11.19</ele>
        <time>2026-07-07T14:38:47Z</time>
      </trkpt>
      <trkpt lat="54.713794039562345" lon="-5.810208041220903">
        <ele>10.710000000000001</ele>
        <time>2026-07-07T14:38:48Z</time>
      </trkpt>
      <trkpt lat="54.713717009872198" lon="-5.810161018744111">
        <ele>10.710000000000001</ele>
        <time>2026-07-07T14:38:49Z</time>
      </trkpt>
      <trkpt lat="54.713654983788729" lon="-5.810122964903712">
        <ele>10.710000000000001</ele>
        <time>2026-07-07T14:38:50Z</time>
      </trkpt>
      <trkpt lat="54.713612990453839" lon="-5.810096981003881">
        <ele>10.710000000000001</ele>
        <time>2026-07-07T14:38:51Z</time>
      </trkpt>
      <trkpt lat="54.713539984077215" lon="-5.81005297601223">
        <ele>10.23</ele>
        <time>2026-07-07T14:38:58Z</time>
      </trkpt>
      <trkpt lat="54.713496984913945" lon="-5.809965971857309">
        <ele>9.75</ele>
        <time>2026-07-07T14:38:59Z</time>
      </trkpt>
      <trkpt lat="54.713425990194082" lon="-5.809765979647636">
        <ele>9.27</ele>
        <time>2026-07-07T14:39:01Z</time>
      </trkpt>
      <trkpt lat="54.713373016566038" lon="-5.809739995747805">
        <ele>9.27</ele>
        <time>2026-07-07T14:39:02Z</time>
      </trkpt>
      <trkpt lat="54.71331400796771" lon="-5.809753993526101">
        <ele>8.789999999999999</ele>
        <time>2026-07-07T14:39:03Z</time>
      </trkpt>
      <trkpt lat="54.71327100880444" lon="-5.809839991852641">
        <ele>8.789999999999999</ele>
        <time>2026-07-07T14:39:04Z</time>
      </trkpt>
      <trkpt lat="54.713245024904609" lon="-5.809944011271">
        <ele>8.310000000000001</ele>
        <time>2026-07-07T14:39:05Z</time>
      </trkpt>
      <trkpt lat="54.713245024904609" lon="-5.809944011271">
        <ele>8.310000000000001</ele>
        <time>2026-07-07T14:39:06Z</time>
      </trkpt>
      <trkpt lat="54.713318031281233" lon="-5.810252968221903">
        <ele>8.310000000000001</ele>
        <time>2026-07-07T14:39:07Z</time>
      </trkpt>
      <trkpt lat="54.713297998532653" lon="-5.810407027602196">
        <ele>8.310000000000001</ele>
        <time>2026-07-07T14:39:08Z</time>
      </trkpt>
      <trkpt lat="54.713272014632821" lon="-5.810576006770134">
        <ele>7.83</ele>
        <time>2026-07-07T14:39:09Z</time>
      </trkpt>
      <trkpt lat="54.713244019076228" lon="-5.81074096262455">
        <ele>7.35</ele>
        <time>2026-07-07T14:39:10Z</time>
      </trkpt>
      <trkpt lat="54.712986024096608" lon="-5.812332015484572">
        <ele>4.94</ele>
        <time>2026-07-07T14:39:20Z</time>
      </trkpt>
      <trkpt lat="54.712743032723665" lon="-5.814108978956938">
        <ele>5.91</ele>
        <time>2026-07-07T14:39:28Z</time>
      </trkpt>
      <trkpt lat="54.712687041610479" lon="-5.814513992518187">
        <ele>5.91</ele>
        <time>2026-07-07T14:39:30Z</time>
      </trkpt>
      <trkpt lat="54.712672960013151" lon="-5.814699986949563">
        <ele>5.91</ele>
        <time>2026-07-07T14:39:31Z</time>
      </trkpt>
      <trkpt lat="54.712654016911983" lon="-5.814882963895798">
        <ele>6.39</ele>
        <time>2026-07-07T14:39:32Z</time>
      </trkpt>
      <trkpt lat="54.712629960849881" lon="-5.815059989690781">
        <ele>6.39</ele>
        <time>2026-07-07T14:39:33Z</time>
      </trkpt>
      <trkpt lat="54.712605988606811" lon="-5.815237015485764">
        <ele>6.39</ele>
        <time>2026-07-07T14:39:34Z</time>
      </trkpt>
      <trkpt lat="54.712515966966748" lon="-5.815908992663026">
        <ele>6.87</ele>
        <time>2026-07-07T14:39:38Z</time>
      </trkpt>
      <trkpt lat="54.712214972823858" lon="-5.818161964416504">
        <ele>9.27</ele>
        <time>2026-07-07T14:39:49Z</time>
      </trkpt>
      <trkpt lat="54.711685990914702" lon="-5.820865966379643">
        <ele>10.23</ele>
        <time>2026-07-07T14:40:02Z</time>
      </trkpt>
      <trkpt lat="54.711278965696692" lon="-5.822824984788895">
        <ele>10.23</ele>
        <time>2026-07-07T14:40:12Z</time>
      </trkpt>
      <trkpt lat="54.710827013477683" lon="-5.824578981846571">
        <ele>8.789999999999999</ele>
        <time>2026-07-07T14:40:21Z</time>
      </trkpt>
      <trkpt lat="54.710084963589907" lon="-5.826859027147293">
        <ele>7.83</ele>
        <time>2026-07-07T14:40:34Z</time>
      </trkpt>
      <trkpt lat="54.709318019449711" lon="-5.829178970307112">
        <ele>6.87</ele>
        <time>2026-07-07T14:40:47Z</time>
      </trkpt>
      <trkpt lat="54.708602037280798" lon="-5.831431020051241">
        <ele>5.42</ele>
        <time>2026-07-07T14:40:58Z</time>
      </trkpt>
      <trkpt lat="54.707769965752959" lon="-5.834126975387335">
        <ele>5.91</ele>
        <time>2026-07-07T14:41:10Z</time>
      </trkpt>
      <trkpt lat="54.70663296058774" lon="-5.837474036961794">
        <ele>5.42</ele>
        <time>2026-07-07T14:41:25Z</time>
      </trkpt>
      <trkpt lat="54.705802984535694" lon="-5.83970102481544">
        <ele>5.42</ele>
        <time>2026-07-07T14:41:36Z</time>
      </trkpt>
      <trkpt lat="54.705379027873278" lon="-5.840642983093858">
        <ele>4.46</ele>
        <time>2026-07-07T14:41:46Z</time>
      </trkpt>
      <trkpt lat="54.705093959346414" lon="-5.841260980814695">
        <ele>4.46</ele>
        <time>2026-07-07T14:41:54Z</time>
      </trkpt>
      <trkpt lat="54.704437991604209" lon="-5.842465963214636">
        <ele>4.94</ele>
        <time>2026-07-07T14:42:02Z</time>
      </trkpt>
      <trkpt lat="54.703175006434321" lon="-5.844467980787158">
        <ele>5.91</ele>
        <time>2026-07-07T14:42:12Z</time>
      </trkpt>
      <trkpt lat="54.701478006318212" lon="-5.847003003582358">
        <ele>6.87</ele>
        <time>2026-07-07T14:42:25Z</time>
      </trkpt>
      <trkpt lat="54.700778033584356" lon="-5.848266994580627">
        <ele>6.39</ele>
        <time>2026-07-07T14:42:33Z</time>
      </trkpt>
      <trkpt lat="54.700664039701223" lon="-5.848409989848733">
        <ele>5.91</ele>
        <time>2026-07-07T14:42:35Z</time>
      </trkpt>
      <trkpt lat="54.700606958940625" lon="-5.848481990396977">
        <ele>5.91</ele>
        <time>2026-07-07T14:42:36Z</time>
      </trkpt>
      <trkpt lat="54.700463963672519" lon="-5.848590033128858">
        <ele>5.42</ele>
        <time>2026-07-07T14:42:38Z</time>
      </trkpt>
      <trkpt lat="54.70040000975132" lon="-5.848677037283778">
        <ele>5.42</ele>
        <time>2026-07-07T14:42:39Z</time>
      </trkpt>
      <trkpt lat="54.700395986437798" lon="-5.84883201867342">
        <ele>5.42</ele>
        <time>2026-07-07T14:42:40Z</time>
      </trkpt>
      <trkpt lat="54.700403027236462" lon="-5.848975013941526">
        <ele>5.42</ele>
        <time>2026-07-07T14:42:41Z</time>
      </trkpt>
      <trkpt lat="54.700413001701236" lon="-5.849082972854376">
        <ele>5.42</ele>
        <time>2026-07-07T14:42:42Z</time>
      </trkpt>
      <trkpt lat="54.700499000027776" lon="-5.849322024732828">
        <ele>5.42</ele>
        <time>2026-07-07T14:42:43Z</time>
      </trkpt>
      <trkpt lat="54.700499000027776" lon="-5.849507013335824">
        <ele>5.42</ele>
        <time>2026-07-07T14:42:44Z</time>
      </trkpt>
      <trkpt lat="54.700493970885873" lon="-5.849711028859019">
        <ele>5.91</ele>
        <time>2026-07-07T14:42:45Z</time>
      </trkpt>
      <trkpt lat="54.700485002249479" lon="-5.84992703050375">
        <ele>5.91</ele>
        <time>2026-07-07T14:42:46Z</time>
      </trkpt>
      <trkpt lat="54.700370002537966" lon="-5.852176984772086">
        <ele>8.789999999999999</ele>
        <time>2026-07-07T14:42:54Z</time>
      </trkpt>
      <trkpt lat="54.700037995353341" lon="-5.855034962296486">
        <ele>12.15</ele>
        <time>2026-07-07T14:43:02Z</time>
      </trkpt>
      <trkpt lat="54.699320001527667" lon="-5.857128007337451">
        <ele>14.56</ele>
        <time>2026-07-07T14:43:09Z</time>
      </trkpt>
      <trkpt lat="54.698287015780807" lon="-5.858763987198472">
        <ele>16.48</ele>
        <time>2026-07-07T14:43:16Z</time>
      </trkpt>
      <trkpt lat="54.697013972327113" lon="-5.859771994873881">
        <ele>17.920000000000002</ele>
        <time>2026-07-07T14:43:23Z</time>
      </trkpt>
      <trkpt lat="54.694669973105192" lon="-5.86073599755764">
        <ele>19.359999999999999</ele>
        <time>2026-07-07T14:43:35Z</time>
      </trkpt>
      <trkpt lat="54.693761961534619" lon="-5.861452985554934">
        <ele>16.960000000000001</ele>
        <time>2026-07-07T14:43:41Z</time>
      </trkpt>
      <trkpt lat="54.692783961072564" lon="-5.862550009042025">
        <ele>15.52</ele>
        <time>2026-07-07T14:43:49Z</time>
      </trkpt>
      <trkpt lat="54.691471019759774" lon="-5.864051962271333">
        <ele>10.710000000000001</ele>
        <time>2026-07-07T14:44:01Z</time>
      </trkpt>
      <trkpt lat="54.690442979335785" lon="-5.865779975429177">
        <ele>6.39</ele>
        <time>2026-07-07T14:44:11Z</time>
      </trkpt>
      <trkpt lat="54.689838979393244" lon="-5.866861995309591">
        <ele>4.46</ele>
        <time>2026-07-07T14:44:20Z</time>
      </trkpt>
      <trkpt lat="54.689651979133487" lon="-5.867235995829105">
        <ele>4.94</ele>
        <time>2026-07-07T14:44:28Z</time>
      </trkpt>
      <trkpt lat="54.689414016902447" lon="-5.867829015478492">
        <ele>5.91</ele>
        <time>2026-07-07T14:44:35Z</time>
      </trkpt>
      <trkpt lat="54.688740028068423" lon="-5.869167018681765">
        <ele>6.87</ele>
        <time>2026-07-07T14:44:45Z</time>
      </trkpt>
      <trkpt lat="54.687996972352266" lon="-5.870436960831285">
        <ele>7.83</ele>
        <time>2026-07-07T14:44:54Z</time>
      </trkpt>
      <trkpt lat="54.686984019353986" lon="-5.872388016432524">
        <ele>6.87</ele>
        <time>2026-07-07T14:45:07Z</time>
      </trkpt>
      <trkpt lat="54.686343977227807" lon="-5.873962976038456">
        <ele>6.87</ele>
        <time>2026-07-07T14:45:16Z</time>
      </trkpt>
      <trkpt lat="54.685622965916991" lon="-5.875963987782598">
        <ele>3.98</ele>
        <time>2026-07-07T14:45:27Z</time>
      </trkpt>
      <trkpt lat="54.684963980689645" lon="-5.877269972115755">
        <ele>5.42</ele>
        <time>2026-07-07T14:45:36Z</time>
      </trkpt>
      <trkpt lat="54.684212962165475" lon="-5.878864964470267">
        <ele>5.91</ele>
        <time>2026-07-07T14:45:46Z</time>
      </trkpt>
      <trkpt lat="54.683225993067026" lon="-5.880818031728268">
        <ele>6.39</ele>
        <time>2026-07-07T14:45:58Z</time>
      </trkpt>
      <trkpt lat="54.682517973706126" lon="-5.882267011329532">
        <ele>6.39</ele>
        <time>2026-07-07T14:46:07Z</time>
      </trkpt>
      <trkpt lat="54.681586995720863" lon="-5.883955964818597">
        <ele>9.27</ele>
        <time>2026-07-07T14:46:18Z</time>
      </trkpt>
      <trkpt lat="54.680565996095538" lon="-5.88548700325191">
        <ele>9.27</ele>
        <time>2026-07-07T14:46:29Z</time>
      </trkpt>
      <trkpt lat="54.679236961528659" lon="-5.887400005012751">
        <ele>7.83</ele>
        <time>2026-07-07T14:46:43Z</time>
      </trkpt>
      <trkpt lat="54.678199030458927" lon="-5.889072027057409">
        <ele>6.87</ele>
        <time>2026-07-07T14:46:54Z</time>
      </trkpt>
      <trkpt lat="54.67724097892642" lon="-5.890784030780196">
        <ele>5.42</ele>
        <time>2026-07-07T14:47:04Z</time>
      </trkpt>
      <trkpt lat="54.676327016204596" lon="-5.892415987327695">
        <ele>5.42</ele>
        <time>2026-07-07T14:47:15Z</time>
      </trkpt>
      <trkpt lat="54.675145000219345" lon="-5.89450903236866">
        <ele>5.42</ele>
        <time>2026-07-07T14:47:29Z</time>
      </trkpt>
      <trkpt lat="54.674241011962295" lon="-5.896026995033026">
        <ele>5.42</ele>
        <time>2026-07-07T14:47:39Z</time>
      </trkpt>
      <trkpt lat="54.673090009018779" lon="-5.898005040362477">
        <ele>11.67</ele>
        <time>2026-07-07T14:47:52Z</time>
      </trkpt>
      <trkpt lat="54.672006983309984" lon="-5.899712014943361">
        <ele>17.920000000000002</ele>
        <time>2026-07-07T14:48:03Z</time>
      </trkpt>
      <trkpt lat="54.671899024397135" lon="-5.899829026311636">
        <ele>18.399999999999999</ele>
        <time>2026-07-07T14:48:04Z</time>
      </trkpt>
      <trkpt lat="54.671797016635537" lon="-5.899937991052866">
        <ele>18.879999999999999</ele>
        <time>2026-07-07T14:48:05Z</time>
      </trkpt>
      <trkpt lat="54.670909037813544" lon="-5.900645004585385">
        <ele>19.84</ele>
        <time>2026-07-07T14:48:14Z</time>
      </trkpt>
      <trkpt lat="54.67083896510303" lon="-5.900667971000075">
        <ele>19.84</ele>
        <time>2026-07-07T14:48:15Z</time>
      </trkpt>
      <trkpt lat="54.670784985646605" lon="-5.900686997920275">
        <ele>19.84</ele>
        <time>2026-07-07T14:48:16Z</time>
      </trkpt>
      <trkpt lat="54.670749027282" lon="-5.900694038718939">
        <ele>19.84</ele>
        <time>2026-07-07T14:48:17Z</time>
      </trkpt>
      <trkpt lat="54.670722959563136" lon="-5.90069898404181">
        <ele>19.84</ele>
        <time>2026-07-07T14:48:18Z</time>
      </trkpt>
      <trkpt lat="54.670622041448951" lon="-5.900717005133629">
        <ele>19.84</ele>
        <time>2026-07-07T14:48:23Z</time>
      </trkpt>
      <trkpt lat="54.670522967353463" lon="-5.900709964334965">
        <ele>19.84</ele>
        <time>2026-07-07T14:48:24Z</time>
      </trkpt>
      <trkpt lat="54.670473011210561" lon="-5.900699989870191">
        <ele>19.359999999999999</ele>
        <time>2026-07-07T14:48:25Z</time>
      </trkpt>
      <trkpt lat="54.670403022319078" lon="-5.900694038718939">
        <ele>19.359999999999999</ele>
        <time>2026-07-07T14:48:26Z</time>
      </trkpt>
      <trkpt lat="54.670330015942454" lon="-5.900731002911925">
        <ele>19.359999999999999</ele>
        <time>2026-07-07T14:48:27Z</time>
      </trkpt>
      <trkpt lat="54.670264972373843" lon="-5.900838039815426">
        <ele>19.359999999999999</ele>
        <time>2026-07-07T14:48:28Z</time>
      </trkpt>
      <trkpt lat="54.670190960168839" lon="-5.900899982079864">
        <ele>19.84</ele>
        <time>2026-07-07T14:48:29Z</time>
      </trkpt>
      <trkpt lat="54.669927014037967" lon="-5.901116989552975">
        <ele>19.84</ele>
        <time>2026-07-07T14:48:32Z</time>
      </trkpt>
      <trkpt lat="54.669817965477705" lon="-5.901180021464825">
        <ele>19.84</ele>
        <time>2026-07-07T14:48:33Z</time>
      </trkpt>
      <trkpt lat="54.668704010546207" lon="-5.901757031679153">
        <ele>19.359999999999999</ele>
        <time>2026-07-07T14:48:41Z</time>
      </trkpt>
      <trkpt lat="54.666866026818752" lon="-5.902987997978926">
        <ele>26.57</ele>
        <time>2026-07-07T14:48:53Z</time>
      </trkpt>
      <trkpt lat="54.665126027539372" lon="-5.904251988977194">
        <ele>26.57</ele>
        <time>2026-07-07T14:49:05Z</time>
      </trkpt>
      <trkpt lat="54.664356987923384" lon="-5.904631018638611">
        <ele>24.170000000000002</ele>
        <time>2026-07-07T14:49:11Z</time>
      </trkpt>
      <trkpt lat="54.664257997646928" lon="-5.904669994488359">
        <ele>24.170000000000002</ele>
        <time>2026-07-07T14:49:12Z</time>
      </trkpt>
      <trkpt lat="54.664164958521724" lon="-5.904653985053301">
        <ele>23.690000000000001</ele>
        <time>2026-07-07T14:49:13Z</time>
      </trkpt>
      <trkpt lat="54.664072003215551" lon="-5.904620038345456">
        <ele>23.210000000000001</ele>
        <time>2026-07-07T14:49:14Z</time>
      </trkpt>
      <trkpt lat="54.663972007110715" lon="-5.904577039182186">
        <ele>22.73</ele>
        <time>2026-07-07T14:49:15Z</time>
      </trkpt>
      <trkpt lat="54.663860024884343" lon="-5.904529010877013">
        <ele>22.73</ele>
        <time>2026-07-07T14:49:16Z</time>
      </trkpt>
      <trkpt lat="54.663734966889024" lon="-5.904591036960483">
        <ele>22.73</ele>
        <time>2026-07-07T14:49:17Z</time>
      </trkpt>
      <trkpt lat="54.66361996717751" lon="-5.904540996998549">
        <ele>22.25</ele>
        <time>2026-07-07T14:49:18Z</time>
      </trkpt>
      <trkpt lat="54.663500022143126" lon="-5.904476959258318">
        <ele>22.25</ele>
        <time>2026-07-07T14:49:19Z</time>
      </trkpt>
      <trkpt lat="54.663372030481696" lon="-5.904404036700726">
        <ele>22.25</ele>
        <time>2026-07-07T14:49:20Z</time>
      </trkpt>
      <trkpt lat="54.663235992193222" lon="-5.904327007010579">
        <ele>21.77</ele>
        <time>2026-07-07T14:49:21Z</time>
      </trkpt>
      <trkpt lat="54.66179396957159" lon="-5.90355796739459">
        <ele>20.32</ele>
        <time>2026-07-07T14:49:30Z</time>
      </trkpt>
      <trkpt lat="54.659836962819099" lon="-5.903142979368568">
        <ele>14.08</ele>
        <time>2026-07-07T14:49:40Z</time>
      </trkpt>
      <trkpt lat="54.657826982438564" lon="-5.903583029285073">
        <ele>9.27</ele>
        <time>2026-07-07T14:49:49Z</time>
      </trkpt>
      <trkpt lat="54.656081032007933" lon="-5.904684998095036">
        <ele>5.91</ele>
        <time>2026-07-07T14:49:57Z</time>
      </trkpt>
      <trkpt lat="54.654483022168279" lon="-5.906489035114646">
        <ele>4.46</ele>
        <time>2026-07-07T14:50:05Z</time>
      </trkpt>
      <trkpt lat="54.652084037661552" lon="-5.909479027613998">
        <ele>5.91</ele>
        <time>2026-07-07T14:50:18Z</time>
      </trkpt>
      <trkpt lat="54.649242991581559" lon="-5.912519982084632">
        <ele>4.94</ele>
        <time>2026-07-07T14:50:32Z</time>
      </trkpt>
      <trkpt lat="54.647170985117555" lon="-5.914361989125609">
        <ele>5.42</ele>
        <time>2026-07-07T14:50:42Z</time>
      </trkpt>
      <trkpt lat="54.645363008603454" lon="-5.915638972073793">
        <ele>6.39</ele>
        <time>2026-07-07T14:50:51Z</time>
      </trkpt>
      <trkpt lat="54.642101023346186" lon="-5.917458012700081">
        <ele>6.39</ele>
        <time>2026-07-07T14:51:06Z</time>
      </trkpt>
      <trkpt lat="54.638687996193767" lon="-5.918585965409875">
        <ele>5.91</ele>
        <time>2026-07-07T14:51:21Z</time>
      </trkpt>
      <trkpt lat="54.635958010330796" lon="-5.919054010882974">
        <ele>6.39</ele>
        <time>2026-07-07T14:51:33Z</time>
      </trkpt>
      <trkpt lat="54.633019985631108" lon="-5.919164987280965">
        <ele>6.39</ele>
        <time>2026-07-07T14:51:46Z</time>
      </trkpt>
      <trkpt lat="54.629846010357141" lon="-5.918976981192827">
        <ele>4.46</ele>
        <time>2026-07-07T14:52:00Z</time>
      </trkpt>
      <trkpt lat="54.62775900028646" lon="-5.919077983126044">
        <ele>5.42</ele>
        <time>2026-07-07T14:52:09Z</time>
      </trkpt>
      <trkpt lat="54.624730031937361" lon="-5.919461036100984">
        <ele>4.94</ele>
        <time>2026-07-07T14:52:22Z</time>
      </trkpt>
      <trkpt lat="54.62234303355217" lon="-5.919827995821834">
        <ele>5.42</ele>
        <time>2026-07-07T14:52:32Z</time>
      </trkpt>
      <trkpt lat="54.619599971920252" lon="-5.920236026868224">
        <ele>4.94</ele>
        <time>2026-07-07T14:52:44Z</time>
      </trkpt>
      <trkpt lat="54.617164023220539" lon="-5.920624025166035">
        <ele>5.91</ele>
        <time>2026-07-07T14:52:56Z</time>
      </trkpt>
      <trkpt lat="54.615786960348487" lon="-5.920796021819115">
        <ele>6.39</ele>
        <time>2026-07-07T14:53:04Z</time>
      </trkpt>
      <trkpt lat="54.613917963579297" lon="-5.920985033735633">
        <ele>6.39</ele>
        <time>2026-07-07T14:53:15Z</time>
      </trkpt>
      <trkpt lat="54.612199002876878" lon="-5.921110007911921">
        <ele>6.39</ele>
        <time>2026-07-07T14:53:25Z</time>
      </trkpt>
      <trkpt lat="54.61039898917079" lon="-5.921458024531603">
        <ele>10.23</ele>
        <time>2026-07-07T14:53:36Z</time>
      </trkpt>
      <trkpt lat="54.609036007896066" lon="-5.922403000295162">
        <ele>10.23</ele>
        <time>2026-07-07T14:53:46Z</time>
      </trkpt>
      <trkpt lat="54.607680989429355" lon="-5.92390101402998">
        <ele>8.310000000000001</ele>
        <time>2026-07-07T14:53:55Z</time>
      </trkpt>
      <trkpt lat="54.607201963663101" lon="-5.924189016222954">
        <ele>9.27</ele>
        <time>2026-07-07T14:53:58Z</time>
      </trkpt>
      <trkpt lat="54.607040025293827" lon="-5.924238972365856">
        <ele>9.75</ele>
        <time>2026-07-07T14:53:59Z</time>
      </trkpt>
      <trkpt lat="54.605785002931952" lon="-5.924193961545825">
        <ele>12.630000000000001</ele>
        <time>2026-07-07T14:54:07Z</time>
      </trkpt>
      <trkpt lat="54.604398971423507" lon="-5.923159969970584">
        <ele>12.15</ele>
        <time>2026-07-07T14:54:16Z</time>
      </trkpt>
      <trkpt lat="54.60395498201251" lon="-5.922645991668105">
        <ele>12.15</ele>
        <time>2026-07-07T14:54:19Z</time>
      </trkpt>
      <trkpt lat="54.603819027543068" lon="-5.922454968094826">
        <ele>11.67</ele>
        <time>2026-07-07T14:54:20Z</time>
      </trkpt>
      <trkpt lat="54.603691035881639" lon="-5.92224801890552">
        <ele>11.67</ele>
        <time>2026-07-07T14:54:21Z</time>
      </trkpt>
      <trkpt lat="54.603578969836235" lon="-5.922007961198688">
        <ele>11.19</ele>
        <time>2026-07-07T14:54:22Z</time>
      </trkpt>
      <trkpt lat="54.603466987609863" lon="-5.921769998967648">
        <ele>11.19</ele>
        <time>2026-07-07T14:54:23Z</time>
      </trkpt>
      <trkpt lat="54.603362968191504" lon="-5.921544022858143">
        <ele>11.19</ele>
        <time>2026-07-07T14:54:24Z</time>
      </trkpt>
      <trkpt lat="54.602726027369499" lon="-5.919764041900635">
        <ele>14.08</ele>
        <time>2026-07-07T14:54:32Z</time>
      </trkpt>
      <trkpt lat="54.601880041882396" lon="-5.917318034917116">
        <ele>17.920000000000002</ele>
        <time>2026-07-07T14:54:43Z</time>
      </trkpt>
      <trkpt lat="54.601577958092093" lon="-5.915903002023697">
        <ele>18.399999999999999</ele>
        <time>2026-07-07T14:54:51Z</time>
      </trkpt>
      <trkpt lat="54.601501012220979" lon="-5.915272012352943">
        <ele>17.440000000000001</ele>
        <time>2026-07-07T14:55:00Z</time>
      </trkpt>
      <trkpt lat="54.601481985300779" lon="-5.915109990164638">
        <ele>17.440000000000001</ele>
        <time>2026-07-07T14:55:04Z</time>
      </trkpt>
      <trkpt lat="54.601477961987257" lon="-5.915079982951284">
        <ele>17.440000000000001</ele>
        <time>2026-07-07T14:55:16Z</time>
      </trkpt>
      <trkpt lat="54.601473016664386" lon="-5.915033966302872">
        <ele>17.440000000000001</ele>
        <time>2026-07-07T14:55:17Z</time>
      </trkpt>
      <trkpt lat="54.601463964208961" lon="-5.914963977411389">
        <ele>17.440000000000001</ele>
        <time>2026-07-07T14:55:18Z</time>
      </trkpt>
      <trkpt lat="54.601397998631001" lon="-5.914159985259175">
        <ele>16.960000000000001</ele>
        <time>2026-07-07T14:55:26Z</time>
      </trkpt>
      <trkpt lat="54.601386012509465" lon="-5.913537964224815">
        <ele>16</ele>
        <time>2026-07-07T14:55:37Z</time>
      </trkpt>
      <trkpt lat="54.601386012509465" lon="-5.912889037281275">
        <ele>16.48</ele>
        <time>2026-07-07T14:55:47Z</time>
      </trkpt>
      <trkpt lat="54.601386012509465" lon="-5.912818964570761">
        <ele>16.48</ele>
        <time>2026-07-07T14:55:48Z</time>
      </trkpt>
      <trkpt lat="54.601386012509465" lon="-5.912749981507659">
        <ele>16.960000000000001</ele>
        <time>2026-07-07T14:55:49Z</time>
      </trkpt>
      <trkpt lat="54.601386012509465" lon="-5.91268602758646">
        <ele>17.440000000000001</ele>
        <time>2026-07-07T14:55:50Z</time>
      </trkpt>
      <trkpt lat="54.601386012509465" lon="-5.912640010938048">
        <ele>17.440000000000001</ele>
        <time>2026-07-07T14:55:51Z</time>
      </trkpt>
      <trkpt lat="54.601414008066058" lon="-5.912305992096663">
        <ele>19.359999999999999</ele>
        <time>2026-07-07T14:56:02Z</time>
      </trkpt>
      <trkpt lat="54.601476034149528" lon="-5.91169604100287">
        <ele>19.359999999999999</ele>
        <time>2026-07-07T14:56:09Z</time>
      </trkpt>
      <trkpt lat="54.601494977250695" lon="-5.911523038521409">
        <ele>19.359999999999999</ele>
        <time>2026-07-07T14:56:11Z</time>
      </trkpt>
      <trkpt lat="54.601600002497435" lon="-5.910551995038986">
        <ele>17.440000000000001</ele>
        <time>2026-07-07T14:56:21Z</time>
      </trkpt>
      <trkpt lat="54.601630009710789" lon="-5.91028000228107">
        <ele>16</ele>
        <time>2026-07-07T14:56:24Z</time>
      </trkpt>
      <trkpt lat="54.601637972518802" lon="-5.910205990076065">
        <ele>15.52</ele>
        <time>2026-07-07T14:56:25Z</time>
      </trkpt>
      <trkpt lat="54.601702010259032" lon="-5.909612970426679">
        <ele>13.119999999999999</ele>
        <time>2026-07-07T14:56:37Z</time>
      </trkpt>
      <trkpt lat="54.601764036342502" lon="-5.90907703153789">
        <ele>11.67</ele>
        <time>2026-07-07T14:56:43Z</time>
      </trkpt>
      <trkpt lat="54.601776022464037" lon="-5.908992039039731">
        <ele>11.19</ele>
        <time>2026-07-07T14:56:44Z</time>
      </trkpt>
      <trkpt lat="54.601969979703426" lon="-5.907693011686206">
        <ele>7.83</ele>
        <time>2026-07-07T14:56:58Z</time>
      </trkpt>
      <trkpt lat="54.602011973038316" lon="-5.907457983121276">
        <ele>7.83</ele>
        <time>2026-07-07T14:57:01Z</time>
      </trkpt>
      <trkpt lat="54.602104006335139" lon="-5.907025979831815">
        <ele>8.310000000000001</ele>
        <time>2026-07-07T14:57:09Z</time>
      </trkpt>
      <trkpt lat="54.60212797857821" lon="-5.906916009262204">
        <ele>8.310000000000001</ele>
        <time>2026-07-07T14:57:10Z</time>
      </trkpt>
      <trkpt lat="54.602231997996569" lon="-5.906429020687938">
        <ele>5.91</ele>
        <time>2026-07-07T14:57:17Z</time>
      </trkpt>
      <trkpt lat="54.602345991879702" lon="-5.905898027122021">
        <ele>7.83</ele>
        <time>2026-07-07T14:57:26Z</time>
      </trkpt>
      <trkpt lat="54.602445987984538" lon="-5.905472980812192">
        <ele>10.23</ele>
        <time>2026-07-07T14:57:34Z</time>
      </trkpt>
      <trkpt lat="54.602457974106073" lon="-5.905421013012528">
        <ele>10.710000000000001</ele>
        <time>2026-07-07T14:57:35Z</time>
      </trkpt>
      <trkpt lat="54.602470966055989" lon="-5.905366027727723">
        <ele>10.710000000000001</ele>
        <time>2026-07-07T14:57:36Z</time>
      </trkpt>
      <trkpt lat="54.602481024339795" lon="-5.905325040221214">
        <ele>10.710000000000001</ele>
        <time>2026-07-07T14:57:37Z</time>
      </trkpt>
      <trkpt lat="54.60249200463295" lon="-5.905278017744422">
        <ele>10.23</ele>
        <time>2026-07-07T14:57:38Z</time>
      </trkpt>
      <trkpt lat="54.602509019896388" lon="-5.90520903468132">
        <ele>10.23</ele>
        <time>2026-07-07T14:57:39Z</time>
      </trkpt>
      <trkpt lat="54.602524023503065" lon="-5.905140973627567">
        <ele>10.23</ele>
        <time>2026-07-07T14:57:40Z</time>
      </trkpt>
      <trkpt lat="54.602539027109742" lon="-5.905078025534749">
        <ele>9.75</ele>
        <time>2026-07-07T14:57:41Z</time>
      </trkpt>
      <trkpt lat="54.602683028206229" lon="-5.904450975358486">
        <ele>6.87</ele>
        <time>2026-07-07T14:57:52Z</time>
      </trkpt>
      <trkpt lat="54.60270800627768" lon="-5.904309991747141">
        <ele>6.39</ele>
        <time>2026-07-07T14:57:54Z</time>
      </trkpt>
      <trkpt lat="54.602831974625587" lon="-5.90334003791213">
        <ele>4.46</ele>
        <time>2026-07-07T14:58:02Z</time>
      </trkpt>
      <trkpt lat="54.602854019030929" lon="-5.902926977723837">
        <ele>3.98</ele>
        <time>2026-07-07T14:58:10Z</time>
      </trkpt>
      <trkpt lat="54.602873967960477" lon="-5.902538979426026">
        <ele>3.5</ele>
        <time>2026-07-07T14:58:21Z</time>
      </trkpt>
      <trkpt lat="54.602886959910393" lon="-5.902305962517858">
        <ele>5.42</ele>
        <time>2026-07-07T14:58:35Z</time>
      </trkpt>
      <trkpt lat="54.602904981002212" lon="-5.901956018060446">
        <ele>5.91</ele>
        <time>2026-07-07T14:58:55Z</time>
      </trkpt>
      <trkpt lat="54.60292300209403" lon="-5.901337014511228">
        <ele>1.1</ele>
        <time>2026-07-07T14:59:01Z</time>
      </trkpt>
      <trkpt lat="54.602926019579172" lon="-5.90121497400105">
        <ele>0.14</ele>
        <time>2026-07-07T14:59:02Z</time>
      </trkpt>
      <trkpt lat="54.602930964902043" lon="-5.900018038228154">
        <ele>-6.59</ele>
        <time>2026-07-07T14:59:14Z</time>
      </trkpt>
      <trkpt lat="54.602930964902043" lon="-5.899743027985096">
        <ele>-7.07</ele>
        <time>2026-07-07T14:59:23Z</time>
      </trkpt>
      <trkpt lat="54.602930964902043" lon="-5.899587962776423">
        <ele>-6.11</ele>
        <time>2026-07-07T15:00:02Z</time>
      </trkpt>
      <trkpt lat="54.602930964902043" lon="-5.898541985079646">
        <ele>-0.82</ele>
        <time>2026-07-07T15:00:10Z</time>
      </trkpt>
      <trkpt lat="54.602930964902043" lon="-5.898311985656619">
        <ele>1.1</ele>
        <time>2026-07-07T15:00:16Z</time>
      </trkpt>
      <trkpt lat="54.602930964902043" lon="-5.897973021492362">
        <ele>3.02</ele>
        <time>2026-07-07T15:00:44Z</time>
      </trkpt>
      <trkpt lat="54.603012017905712" lon="-5.896865017712116">
        <ele>3.5</ele>
        <time>2026-07-07T15:00:49Z</time>
      </trkpt>
      <trkpt lat="54.603045964613557" lon="-5.896576009690762">
        <ele>3.98</ele>
        <time>2026-07-07T15:00:50Z</time>
      </trkpt>
      <trkpt lat="54.603490037843585" lon="-5.893679978325963">
        <ele>6.39</ele>
        <time>2026-07-07T15:00:59Z</time>
      </trkpt>
      <trkpt lat="54.604515982791781" lon="-5.88937696069479">
        <ele>9.27</ele>
        <time>2026-07-07T15:01:13Z</time>
      </trkpt>
      <trkpt lat="54.605659022927284" lon="-5.885995030403137">
        <ele>10.23</ele>
        <time>2026-07-07T15:01:25Z</time>
      </trkpt>
      <trkpt lat="54.607384018599987" lon="-5.882165003567934">
        <ele>12.15</ele>
        <time>2026-07-07T15:01:40Z</time>
      </trkpt>
      <trkpt lat="54.609197024255991" lon="-5.878249984234572">
        <ele>14.56</ele>
        <time>2026-07-07T15:01:55Z</time>
      </trkpt>
      <trkpt lat="54.61108697578311" lon="-5.874440995976329">
        <ele>16</ele>
        <time>2026-07-07T15:02:10Z</time>
      </trkpt>
      <trkpt lat="54.613143978640437" lon="-5.870970971882343">
        <ele>16</ele>
        <time>2026-07-07T15:02:25Z</time>
      </trkpt>
      <trkpt lat="54.614839972928166" lon="-5.868801986798644">
        <ele>16</ele>
        <time>2026-07-07T15:02:36Z</time>
      </trkpt>
      <trkpt lat="54.616513000801206" lon="-5.866668960079551">
        <ele>19.84</ele>
        <time>2026-07-07T15:02:47Z</time>
      </trkpt>
      <trkpt lat="54.617363009601831" lon="-5.864421017467976">
        <ele>19.84</ele>
        <time>2026-07-07T15:02:55Z</time>
      </trkpt>
      <trkpt lat="54.618044961243868" lon="-5.862598959356546">
        <ele>18.399999999999999</ele>
        <time>2026-07-07T15:03:02Z</time>
      </trkpt>
      <trkpt lat="54.618250988423824" lon="-5.86228103376925">
        <ele>16.48</ele>
        <time>2026-07-07T15:03:07Z</time>
      </trkpt>
      <trkpt lat="54.618270015344024" lon="-5.862252032384276">
        <ele>16</ele>
        <time>2026-07-07T15:03:16Z</time>
      </trkpt>
      <trkpt lat="54.618375962600112" lon="-5.86208900436759">
        <ele>16.48</ele>
        <time>2026-07-07T15:03:53Z</time>
      </trkpt>
      <trkpt lat="54.618968982249498" lon="-5.861261039972305">
        <ele>16</ele>
        <time>2026-07-07T15:03:59Z</time>
      </trkpt>
      <trkpt lat="54.619939019903541" lon="-5.860329978168011">
        <ele>15.52</ele>
        <time>2026-07-07T15:04:06Z</time>
      </trkpt>
      <trkpt lat="54.62163501419127" lon="-5.859073027968407">
        <ele>15.039999999999999</ele>
        <time>2026-07-07T15:04:17Z</time>
      </trkpt>
      <trkpt lat="54.623595960438251" lon="-5.857111997902393">
        <ele>13.6</ele>
        <time>2026-07-07T15:04:28Z</time>
      </trkpt>
      <trkpt lat="54.625229006633162" lon="-5.855133030563593">
        <ele>16.48</ele>
        <time>2026-07-07T15:04:37Z</time>
      </trkpt>
      <trkpt lat="54.627616005018353" lon="-5.851945979520679">
        <ele>17.440000000000001</ele>
        <time>2026-07-07T15:04:51Z</time>
      </trkpt>
      <trkpt lat="54.628980997949839" lon="-5.850113024935126">
        <ele>16.960000000000001</ele>
        <time>2026-07-07T15:05:01Z</time>
      </trkpt>
      <trkpt lat="54.630289999768138" lon="-5.848594978451729">
        <ele>15.039999999999999</ele>
        <time>2026-07-07T15:05:10Z</time>
      </trkpt>
      <trkpt lat="54.631380988284945" lon="-5.847847983241081">
        <ele>14.08</ele>
        <time>2026-07-07T15:05:17Z</time>
      </trkpt>
      <trkpt lat="54.633326008915901" lon="-5.847194027155638">
        <ele>11.67</ele>
        <time>2026-07-07T15:05:26Z</time>
      </trkpt>
      <trkpt lat="54.634728971868753" lon="-5.846073031425476">
        <ele>10.710000000000001</ele>
        <time>2026-07-07T15:05:33Z</time>
      </trkpt>
      <trkpt lat="54.636921007186174" lon="-5.843987027183175">
        <ele>12.15</ele>
        <time>2026-07-07T15:05:45Z</time>
      </trkpt>
      <trkpt lat="54.638857981190085" lon="-5.841881996020675">
        <ele>12.15</ele>
        <time>2026-07-07T15:05:56Z</time>
      </trkpt>
      <trkpt lat="54.639831036329269" lon="-5.840696962550283">
        <ele>11.67</ele>
        <time>2026-07-07T15:06:04Z</time>
      </trkpt>
      <trkpt lat="54.641116987913847" lon="-5.838941037654877">
        <ele>11.67</ele>
        <time>2026-07-07T15:06:16Z</time>
      </trkpt>
      <trkpt lat="54.641285967081785" lon="-5.838703997433186">
        <ele>12.630000000000001</ele>
        <time>2026-07-07T15:06:23Z</time>
      </trkpt>
      <trkpt lat="54.641419993713498" lon="-5.838516997173429">
        <ele>13.119999999999999</ele>
        <time>2026-07-07T15:06:39Z</time>
      </trkpt>
      <trkpt lat="54.641987029463053" lon="-5.83761896006763">
        <ele>13.119999999999999</ele>
        <time>2026-07-07T15:06:46Z</time>
      </trkpt>
      <trkpt lat="54.642654983326793" lon="-5.836404003202915">
        <ele>12.630000000000001</ele>
        <time>2026-07-07T15:06:54Z</time>
      </trkpt>
      <trkpt lat="54.642754979431629" lon="-5.836244998499751">
        <ele>12.630000000000001</ele>
        <time>2026-07-07T15:06:55Z</time>
      </trkpt>
      <trkpt lat="54.642866961658001" lon="-5.836083982139826">
        <ele>12.15</ele>
        <time>2026-07-07T15:06:56Z</time>
      </trkpt>
      <trkpt lat="54.64331497438252" lon="-5.835305973887444">
        <ele>13.119999999999999</ele>
        <time>2026-07-07T15:07:00Z</time>
      </trkpt>
      <trkpt lat="54.643407007679343" lon="-5.835091983899474">
        <ele>13.6</ele>
        <time>2026-07-07T15:07:01Z</time>
      </trkpt>
      <trkpt lat="54.643478002399206" lon="-5.834869025275111">
        <ele>13.6</ele>
        <time>2026-07-07T15:07:02Z</time>
      </trkpt>
      <trkpt lat="54.644192978739738" lon="-5.831957990303636">
        <ele>14.08</ele>
        <time>2026-07-07T15:07:14Z</time>
      </trkpt>
      <trkpt lat="54.644766971468925" lon="-5.828713020309806">
        <ele>15.52</ele>
        <time>2026-07-07T15:07:27Z</time>
      </trkpt>
      <trkpt lat="54.644837966188788" lon="-5.827422039583325">
        <ele>14.56</ele>
        <time>2026-07-07T15:07:34Z</time>
      </trkpt>
      <trkpt lat="54.644793961197138" lon="-5.826822984963656">
        <ele>13.6</ele>
        <time>2026-07-07T15:07:42Z</time>
      </trkpt>
      <trkpt lat="54.644761020317674" lon="-5.826578987762332">
        <ele>14.08</ele>
        <time>2026-07-07T15:07:51Z</time>
      </trkpt>
      <trkpt lat="54.64460201561451" lon="-5.825061025097966">
        <ele>16</ele>
        <time>2026-07-07T15:08:00Z</time>
      </trkpt>
      <trkpt lat="54.64473101310432" lon="-5.823219018056989">
        <ele>21.77</ele>
        <time>2026-07-07T15:08:08Z</time>
      </trkpt>
      <trkpt lat="54.644890017807484" lon="-5.821021031588316">
        <ele>28.98</ele>
        <time>2026-07-07T15:08:17Z</time>
      </trkpt>
      <trkpt lat="54.644918013364077" lon="-5.819188999012113">
        <ele>32.340000000000003</ele>
        <time>2026-07-07T15:08:24Z</time>
      </trkpt>
      <trkpt lat="54.645190006121993" lon="-5.817644968628883">
        <ele>34.259999999999998</ele>
        <time>2026-07-07T15:08:31Z</time>
      </trkpt>
      <trkpt lat="54.645869024097919" lon="-5.816455995664001">
        <ele>37.630000000000003</ele>
        <time>2026-07-07T15:08:38Z</time>
      </trkpt>
      <trkpt lat="54.646389959380031" lon="-5.815824000164866">
        <ele>40.030000000000001</ele>
        <time>2026-07-07T15:08:44Z</time>
      </trkpt>
      <trkpt lat="54.646787010133266" lon="-5.81510097719729">
        <ele>41.469999999999999</ele>
        <time>2026-07-07T15:08:50Z</time>
      </trkpt>
      <trkpt lat="54.646860016509891" lon="-5.814939038828015">
        <ele>40.990000000000002</ele>
        <time>2026-07-07T15:08:51Z</time>
      </trkpt>
      <trkpt lat="54.647271987050772" lon="-5.813083034008741">
        <ele>40.509999999999998</ele>
        <time>2026-07-07T15:08:59Z</time>
      </trkpt>
      <trkpt lat="54.647882021963596" lon="-5.810627974569798">
        <ele>41.950000000000003</ele>
        <time>2026-07-07T15:09:09Z</time>
      </trkpt>
      <trkpt lat="54.64868601411581" lon="-5.80891203135252">
        <ele>47.240000000000002</ele>
        <time>2026-07-07T15:09:18Z</time>
      </trkpt>
      <trkpt lat="54.648786010220647" lon="-5.808723019436002">
        <ele>47.719999999999999</ele>
        <time>2026-07-07T15:09:19Z</time>
      </trkpt>
      <trkpt lat="54.648887012153864" lon="-5.808531995862722">
        <ele>47.719999999999999</ele>
        <time>2026-07-07T15:09:20Z</time>
      </trkpt>
      <trkpt lat="54.649960985407233" lon="-5.806118007749319">
        <ele>52.530000000000001</ele>
        <time>2026-07-07T15:09:31Z</time>
      </trkpt>
      <trkpt lat="54.650721978396177" lon="-5.803997972980142">
        <ele>55.890000000000001</ele>
        <time>2026-07-07T15:09:40Z</time>
      </trkpt>
      <trkpt lat="54.650766989216208" lon="-5.803740983828902">
        <ele>55.890000000000001</ele>
        <time>2026-07-07T15:09:41Z</time>
      </trkpt>
      <trkpt lat="54.651369983330369" lon="-5.801719017326832">
        <ele>61.659999999999997</ele>
        <time>2026-07-07T15:09:50Z</time>
      </trkpt>
      <trkpt lat="54.651995021849871" lon="-5.799669977277517">
        <ele>66.469999999999999</ele>
        <time>2026-07-07T15:09:59Z</time>
      </trkpt>
      <trkpt lat="54.652308002114296" lon="-5.798056041821837">
        <ele>64.549999999999997</ele>
        <time>2026-07-07T15:10:05Z</time>
      </trkpt>
      <trkpt lat="54.653034964576364" lon="-5.795653034001589">
        <ele>57.82</ele>
        <time>2026-07-07T15:10:14Z</time>
      </trkpt>
      <trkpt lat="54.653853960335255" lon="-5.793371982872486">
        <ele>54.93</ele>
        <time>2026-07-07T15:10:23Z</time>
      </trkpt>
      <trkpt lat="54.654907984659076" lon="-5.790641997009516">
        <ele>57.340000000000003</ele>
        <time>2026-07-07T15:10:34Z</time>
      </trkpt>
      <trkpt lat="54.655305035412312" lon="-5.789254037663341">
        <ele>60.700000000000003</ele>
        <time>2026-07-07T15:10:39Z</time>
      </trkpt>
      <trkpt lat="54.65609704144299" lon="-5.786153990775347">
        <ele>70.790000000000006</ele>
        <time>2026-07-07T15:10:50Z</time>
      </trkpt>
      <trkpt lat="54.656456960365176" lon="-5.783834969624877">
        <ele>71.269999999999996</ele>
        <time>2026-07-07T15:10:57Z</time>
      </trkpt>
      <trkpt lat="54.656884018331766" lon="-5.781674031168222">
        <ele>73.200000000000003</ele>
        <time>2026-07-07T15:11:04Z</time>
      </trkpt>
      <trkpt lat="54.657568987458944" lon="-5.77887799590826">
        <ele>78.480000000000004</ele>
        <time>2026-07-07T15:11:15Z</time>
      </trkpt>
      <trkpt lat="54.657735032960773" lon="-5.777202034369111">
        <ele>74.640000000000001</ele>
        <time>2026-07-07T15:11:22Z</time>
      </trkpt>
      <trkpt lat="54.657744001597166" lon="-5.776955019682646">
        <ele>72.719999999999999</ele>
        <time>2026-07-07T15:11:24Z</time>
      </trkpt>
      <trkpt lat="54.657747019082308" lon="-5.776876984164119">
        <ele>72.239999999999995</ele>
        <time>2026-07-07T15:11:25Z</time>
      </trkpt>
      <trkpt lat="54.65775003656745" lon="-5.77681303024292">
        <ele>71.269999999999996</ele>
        <time>2026-07-07T15:11:26Z</time>
      </trkpt>
      <trkpt lat="54.657751964405179" lon="-5.776757961139083">
        <ele>70.310000000000002</ele>
        <time>2026-07-07T15:11:27Z</time>
      </trkpt>
      <trkpt lat="54.65775397606194" lon="-5.776710016652942">
        <ele>69.829999999999998</ele>
        <time>2026-07-07T15:11:28Z</time>
      </trkpt>
      <trkpt lat="54.657755987718701" lon="-5.776662994176149">
        <ele>68.870000000000005</ele>
        <time>2026-07-07T15:11:29Z</time>
      </trkpt>
      <trkpt lat="54.657748024910688" lon="-5.776421008631587">
        <ele>66.950000000000003</ele>
        <time>2026-07-07T15:11:40Z</time>
      </trkpt>
      <trkpt lat="54.657736960798502" lon="-5.776071986183524">
        <ele>66.469999999999999</ele>
        <time>2026-07-07T15:11:54Z</time>
      </trkpt>
      <trkpt lat="54.657725980505347" lon="-5.775050986558199">
        <ele>65.510000000000005</ele>
        <time>2026-07-07T15:12:02Z</time>
      </trkpt>
      <trkpt lat="54.657983975484967" lon="-5.77387098222971">
        <ele>67.909999999999997</ele>
        <time>2026-07-07T15:12:08Z</time>
      </trkpt>
      <trkpt lat="54.658167958259583" lon="-5.772371962666512">
        <ele>72.239999999999995</ele>
        <time>2026-07-07T15:12:16Z</time>
      </trkpt>
      <trkpt lat="54.658154966309667" lon="-5.772146992385387">
        <ele>72.719999999999999</ele>
        <time>2026-07-07T15:12:17Z</time>
      </trkpt>
      <trkpt lat="54.658135017380118" lon="-5.771914981305599">
        <ele>73.200000000000003</ele>
        <time>2026-07-07T15:12:18Z</time>
      </trkpt>
      <trkpt lat="54.658106015995145" lon="-5.771699985489249">
        <ele>73.680000000000007</ele>
        <time>2026-07-07T15:12:19Z</time>
      </trkpt>
      <trkpt lat="54.658047007396817" lon="-5.771491024643183">
        <ele>74.159999999999997</ele>
        <time>2026-07-07T15:12:20Z</time>
      </trkpt>
      <trkpt lat="54.657992022112012" lon="-5.771297989413142">
        <ele>74.159999999999997</ele>
        <time>2026-07-07T15:12:21Z</time>
      </trkpt>
      <trkpt lat="54.657906023785472" lon="-5.771126998588443">
        <ele>74.640000000000001</ele>
        <time>2026-07-07T15:12:22Z</time>
      </trkpt>
      <trkpt lat="54.657813990488648" lon="-5.770943015813828">
        <ele>74.640000000000001</ele>
        <time>2026-07-07T15:12:23Z</time>
      </trkpt>
      <trkpt lat="54.657718017697334" lon="-5.770751992240548">
        <ele>74.159999999999997</ele>
        <time>2026-07-07T15:12:24Z</time>
      </trkpt>
      <trkpt lat="54.657126003876328" lon="-5.769183989614248">
        <ele>73.680000000000007</ele>
        <time>2026-07-07T15:12:32Z</time>
      </trkpt>
      <trkpt lat="54.65708501636982" lon="-5.76895097270608">
        <ele>73.680000000000007</ele>
        <time>2026-07-07T15:12:33Z</time>
      </trkpt>
      <trkpt lat="54.657046962529421" lon="-5.768702030181885">
        <ele>73.680000000000007</ele>
        <time>2026-07-07T15:12:34Z</time>
      </trkpt>
      <trkpt lat="54.656854011118412" lon="-5.766777964308858">
        <ele>73.680000000000007</ele>
        <time>2026-07-07T15:12:42Z</time>
      </trkpt>
      <trkpt lat="54.656688971444964" lon="-5.763830970972776">
        <ele>75.599999999999994</ele>
        <time>2026-07-07T15:12:54Z</time>
      </trkpt>
      <trkpt lat="54.65648696757853" lon="-5.759902037680149">
        <ele>73.680000000000007</ele>
        <time>2026-07-07T15:13:09Z</time>
      </trkpt>
      <trkpt lat="54.656375991180539" lon="-5.758525980636478">
        <ele>71.760000000000005</ele>
        <time>2026-07-07T15:13:14Z</time>
      </trkpt>
      <trkpt lat="54.655781965702772" lon="-5.756523963063955">
        <ele>67.909999999999997</ele>
        <time>2026-07-07T15:13:22Z</time>
      </trkpt>
      <trkpt lat="54.654840007424355" lon="-5.753809986636043">
        <ele>65.510000000000005</ele>
        <time>2026-07-07T15:13:33Z</time>
      </trkpt>
      <trkpt lat="54.653724962845445" lon="-5.750696025788784">
        <ele>69.349999999999994</ele>
        <time>2026-07-07T15:13:43Z</time>
      </trkpt>
      <trkpt lat="54.65240397490561" lon="-5.747156012803316">
        <ele>66.950000000000003</ele>
        <time>2026-07-07T15:13:55Z</time>
      </trkpt>
      <trkpt lat="54.651481965556741" lon="-5.744687039405108">
        <ele>67.909999999999997</ele>
        <time>2026-07-07T15:14:03Z</time>
      </trkpt>
      <trkpt lat="54.650479992851615" lon="-5.742714023217559">
        <ele>68.870000000000005</ele>
        <time>2026-07-07T15:14:10Z</time>
      </trkpt>
      <trkpt lat="54.648860022425652" lon="-5.74005302041769">
        <ele>76.079999999999998</ele>
        <time>2026-07-07T15:14:20Z</time>
      </trkpt>
      <trkpt lat="54.648440005257726" lon="-5.739231007173657">
        <ele>78.480000000000004</ele>
        <time>2026-07-07T15:14:23Z</time>
      </trkpt>
      <trkpt lat="54.648335985839367" lon="-5.738939987495542">
        <ele>78.969999999999999</ele>
        <time>2026-07-07T15:14:24Z</time>
      </trkpt>
      <trkpt lat="54.648259039968252" lon="-5.738562969490886">
        <ele>78.969999999999999</ele>
        <time>2026-07-07T15:14:25Z</time>
      </trkpt>
      <trkpt lat="54.648186033591628" lon="-5.738202966749668">
        <ele>78.969999999999999</ele>
        <time>2026-07-07T15:14:26Z</time>
      </trkpt>
      <trkpt lat="54.648112021386623" lon="-5.737841036170721">
        <ele>78.480000000000004</ele>
        <time>2026-07-07T15:14:27Z</time>
      </trkpt>
      <trkpt lat="54.64748203754425" lon="-5.733557967469096">
        <ele>71.269999999999996</ele>
        <time>2026-07-07T15:14:38Z</time>
      </trkpt>
      <trkpt lat="54.646938974037766" lon="-5.729652000591159">
        <ele>66.950000000000003</ele>
        <time>2026-07-07T15:14:48Z</time>
      </trkpt>
      <trkpt lat="54.646864961832762" lon="-5.726570980623364">
        <ele>66.950000000000003</ele>
        <time>2026-07-07T15:14:56Z</time>
      </trkpt>
      <trkpt lat="54.646811988204718" lon="-5.722468961030245">
        <ele>66.950000000000003</ele>
        <time>2026-07-07T15:15:08Z</time>
      </trkpt>
      <trkpt lat="54.646798996254802" lon="-5.721764964982867">
        <ele>66.950000000000003</ele>
        <time>2026-07-07T15:15:13Z</time>
      </trkpt>
      <trkpt lat="54.646791033446789" lon="-5.721262972801924">
        <ele>67.430000000000007</ele>
        <time>2026-07-07T15:15:20Z</time>
      </trkpt>
      <trkpt lat="54.646791033446789" lon="-5.721174040809274">
        <ele>67.430000000000007</ele>
        <time>2026-07-07T15:15:21Z</time>
      </trkpt>
      <trkpt lat="54.646791033446789" lon="-5.721010006964207">
        <ele>67.430000000000007</ele>
        <time>2026-07-07T15:15:23Z</time>
      </trkpt>
      <trkpt lat="54.646705035120249" lon="-5.720958961173892">
        <ele>66.950000000000003</ele>
        <time>2026-07-07T15:15:24Z</time>
      </trkpt>
      <trkpt lat="54.646662035956979" lon="-5.720958961173892">
        <ele>66.950000000000003</ele>
        <time>2026-07-07T15:15:25Z</time>
      </trkpt>
      <trkpt lat="54.646615013480186" lon="-5.72097203694284">
        <ele>66.950000000000003</ele>
        <time>2026-07-07T15:15:26Z</time>
      </trkpt>
      <trkpt lat="54.646553993225098" lon="-5.720988968387246">
        <ele>66.950000000000003</ele>
        <time>2026-07-07T15:15:27Z</time>
      </trkpt>
      <trkpt lat="54.646490039303899" lon="-5.721007995307446">
        <ele>66.950000000000003</ele>
        <time>2026-07-07T15:15:28Z</time>
      </trkpt>
      <trkpt lat="54.646421978250146" lon="-5.721027022227645">
        <ele>66.950000000000003</ele>
        <time>2026-07-07T15:15:29Z</time>
      </trkpt>
      <trkpt lat="54.646351989358664" lon="-5.721049988642335">
        <ele>66.950000000000003</ele>
        <time>2026-07-07T15:15:30Z</time>
      </trkpt>
      <trkpt lat="54.646271020174026" lon="-5.721096005290747">
        <ele>66.950000000000003</ele>
        <time>2026-07-07T15:15:31Z</time>
      </trkpt>
      <trkpt lat="54.646183010190725" lon="-5.721145961433649">
        <ele>66.950000000000003</ele>
        <time>2026-07-07T15:15:32Z</time>
      </trkpt>
      <trkpt lat="54.646060969680548" lon="-5.721216034144163">
        <ele>67.430000000000007</ele>
        <time>2026-07-07T15:15:33Z</time>
      </trkpt>
      <trkpt lat="54.645139966160059" lon="-5.722088003531098">
        <ele>72.239999999999995</ele>
        <time>2026-07-07T15:15:43Z</time>
      </trkpt>
      <trkpt lat="54.644060041755438" lon="-5.722980005666614">
        <ele>71.760000000000005</ele>
        <time>2026-07-07T15:15:52Z</time>
      </trkpt>
      <trkpt lat="54.643039964139462" lon="-5.723428018391132">
        <ele>69.829999999999998</ele>
        <time>2026-07-07T15:15:59Z</time>
      </trkpt>
      <trkpt lat="54.641824001446366" lon="-5.723615018650889">
        <ele>67.909999999999997</ele>
        <time>2026-07-07T15:16:08Z</time>
      </trkpt>
      <trkpt lat="54.641063008457422" lon="-5.723582999780774">
        <ele>65.510000000000005</ele>
        <time>2026-07-07T15:16:13Z</time>
      </trkpt>
      <trkpt lat="54.640898974612355" lon="-5.723573025316">
        <ele>65.510000000000005</ele>
        <time>2026-07-07T15:16:14Z</time>
      </trkpt>
      <trkpt lat="54.639763981103897" lon="-5.723534971475601">
        <ele>65.989999999999995</ele>
        <time>2026-07-07T15:16:21Z</time>
      </trkpt>
      <trkpt lat="54.639620985835791" lon="-5.72353002615273">
        <ele>65.989999999999995</ele>
        <time>2026-07-07T15:16:22Z</time>
      </trkpt>
      <trkpt lat="54.638042002916336" lon="-5.723475962877274">
        <ele>65.989999999999995</ele>
        <time>2026-07-07T15:16:34Z</time>
      </trkpt>
      <trkpt lat="54.636673992499709" lon="-5.723434975370765">
        <ele>65.989999999999995</ele>
        <time>2026-07-07T15:16:43Z</time>
      </trkpt>
      <trkpt lat="54.635061984881759" lon="-5.723542012274265">
        <ele>69.349999999999994</ele>
        <time>2026-07-07T15:16:52Z</time>
      </trkpt>
      <trkpt lat="54.634908009320498" lon="-5.723645025864244">
        <ele>70.310000000000002</ele>
        <time>2026-07-07T15:16:53Z</time>
      </trkpt>
      <trkpt lat="54.634755961596966" lon="-5.723746027797461">
        <ele>71.269999999999996</ele>
        <time>2026-07-07T15:16:54Z</time>
      </trkpt>
      <trkpt lat="54.634631993249059" lon="-5.723907966166735">
        <ele>71.760000000000005</ele>
        <time>2026-07-07T15:16:55Z</time>
      </trkpt>
      <trkpt lat="54.634501989930868" lon="-5.724079040810466">
        <ele>72.719999999999999</ele>
        <time>2026-07-07T15:16:56Z</time>
      </trkpt>
      <trkpt lat="54.634370980784297" lon="-5.724250031635165">
        <ele>73.680000000000007</ele>
        <time>2026-07-07T15:16:57Z</time>
      </trkpt>
      <trkpt lat="54.634272996336222" lon="-5.724481958895922">
        <ele>74.159999999999997</ele>
        <time>2026-07-07T15:16:58Z</time>
      </trkpt>
      <trkpt lat="54.634180963039398" lon="-5.724732996895909">
        <ele>75.599999999999994</ele>
        <time>2026-07-07T15:16:59Z</time>
      </trkpt>
      <trkpt lat="54.634088007733226" lon="-5.724987974390388">
        <ele>76.560000000000002</ele>
        <time>2026-07-07T15:17:00Z</time>
      </trkpt>
      <trkpt lat="54.633995974436402" lon="-5.725241024047136">
        <ele>78</ele>
        <time>2026-07-07T15:17:01Z</time>
      </trkpt>
      <trkpt lat="54.633920034393668" lon="-5.725494995713234">
        <ele>78.969999999999999</ele>
        <time>2026-07-07T15:17:02Z</time>
      </trkpt>
      <trkpt lat="54.633869994431734" lon="-5.725767994299531">
        <ele>79.450000000000003</ele>
        <time>2026-07-07T15:17:03Z</time>
      </trkpt>
      <trkpt lat="54.633818026632071" lon="-5.726048033684492">
        <ele>79.930000000000007</ele>
        <time>2026-07-07T15:17:04Z</time>
      </trkpt>
      <trkpt lat="54.63325803168118" lon="-5.729422001168132">
        <ele>78.480000000000004</ele>
        <time>2026-07-07T15:17:15Z</time>
      </trkpt>
      <trkpt lat="54.632956031709909" lon="-5.731258979067206">
        <ele>82.810000000000002</ele>
        <time>2026-07-07T15:17:21Z</time>
      </trkpt>
      <trkpt lat="54.632906997576356" lon="-5.731558967381716">
        <ele>83.290000000000006</ele>
        <time>2026-07-07T15:17:22Z</time>
      </trkpt>
      <trkpt lat="54.63248597458005" lon="-5.734116034582257">
        <ele>83.290000000000006</ele>
        <time>2026-07-07T15:17:30Z</time>
      </trkpt>
      <trkpt lat="54.631799999624491" lon="-5.738431038334966">
        <ele>85.689999999999998</ele>
        <time>2026-07-07T15:17:43Z</time>
      </trkpt>
      <trkpt lat="54.631212009117007" lon="-5.74228503741324">
        <ele>85.209999999999994</ele>
        <time>2026-07-07T15:17:55Z</time>
      </trkpt>
      <trkpt lat="54.630544977262616" lon="-5.744559969753027">
        <ele>90.980000000000004</ele>
        <time>2026-07-07T15:18:04Z</time>
      </trkpt>
      <trkpt lat="54.63035898283124" lon="-5.745042013004422">
        <ele>93.870000000000005</ele>
        <time>2026-07-07T15:18:09Z</time>
      </trkpt>
      <trkpt lat="54.630003003403544" lon="-5.745913982391357">
        <ele>97.230000000000004</ele>
        <time>2026-07-07T15:18:16Z</time>
      </trkpt>
      <trkpt lat="54.629292972385883" lon="-5.747730005532503">
        <ele>98.189999999999998</ele>
        <time>2026-07-07T15:18:24Z</time>
      </trkpt>
      <trkpt lat="54.628096958622336" lon="-5.750790992751718">
        <ele>102.04000000000001</ele>
        <time>2026-07-07T15:18:34Z</time>
      </trkpt>
      <trkpt lat="54.626673962920904" lon="-5.754446005448699">
        <ele>114.53</ele>
        <time>2026-07-07T15:18:46Z</time>
      </trkpt>
      <trkpt lat="54.625518014654517" lon="-5.75732896104455">
        <ele>122.22</ele>
        <time>2026-07-07T15:18:57Z</time>
      </trkpt>
      <trkpt lat="54.624355025589466" lon="-5.760280983522534">
        <ele>133.28</ele>
        <time>2026-07-07T15:19:07Z</time>
      </trkpt>
      <trkpt lat="54.624242037534714" lon="-5.760576026514173">
        <ele>135.68000000000001</ele>
        <time>2026-07-07T15:19:08Z</time>
      </trkpt>
      <trkpt lat="54.623197987675667" lon="-5.763304000720382">
        <ele>141.44999999999999</ele>
        <time>2026-07-07T15:19:17Z</time>
      </trkpt>
      <trkpt lat="54.622383015230298" lon="-5.765914963558316">
        <ele>148.66</ele>
        <time>2026-07-07T15:19:25Z</time>
      </trkpt>
      <trkpt lat="54.62152998894453" lon="-5.7684560213238">
        <ele>161.63999999999999</ele>
        <time>2026-07-07T15:19:33Z</time>
      </trkpt>
      <trkpt lat="54.620992038398981" lon="-5.769986975938082">
        <ele>166.44999999999999</ele>
        <time>2026-07-07T15:19:39Z</time>
      </trkpt>
      <trkpt lat="54.620458027347922" lon="-5.771355992183089">
        <ele>166.44999999999999</ele>
        <time>2026-07-07T15:19:47Z</time>
      </trkpt>
      <trkpt lat="54.61991798132658" lon="-5.773028014227748">
        <ele>157.31</ele>
        <time>2026-07-07T15:19:57Z</time>
      </trkpt>
      <trkpt lat="54.61989501491189" lon="-5.773104038089514">
        <ele>155.87</ele>
        <time>2026-07-07T15:19:59Z</time>
      </trkpt>
      <trkpt lat="54.619886968284845" lon="-5.773127004504204">
        <ele>155.38999999999999</ele>
        <time>2026-07-07T15:20:00Z</time>
      </trkpt>
      <trkpt lat="54.619881017133594" lon="-5.773148965090513">
        <ele>154.43000000000001</ele>
        <time>2026-07-07T15:20:01Z</time>
      </trkpt>
      <trkpt lat="54.619873976334929" lon="-5.773170003667474">
        <ele>153.94999999999999</ele>
        <time>2026-07-07T15:20:02Z</time>
      </trkpt>
      <trkpt lat="54.619867019355297" lon="-5.773192970082164">
        <ele>153.47</ele>
        <time>2026-07-07T15:20:03Z</time>
      </trkpt>
      <trkpt lat="54.619858972728252" lon="-5.773219959810376">
        <ele>152.50999999999999</ele>
        <time>2026-07-07T15:20:04Z</time>
      </trkpt>
      <trkpt lat="54.619845980778337" lon="-5.773261031135917">
        <ele>152.03</ele>
        <time>2026-07-07T15:20:05Z</time>
      </trkpt>
      <trkpt lat="54.619830977171659" lon="-5.773309981450439">
        <ele>151.53999999999999</ele>
        <time>2026-07-07T15:20:06Z</time>
      </trkpt>
      <trkpt lat="54.619715977460146" lon="-5.773406960070133">
        <ele>150.58000000000001</ele>
        <time>2026-07-07T15:20:07Z</time>
      </trkpt>
      <trkpt lat="54.619681024923921" lon="-5.773360021412373">
        <ele>149.62</ele>
        <time>2026-07-07T15:20:08Z</time>
      </trkpt>
      <trkpt lat="54.619632996618748" lon="-5.773293972015381">
        <ele>149.13999999999999</ele>
        <time>2026-07-07T15:20:09Z</time>
      </trkpt>
      <trkpt lat="54.619570970535278" lon="-5.773210991173983">
        <ele>148.66</ele>
        <time>2026-07-07T15:20:10Z</time>
      </trkpt>
      <trkpt lat="54.619499975815415" lon="-5.773114012554288">
        <ele>148.18000000000001</ele>
        <time>2026-07-07T15:20:11Z</time>
      </trkpt>
      <trkpt lat="54.61869397200644" lon="-5.772139029577375">
        <ele>148.66</ele>
        <time>2026-07-07T15:20:19Z</time>
      </trkpt>
      <trkpt lat="54.617185983806849" lon="-5.770495003089309">
        <ele>147.69999999999999</ele>
        <time>2026-07-07T15:20:30Z</time>
      </trkpt>
      <trkpt lat="54.615871030837297" lon="-5.768940998241305">
        <ele>142.41</ele>
        <time>2026-07-07T15:20:40Z</time>
      </trkpt>
      <trkpt lat="54.614869980141521" lon="-5.767069989815354">
        <ele>141.93000000000001</ele>
        <time>2026-07-07T15:20:49Z</time>
      </trkpt>
      <trkpt lat="54.613629039376974" lon="-5.765067972242832">
        <ele>146.74000000000001</ele>
        <time>2026-07-07T15:20:59Z</time>
      </trkpt>
      <trkpt lat="54.612109987065196" lon="-5.762824974954128">
        <ele>149.13999999999999</ele>
        <time>2026-07-07T15:21:11Z</time>
      </trkpt>
      <trkpt lat="54.611591985449195" lon="-5.76196800917387">
        <ele>150.09999999999999</ele>
        <time>2026-07-07T15:21:15Z</time>
      </trkpt>
      <trkpt lat="54.611510010436177" lon="-5.761718982830644">
        <ele>151.06</ele>
        <time>2026-07-07T15:21:16Z</time>
      </trkpt>
      <trkpt lat="54.61143197491765" lon="-5.761467022821307">
        <ele>151.53999999999999</ele>
        <time>2026-07-07T15:21:17Z</time>
      </trkpt>
      <trkpt lat="54.611371960490942" lon="-5.761207016184926">
        <ele>151.53999999999999</ele>
        <time>2026-07-07T15:21:18Z</time>
      </trkpt>
      <trkpt lat="54.611319992691278" lon="-5.760947009548545">
        <ele>152.03</ele>
        <time>2026-07-07T15:21:19Z</time>
      </trkpt>
      <trkpt lat="54.610772989690304" lon="-5.758176958188415">
        <ele>147.22</ele>
        <time>2026-07-07T15:21:29Z</time>
      </trkpt>
      <trkpt lat="54.610191034153104" lon="-5.755180008709431">
        <ele>142.88999999999999</ele>
        <time>2026-07-07T15:21:40Z</time>
      </trkpt>
      <trkpt lat="54.609558032825589" lon="-5.753371026366949">
        <ele>134.24000000000001</ele>
        <time>2026-07-07T15:21:47Z</time>
      </trkpt>
      <trkpt lat="54.608296975493431" lon="-5.751047981902957">
        <ele>119.34</ele>
        <time>2026-07-07T15:21:57Z</time>
      </trkpt>
      <trkpt lat="54.607217973098159" lon="-5.749475033953786">
        <ele>113.56999999999999</ele>
        <time>2026-07-07T15:22:05Z</time>
      </trkpt>
      <trkpt lat="54.607061985880136" lon="-5.749374032020569">
        <ele>113.56999999999999</ele>
        <time>2026-07-07T15:22:06Z</time>
      </trkpt>
      <trkpt lat="54.606898035854101" lon="-5.74926900677383">
        <ele>114.05</ele>
        <time>2026-07-07T15:22:07Z</time>
      </trkpt>
      <trkpt lat="54.605945013463497" lon="-5.748576996847987">
        <ele>111.65000000000001</ele>
        <time>2026-07-07T15:22:13Z</time>
      </trkpt>
      <trkpt lat="54.60573697462678" lon="-5.74832696467638">
        <ele>109.73</ele>
        <time>2026-07-07T15:22:15Z</time>
      </trkpt>
      <trkpt lat="54.605216961354017" lon="-5.747699998319149">
        <ele>103</ele>
        <time>2026-07-07T15:22:22Z</time>
      </trkpt>
      <trkpt lat="54.605205981060863" lon="-5.747437980026007">
        <ele>102.52</ele>
        <time>2026-07-07T15:22:23Z</time>
      </trkpt>
      <trkpt lat="54.605203969404101" lon="-5.747417025268078">
        <ele>101.56</ele>
        <time>2026-07-07T15:22:24Z</time>
      </trkpt>
      <trkpt lat="54.605185026302934" lon="-5.7471430208534">
        <ele>101.08</ele>
        <time>2026-07-07T15:22:26Z</time>
      </trkpt>
      <trkpt lat="54.60515895858407" lon="-5.747005976736546">
        <ele>100.59999999999999</ele>
        <time>2026-07-07T15:22:27Z</time>
      </trkpt>
      <trkpt lat="54.605130963027477" lon="-5.746862981468439">
        <ele>100.11</ele>
        <time>2026-07-07T15:22:28Z</time>
      </trkpt>
      <trkpt lat="54.604905992746353" lon="-5.745708961039782">
        <ele>95.310000000000002</ele>
        <time>2026-07-07T15:22:37Z</time>
      </trkpt>
      <trkpt lat="54.604889983311296" lon="-5.745628997683525">
        <ele>94.829999999999998</ele>
        <time>2026-07-07T15:22:38Z</time>
      </trkpt>
      <trkpt lat="54.604843966662884" lon="-5.745391035452485">
        <ele>93.870000000000005</ele>
        <time>2026-07-07T15:22:42Z</time>
      </trkpt>
      <trkpt lat="54.604841032996774" lon="-5.745377959683538">
        <ele>93.870000000000005</ele>
        <time>2026-07-07T15:22:43Z</time>
      </trkpt>
      <trkpt lat="54.604841032996774" lon="-5.745377959683538">
        <ele>93.390000000000001</ele>
        <time>2026-07-07T15:22:44Z</time>
      </trkpt>
      <trkpt lat="54.604853019118309" lon="-5.745364967733622">
        <ele>93.390000000000001</ele>
        <time>2026-07-07T15:22:45Z</time>
      </trkpt>
      <trkpt lat="54.604862993583083" lon="-5.745352981612086">
        <ele>92.900000000000006</ele>
        <time>2026-07-07T15:22:46Z</time>
      </trkpt>
      <trkpt lat="54.604871040210128" lon="-5.745345018804073">
        <ele>92.900000000000006</ele>
        <time>2026-07-07T15:22:47Z</time>
      </trkpt>
      <trkpt lat="54.604832986369729" lon="-5.745343007147312">
        <ele>93.870000000000005</ele>
        <time>2026-07-07T15:22:57Z</time>
      </trkpt>
      <trkpt lat="54.604842960834503" lon="-5.745388017967343">
        <ele>93.870000000000005</ele>
        <time>2026-07-07T15:22:58Z</time>
      </trkpt>
      <trkpt lat="54.604879003018141" lon="-5.74557401239872">
        <ele>94.829999999999998</ele>
        <time>2026-07-07T15:23:00Z</time>
      </trkpt>
      <trkpt lat="54.604908004403114" lon="-5.745719019323587">
        <ele>94.829999999999998</ele>
        <time>2026-07-07T15:23:01Z</time>
      </trkpt>
      <trkpt lat="54.604942034929991" lon="-5.745894033461809">
        <ele>95.310000000000002</ele>
        <time>2026-07-07T15:23:02Z</time>
      </trkpt>
      <trkpt lat="54.605173040181398" lon="-5.74707998894155">
        <ele>99.629999999999995</ele>
        <time>2026-07-07T15:23:08Z</time>
      </trkpt>
      <trkpt lat="54.605190977454185" lon="-5.747233964502811">
        <ele>100.59999999999999</ele>
        <time>2026-07-07T15:23:09Z</time>
      </trkpt>
      <trkpt lat="54.60519902408123" lon="-5.747347958385944">
        <ele>101.56</ele>
        <time>2026-07-07T15:23:10Z</time>
      </trkpt>
      <trkpt lat="54.605204975232482" lon="-5.747439991682768">
        <ele>103</ele>
        <time>2026-07-07T15:23:11Z</time>
      </trkpt>
      <trkpt lat="54.605127023532987" lon="-5.747598996385932">
        <ele>103.48</ele>
        <time>2026-07-07T15:23:12Z</time>
      </trkpt>
      <trkpt lat="54.605127023532987" lon="-5.747598996385932">
        <ele>104.44</ele>
        <time>2026-07-07T15:23:21Z</time>
      </trkpt>
      <trkpt lat="54.605083018541336" lon="-5.747565971687436">
        <ele>104.44</ele>
        <time>2026-07-07T15:23:24Z</time>
      </trkpt>
      <trkpt lat="54.605018980801105" lon="-5.747519033029676">
        <ele>104.44</ele>
        <time>2026-07-07T15:23:25Z</time>
      </trkpt>
      <trkpt lat="54.604942034929991" lon="-5.747462036088109">
        <ele>104.44</ele>
        <time>2026-07-07T15:23:26Z</time>
      </trkpt>
      <trkpt lat="54.604486981406808" lon="-5.747227007523179">
        <ele>100.11</ele>
        <time>2026-07-07T15:23:32Z</time>
      </trkpt>
      <trkpt lat="54.60444800555706" lon="-5.747214015573263">
        <ele>99.150000000000006</ele>
        <time>2026-07-07T15:23:33Z</time>
      </trkpt>
      <trkpt lat="54.604396037757397" lon="-5.747197000309825">
        <ele>98.189999999999998</ele>
        <time>2026-07-07T15:23:35Z</time>
      </trkpt>
      <trkpt lat="54.604351026937366" lon="-5.747071020305157">
        <ele>97.709999999999994</ele>
        <time>2026-07-07T15:23:36Z</time>
      </trkpt>
      <trkpt lat="54.604353038594127" lon="-5.746997008100152">
        <ele>97.230000000000004</ele>
        <time>2026-07-07T15:23:37Z</time>
      </trkpt>
      <trkpt lat="54.604356978088617" lon="-5.746883014217019">
        <ele>96.75</ele>
        <time>2026-07-07T15:23:38Z</time>
      </trkpt>
      <trkpt lat="54.60436200723052" lon="-5.746732978150249">
        <ele>96.269999999999996</ele>
        <time>2026-07-07T15:23:39Z</time>
      </trkpt>
      <trkpt lat="54.604394026100636" lon="-5.744615960866213">
        <ele>95.310000000000002</ele>
        <time>2026-07-07T15:23:50Z</time>
      </trkpt>
      <trkpt lat="54.60412697866559" lon="-5.74254303239286">
        <ele>93.870000000000005</ele>
        <time>2026-07-07T15:23:58Z</time>
      </trkpt>
      <trkpt lat="54.604075010865927" lon="-5.742279002442956">
        <ele>93.870000000000005</ele>
        <time>2026-07-07T15:23:59Z</time>
      </trkpt>
      <trkpt lat="54.603983983397484" lon="-5.742025030776858">
        <ele>93.390000000000001</ele>
        <time>2026-07-07T15:24:00Z</time>
      </trkpt>
      <trkpt lat="54.60388801060617" lon="-5.741767035797238">
        <ele>92.900000000000006</ele>
        <time>2026-07-07T15:24:01Z</time>
      </trkpt>
      <trkpt lat="54.603603025898337" lon="-5.740991039201617">
        <ele>91.459999999999994</ele>
        <time>2026-07-07T15:24:04Z</time>
      </trkpt>
      <trkpt lat="54.603530019521713" lon="-5.740689961239696">
        <ele>90.980000000000004</ele>
        <time>2026-07-07T15:24:05Z</time>
      </trkpt>
      <trkpt lat="54.602845972403884" lon="-5.737479021772742">
        <ele>81.849999999999994</ele>
        <time>2026-07-07T15:24:16Z</time>
      </trkpt>
      <trkpt lat="54.602225041016936" lon="-5.735350018367171">
        <ele>74.640000000000001</ele>
        <time>2026-07-07T15:24:25Z</time>
      </trkpt>
      <trkpt lat="54.602112974971533" lon="-5.735126975923777">
        <ele>73.200000000000003</ele>
        <time>2026-07-07T15:24:26Z</time>
      </trkpt>
      <trkpt lat="54.601981965824962" lon="-5.734930001199246">
        <ele>72.239999999999995</ele>
        <time>2026-07-07T15:24:27Z</time>
      </trkpt>
      <trkpt lat="54.601831007748842" lon="-5.734776025637984">
        <ele>71.269999999999996</ele>
        <time>2026-07-07T15:24:28Z</time>
      </trkpt>
      <trkpt lat="54.60167502053082" lon="-5.734624983742833">
        <ele>70.790000000000006</ele>
        <time>2026-07-07T15:24:29Z</time>
      </trkpt>
      <trkpt lat="54.601373020559549" lon="-5.734332036226988">
        <ele>69.829999999999998</ele>
        <time>2026-07-07T15:24:31Z</time>
      </trkpt>
      <trkpt lat="54.601233964785933" lon="-5.734179988503456">
        <ele>69.349999999999994</ele>
        <time>2026-07-07T15:24:32Z</time>
      </trkpt>
      <trkpt lat="54.601122988387942" lon="-5.733987037092447">
        <ele>68.870000000000005</ele>
        <time>2026-07-07T15:24:33Z</time>
      </trkpt>
      <trkpt lat="54.601020980626345" lon="-5.733812022954226">
        <ele>68.390000000000001</ele>
        <time>2026-07-07T15:24:34Z</time>
      </trkpt>
      <trkpt lat="54.600977981463075" lon="-5.733579006046057">
        <ele>67.909999999999997</ele>
        <time>2026-07-07T15:24:35Z</time>
      </trkpt>
      <trkpt lat="54.600951997563243" lon="-5.733359986916184">
        <ele>67.430000000000007</ele>
        <time>2026-07-07T15:24:36Z</time>
      </trkpt>
      <trkpt lat="54.600942023098469" lon="-5.733124958351255">
        <ele>66.469999999999999</ele>
        <time>2026-07-07T15:24:37Z</time>
      </trkpt>
      <trkpt lat="54.600945040583611" lon="-5.732875009998679">
        <ele>65.510000000000005</ele>
        <time>2026-07-07T15:24:38Z</time>
      </trkpt>
      <trkpt lat="54.601005977019668" lon="-5.731854010373354">
        <ele>61.659999999999997</ele>
        <time>2026-07-07T15:24:42Z</time>
      </trkpt>
      <trkpt lat="54.600988039746881" lon="-5.731604984030128">
        <ele>60.700000000000003</ele>
        <time>2026-07-07T15:24:43Z</time>
      </trkpt>
      <trkpt lat="54.600945962592959" lon="-5.731364004313946">
        <ele>59.259999999999998</ele>
        <time>2026-07-07T15:24:44Z</time>
      </trkpt>
      <trkpt lat="54.600884020328522" lon="-5.731152025982738">
        <ele>58.299999999999997</ele>
        <time>2026-07-07T15:24:45Z</time>
      </trkpt>
      <trkpt lat="54.600812019780278" lon="-5.730953961610794">
        <ele>57.340000000000003</ele>
        <time>2026-07-07T15:24:46Z</time>
      </trkpt>
      <trkpt lat="54.600740019232035" lon="-5.730764027684927">
        <ele>55.890000000000001</ele>
        <time>2026-07-07T15:24:47Z</time>
      </trkpt>
      <trkpt lat="54.600455034524202" lon="-5.729818968102336">
        <ele>51.57</ele>
        <time>2026-07-07T15:24:52Z</time>
      </trkpt>
      <trkpt lat="54.600411029532552" lon="-5.729582011699677">
        <ele>51.090000000000003</ele>
        <time>2026-07-07T15:24:53Z</time>
      </trkpt>
      <trkpt lat="54.600398959591985" lon="-5.729313958436251">
        <ele>50.130000000000003</ele>
        <time>2026-07-07T15:24:54Z</time>
      </trkpt>
      <trkpt lat="54.600398959591985" lon="-5.729039032012224">
        <ele>49.649999999999999</ele>
        <time>2026-07-07T15:24:55Z</time>
      </trkpt>
      <trkpt lat="54.6004309784621" lon="-5.728757986798883">
        <ele>49.159999999999997</ele>
        <time>2026-07-07T15:24:56Z</time>
      </trkpt>
      <trkpt lat="54.600491998717189" lon="-5.728482976555824">
        <ele>48.68</ele>
        <time>2026-07-07T15:24:57Z</time>
      </trkpt>
      <trkpt lat="54.600565005093813" lon="-5.728219030424953">
        <ele>47.719999999999999</ele>
        <time>2026-07-07T15:24:58Z</time>
      </trkpt>
      <trkpt lat="54.600637005642056" lon="-5.727960029616952">
        <ele>47.240000000000002</ele>
        <time>2026-07-07T15:24:59Z</time>
      </trkpt>
      <trkpt lat="54.600705988705158" lon="-5.727714020758867">
        <ele>46.759999999999998</ele>
        <time>2026-07-07T15:25:00Z</time>
      </trkpt>
      <trkpt lat="54.600767008960247" lon="-5.727456025779247">
        <ele>46.280000000000001</ele>
        <time>2026-07-07T15:25:01Z</time>
      </trkpt>
      <trkpt lat="54.600781006738544" lon="-5.727199958637357">
        <ele>45.799999999999997</ele>
        <time>2026-07-07T15:25:02Z</time>
      </trkpt>
      <trkpt lat="54.600775977596641" lon="-5.726940035820007">
        <ele>44.840000000000003</ele>
        <time>2026-07-07T15:25:03Z</time>
      </trkpt>
      <trkpt lat="54.600754017010331" lon="-5.726672988384962">
        <ele>43.880000000000003</ele>
        <time>2026-07-07T15:25:04Z</time>
      </trkpt>
      <trkpt lat="54.600690985098481" lon="-5.72643200866878">
        <ele>42.920000000000002</ele>
        <time>2026-07-07T15:25:05Z</time>
      </trkpt>
      <trkpt lat="54.600626025348902" lon="-5.726185999810696">
        <ele>41.950000000000003</ele>
        <time>2026-07-07T15:25:06Z</time>
      </trkpt>
      <trkpt lat="54.600560981780291" lon="-5.725936973467469">
        <ele>40.990000000000002</ele>
        <time>2026-07-07T15:25:07Z</time>
      </trkpt>
      <trkpt lat="54.600456040352583" lon="-5.725720971822739">
        <ele>40.030000000000001</ele>
        <time>2026-07-07T15:25:08Z</time>
      </trkpt>
      <trkpt lat="54.600347997620702" lon="-5.725523997098208">
        <ele>39.07</ele>
        <time>2026-07-07T15:25:09Z</time>
      </trkpt>
      <trkpt lat="54.600242972373962" lon="-5.725329034030438">
        <ele>38.109999999999999</ele>
        <time>2026-07-07T15:25:10Z</time>
      </trkpt>
      <trkpt lat="54.599364968016744" lon="-5.723374038934708">
        <ele>28.98</ele>
        <time>2026-07-07T15:25:20Z</time>
      </trkpt>
      <trkpt lat="54.59933596663177" lon="-5.723142027854919">
        <ele>28.5</ele>
        <time>2026-07-07T15:25:21Z</time>
      </trkpt>
      <trkpt lat="54.599305037409067" lon="-5.722889984026551">
        <ele>27.530000000000001</ele>
        <time>2026-07-07T15:25:22Z</time>
      </trkpt>
      <trkpt lat="54.599323980510235" lon="-5.72007299400866">
        <ele>19.84</ele>
        <time>2026-07-07T15:25:32Z</time>
      </trkpt>
      <trkpt lat="54.599035978317261" lon="-5.718012973666191">
        <ele>19.84</ele>
        <time>2026-07-07T15:25:40Z</time>
      </trkpt>
      <trkpt lat="54.598519988358021" lon="-5.716006010770798">
        <ele>20.809999999999999</ele>
        <time>2026-07-07T15:25:49Z</time>
      </trkpt>
      <trkpt lat="54.598025036975741" lon="-5.714320996776223">
        <ele>16</ele>
        <time>2026-07-07T15:25:59Z</time>
      </trkpt>
      <trkpt lat="54.597258009016514" lon="-5.71201303973794">
        <ele>16</ele>
        <time>2026-07-07T15:26:13Z</time>
      </trkpt>
      <trkpt lat="54.596574967727065" lon="-5.710451994091272">
        <ele>13.6</ele>
        <time>2026-07-07T15:26:24Z</time>
      </trkpt>
      <trkpt lat="54.596375981345773" lon="-5.710085034370422">
        <ele>12.630000000000001</ele>
        <time>2026-07-07T15:26:27Z</time>
      </trkpt>
      <trkpt lat="54.595578024163842" lon="-5.70857604034245">
        <ele>10.710000000000001</ele>
        <time>2026-07-07T15:26:38Z</time>
      </trkpt>
      <trkpt lat="54.59529597312212" lon="-5.707596028223634">
        <ele>11.67</ele>
        <time>2026-07-07T15:26:44Z</time>
      </trkpt>
      <trkpt lat="54.594922978430986" lon="-5.705173993483186">
        <ele>12.630000000000001</ele>
        <time>2026-07-07T15:26:58Z</time>
      </trkpt>
      <trkpt lat="54.594842009246349" lon="-5.704478966072202">
        <ele>12.15</ele>
        <time>2026-07-07T15:27:03Z</time>
      </trkpt>
      <trkpt lat="54.594661965966225" lon="-5.703133000060916">
        <ele>10.710000000000001</ele>
        <time>2026-07-07T15:27:12Z</time>
      </trkpt>
      <trkpt lat="54.594496004283428" lon="-5.701605984941125">
        <ele>9.75</ele>
        <time>2026-07-07T15:27:21Z</time>
      </trkpt>
      <trkpt lat="54.594470020383596" lon="-5.70135603658855">
        <ele>9.27</ele>
        <time>2026-07-07T15:27:23Z</time>
      </trkpt>
      <trkpt lat="54.594455016776919" lon="-5.701238019391894">
        <ele>9.27</ele>
        <time>2026-07-07T15:27:24Z</time>
      </trkpt>
      <trkpt lat="54.594292994588614" lon="-5.699951983988285">
        <ele>7.83</ele>
        <time>2026-07-07T15:27:34Z</time>
      </trkpt>
      <trkpt lat="54.594137007370591" lon="-5.698653040453792">
        <ele>6.87</ele>
        <time>2026-07-07T15:27:45Z</time>
      </trkpt>
      <trkpt lat="54.593968028202653" lon="-5.697186039760709">
        <ele>7.35</ele>
        <time>2026-07-07T15:27:54Z</time>
      </trkpt>
      <trkpt lat="54.593912959098816" lon="-5.696767028421164">
        <ele>7.83</ele>
        <time>2026-07-07T15:27:57Z</time>
      </trkpt>
      <trkpt lat="54.59389703348279" lon="-5.69663099013269">
        <ele>8.310000000000001</ele>
        <time>2026-07-07T15:27:58Z</time>
      </trkpt>
      <trkpt lat="54.593880018219352" lon="-5.696489000692964">
        <ele>8.789999999999999</ele>
        <time>2026-07-07T15:27:59Z</time>
      </trkpt>
      <trkpt lat="54.593861997127533" lon="-5.696339970454574">
        <ele>9.27</ele>
        <time>2026-07-07T15:28:00Z</time>
      </trkpt>
      <trkpt lat="54.593843976035714" lon="-5.696192029863596">
        <ele>9.75</ele>
        <time>2026-07-07T15:28:01Z</time>
      </trkpt>
      <trkpt lat="54.593789996579289" lon="-5.695722978562117">
        <ele>10.710000000000001</ele>
        <time>2026-07-07T15:28:04Z</time>
      </trkpt>
      <trkpt lat="54.593772981315851" lon="-5.695567997172475">
        <ele>11.19</ele>
        <time>2026-07-07T15:28:05Z</time>
      </trkpt>
      <trkpt lat="54.593657981604338" lon="-5.694640958681703">
        <ele>12.15</ele>
        <time>2026-07-07T15:28:13Z</time>
      </trkpt>
      <trkpt lat="54.593653958290815" lon="-5.694608017802239">
        <ele>12.15</ele>
        <time>2026-07-07T15:28:23Z</time>
      </trkpt>
      <trkpt lat="54.593593021854758" lon="-5.694121029227972">
        <ele>12.15</ele>
        <time>2026-07-07T15:28:29Z</time>
      </trkpt>
      <trkpt lat="54.593468969687819" lon="-5.693091982975602">
        <ele>13.119999999999999</ele>
        <time>2026-07-07T15:28:39Z</time>
      </trkpt>
      <trkpt lat="54.593362016603351" lon="-5.692955022677779">
        <ele>12.630000000000001</ele>
        <time>2026-07-07T15:28:42Z</time>
      </trkpt>
      <trkpt lat="54.593323962762952" lon="-5.692909006029367">
        <ele>12.15</ele>
        <time>2026-07-07T15:28:43Z</time>
      </trkpt>
      <trkpt lat="54.59327501244843" lon="-5.692848991602659">
        <ele>12.15</ele>
        <time>2026-07-07T15:28:44Z</time>
      </trkpt>
      <trkpt lat="54.593224972486496" lon="-5.692856032401323">
        <ele>12.630000000000001</ele>
        <time>2026-07-07T15:28:45Z</time>
      </trkpt>
      <trkpt lat="54.593140985816717" lon="-5.692868018522859">
        <ele>13.119999999999999</ele>
        <time>2026-07-07T15:28:46Z</time>
      </trkpt>
      <trkpt lat="54.592430032789707" lon="-5.692905988544226">
        <ele>7.83</ele>
        <time>2026-07-07T15:28:54Z</time>
      </trkpt>
      <trkpt lat="54.59233095869422" lon="-5.692891990765929">
        <ele>7.35</ele>
        <time>2026-07-07T15:28:55Z</time>
      </trkpt>
      <trkpt lat="54.59228795953095" lon="-5.692848991602659">
        <ele>7.35</ele>
        <time>2026-07-07T15:28:56Z</time>
      </trkpt>
      <trkpt lat="54.592216964811087" lon="-5.692708007991314">
        <ele>7.35</ele>
        <time>2026-07-07T15:28:57Z</time>
      </trkpt>
      <trkpt lat="54.592160973697901" lon="-5.692595019936562">
        <ele>6.87</ele>
        <time>2026-07-07T15:28:58Z</time>
      </trkpt>
      <trkpt lat="54.591783033683896" lon="-5.691984985023737">
        <ele>4.94</ele>
        <time>2026-07-07T15:29:04Z</time>
      </trkpt>
      <trkpt lat="54.591724025085568" lon="-5.691878031939268">
        <ele>4.94</ele>
        <time>2026-07-07T15:29:05Z</time>
      </trkpt>
      <trkpt lat="54.591536018997431" lon="-5.691542001441121">
        <ele>4.46</ele>
        <time>2026-07-07T15:29:08Z</time>
      </trkpt>
      <trkpt lat="54.5914719812572" lon="-5.691428007557988">
        <ele>4.94</ele>
        <time>2026-07-07T15:29:09Z</time>
      </trkpt>
      <trkpt lat="54.591404004022479" lon="-5.691307978704572">
        <ele>4.94</ele>
        <time>2026-07-07T15:29:10Z</time>
      </trkpt>
      <trkpt lat="54.591166963800788" lon="-5.69089500233531">
        <ele>5.42</ele>
        <time>2026-07-07T15:29:14Z</time>
      </trkpt>
      <trkpt lat="54.591112984344363" lon="-5.69080900400877">
        <ele>4.94</ele>
        <time>2026-07-07T15:29:15Z</time>
      </trkpt>
      <trkpt lat="54.590477971360087" lon="-5.689711980521679">
        <ele>4.94</ele>
        <time>2026-07-07T15:29:24Z</time>
      </trkpt>
      <trkpt lat="54.59003297612071" lon="-5.689051989465952">
        <ele>3.5</ele>
        <time>2026-07-07T15:29:30Z</time>
      </trkpt>
      <trkpt lat="54.589931974187493" lon="-5.688898013904691">
        <ele>2.54</ele>
        <time>2026-07-07T15:29:35Z</time>
      </trkpt>
      <trkpt lat="54.589931974187493" lon="-5.688898013904691">
        <ele>2.54</ele>
        <time>2026-07-07T15:29:36Z</time>
      </trkpt>
      <trkpt lat="54.589914036914706" lon="-5.688871024176478">
        <ele>2.06</ele>
        <time>2026-07-07T15:29:37Z</time>
      </trkpt>
      <trkpt lat="54.589882018044591" lon="-5.688824001699686">
        <ele>2.54</ele>
        <time>2026-07-07T15:29:46Z</time>
      </trkpt>
      <trkpt lat="54.589882018044591" lon="-5.688824001699686">
        <ele>2.06</ele>
        <time>2026-07-07T15:30:00Z</time>
      </trkpt>
      <trkpt lat="54.589741034433246" lon="-5.688600037246943">
        <ele>1.1</ele>
        <time>2026-07-07T15:30:08Z</time>
      </trkpt>
      <trkpt lat="54.589741034433246" lon="-5.688600037246943">
        <ele>1.1</ele>
        <time>2026-07-07T15:30:24Z</time>
      </trkpt>
      <trkpt lat="54.589612958952785" lon="-5.688393004238606">
        <ele>1.1</ele>
        <time>2026-07-07T15:30:36Z</time>
      </trkpt>
      <trkpt lat="54.589499970898032" lon="-5.688212038949132">
        <ele>-0.82</ele>
        <time>2026-07-07T15:31:05Z</time>
      </trkpt>
      <trkpt lat="54.589327974244952" lon="-5.687937028706074">
        <ele>-3.23</ele>
        <time>2026-07-07T15:31:10Z</time>
      </trkpt>
      <trkpt lat="54.589292015880346" lon="-5.687877014279366">
        <ele>-3.71</ele>
        <time>2026-07-07T15:31:11Z</time>
      </trkpt>
      <trkpt lat="54.589254967868328" lon="-5.687814988195896">
        <ele>-4.19</ele>
        <time>2026-07-07T15:31:12Z</time>
      </trkpt>
      <trkpt lat="54.589220015332103" lon="-5.68775799125433">
        <ele>-4.67</ele>
        <time>2026-07-07T15:31:13Z</time>
      </trkpt>
      <trkpt lat="54.589187996461987" lon="-5.687704011797905">
        <ele>-5.15</ele>
        <time>2026-07-07T15:31:14Z</time>
      </trkpt>
      <trkpt lat="54.589158995077014" lon="-5.687655983492732">
        <ele>-5.63</ele>
        <time>2026-07-07T15:31:15Z</time>
      </trkpt>
      <trkpt lat="54.589094035327435" lon="-5.687548024579883">
        <ele>-6.11</ele>
        <time>2026-07-07T15:31:24Z</time>
      </trkpt>
      <trkpt lat="54.588955985382199" lon="-5.687317019328475">
        <ele>-5.63</ele>
        <time>2026-07-07T15:31:33Z</time>
      </trkpt>
      <trkpt lat="54.588702013716102" lon="-5.686924997717142">
        <ele>-4.19</ele>
        <time>2026-07-07T15:31:41Z</time>
      </trkpt>
      <trkpt lat="54.588660020381212" lon="-5.686892978847027">
        <ele>-3.71</ele>
        <time>2026-07-07T15:31:42Z</time>
      </trkpt>
      <trkpt lat="54.588617021217942" lon="-5.686860037967563">
        <ele>-3.23</ele>
        <time>2026-07-07T15:31:43Z</time>
      </trkpt>
      <trkpt lat="54.588438989594579" lon="-5.686723999679089">
        <ele>-0.34</ele>
        <time>2026-07-07T15:31:49Z</time>
      </trkpt>
      <trkpt lat="54.58839800208807" lon="-5.686691980808973">
        <ele>0.14</ele>
        <time>2026-07-07T15:31:50Z</time>
      </trkpt>
      <trkpt lat="54.588339999318123" lon="-5.686541022732854">
        <ele>0.62</ele>
        <time>2026-07-07T15:31:51Z</time>
      </trkpt>
      <trkpt lat="54.588339999318123" lon="-5.686369026079774">
        <ele>0.62</ele>
        <time>2026-07-07T15:31:52Z</time>
      </trkpt>
      <trkpt lat="54.588304962962866" lon="-5.686328960582614">
        <ele>1.1</ele>
        <time>2026-07-07T15:31:53Z</time>
      </trkpt>
      <trkpt lat="54.588244026526809" lon="-5.68625696003437">
        <ele>1.1</ele>
        <time>2026-07-07T15:31:54Z</time>
      </trkpt>
      <trkpt lat="54.588211001828313" lon="-5.686218990013003">
        <ele>1.1</ele>
        <time>2026-07-07T15:31:55Z</time>
      </trkpt>
      <trkpt lat="54.588211001828313" lon="-5.686218990013003">
        <ele>1.1</ele>
        <time>2026-07-07T15:31:56Z</time>
      </trkpt>
      <trkpt lat="54.588036993518472" lon="-5.686000976711512">
        <ele>1.58</ele>
        <time>2026-07-07T15:31:57Z</time>
      </trkpt>
      <trkpt lat="54.587997011840343" lon="-5.685833003371954">
        <ele>1.58</ele>
        <time>2026-07-07T15:31:58Z</time>
      </trkpt>
      <trkpt lat="54.587942026555538" lon="-5.685724038630724">
        <ele>1.58</ele>
        <time>2026-07-07T15:31:59Z</time>
      </trkpt>
      <trkpt lat="54.587310031056404" lon="-5.684639001265168">
        <ele>0.62</ele>
        <time>2026-07-07T15:32:09Z</time>
      </trkpt>
      <trkpt lat="54.587116995826364" lon="-5.684330966323614">
        <ele>-0.82</ele>
        <time>2026-07-07T15:32:14Z</time>
      </trkpt>
      <trkpt lat="54.587083971127868" lon="-5.684362985193729">
        <ele>-0.34</ele>
        <time>2026-07-07T15:32:15Z</time>
      </trkpt>
      <trkpt lat="54.58713099360466" lon="-5.684354016557336">
        <ele>0.14</ele>
        <time>2026-07-07T15:32:19Z</time>
      </trkpt>
      <trkpt lat="54.587122024968266" lon="-5.684338007122278">
        <ele>-0.34</ele>
        <time>2026-07-07T15:32:20Z</time>
      </trkpt>
      <trkpt lat="54.587122024968266" lon="-5.684338007122278">
        <ele>-0.82</ele>
        <time>2026-07-07T15:32:34Z</time>
      </trkpt>
      <trkpt lat="54.587153038010001" lon="-5.684348987415433">
        <ele>24.649999999999999</ele>
        <time>2026-07-07T15:35:56Z</time>
      </trkpt>
      <trkpt lat="54.58700199611485" lon="-5.684540010988712">
        <ele>22.25</ele>
        <time>2026-07-07T15:36:33Z</time>
      </trkpt>
      <trkpt lat="54.587040971964598" lon="-5.684557026252151">
        <ele>12.15</ele>
        <time>2026-07-07T15:36:57Z</time>
      </trkpt>
      <trkpt lat="54.587111966684461" lon="-5.684323003515601">
        <ele>12.15</ele>
        <time>2026-07-07T15:36:59Z</time>
      </trkpt>
      <trkpt lat="54.587090006098151" lon="-5.684286961331964">
        <ele>11.67</ele>
        <time>2026-07-07T15:37:00Z</time>
      </trkpt>
      <trkpt lat="54.586987998336554" lon="-5.684459041804075">
        <ele>11.67</ele>
        <time>2026-07-07T15:37:01Z</time>
      </trkpt>
      <trkpt lat="54.586987998336554" lon="-5.684459041804075">
        <ele>12.15</ele>
        <time>2026-07-07T15:37:13Z</time>
      </trkpt>
      <trkpt lat="54.58700199611485" lon="-5.684303976595402">
        <ele>12.15</ele>
        <time>2026-07-07T15:37:51Z</time>
      </trkpt>
      <trkpt lat="54.587037032470107" lon="-5.684199035167694">
        <ele>11.19</ele>
        <time>2026-07-07T15:37:52Z</time>
      </trkpt>
      <trkpt lat="54.587009036913514" lon="-5.684155030176044">
        <ele>10.710000000000001</ele>
        <time>2026-07-07T15:37:53Z</time>
      </trkpt>
      <trkpt lat="54.586966037750244" lon="-5.6840830296278">
        <ele>10.23</ele>
        <time>2026-07-07T15:37:54Z</time>
      </trkpt>
      <trkpt lat="54.586908034980297" lon="-5.683988984674215">
        <ele>9.75</ele>
        <time>2026-07-07T15:37:55Z</time>
      </trkpt>
      <trkpt lat="54.586838968098164" lon="-5.683881025761366">
        <ele>9.27</ele>
        <time>2026-07-07T15:37:56Z</time>
      </trkpt>
      <trkpt lat="54.586016032844782" lon="-5.682565988972783">
        <ele>5.91</ele>
        <time>2026-07-07T15:38:05Z</time>
      </trkpt>
      <trkpt lat="54.584924038499594" lon="-5.680829007178545">
        <ele>1.58</ele>
        <time>2026-07-07T15:38:15Z</time>
      </trkpt>
      <trkpt lat="54.583787033334374" lon="-5.678989011794329">
        <ele>0.62</ele>
        <time>2026-07-07T15:38:26Z</time>
      </trkpt>
      <trkpt lat="54.583083037286997" lon="-5.677780006080866">
        <ele>1.58</ele>
        <time>2026-07-07T15:38:34Z</time>
      </trkpt>
      <trkpt lat="54.582439977675676" lon="-5.67630403675139">
        <ele>1.1</ele>
        <time>2026-07-07T15:38:41Z</time>
      </trkpt>
      <trkpt lat="54.582322966307402" lon="-5.676180990412831">
        <ele>1.1</ele>
        <time>2026-07-07T15:38:42Z</time>
      </trkpt>
      <trkpt lat="54.582205032929778" lon="-5.676059033721685">
        <ele>1.1</ele>
        <time>2026-07-07T15:38:43Z</time>
      </trkpt>
      <trkpt lat="54.580798968672752" lon="-5.675010038539767">
        <ele>1.58</ele>
        <time>2026-07-07T15:38:55Z</time>
      </trkpt>
      <trkpt lat="54.580553965643048" lon="-5.674790013581514">
        <ele>2.06</ele>
        <time>2026-07-07T15:38:57Z</time>
      </trkpt>
      <trkpt lat="54.580424968153238" lon="-5.674675013870001">
        <ele>2.06</ele>
        <time>2026-07-07T15:38:58Z</time>
      </trkpt>
      <trkpt lat="54.58031902089715" lon="-5.674484996125102">
        <ele>2.54</ele>
        <time>2026-07-07T15:38:59Z</time>
      </trkpt>
      <trkpt lat="54.580217013135552" lon="-5.674273017793894">
        <ele>2.54</ele>
        <time>2026-07-07T15:39:00Z</time>
      </trkpt>
      <trkpt lat="54.580111987888813" lon="-5.674056010320783">
        <ele>2.54</ele>
        <time>2026-07-07T15:39:01Z</time>
      </trkpt>
      <trkpt lat="54.579849969595671" lon="-5.67336400039494">
        <ele>3.02</ele>
        <time>2026-07-07T15:39:04Z</time>
      </trkpt>
      <trkpt lat="54.579276982694864" lon="-5.671384027227759">
        <ele>3.02</ele>
        <time>2026-07-07T15:39:12Z</time>
      </trkpt>
      <trkpt lat="54.579175980761647" lon="-5.671162996441126">
        <ele>3.5</ele>
        <time>2026-07-07T15:39:13Z</time>
      </trkpt>
      <trkpt lat="54.579068021848798" lon="-5.670960992574692">
        <ele>4.46</ele>
        <time>2026-07-07T15:39:14Z</time>
      </trkpt>
      <trkpt lat="54.578941036015749" lon="-5.670776003971696">
        <ele>4.46</ele>
        <time>2026-07-07T15:39:15Z</time>
      </trkpt>
      <trkpt lat="54.578808015212417" lon="-5.670604007318616">
        <ele>4.46</ele>
        <time>2026-07-07T15:39:16Z</time>
      </trkpt>
      <trkpt lat="54.577535977587104" lon="-5.669148992747068">
        <ele>5.91</ele>
        <time>2026-07-07T15:39:25Z</time>
      </trkpt>
      <trkpt lat="54.57679501734674" lon="-5.668408032506704">
        <ele>3.5</ele>
        <time>2026-07-07T15:39:30Z</time>
      </trkpt>
      <trkpt lat="54.57664598710835" lon="-5.668259002268314">
        <ele>3.5</ele>
        <time>2026-07-07T15:39:31Z</time>
      </trkpt>
      <trkpt lat="54.57649796269834" lon="-5.668192030861974">
        <ele>3.02</ele>
        <time>2026-07-07T15:39:32Z</time>
      </trkpt>
      <trkpt lat="54.575710985809565" lon="-5.66779900342226">
        <ele>3.98</ele>
        <time>2026-07-07T15:39:37Z</time>
      </trkpt>
      <trkpt lat="54.575562039390206" lon="-5.667662965133786">
        <ele>4.46</ele>
        <time>2026-07-07T15:39:38Z</time>
      </trkpt>
      <trkpt lat="54.575419966131449" lon="-5.667502032592893">
        <ele>4.46</ele>
        <time>2026-07-07T15:39:39Z</time>
      </trkpt>
      <trkpt lat="54.575315024703741" lon="-5.667358031496406">
        <ele>4.46</ele>
        <time>2026-07-07T15:39:40Z</time>
      </trkpt>
      <trkpt lat="54.575202036648989" lon="-5.667082015424967">
        <ele>4.46</ele>
        <time>2026-07-07T15:39:41Z</time>
      </trkpt>
      <trkpt lat="54.575102962553501" lon="-5.666840029880405">
        <ele>4.94</ele>
        <time>2026-07-07T15:39:42Z</time>
      </trkpt>
      <trkpt lat="54.575001038610935" lon="-5.66659402102232">
        <ele>4.94</ele>
        <time>2026-07-07T15:39:43Z</time>
      </trkpt>
      <trkpt lat="54.573793038725853" lon="-5.663926983252168">
        <ele>3.98</ele>
        <time>2026-07-07T15:39:54Z</time>
      </trkpt>
      <trkpt lat="54.573113014921546" lon="-5.662544975057244">
        <ele>5.91</ele>
        <time>2026-07-07T15:40:00Z</time>
      </trkpt>
      <trkpt lat="54.573023999109864" lon="-5.66227700561285">
        <ele>6.39</ele>
        <time>2026-07-07T15:40:01Z</time>
      </trkpt>
      <trkpt lat="54.572963984683156" lon="-5.661992020905018">
        <ele>6.39</ele>
        <time>2026-07-07T15:40:02Z</time>
      </trkpt>
      <trkpt lat="54.572495017200708" lon="-5.659766038879752">
        <ele>4.46</ele>
        <time>2026-07-07T15:40:11Z</time>
      </trkpt>
      <trkpt lat="54.572119005024433" lon="-5.658370032906532">
        <ele>3.02</ele>
        <time>2026-07-07T15:40:17Z</time>
      </trkpt>
      <trkpt lat="54.571999981999397" lon="-5.658196024596691">
        <ele>3.02</ele>
        <time>2026-07-07T15:40:18Z</time>
      </trkpt>
      <trkpt lat="54.571881964802742" lon="-5.658026039600372">
        <ele>3.02</ele>
        <time>2026-07-07T15:40:19Z</time>
      </trkpt>
      <trkpt lat="54.571765959262848" lon="-5.657857982441783">
        <ele>2.54</ele>
        <time>2026-07-07T15:40:20Z</time>
      </trkpt>
      <trkpt lat="54.571624975651503" lon="-5.657752035185695">
        <ele>2.54</ele>
        <time>2026-07-07T15:40:21Z</time>
      </trkpt>
      <trkpt lat="54.571479968726635" lon="-5.657673999667168">
        <ele>2.06</ele>
        <time>2026-07-07T15:40:22Z</time>
      </trkpt>
      <trkpt lat="54.571333033964038" lon="-5.657650027424097">
        <ele>2.06</ele>
        <time>2026-07-07T15:40:23Z</time>
      </trkpt>
      <trkpt lat="54.571181992068887" lon="-5.657638963311911">
        <ele>2.06</ele>
        <time>2026-07-07T15:40:24Z</time>
      </trkpt>
      <trkpt lat="54.571033967658877" lon="-5.657658996060491">
        <ele>1.58</ele>
        <time>2026-07-07T15:40:25Z</time>
      </trkpt>
      <trkpt lat="54.570880997925997" lon="-5.657686991617084">
        <ele>1.58</ele>
        <time>2026-07-07T15:40:26Z</time>
      </trkpt>
      <trkpt lat="54.570252019912004" lon="-5.657758992165327">
        <ele>1.58</ele>
        <time>2026-07-07T15:40:30Z</time>
      </trkpt>
      <trkpt lat="54.570101983845234" lon="-5.657709036022425">
        <ele>2.06</ele>
        <time>2026-07-07T15:40:31Z</time>
      </trkpt>
      <trkpt lat="54.569968041032553" lon="-5.657590012997389">
        <ele>2.06</ele>
        <time>2026-07-07T15:40:32Z</time>
      </trkpt>
      <trkpt lat="54.569836026057601" lon="-5.657459003850818">
        <ele>2.54</ele>
        <time>2026-07-07T15:40:33Z</time>
      </trkpt>
      <trkpt lat="54.569701999425888" lon="-5.657323971390724">
        <ele>2.54</ele>
        <time>2026-07-07T15:40:34Z</time>
      </trkpt>
      <trkpt lat="54.569004960358143" lon="-5.656528025865555">
        <ele>3.02</ele>
        <time>2026-07-07T15:40:40Z</time>
      </trkpt>
      <trkpt lat="54.568927008658648" lon="-5.656345970928669">
        <ele>3.02</ele>
        <time>2026-07-07T15:40:41Z</time>
      </trkpt>
      <trkpt lat="54.568852996453643" lon="-5.656154025346041">
        <ele>2.54</ele>
        <time>2026-07-07T15:40:42Z</time>
      </trkpt>
      <trkpt lat="54.568790970370173" lon="-5.655944980680943">
        <ele>2.54</ele>
        <time>2026-07-07T15:40:43Z</time>
      </trkpt>
      <trkpt lat="54.568742020055652" lon="-5.655715987086296">
        <ele>2.54</ele>
        <time>2026-07-07T15:40:44Z</time>
      </trkpt>
      <trkpt lat="54.568691980093718" lon="-5.655482970178127">
        <ele>3.02</ele>
        <time>2026-07-07T15:40:45Z</time>
      </trkpt>
      <trkpt lat="54.568671025335789" lon="-5.655225981026888">
        <ele>3.02</ele>
        <time>2026-07-07T15:40:46Z</time>
      </trkpt>
      <trkpt lat="54.568656021729112" lon="-5.654968991875649">
        <ele>3.5</ele>
        <time>2026-07-07T15:40:47Z</time>
      </trkpt>
      <trkpt lat="54.568446977064013" lon="-5.652421982958913">
        <ele>4.46</ele>
        <time>2026-07-07T15:40:57Z</time>
      </trkpt>
      <trkpt lat="54.567859992384911" lon="-5.649843961000443">
        <ele>3.02</ele>
        <time>2026-07-07T15:41:07Z</time>
      </trkpt>
      <trkpt lat="54.567719008773565" lon="-5.649398965761066">
        <ele>3.02</ele>
        <time>2026-07-07T15:41:09Z</time>
      </trkpt>
      <trkpt lat="54.567624963819981" lon="-5.649222023785114">
        <ele>3.5</ele>
        <time>2026-07-07T15:41:10Z</time>
      </trkpt>
      <trkpt lat="54.567527985200286" lon="-5.649052038788796">
        <ele>3.5</ele>
        <time>2026-07-07T15:41:11Z</time>
      </trkpt>
      <trkpt lat="54.567414997145534" lon="-5.648911977186799">
        <ele>3.5</ele>
        <time>2026-07-07T15:41:12Z</time>
      </trkpt>
      <trkpt lat="54.567297985777259" lon="-5.648767976090312">
        <ele>3.98</ele>
        <time>2026-07-07T15:41:13Z</time>
      </trkpt>
      <trkpt lat="54.566613016650081" lon="-5.647913021966815">
        <ele>4.46</ele>
        <time>2026-07-07T15:41:19Z</time>
      </trkpt>
      <trkpt lat="54.566520983353257" lon="-5.647719986736774">
        <ele>4.46</ele>
        <time>2026-07-07T15:41:20Z</time>
      </trkpt>
      <trkpt lat="54.566431967541575" lon="-5.647530974820256">
        <ele>4.94</ele>
        <time>2026-07-07T15:41:21Z</time>
      </trkpt>
      <trkpt lat="54.566358039155602" lon="-5.647278008982539">
        <ele>4.94</ele>
        <time>2026-07-07T15:41:22Z</time>
      </trkpt>
      <trkpt lat="54.566285032778978" lon="-5.647026970982552">
        <ele>5.42</ele>
        <time>2026-07-07T15:41:23Z</time>
      </trkpt>
      <trkpt lat="54.565970962867141" lon="-5.645648986101151">
        <ele>6.39</ele>
        <time>2026-07-07T15:41:28Z</time>
      </trkpt>
      <trkpt lat="54.565932992845774" lon="-5.645375987514854">
        <ele>6.39</ele>
        <time>2026-07-07T15:41:29Z</time>
      </trkpt>
      <trkpt lat="54.565914971753955" lon="-5.645094020292163">
        <ele>6.39</ele>
        <time>2026-07-07T15:41:30Z</time>
      </trkpt>
      <trkpt lat="54.565832996740937" lon="-5.641616033390164">
        <ele>4.94</ele>
        <time>2026-07-07T15:41:42Z</time>
      </trkpt>
      <trkpt lat="54.565783962607384" lon="-5.641340017318726">
        <ele>4.94</ele>
        <time>2026-07-07T15:41:43Z</time>
      </trkpt>
      <trkpt lat="54.565715985372663" lon="-5.641062995418906">
        <ele>5.42</ele>
        <time>2026-07-07T15:41:44Z</time>
      </trkpt>
      <trkpt lat="54.564814008772373" lon="-5.638433005660772">
        <ele>6.39</ele>
        <time>2026-07-07T15:41:54Z</time>
      </trkpt>
      <trkpt lat="54.564587026834488" lon="-5.637972000986338">
        <ele>6.39</ele>
        <time>2026-07-07T15:41:56Z</time>
      </trkpt>
      <trkpt lat="54.564474960789084" lon="-5.637746024876833">
        <ele>6.39</ele>
        <time>2026-07-07T15:41:57Z</time>
      </trkpt>
      <trkpt lat="54.563241982832551" lon="-5.635250983759761">
        <ele>7.83</ele>
        <time>2026-07-07T15:42:08Z</time>
      </trkpt>
      <trkpt lat="54.562214026227593" lon="-5.632608002051711">
        <ele>6.87</ele>
        <time>2026-07-07T15:42:18Z</time>
      </trkpt>
      <trkpt lat="54.56141397356987" lon="-5.630181021988392">
        <ele>4.94</ele>
        <time>2026-07-07T15:42:28Z</time>
      </trkpt>
      <trkpt lat="54.561323029920459" lon="-5.629964014515281">
        <ele>4.46</ele>
        <time>2026-07-07T15:42:29Z</time>
      </trkpt>
      <trkpt lat="54.561232002452016" lon="-5.629753964021802">
        <ele>4.46</ele>
        <time>2026-07-07T15:42:30Z</time>
      </trkpt>
      <trkpt lat="54.561108034104109" lon="-5.62957601621747">
        <ele>4.46</ele>
        <time>2026-07-07T15:42:31Z</time>
      </trkpt>
      <trkpt lat="54.560643006116152" lon="-5.628813011571765">
        <ele>4.46</ele>
        <time>2026-07-07T15:42:35Z</time>
      </trkpt>
      <trkpt lat="54.560554996132851" lon="-5.628605978563428">
        <ele>4.94</ele>
        <time>2026-07-07T15:42:36Z</time>
      </trkpt>
      <trkpt lat="54.56049095839262" lon="-5.628386037424207">
        <ele>4.94</ele>
        <time>2026-07-07T15:42:37Z</time>
      </trkpt>
      <trkpt lat="54.560449970886111" lon="-5.628142962232232">
        <ele>4.94</ele>
        <time>2026-07-07T15:42:38Z</time>
      </trkpt>
      <trkpt lat="54.560417030006647" lon="-5.627883961424232">
        <ele>4.94</ele>
        <time>2026-07-07T15:42:39Z</time>
      </trkpt>
      <trkpt lat="54.560400014743209" lon="-5.627608029171825">
        <ele>4.94</ele>
        <time>2026-07-07T15:42:40Z</time>
      </trkpt>
      <trkpt lat="54.560203040018678" lon="-5.625095972791314">
        <ele>2.06</ele>
        <time>2026-07-07T15:42:49Z</time>
      </trkpt>
      <trkpt lat="54.560141013935208" lon="-5.624836971983314">
        <ele>2.06</ele>
        <time>2026-07-07T15:42:50Z</time>
      </trkpt>
      <trkpt lat="54.559647990390658" lon="-5.623311968520284">
        <ele>3.02</ele>
        <time>2026-07-07T15:42:57Z</time>
      </trkpt>
      <trkpt lat="54.559637010097504" lon="-5.62311097048223">
        <ele>3.5</ele>
        <time>2026-07-07T15:42:58Z</time>
      </trkpt>
      <trkpt lat="54.559632986783981" lon="-5.622899997979403">
        <ele>3.5</ele>
        <time>2026-07-07T15:42:59Z</time>
      </trkpt>
      <trkpt lat="54.559706998988986" lon="-5.62081097625196">
        <ele>0.14</ele>
        <time>2026-07-07T15:43:08Z</time>
      </trkpt>
      <trkpt lat="54.559728959575295" lon="-5.619181031361222">
        <ele>0.62</ele>
        <time>2026-07-07T15:43:15Z</time>
      </trkpt>
      <trkpt lat="54.559703981503844" lon="-5.619015991687775">
        <ele>0.62</ele>
        <time>2026-07-07T15:43:16Z</time>
      </trkpt>
      <trkpt lat="54.559683026745915" lon="-5.618869978934526">
        <ele>0.62</ele>
        <time>2026-07-07T15:43:17Z</time>
      </trkpt>
      <trkpt lat="54.559638015925884" lon="-5.618566973134875">
        <ele>1.1</ele>
        <time>2026-07-07T15:43:20Z</time>
      </trkpt>
      <trkpt lat="54.559626029804349" lon="-5.618492960929871">
        <ele>0.62</ele>
        <time>2026-07-07T15:43:21Z</time>
      </trkpt>
      <trkpt lat="54.559660982340574" lon="-5.618347031995654">
        <ele>0.62</ele>
        <time>2026-07-07T15:43:22Z</time>
      </trkpt>
      <trkpt lat="54.559705993160605" lon="-5.618328005075455">
        <ele>0.62</ele>
        <time>2026-07-07T15:43:23Z</time>
      </trkpt>
      <trkpt lat="54.55975997261703" lon="-5.618305038660765">
        <ele>1.1</ele>
        <time>2026-07-07T15:43:24Z</time>
      </trkpt>
      <trkpt lat="54.559825016185641" lon="-5.61827695928514">
        <ele>1.1</ele>
        <time>2026-07-07T15:43:25Z</time>
      </trkpt>
      <trkpt lat="54.560474026948214" lon="-5.618001027032733">
        <ele>3.98</ele>
        <time>2026-07-07T15:43:31Z</time>
      </trkpt>
      <trkpt lat="54.56162603572011" lon="-5.61707298271358">
        <ele>5.91</ele>
        <time>2026-07-07T15:43:39Z</time>
      </trkpt>
      <trkpt lat="54.562949035316706" lon="-5.615370031446219">
        <ele>7.35</ele>
        <time>2026-07-07T15:43:49Z</time>
      </trkpt>
      <trkpt lat="54.563886970281601" lon="-5.613756012171507">
        <ele>14.56</ele>
        <time>2026-07-07T15:43:59Z</time>
      </trkpt>
      <trkpt lat="54.564522989094257" lon="-5.612187003716826">
        <ele>21.289999999999999</ele>
        <time>2026-07-07T15:44:07Z</time>
      </trkpt>
      <trkpt lat="54.564561964944005" lon="-5.611959015950561">
        <ele>22.25</ele>
        <time>2026-07-07T15:44:08Z</time>
      </trkpt>
      <trkpt lat="54.565019030123949" lon="-5.608846982941032">
        <ele>26.09</ele>
        <time>2026-07-07T15:44:20Z</time>
      </trkpt>
      <trkpt lat="54.565052976831794" lon="-5.608168970793486">
        <ele>27.530000000000001</ele>
        <time>2026-07-07T15:44:23Z</time>
      </trkpt>
      <trkpt lat="54.565036967396736" lon="-5.608006026595831">
        <ele>27.530000000000001</ele>
        <time>2026-07-07T15:44:24Z</time>
      </trkpt>
      <trkpt lat="54.564972007647157" lon="-5.607764963060617">
        <ele>28.02</ele>
        <time>2026-07-07T15:44:25Z</time>
      </trkpt>
      <trkpt lat="54.564912999048829" lon="-5.607540998607874">
        <ele>28.02</ele>
        <time>2026-07-07T15:44:26Z</time>
      </trkpt>
      <trkpt lat="54.56484803929925" lon="-5.607298007234931">
        <ele>28.02</ele>
        <time>2026-07-07T15:44:27Z</time>
      </trkpt>
      <trkpt lat="54.564778972417116" lon="-5.607042023912072">
        <ele>28.02</ele>
        <time>2026-07-07T15:44:28Z</time>
      </trkpt>
      <trkpt lat="54.564702026546001" lon="-5.606776988133788">
        <ele>28.02</ele>
        <time>2026-07-07T15:44:29Z</time>
      </trkpt>
      <trkpt lat="54.564589038491249" lon="-5.606543971225619">
        <ele>27.530000000000001</ele>
        <time>2026-07-07T15:44:30Z</time>
      </trkpt>
      <trkpt lat="54.563530990853906" lon="-5.604321006685495">
        <ele>28.98</ele>
        <time>2026-07-07T15:44:39Z</time>
      </trkpt>
      <trkpt lat="54.563381960615516" lon="-5.603890009224415">
        <ele>29.460000000000001</ele>
        <time>2026-07-07T15:44:41Z</time>
      </trkpt>
      <trkpt lat="54.563338039442897" lon="-5.60366302728653">
        <ele>29.940000000000001</ele>
        <time>2026-07-07T15:44:42Z</time>
      </trkpt>
      <trkpt lat="54.563291016966105" lon="-5.603421041741967">
        <ele>29.940000000000001</ele>
        <time>2026-07-07T15:44:43Z</time>
      </trkpt>
      <trkpt lat="54.563277019187808" lon="-5.603145025670528">
        <ele>30.420000000000002</ele>
        <time>2026-07-07T15:44:44Z</time>
      </trkpt>
      <trkpt lat="54.563277019187808" lon="-5.602860040962696">
        <ele>30.899999999999999</ele>
        <time>2026-07-07T15:44:45Z</time>
      </trkpt>
      <trkpt lat="54.563280958682299" lon="-5.602576984092593">
        <ele>30.899999999999999</ele>
        <time>2026-07-07T15:44:46Z</time>
      </trkpt>
      <trkpt lat="54.563305014744401" lon="-5.602298034355044">
        <ele>31.379999999999999</ele>
        <time>2026-07-07T15:44:47Z</time>
      </trkpt>
      <trkpt lat="54.563525961712003" lon="-5.60061302036047">
        <ele>32.340000000000003</ele>
        <time>2026-07-07T15:44:53Z</time>
      </trkpt>
      <trkpt lat="54.563535014167428" lon="-5.600344967097044">
        <ele>32.340000000000003</ele>
        <time>2026-07-07T15:44:54Z</time>
      </trkpt>
      <trkpt lat="54.563421020284295" lon="-5.598254017531872">
        <ele>29.940000000000001</ele>
        <time>2026-07-07T15:45:02Z</time>
      </trkpt>
      <trkpt lat="54.563435018062592" lon="-5.598023012280464">
        <ele>29.940000000000001</ele>
        <time>2026-07-07T15:45:03Z</time>
      </trkpt>
      <trkpt lat="54.563470976427197" lon="-5.597796030342579">
        <ele>29.460000000000001</ele>
        <time>2026-07-07T15:45:04Z</time>
      </trkpt>
      <trkpt lat="54.563522022217512" lon="-5.597568964585662">
        <ele>28.98</ele>
        <time>2026-07-07T15:45:05Z</time>
      </trkpt>
      <trkpt lat="54.563591005280614" lon="-5.597352962940931">
        <ele>28.5</ele>
        <time>2026-07-07T15:45:06Z</time>
      </trkpt>
      <trkpt lat="54.564229035750031" lon="-5.595054980367422">
        <ele>27.050000000000001</ele>
        <time>2026-07-07T15:45:15Z</time>
      </trkpt>
      <trkpt lat="54.5647659804672" lon="-5.591861978173256">
        <ele>26.09</ele>
        <time>2026-07-07T15:45:27Z</time>
      </trkpt>
      <trkpt lat="54.564778972417116" lon="-5.591643964871764">
        <ele>26.09</ele>
        <time>2026-07-07T15:45:28Z</time>
      </trkpt>
      <trkpt lat="54.564778972417116" lon="-5.591440033167601">
        <ele>26.09</ele>
        <time>2026-07-07T15:45:29Z</time>
      </trkpt>
      <trkpt lat="54.564741002395749" lon="-5.591194024309516">
        <ele>26.09</ele>
        <time>2026-07-07T15:45:30Z</time>
      </trkpt>
      <trkpt lat="54.564704960212111" lon="-5.590955978259444">
        <ele>26.09</ele>
        <time>2026-07-07T15:45:31Z</time>
      </trkpt>
      <trkpt lat="54.564666990190744" lon="-5.59070804156363">
        <ele>26.09</ele>
        <time>2026-07-07T15:45:32Z</time>
      </trkpt>
      <trkpt lat="54.564603036269546" lon="-5.590460021048784">
        <ele>26.09</ele>
        <time>2026-07-07T15:45:33Z</time>
      </trkpt>
      <trkpt lat="54.564525000751019" lon="-5.590225998312235">
        <ele>26.57</ele>
        <time>2026-07-07T15:45:34Z</time>
      </trkpt>
      <trkpt lat="54.564445037394762" lon="-5.589988036081195">
        <ele>27.050000000000001</ele>
        <time>2026-07-07T15:45:35Z</time>
      </trkpt>
      <trkpt lat="54.5643550157547" lon="-5.589756025001407">
        <ele>27.530000000000001</ele>
        <time>2026-07-07T15:45:36Z</time>
      </trkpt>
      <trkpt lat="54.563600979745388" lon="-5.588004039600492">
        <ele>26.09</ele>
        <time>2026-07-07T15:45:45Z</time>
      </trkpt>
      <trkpt lat="54.563548006117344" lon="-5.58782902546227">
        <ele>25.609999999999999</ele>
        <time>2026-07-07T15:45:46Z</time>
      </trkpt>
      <trkpt lat="54.563525039702654" lon="-5.587629033252597">
        <ele>25.129999999999999</ele>
        <time>2026-07-07T15:45:47Z</time>
      </trkpt>
      <trkpt lat="54.563501989468932" lon="-5.587425017729402">
        <ele>24.649999999999999</ele>
        <time>2026-07-07T15:45:48Z</time>
      </trkpt>
      <trkpt lat="54.563485980033875" lon="-5.587213961407542">
        <ele>23.690000000000001</ele>
        <time>2026-07-07T15:45:49Z</time>
      </trkpt>
      <trkpt lat="54.563473993912339" lon="-5.586983039975166">
        <ele>23.210000000000001</ele>
        <time>2026-07-07T15:45:50Z</time>
      </trkpt>
      <trkpt lat="54.563464019447565" lon="-5.586761003360152">
        <ele>22.73</ele>
        <time>2026-07-07T15:45:51Z</time>
      </trkpt>
      <trkpt lat="54.563391013070941" lon="-5.585286039859057">
        <ele>22.25</ele>
        <time>2026-07-07T15:46:00Z</time>
      </trkpt>
      <trkpt lat="54.563378021121025" lon="-5.583846028894186">
        <ele>22.73</ele>
        <time>2026-07-07T15:46:07Z</time>
      </trkpt>
      <trkpt lat="54.563297973945737" lon="-5.58121201582253">
        <ele>24.649999999999999</ele>
        <time>2026-07-07T15:46:17Z</time>
      </trkpt>
      <trkpt lat="54.563202001154423" lon="-5.577784990891814">
        <ele>28.02</ele>
        <time>2026-07-07T15:46:29Z</time>
      </trkpt>
      <trkpt lat="54.56319403834641" lon="-5.577287022024393">
        <ele>28.98</ele>
        <time>2026-07-07T15:46:31Z</time>
      </trkpt>
      <trkpt lat="54.563223039731383" lon="-5.577028021216393">
        <ele>29.460000000000001</ele>
        <time>2026-07-07T15:46:32Z</time>
      </trkpt>
      <trkpt lat="54.563276013359427" lon="-5.576789975166321">
        <ele>29.940000000000001</ele>
        <time>2026-07-07T15:46:33Z</time>
      </trkpt>
      <trkpt lat="54.563332004472613" lon="-5.576537009328604">
        <ele>29.940000000000001</ele>
        <time>2026-07-07T15:46:34Z</time>
      </trkpt>
      <trkpt lat="54.563396964222193" lon="-5.5762729793787">
        <ele>29.940000000000001</ele>
        <time>2026-07-07T15:46:35Z</time>
      </trkpt>
      <trkpt lat="54.563974980264902" lon="-5.57414498180151">
        <ele>33.299999999999997</ele>
        <time>2026-07-07T15:46:44Z</time>
      </trkpt>
      <trkpt lat="54.564776960760355" lon="-5.571408038958907">
        <ele>35.710000000000001</ele>
        <time>2026-07-07T15:46:56Z</time>
      </trkpt>
      <trkpt lat="54.565554969012737" lon="-5.568675035610795">
        <ele>39.549999999999997</ele>
        <time>2026-07-07T15:47:08Z</time>
      </trkpt>
      <trkpt lat="54.565993007272482" lon="-5.566250989213586">
        <ele>45.799999999999997</ele>
        <time>2026-07-07T15:47:18Z</time>
      </trkpt>
      <trkpt lat="54.565998036414385" lon="-5.565968016162515">
        <ele>46.280000000000001</ele>
        <time>2026-07-07T15:47:19Z</time>
      </trkpt>
      <trkpt lat="54.565719002857804" lon="-5.564097007736564">
        <ele>46.759999999999998</ele>
        <time>2026-07-07T15:47:26Z</time>
      </trkpt>
      <trkpt lat="54.565012995153666" lon="-5.562058025971055">
        <ele>41.469999999999999</ele>
        <time>2026-07-07T15:47:34Z</time>
      </trkpt>
      <trkpt lat="54.564696997404099" lon="-5.561171974986792">
        <ele>38.590000000000003</ele>
        <time>2026-07-07T15:47:39Z</time>
      </trkpt>
      <trkpt lat="54.564257031306624" lon="-5.559936985373497">
        <ele>35.710000000000001</ele>
        <time>2026-07-07T15:47:46Z</time>
      </trkpt>
      <trkpt lat="54.563709022477269" lon="-5.5583930388093">
        <ele>35.710000000000001</ele>
        <time>2026-07-07T15:47:54Z</time>
      </trkpt>
      <trkpt lat="54.56358103081584" lon="-5.558024989441037">
        <ele>35.229999999999997</ele>
        <time>2026-07-07T15:48:01Z</time>
      </trkpt>
      <trkpt lat="54.56358103081584" lon="-5.558024989441037">
        <ele>35.229999999999997</ele>
        <time>2026-07-07T15:48:14Z</time>
      </trkpt>
      <trkpt lat="54.56358103081584" lon="-5.558024989441037">
        <ele>35.229999999999997</ele>
        <time>2026-07-07T15:48:29Z</time>
      </trkpt>
      <trkpt lat="54.56358103081584" lon="-5.558024989441037">
        <ele>35.229999999999997</ele>
        <time>2026-07-07T15:49:20Z</time>
      </trkpt>
      <trkpt lat="54.56358103081584" lon="-5.558024989441037">
        <ele>35.229999999999997</ele>
        <time>2026-07-07T15:50:06Z</time>
      </trkpt>
      <trkpt lat="54.563416996970773" lon="-5.557554010301828">
        <ele>35.229999999999997</ele>
        <time>2026-07-07T15:50:15Z</time>
      </trkpt>
      <trkpt lat="54.562929002568126" lon="-5.556285995990038">
        <ele>36.189999999999998</ele>
        <time>2026-07-07T15:50:22Z</time>
      </trkpt>
      <trkpt lat="54.561920994892716" lon="-5.554780019447208">
        <ele>36.189999999999998</ele>
        <time>2026-07-07T15:50:30Z</time>
      </trkpt>
      <trkpt lat="54.560591038316488" lon="-5.552841033786535">
        <ele>37.630000000000003</ele>
        <time>2026-07-07T15:50:41Z</time>
      </trkpt>
      <trkpt lat="54.55947800539434" lon="-5.551223997026682">
        <ele>36.670000000000002</ele>
        <time>2026-07-07T15:50:50Z</time>
      </trkpt>
      <trkpt lat="54.558222983032465" lon="-5.549401016905904">
        <ele>40.990000000000002</ele>
        <time>2026-07-07T15:51:00Z</time>
      </trkpt>
      <trkpt lat="54.557529967278242" lon="-5.548325031995773">
        <ele>42.920000000000002</ele>
        <time>2026-07-07T15:51:07Z</time>
      </trkpt>
      <trkpt lat="54.557461990043521" lon="-5.548180025070906">
        <ele>42.920000000000002</ele>
        <time>2026-07-07T15:51:08Z</time>
      </trkpt>
      <trkpt lat="54.557436006143689" lon="-5.547987995669246">
        <ele>42.920000000000002</ele>
        <time>2026-07-07T15:51:09Z</time>
      </trkpt>
      <trkpt lat="54.557409016415477" lon="-5.547789009287953">
        <ele>42.920000000000002</ele>
        <time>2026-07-07T15:51:10Z</time>
      </trkpt>
      <trkpt lat="54.557381020858884" lon="-5.547583987936378">
        <ele>42.920000000000002</ele>
        <time>2026-07-07T15:51:11Z</time>
      </trkpt>
      <trkpt lat="54.557057982310653" lon="-5.545015018433332">
        <ele>42.920000000000002</ele>
        <time>2026-07-07T15:51:23Z</time>
      </trkpt>
      <trkpt lat="54.556737039238214" lon="-5.542444959282875">
        <ele>35.229999999999997</ele>
        <time>2026-07-07T15:51:34Z</time>
      </trkpt>
      <trkpt lat="54.556527994573116" lon="-5.540619967505336">
        <ele>31.379999999999999</ele>
        <time>2026-07-07T15:51:41Z</time>
      </trkpt>
      <trkpt lat="54.556071013212204" lon="-5.53633295930922">
        <ele>27.530000000000001</ele>
        <time>2026-07-07T15:51:55Z</time>
      </trkpt>
      <trkpt lat="54.555969005450606" lon="-5.533725013956428">
        <ele>28.98</ele>
        <time>2026-07-07T15:52:04Z</time>
      </trkpt>
      <trkpt lat="54.55595500767231" lon="-5.53181603550911">
        <ele>29.940000000000001</ele>
        <time>2026-07-07T15:52:12Z</time>
      </trkpt>
      <trkpt lat="54.556132033467293" lon="-5.529129970818758">
        <ele>30.420000000000002</ele>
        <time>2026-07-07T15:52:24Z</time>
      </trkpt>
      <trkpt lat="54.556283997371793" lon="-5.526817990466952">
        <ele>29.460000000000001</ele>
        <time>2026-07-07T15:52:34Z</time>
      </trkpt>
      <trkpt lat="54.556367984041572" lon="-5.52554402500391">
        <ele>29.940000000000001</ele>
        <time>2026-07-07T15:52:42Z</time>
      </trkpt>
      <trkpt lat="54.556373013183475" lon="-5.525445034727454">
        <ele>29.940000000000001</ele>
        <time>2026-07-07T15:52:43Z</time>
      </trkpt>
      <trkpt lat="54.556378964334726" lon="-5.525335986167193">
        <ele>30.420000000000002</ele>
        <time>2026-07-07T15:52:44Z</time>
      </trkpt>
      <trkpt lat="54.556456999853253" lon="-5.523907039314508">
        <ele>34.259999999999998</ele>
        <time>2026-07-07T15:52:53Z</time>
      </trkpt>
      <trkpt lat="54.556539980694652" lon="-5.521466983482242">
        <ele>36.670000000000002</ele>
        <time>2026-07-07T15:53:06Z</time>
      </trkpt>
      <trkpt lat="54.556531012058258" lon="-5.519950026646256">
        <ele>37.630000000000003</ele>
        <time>2026-07-07T15:53:14Z</time>
      </trkpt>
      <trkpt lat="54.556488012894988" lon="-5.519770989194512">
        <ele>38.109999999999999</ele>
        <time>2026-07-07T15:53:15Z</time>
      </trkpt>
      <trkpt lat="54.556092973798513" lon="-5.518129980191588">
        <ele>36.670000000000002</ele>
        <time>2026-07-07T15:53:23Z</time>
      </trkpt>
      <trkpt lat="54.55569701269269" lon="-5.516486037522554">
        <ele>33.299999999999997</ele>
        <time>2026-07-07T15:53:30Z</time>
      </trkpt>
      <trkpt lat="54.555586036294699" lon="-5.516023021191359">
        <ele>31.859999999999999</ele>
        <time>2026-07-07T15:53:33Z</time>
      </trkpt>
      <trkpt lat="54.555544964969158" lon="-5.515853958204389">
        <ele>31.379999999999999</ele>
        <time>2026-07-07T15:53:34Z</time>
      </trkpt>
      <trkpt lat="54.555169036611915" lon="-5.514288973063231">
        <ele>30.420000000000002</ele>
        <time>2026-07-07T15:53:43Z</time>
      </trkpt>
      <trkpt lat="54.554840968921781" lon="-5.512928003445268">
        <ele>28.02</ele>
        <time>2026-07-07T15:53:52Z</time>
      </trkpt>
      <trkpt lat="54.554530000314116" lon="-5.511634005233645">
        <ele>26.09</ele>
        <time>2026-07-07T15:53:58Z</time>
      </trkpt>
      <trkpt lat="54.553952990099788" lon="-5.50923703238368">
        <ele>24.170000000000002</ele>
        <time>2026-07-07T15:54:06Z</time>
      </trkpt>
      <trkpt lat="54.553301967680454" lon="-5.506529007107019">
        <ele>22.25</ele>
        <time>2026-07-07T15:54:14Z</time>
      </trkpt>
      <trkpt lat="54.551944015547633" lon="-5.500683970749378">
        <ele>23.690000000000001</ele>
        <time>2026-07-07T15:54:31Z</time>
      </trkpt>
      <trkpt lat="54.551145974546671" lon="-5.497282007709146">
        <ele>28.5</ele>
        <time>2026-07-07T15:54:42Z</time>
      </trkpt>
      <trkpt lat="54.550319015979767" lon="-5.49505703151226">
        <ele>23.690000000000001</ele>
        <time>2026-07-07T15:54:50Z</time>
      </trkpt>
      <trkpt lat="54.549704035744071" lon="-5.493459021672607">
        <ele>18.879999999999999</ele>
        <time>2026-07-07T15:54:57Z</time>
      </trkpt>
      <trkpt lat="54.54927496612072" lon="-5.492224032059312">
        <ele>14.56</ele>
        <time>2026-07-07T15:55:04Z</time>
      </trkpt>
      <trkpt lat="54.549243031069636" lon="-5.492026973515749">
        <ele>14.08</ele>
        <time>2026-07-07T15:55:05Z</time>
      </trkpt>
      <trkpt lat="54.549218975007534" lon="-5.491827987134457">
        <ele>14.08</ele>
        <time>2026-07-07T15:55:06Z</time>
      </trkpt>
      <trkpt lat="54.549206988885999" lon="-5.491629000753164">
        <ele>14.08</ele>
        <time>2026-07-07T15:55:07Z</time>
      </trkpt>
      <trkpt lat="54.549195002764463" lon="-5.491434959694743">
        <ele>14.08</ele>
        <time>2026-07-07T15:55:08Z</time>
      </trkpt>
      <trkpt lat="54.549010014161468" lon="-5.489267986267805">
        <ele>11.19</ele>
        <time>2026-07-07T15:55:18Z</time>
      </trkpt>
      <trkpt lat="54.548856038600206" lon="-5.488408003002405">
        <ele>8.310000000000001</ele>
        <time>2026-07-07T15:55:22Z</time>
      </trkpt>
      <trkpt lat="54.548784038051963" lon="-5.488236006349325">
        <ele>8.310000000000001</ele>
        <time>2026-07-07T15:55:23Z</time>
      </trkpt>
      <trkpt lat="54.548712959513068" lon="-5.488065015524626">
        <ele>7.83</ele>
        <time>2026-07-07T15:55:24Z</time>
      </trkpt>
      <trkpt lat="54.548643976449966" lon="-5.487898970022798">
        <ele>7.83</ele>
        <time>2026-07-07T15:55:25Z</time>
      </trkpt>
      <trkpt lat="54.548577005043626" lon="-5.487738959491253">
        <ele>7.83</ele>
        <time>2026-07-07T15:55:26Z</time>
      </trkpt>
      <trkpt lat="54.548209039494395" lon="-5.486995987594128">
        <ele>8.310000000000001</ele>
        <time>2026-07-07T15:55:31Z</time>
      </trkpt>
      <trkpt lat="54.548133015632629" lon="-5.486844023689628">
        <ele>8.310000000000001</ele>
        <time>2026-07-07T15:55:32Z</time>
      </trkpt>
      <trkpt lat="54.548064032569528" lon="-5.486704967916012">
        <ele>8.310000000000001</ele>
        <time>2026-07-07T15:55:33Z</time>
      </trkpt>
      <trkpt lat="54.548024972900748" lon="-5.486511010676622">
        <ele>7.83</ele>
        <time>2026-07-07T15:55:34Z</time>
      </trkpt>
      <trkpt lat="54.547998989000916" lon="-5.486378995701671">
        <ele>7.35</ele>
        <time>2026-07-07T15:55:35Z</time>
      </trkpt>
      <trkpt lat="54.547980967909098" lon="-5.486288974061608">
        <ele>7.35</ele>
        <time>2026-07-07T15:55:36Z</time>
      </trkpt>
      <trkpt lat="54.547952972352505" lon="-5.486148996278644">
        <ele>4.46</ele>
        <time>2026-07-07T15:55:43Z</time>
      </trkpt>
      <trkpt lat="54.547942997887731" lon="-5.48609996214509">
        <ele>4.46</ele>
        <time>2026-07-07T15:55:44Z</time>
      </trkpt>
      <trkpt lat="54.547911984845996" lon="-5.486066015437245">
        <ele>4.46</ele>
        <time>2026-07-07T15:55:45Z</time>
      </trkpt>
      <trkpt lat="54.547858005389571" lon="-5.486074984073639">
        <ele>3.98</ele>
        <time>2026-07-07T15:55:46Z</time>
      </trkpt>
      <trkpt lat="54.547783993184566" lon="-5.486088981851935">
        <ele>3.98</ele>
        <time>2026-07-07T15:55:47Z</time>
      </trkpt>
      <trkpt lat="54.547701012343168" lon="-5.486102979630232">
        <ele>3.98</ele>
        <time>2026-07-07T15:55:48Z</time>
      </trkpt>
      <trkpt lat="54.547614008188248" lon="-5.48611898906529">
        <ele>3.98</ele>
        <time>2026-07-07T15:55:49Z</time>
      </trkpt>
      <trkpt lat="54.546876987442374" lon="-5.486210016533732">
        <ele>3.5</ele>
        <time>2026-07-07T15:55:56Z</time>
      </trkpt>
      <trkpt lat="54.545520963147283" lon="-5.485943974927068">
        <ele>8.310000000000001</ele>
        <time>2026-07-07T15:56:08Z</time>
      </trkpt>
      <trkpt lat="54.545290041714907" lon="-5.485868034884334">
        <ele>8.789999999999999</ele>
        <time>2026-07-07T15:56:10Z</time>
      </trkpt>
      <trkpt lat="54.544021021574736" lon="-5.485143000259996">
        <ele>6.87</ele>
        <time>2026-07-07T15:56:22Z</time>
      </trkpt>
      <trkpt lat="54.542847974225879" lon="-5.48437999561429">
        <ele>9.27</ele>
        <time>2026-07-07T15:56:34Z</time>
      </trkpt>
      <trkpt lat="54.541795961558819" lon="-5.483790999278426">
        <ele>10.710000000000001</ele>
        <time>2026-07-07T15:56:44Z</time>
      </trkpt>
      <trkpt lat="54.54134501516819" lon="-5.48373400233686">
        <ele>10.23</ele>
        <time>2026-07-07T15:56:48Z</time>
      </trkpt>
      <trkpt lat="54.541230015456676" lon="-5.483785970136523">
        <ele>10.23</ele>
        <time>2026-07-07T15:56:49Z</time>
      </trkpt>
      <trkpt lat="54.541114009916782" lon="-5.48384003341198">
        <ele>10.710000000000001</ele>
        <time>2026-07-07T15:56:50Z</time>
      </trkpt>
      <trkpt lat="54.539522035047412" lon="-5.484592979773879">
        <ele>15.039999999999999</ele>
        <time>2026-07-07T15:57:03Z</time>
      </trkpt>
      <trkpt lat="54.538281010463834" lon="-5.485139982774854">
        <ele>15.039999999999999</ele>
        <time>2026-07-07T15:57:12Z</time>
      </trkpt>
      <trkpt lat="54.536696998402476" lon="-5.48528297804296">
        <ele>15.52</ele>
        <time>2026-07-07T15:57:22Z</time>
      </trkpt>
      <trkpt lat="54.534865971654654" lon="-5.485375011339784">
        <ele>16</ele>
        <time>2026-07-07T15:57:33Z</time>
      </trkpt>
      <trkpt lat="54.533689990639687" lon="-5.485394038259983">
        <ele>16</ele>
        <time>2026-07-07T15:57:40Z</time>
      </trkpt>
      <trkpt lat="54.532344024628401" lon="-5.485170995816588">
        <ele>16</ele>
        <time>2026-07-07T15:57:47Z</time>
      </trkpt>
      <trkpt lat="54.530693041160703" lon="-5.484586022794247">
        <ele>15.52</ele>
        <time>2026-07-07T15:57:55Z</time>
      </trkpt>
      <trkpt lat="54.529705988243222" lon="-5.483660995960236">
        <ele>12.630000000000001</ele>
        <time>2026-07-07T15:58:00Z</time>
      </trkpt>
      <trkpt lat="54.528008988127112" lon="-5.481895012781024">
        <ele>9.27</ele>
        <time>2026-07-07T15:58:08Z</time>
      </trkpt>
      <trkpt lat="54.526612982153893" lon="-5.480433041229844">
        <ele>6.87</ele>
        <time>2026-07-07T15:58:15Z</time>
      </trkpt>
      <trkpt lat="54.523841002956033" lon="-5.477487975731492">
        <ele>10.710000000000001</ele>
        <time>2026-07-07T15:58:30Z</time>
      </trkpt>
      <trkpt lat="54.521688027307391" lon="-5.475434996187687">
        <ele>13.119999999999999</ele>
        <time>2026-07-07T15:58:42Z</time>
      </trkpt>
      <trkpt lat="54.519399013370275" lon="-5.473873028531671">
        <ele>10.23</ele>
        <time>2026-07-07T15:58:54Z</time>
      </trkpt>
      <trkpt lat="54.519221987575293" lon="-5.473779989406467">
        <ele>10.710000000000001</ele>
        <time>2026-07-07T15:58:55Z</time>
      </trkpt>
      <trkpt lat="54.519032975658774" lon="-5.473748976364732">
        <ele>10.710000000000001</ele>
        <time>2026-07-07T15:58:56Z</time>
      </trkpt>
      <trkpt lat="54.518327973783016" lon="-5.473569016903639">
        <ele>11.19</ele>
        <time>2026-07-07T15:59:00Z</time>
      </trkpt>
      <trkpt lat="54.518171986564994" lon="-5.473467009142041">
        <ele>11.67</ele>
        <time>2026-07-07T15:59:01Z</time>
      </trkpt>
      <trkpt lat="54.518024967983365" lon="-5.473328959196806">
        <ele>11.67</ele>
        <time>2026-07-07T15:59:02Z</time>
      </trkpt>
      <trkpt lat="54.517874009907246" lon="-5.47318696975708">
        <ele>11.67</ele>
        <time>2026-07-07T15:59:03Z</time>
      </trkpt>
      <trkpt lat="54.517726991325617" lon="-5.473010027781129">
        <ele>12.15</ele>
        <time>2026-07-07T15:59:04Z</time>
      </trkpt>
      <trkpt lat="54.51698200777173" lon="-5.472128000110388">
        <ele>11.67</ele>
        <time>2026-07-07T15:59:09Z</time>
      </trkpt>
      <trkpt lat="54.516825014725327" lon="-5.472023980692029">
        <ele>11.19</ele>
        <time>2026-07-07T15:59:10Z</time>
      </trkpt>
      <trkpt lat="54.515506960451603" lon="-5.470918994396925">
        <ele>9.75</ele>
        <time>2026-07-07T15:59:18Z</time>
      </trkpt>
      <trkpt lat="54.514599032700062" lon="-5.469399020075798">
        <ele>9.75</ele>
        <time>2026-07-07T15:59:25Z</time>
      </trkpt>
      <trkpt lat="54.514384958893061" lon="-5.468917982652783">
        <ele>9.27</ele>
        <time>2026-07-07T15:59:27Z</time>
      </trkpt>
      <trkpt lat="54.514246992766857" lon="-5.468721007928252">
        <ele>9.27</ele>
        <time>2026-07-07T15:59:28Z</time>
      </trkpt>
      <trkpt lat="54.51410299167037" lon="-5.468525961041451">
        <ele>9.75</ele>
        <time>2026-07-07T15:59:29Z</time>
      </trkpt>
      <trkpt lat="54.513939041644335" lon="-5.46839302405715">
        <ele>9.75</ele>
        <time>2026-07-07T15:59:30Z</time>
      </trkpt>
      <trkpt lat="54.513767967000604" lon="-5.468275006860495">
        <ele>10.23</ele>
        <time>2026-07-07T15:59:31Z</time>
      </trkpt>
      <trkpt lat="54.513595970347524" lon="-5.468154978007078">
        <ele>10.23</ele>
        <time>2026-07-07T15:59:32Z</time>
      </trkpt>
      <trkpt lat="54.513410981744528" lon="-5.468123964965344">
        <ele>10.23</ele>
        <time>2026-07-07T15:59:33Z</time>
      </trkpt>
      <trkpt lat="54.513220963999629" lon="-5.468099992722273">
        <ele>10.23</ele>
        <time>2026-07-07T15:59:34Z</time>
      </trkpt>
      <trkpt lat="54.510783003643155" lon="-5.467894971370697">
        <ele>9.27</ele>
        <time>2026-07-07T15:59:46Z</time>
      </trkpt>
      <trkpt lat="54.509325977414846" lon="-5.467530023306608">
        <ele>9.27</ele>
        <time>2026-07-07T15:59:54Z</time>
      </trkpt>
      <trkpt lat="54.507980011403561" lon="-5.467479983344674">
        <ele>9.27</ele>
        <time>2026-07-07T16:00:02Z</time>
      </trkpt>
      <trkpt lat="54.506886005401611" lon="-5.467142025008798">
        <ele>10.23</ele>
        <time>2026-07-07T16:00:10Z</time>
      </trkpt>
      <trkpt lat="54.504893040284514" lon="-5.466540036723018">
        <ele>11.67</ele>
        <time>2026-07-07T16:00:25Z</time>
      </trkpt>
      <trkpt lat="54.503392009064555" lon="-5.466088000684977">
        <ele>8.789999999999999</ele>
        <time>2026-07-07T16:00:37Z</time>
      </trkpt>
      <trkpt lat="54.501908998936415" lon="-5.465655997395515">
        <ele>8.310000000000001</ele>
        <time>2026-07-07T16:00:51Z</time>
      </trkpt>
      <trkpt lat="54.500795966014266" lon="-5.465291971340776">
        <ele>9.27</ele>
        <time>2026-07-07T16:01:01Z</time>
      </trkpt>
      <trkpt lat="54.49972802773118" lon="-5.464666010811925">
        <ele>10.23</ele>
        <time>2026-07-07T16:01:11Z</time>
      </trkpt>
      <trkpt lat="54.498066985979676" lon="-5.463512996211648">
        <ele>9.27</ele>
        <time>2026-07-07T16:01:26Z</time>
      </trkpt>
      <trkpt lat="54.496459001675248" lon="-5.462183961644769">
        <ele>9.75</ele>
        <time>2026-07-07T16:01:40Z</time>
      </trkpt>
      <trkpt lat="54.495762968435884" lon="-5.461137983947992">
        <ele>10.710000000000001</ele>
        <time>2026-07-07T16:01:48Z</time>
      </trkpt>
      <trkpt lat="54.495577979832888" lon="-5.460761971771717">
        <ele>10.23</ele>
        <time>2026-07-07T16:01:52Z</time>
      </trkpt>
      <trkpt lat="54.495547972619534" lon="-5.460687037557364">
        <ele>10.23</ele>
        <time>2026-07-07T16:01:53Z</time>
      </trkpt>
      <trkpt lat="54.49551897123456" lon="-5.460614031180739">
        <ele>9.75</ele>
        <time>2026-07-07T16:01:54Z</time>
      </trkpt>
      <trkpt lat="54.495457028970122" lon="-5.460459971800447">
        <ele>9.75</ele>
        <time>2026-07-07T16:01:56Z</time>
      </trkpt>
      <trkpt lat="54.495449988171458" lon="-5.460441028699279">
        <ele>9.75</ele>
        <time>2026-07-07T16:01:57Z</time>
      </trkpt>
      <trkpt lat="54.495342029258609" lon="-5.460270037874579">
        <ele>9.75</ele>
        <time>2026-07-07T16:01:58Z</time>
      </trkpt>
      <trkpt lat="54.494779016822577" lon="-5.459195980802178">
        <ele>9.75</ele>
        <time>2026-07-07T16:02:06Z</time>
      </trkpt>
      <trkpt lat="54.493622984737158" lon="-5.456924987956882">
        <ele>9.27</ele>
        <time>2026-07-07T16:02:19Z</time>
      </trkpt>
      <trkpt lat="54.492909014225006" lon="-5.455148024484515">
        <ele>10.23</ele>
        <time>2026-07-07T16:02:28Z</time>
      </trkpt>
      <trkpt lat="54.491948029026389" lon="-5.452104974538088">
        <ele>9.75</ele>
        <time>2026-07-07T16:02:42Z</time>
      </trkpt>
      <trkpt lat="54.491219976916909" lon="-5.449558971449733">
        <ele>9.27</ele>
        <time>2026-07-07T16:02:54Z</time>
      </trkpt>
      <trkpt lat="54.490839019417763" lon="-5.447888039052486">
        <ele>9.27</ele>
        <time>2026-07-07T16:03:04Z</time>
      </trkpt>
      <trkpt lat="54.490522015839815" lon="-5.446830997243524">
        <ele>8.789999999999999</ele>
        <time>2026-07-07T16:03:09Z</time>
      </trkpt>
      <trkpt lat="54.49042797088623" lon="-5.446639973670244">
        <ele>8.789999999999999</ele>
        <time>2026-07-07T16:03:10Z</time>
      </trkpt>
      <trkpt lat="54.490315988659859" lon="-5.446463031694293">
        <ele>8.789999999999999</ele>
        <time>2026-07-07T16:03:11Z</time>
      </trkpt>
      <trkpt lat="54.489484000951052" lon="-5.444586994126439">
        <ele>7.83</ele>
        <time>2026-07-07T16:03:20Z</time>
      </trkpt>
      <trkpt lat="54.489012015983462" lon="-5.442175017669797">
        <ele>6.87</ele>
        <time>2026-07-07T16:03:29Z</time>
      </trkpt>
      <trkpt lat="54.488993994891644" lon="-5.441938983276486">
        <ele>6.87</ele>
        <time>2026-07-07T16:03:30Z</time>
      </trkpt>
      <trkpt lat="54.488999024033546" lon="-5.441700015217066">
        <ele>7.35</ele>
        <time>2026-07-07T16:03:31Z</time>
      </trkpt>
      <trkpt lat="54.489003969356418" lon="-5.441471021622419">
        <ele>6.87</ele>
        <time>2026-07-07T16:03:32Z</time>
      </trkpt>
      <trkpt lat="54.489045962691307" lon="-5.440601985901594">
        <ele>6.87</ele>
        <time>2026-07-07T16:03:36Z</time>
      </trkpt>
      <trkpt lat="54.489049986004829" lon="-5.44042001478374">
        <ele>6.39</ele>
        <time>2026-07-07T16:03:37Z</time>
      </trkpt>
      <trkpt lat="54.489015033468604" lon="-5.44014198705554">
        <ele>6.39</ele>
        <time>2026-07-07T16:03:39Z</time>
      </trkpt>
      <trkpt lat="54.489099020138383" lon="-5.440008966252208">
        <ele>6.39</ele>
        <time>2026-07-07T16:03:40Z</time>
      </trkpt>
      <trkpt lat="54.489143025130033" lon="-5.439951969310641">
        <ele>6.39</ele>
        <time>2026-07-07T16:03:41Z</time>
      </trkpt>
      <trkpt lat="54.489194992929697" lon="-5.439884997904301">
        <ele>6.39</ele>
        <time>2026-07-07T16:03:42Z</time>
      </trkpt>
      <trkpt lat="54.489255007356405" lon="-5.439806040376425">
        <ele>6.39</ele>
        <time>2026-07-07T16:03:43Z</time>
      </trkpt>
      <trkpt lat="54.4897819776088" lon="-5.439365990459919">
        <ele>8.310000000000001</ele>
        <time>2026-07-07T16:03:52Z</time>
      </trkpt>
      <trkpt lat="54.489875016734004" lon="-5.439475039020181">
        <ele>10.23</ele>
        <time>2026-07-07T16:04:03Z</time>
      </trkpt>
      <trkpt lat="54.489878034219146" lon="-5.439241016283631">
        <ele>9.75</ele>
        <time>2026-07-07T16:04:18Z</time>
      </trkpt>
      <trkpt lat="54.489878034219146" lon="-5.439241016283631">
        <ele>9.75</ele>
        <time>2026-07-07T16:04:52Z</time>
      </trkpt>
      <trkpt lat="54.489878034219146" lon="-5.439241016283631">
        <ele>9.75</ele>
        <time>2026-07-07T16:05:34Z</time>
      </trkpt>
      <trkpt lat="54.489878034219146" lon="-5.439241016283631">
        <ele>9.75</ele>
        <time>2026-07-07T16:06:22Z</time>
      </trkpt>
      <trkpt lat="54.489878034219146" lon="-5.439241016283631">
        <ele>9.75</ele>
        <time>2026-07-07T16:07:22Z</time>
      </trkpt>
      <trkpt lat="54.489878034219146" lon="-5.439241016283631">
        <ele>10.23</ele>
        <time>2026-07-07T16:08:26Z</time>
      </trkpt>
      <trkpt lat="54.490077020600438" lon="-5.439348975196481">
        <ele>15.52</ele>
        <time>2026-07-07T16:11:32Z</time>
      </trkpt>
      <trkpt lat="54.490078026428819" lon="-5.439340006560087">
        <ele>15.039999999999999</ele>
        <time>2026-07-07T16:12:31Z</time>
      </trkpt>
      <trkpt lat="54.490071991458535" lon="-5.439351992681623">
        <ele>16</ele>
        <time>2026-07-07T16:13:14Z</time>
      </trkpt>
      <trkpt lat="54.490078026428819" lon="-5.439378982409835">
        <ele>15.52</ele>
        <time>2026-07-07T16:13:19Z</time>
      </trkpt>
      <trkpt lat="54.489907035604119" lon="-5.439533963799477">
        <ele>13.6</ele>
        <time>2026-07-07T16:13:25Z</time>
      </trkpt>
      <trkpt lat="54.489870993420482" lon="-5.439466992393136">
        <ele>13.119999999999999</ele>
        <time>2026-07-07T16:13:26Z</time>
      </trkpt>
      <trkpt lat="54.489806033670902" lon="-5.4393479693681">
        <ele>12.630000000000001</ele>
        <time>2026-07-07T16:13:27Z</time>
      </trkpt>
      <trkpt lat="54.489784995093942" lon="-5.439362972974777">
        <ele>12.630000000000001</ele>
        <time>2026-07-07T16:13:28Z</time>
      </trkpt>
      <trkpt lat="54.489727998152375" lon="-5.439403038471937">
        <ele>12.15</ele>
        <time>2026-07-07T16:13:29Z</time>
      </trkpt>
      <trkpt lat="54.489659015089273" lon="-5.439450982958078">
        <ele>11.67</ele>
        <time>2026-07-07T16:13:30Z</time>
      </trkpt>
      <trkpt lat="54.489582991227508" lon="-5.439504962414503">
        <ele>11.19</ele>
        <time>2026-07-07T16:13:31Z</time>
      </trkpt>
      <trkpt lat="54.489149982109666" lon="-5.439941994845867">
        <ele>9.75</ele>
        <time>2026-07-07T16:13:38Z</time>
      </trkpt>
      <trkpt lat="54.489097008481622" lon="-5.44001198373735">
        <ele>9.75</ele>
        <time>2026-07-07T16:13:45Z</time>
      </trkpt>
      <trkpt lat="54.489068007096648" lon="-5.440049031749368">
        <ele>9.75</ele>
        <time>2026-07-07T16:13:46Z</time>
      </trkpt>
      <trkpt lat="54.489015033468604" lon="-5.440143998712301">
        <ele>9.27</ele>
        <time>2026-07-07T16:13:47Z</time>
      </trkpt>
      <trkpt lat="54.48903095908463" lon="-5.440266039222479">
        <ele>9.27</ele>
        <time>2026-07-07T16:13:48Z</time>
      </trkpt>
      <trkpt lat="54.489033976569772" lon="-5.440792003646493">
        <ele>9.27</ele>
        <time>2026-07-07T16:13:51Z</time>
      </trkpt>
      <trkpt lat="54.489001035690308" lon="-5.442107962444425">
        <ele>9.75</ele>
        <time>2026-07-07T16:13:58Z</time>
      </trkpt>
      <trkpt lat="54.489047974348068" lon="-5.442380039021373">
        <ele>10.23</ele>
        <time>2026-07-07T16:14:03Z</time>
      </trkpt>
      <trkpt lat="54.489054009318352" lon="-5.442414991557598">
        <ele>10.23</ele>
        <time>2026-07-07T16:14:04Z</time>
      </trkpt>
      <trkpt lat="54.489059038460255" lon="-5.442443992942572">
        <ele>10.710000000000001</ele>
        <time>2026-07-07T16:14:05Z</time>
      </trkpt>
      <trkpt lat="54.489177977666259" lon="-5.443136002868414">
        <ele>12.630000000000001</ele>
        <time>2026-07-07T16:14:15Z</time>
      </trkpt>
      <trkpt lat="54.489514008164406" lon="-5.444682966917753">
        <ele>12.15</ele>
        <time>2026-07-07T16:14:25Z</time>
      </trkpt>
      <trkpt lat="54.48986797593534" lon="-5.445687035098672">
        <ele>12.15</ele>
        <time>2026-07-07T16:14:31Z</time>
      </trkpt>
      <trkpt lat="54.489945005625486" lon="-5.44583598151803">
        <ele>12.630000000000001</ele>
        <time>2026-07-07T16:14:32Z</time>
      </trkpt>
      <trkpt lat="54.490770036354661" lon="-5.447541028261185">
        <ele>13.119999999999999</ele>
        <time>2026-07-07T16:14:42Z</time>
      </trkpt>
      <trkpt lat="54.490817980840802" lon="-5.447784019634128">
        <ele>13.119999999999999</ele>
        <time>2026-07-07T16:14:43Z</time>
      </trkpt>
      <trkpt lat="54.490866009145975" lon="-5.448024999350309">
        <ele>13.119999999999999</ele>
        <time>2026-07-07T16:14:44Z</time>
      </trkpt>
      <trkpt lat="54.491461040452123" lon="-5.450448961928487">
        <ele>13.6</ele>
        <time>2026-07-07T16:14:55Z</time>
      </trkpt>
      <trkpt lat="54.491860019043088" lon="-5.451814038679004">
        <ele>13.119999999999999</ele>
        <time>2026-07-07T16:15:04Z</time>
      </trkpt>
      <trkpt lat="54.492516992613673" lon="-5.453979000449181">
        <ele>14.56</ele>
        <time>2026-07-07T16:15:17Z</time>
      </trkpt>
      <trkpt lat="54.493339005857706" lon="-5.456306990236044">
        <ele>14.08</ele>
        <time>2026-07-07T16:15:32Z</time>
      </trkpt>
      <trkpt lat="54.494109973311424" lon="-5.457889996469021">
        <ele>15.039999999999999</ele>
        <time>2026-07-07T16:15:44Z</time>
      </trkpt>
      <trkpt lat="54.495171960443258" lon="-5.45995001681149">
        <ele>16</ele>
        <time>2026-07-07T16:15:59Z</time>
      </trkpt>
      <trkpt lat="54.495334988459945" lon="-5.460256962105632">
        <ele>16.48</ele>
        <time>2026-07-07T16:16:02Z</time>
      </trkpt>
      <trkpt lat="54.495577979832888" lon="-5.460761971771717">
        <ele>16</ele>
        <time>2026-07-07T16:16:10Z</time>
      </trkpt>
      <trkpt lat="54.495618967339396" lon="-5.460862973704934">
        <ele>16</ele>
        <time>2026-07-07T16:16:21Z</time>
      </trkpt>
      <trkpt lat="54.496016018092632" lon="-5.461550038307905">
        <ele>15.039999999999999</ele>
        <time>2026-07-07T16:16:28Z</time>
      </trkpt>
      <trkpt lat="54.496130011975765" lon="-5.461737038567662">
        <ele>15.039999999999999</ele>
        <time>2026-07-07T16:16:30Z</time>
      </trkpt>
      <trkpt lat="54.496175022795796" lon="-5.461810966953635">
        <ele>15.039999999999999</ele>
        <time>2026-07-07T16:16:31Z</time>
      </trkpt>
      <trkpt lat="54.496365962550044" lon="-5.462069967761636">
        <ele>14.56</ele>
        <time>2026-07-07T16:16:37Z</time>
      </trkpt>
      <trkpt lat="54.496365962550044" lon="-5.462069967761636">
        <ele>14.08</ele>
        <time>2026-07-07T16:16:38Z</time>
      </trkpt>
      <trkpt lat="54.496365962550044" lon="-5.462069967761636">
        <ele>14.56</ele>
        <time>2026-07-07T16:16:48Z</time>
      </trkpt>
      <trkpt lat="54.496365962550044" lon="-5.462069967761636">
        <ele>14.56</ele>
        <time>2026-07-07T16:16:55Z</time>
      </trkpt>
      <trkpt lat="54.496336961165071" lon="-5.462035015225411">
        <ele>14.56</ele>
        <time>2026-07-07T16:16:57Z</time>
      </trkpt>
      <trkpt lat="54.496295973658562" lon="-5.461985981091857">
        <ele>14.56</ele>
        <time>2026-07-07T16:16:58Z</time>
      </trkpt>
      <trkpt lat="54.496241994202137" lon="-5.461919009685516">
        <ele>14.56</ele>
        <time>2026-07-07T16:16:59Z</time>
      </trkpt>
      <trkpt lat="54.496190026402473" lon="-5.461834017187357">
        <ele>14.56</ele>
        <time>2026-07-07T16:17:00Z</time>
      </trkpt>
      <trkpt lat="54.495583008974791" lon="-5.460774963721633">
        <ele>16.48</ele>
        <time>2026-07-07T16:17:10Z</time>
      </trkpt>
      <trkpt lat="54.495528023689985" lon="-5.460636997595429">
        <ele>17.440000000000001</ele>
        <time>2026-07-07T16:17:16Z</time>
      </trkpt>
      <trkpt lat="54.495449988171458" lon="-5.460441028699279">
        <ele>18.399999999999999</ele>
        <time>2026-07-07T16:17:25Z</time>
      </trkpt>
      <trkpt lat="54.495406989008188" lon="-5.460333991795778">
        <ele>18.399999999999999</ele>
        <time>2026-07-07T16:17:26Z</time>
      </trkpt>
      <trkpt lat="54.495378993451595" lon="-5.460305996239185">
        <ele>18.399999999999999</ele>
        <time>2026-07-07T16:17:27Z</time>
      </trkpt>
      <trkpt lat="54.495385028421879" lon="-5.460376990959048">
        <ele>17.920000000000002</ele>
        <time>2026-07-07T16:17:28Z</time>
      </trkpt>
      <trkpt lat="54.495385028421879" lon="-5.460376990959048">
        <ele>17.920000000000002</ele>
        <time>2026-07-07T16:17:29Z</time>
      </trkpt>
      <trkpt lat="54.495331970974803" lon="-5.460502970963717">
        <ele>17.440000000000001</ele>
        <time>2026-07-07T16:17:30Z</time>
      </trkpt>
      <trkpt lat="54.495234992355108" lon="-5.460613025352359">
        <ele>16.960000000000001</ele>
        <time>2026-07-07T16:17:33Z</time>
      </trkpt>
      <trkpt lat="54.495234992355108" lon="-5.460613025352359">
        <ele>16.48</ele>
        <time>2026-07-07T16:17:34Z</time>
      </trkpt>
      <trkpt lat="54.495234992355108" lon="-5.460613025352359">
        <ele>16.48</ele>
        <time>2026-07-07T16:17:35Z</time>
      </trkpt>
      <trkpt lat="54.495234992355108" lon="-5.460613025352359">
        <ele>16</ele>
        <time>2026-07-07T16:17:47Z</time>
      </trkpt>
      <trkpt lat="54.495234992355108" lon="-5.460613025352359">
        <ele>15.52</ele>
        <time>2026-07-07T16:18:05Z</time>
      </trkpt>
      <trkpt lat="54.495234992355108" lon="-5.460613025352359">
        <ele>15.52</ele>
        <time>2026-07-07T16:18:23Z</time>
      </trkpt>
    </trkseg>
  </trk>

</gpx>